Site Date LOGGERID PROGID AIRTEMP_MEAN_150_0_04 AIRTEMP_MEAN_250_0_03 AIRTEMP_MEAN_350_0_02 AIRTEMP_MEAN_450_0_01 AIRTEMP_MEAN_350_0_08 RELHUM_MEAN_150_0_04 RELHUM_MEAN_450_0_01 DEWPT_MEAN_150_0_04 DEWPT_MEAN_450_0_01 SOILTEMP_MEAN_0_10_01 SOILTEMP_MEAN_0_20_02 SOILTEMP_MEAN_0_50_03 SOILTEMP_MEAN_0_100_04 SOILWC_MEAN_0_10_01 SOILWC_MEAN_0_20_02 SOILWC_MEAN_0_50_03 SOILWC_MEAN_0_100_04 SOLAR_MEAN_850_0_01 SNOWDEP_MED_0_0_01 SWE_MED_0_0_01 WSPD_PRO_MEAN_1000_0_01 WDIR_PRO_MEAN_1000_0_01 WDIR_PRO_STDDEV_1000_0_01 AIRTEMP_150_DIAG AIRTEMP_250_DIAG SNOW_DIAG AIRTEMP_MAX_150_0_04 AIRTEMP_MAX_250_0_03 AIRTEMP_MAX_350_0_02 AIRTEMP_MAX_350_0_08 AIRTEMP_MAX_450_0_01 DEWPT_MAX_150_0_04 DEWPT_MAX_450_0_01 AIRTEMP_MIN_150_0_04 AIRTEMP_MIN_250_0_03 AIRTEMP_MIN_350_0_02 AIRTEMP_MIN_350_0_08 AIRTEMP_MIN_450_0_01 DEWPT_MIN_150_0_04 DEWPT_MIN_450_0_01 WSPD_PRO_MAX_1000_0_01 SATVP_MEAN_150_0_04 VAP_MEAN_150_0_04 VPD_MEAN_150_0_04 SATVP_MEAN_450_0_01 VAP_MEAN_450_0_01 VPD_MEAN_450_0_01
VANMET_231 2017-10-01 00:00:00 231 11739.0 -39.580 4.651 4.731 4.453 4.781 100.000 100.000 -39.540 4.457 10.830 11.340 10.640 9.540 0.267 0.265 0.335 0.610 0.00 0.00 0.00 0.9190 246.40 26.65 1 1 0 -39.570 4.684 4.751 4.825 4.482 -39.540 4.486 -39.580 4.617 4.685 4.710 4.423 -39.540 4.426 1.9470 0.193 0.193 0.000 8.395 8.398 0.000
VANMET_231 2017-09-30 23:55:00 231 11739.0 -39.580 4.615 4.709 4.434 4.781 100.000 100.000 -39.540 4.437 10.840 11.350 10.640 9.540 0.268 0.265 0.335 0.610 0.01 0.00 0.00 0.9190 266.10 37.35 1 1 0 -39.570 4.641 4.731 4.833 4.453 -39.540 4.456 -39.580 4.593 4.686 4.736 4.416 -39.540 4.420 2.3190 0.193 0.193 0.000 8.384 8.386 0.000
VANMET_231 2017-09-30 23:50:00 231 11739.0 -39.580 4.669 4.752 4.467 4.819 100.000 100.000 -39.540 4.470 10.850 11.350 10.640 9.540 0.268 0.265 0.335 0.610 0.01 0.00 0.00 1.3740 231.80 24.75 1 1 0 -39.570 4.704 4.778 4.858 4.483 -39.540 4.486 -39.580 4.629 4.721 4.778 4.440 -39.540 4.443 2.3060 0.193 0.193 0.000 8.403 8.405 0.000
VANMET_231 2017-09-30 23:45:00 231 11739.0 -39.580 4.665 4.754 4.472 4.808 100.000 100.000 -39.540 4.476 10.850 11.350 10.640 9.540 0.266 0.265 0.335 0.610 0.00 0.00 0.00 0.8500 258.80 22.64 1 1 0 -39.570 4.683 4.766 4.853 4.486 -39.540 4.489 -39.580 4.653 4.746 4.765 4.463 -39.540 4.466 1.7710 0.193 0.193 0.000 8.406 8.409 0.000
VANMET_231 2017-09-30 23:40:00 231 11739.0 -39.580 4.684 4.762 4.481 4.815 100.000 100.000 -39.540 4.484 10.860 11.350 10.640 9.540 0.263 0.265 0.335 0.610 0.00 0.00 0.00 1.4400 227.00 19.98 1 1 0 -39.570 4.713 4.782 4.849 4.503 -39.540 4.506 -39.580 4.671 4.747 4.787 4.466 -39.540 4.469 2.7640 0.193 0.193 0.000 8.412 8.413 0.000
VANMET_231 2017-09-30 23:35:00 231 11739.0 -39.580 4.658 4.740 4.457 4.832 100.000 100.000 -39.540 4.461 10.870 11.360 10.640 9.540 0.259 0.263 0.335 0.610 0.00 0.00 0.00 0.8300 247.70 19.96 1 1 0 -39.570 4.722 4.791 4.890 4.512 -39.540 4.516 -39.580 4.584 4.676 4.771 4.416 -39.540 4.419 1.6070 0.193 0.193 0.000 8.398 8.400 0.000
VANMET_231 2017-09-30 23:30:00 231 11739.0 -39.580 4.608 4.696 4.443 4.747 100.000 100.000 -39.540 4.447 10.880 11.360 10.640 9.540 0.259 0.263 0.335 0.610 0.03 0.00 0.00 1.3470 240.30 28.35 1 1 0 -39.570 4.660 4.748 4.795 4.483 -39.540 4.486 -39.580 4.546 4.635 4.663 4.393 -39.540 4.396 2.6980 0.193 0.193 0.000 8.389 8.392 0.000
VANMET_231 2017-09-30 23:25:00 231 11739.0 -39.580 4.726 4.797 4.519 4.850 100.000 100.000 -39.540 4.522 10.890 11.360 10.640 9.540 0.259 0.263 0.335 0.610 0.00 0.00 0.00 1.0510 241.20 29.30 1 1 0 -39.570 4.777 4.847 4.944 4.559 -39.540 4.562 -39.580 4.664 4.743 4.773 4.486 -39.540 4.489 1.8950 0.193 0.193 0.000 8.434 8.436 0.000
VANMET_231 2017-09-30 23:20:00 231 11739.0 -39.580 4.721 4.796 4.505 4.871 100.000 100.000 -39.540 4.509 10.900 11.370 10.640 9.540 0.258 0.263 0.335 0.610 0.00 0.00 0.00 0.8580 223.50 19.93 1 1 0 -39.570 4.745 4.819 4.937 4.532 -39.540 4.535 -39.580 4.702 4.777 4.815 4.479 -39.540 4.483 1.9270 0.193 0.193 0.000 8.426 8.428 0.000
VANMET_231 2017-09-30 23:15:00 231 11739.0 -39.580 4.694 4.764 4.473 4.830 100.000 100.000 -39.540 4.477 10.910 11.370 10.640 9.540 0.258 0.263 0.335 0.610 0.00 0.00 0.00 0.9330 257.10 32.51 1 1 0 -39.570 4.720 4.789 4.880 4.500 -39.540 4.503 -39.580 4.660 4.738 4.778 4.446 -39.540 4.450 2.3060 0.193 0.193 0.000 8.407 8.409 0.000
VANMET_231 2017-09-30 23:10:00 231 11739.0 -39.580 4.675 4.739 4.456 4.806 100.000 100.000 -39.540 4.459 10.910 11.370 10.640 9.540 0.258 0.263 0.335 0.610 0.00 0.00 0.00 1.0800 232.60 18.15 1 1 0 -39.570 4.693 4.758 4.875 4.476 -39.540 4.480 -39.580 4.647 4.717 4.764 4.439 -39.540 4.443 2.7440 0.193 0.193 0.000 8.397 8.399 0.000
VANMET_231 2017-09-30 23:05:00 231 11739.0 -39.580 4.678 4.734 4.449 4.804 100.000 100.000 -39.540 4.453 10.920 11.380 10.640 9.540 0.258 0.263 0.335 0.610 0.00 0.00 0.00 0.9030 231.50 22.91 1 1 0 -39.570 4.699 4.749 4.841 4.473 -39.540 4.476 -39.580 4.652 4.719 4.752 4.430 -39.540 4.433 1.6070 0.193 0.193 0.000 8.393 8.395 0.000
VANMET_231 2017-09-30 23:00:00 231 11739.0 -39.580 4.689 4.765 4.475 4.805 100.000 100.000 -39.540 4.478 10.930 11.380 10.640 9.540 0.258 0.263 0.335 0.610 0.00 0.00 0.00 0.5640 249.80 18.20 1 1 0 -39.570 4.724 4.792 4.863 4.502 -39.540 4.506 -39.580 4.658 4.750 4.740 4.456 -39.540 4.460 0.9470 0.193 0.193 0.000 8.408 8.410 0.000
VANMET_231 2017-09-30 22:55:00 231 11739.0 -39.580 4.691 4.773 4.484 4.850 100.000 100.000 -39.540 4.487 10.940 11.380 10.640 9.540 0.258 0.263 0.335 0.610 0.00 0.00 0.00 0.6010 272.10 14.88 1 1 0 -39.570 4.723 4.804 4.919 4.509 -39.540 4.512 -39.580 4.638 4.727 4.777 4.446 -39.540 4.449 1.0780 0.193 0.193 0.000 8.413 8.415 0.000
VANMET_231 2017-09-30 22:50:00 231 11739.0 -39.580 4.709 4.772 4.478 4.844 100.000 100.000 -39.540 4.482 10.950 11.380 10.640 9.540 0.258 0.263 0.335 0.610 0.01 0.00 0.00 1.0710 217.10 16.91 1 1 0 -39.570 4.749 4.812 4.923 4.506 -39.540 4.509 -39.580 4.643 4.725 4.749 4.459 -39.540 4.463 2.2340 0.193 0.193 0.000 8.410 8.412 0.000
VANMET_231 2017-09-30 22:45:00 231 11739.0 -39.580 4.659 4.744 4.464 4.811 100.000 100.000 -39.540 4.467 10.960 11.390 10.640 9.540 0.257 0.263 0.335 0.610 0.00 0.00 0.00 0.6980 243.10 18.60 1 1 0 -39.570 4.679 4.754 4.873 4.483 -39.540 4.486 -39.580 4.647 4.732 4.777 4.443 -39.540 4.446 1.1370 0.193 0.193 0.000 8.402 8.403 0.000
VANMET_231 2017-09-30 22:40:00 231 11739.0 -39.580 4.622 4.712 4.426 4.777 100.000 100.000 -39.540 4.430 10.970 11.390 10.640 9.540 0.257 0.263 0.335 0.610 0.00 0.00 0.00 0.6890 260.30 29.65 1 1 0 -39.570 4.648 4.726 4.825 4.456 -39.540 4.459 -39.580 4.605 4.690 4.730 4.399 -39.540 4.403 1.1690 0.193 0.193 0.000 8.379 8.382 0.000
VANMET_231 2017-09-30 22:35:00 231 11739.0 -39.580 4.592 4.676 4.405 4.739 100.000 100.000 -39.540 4.408 10.970 11.390 10.640 9.540 0.257 0.263 0.335 0.610 0.00 0.00 0.00 1.0710 217.70 25.66 1 1 0 -39.570 4.605 4.695 4.775 4.426 -39.540 4.430 -39.580 4.578 4.662 4.708 4.383 -39.540 4.386 1.9990 0.193 0.193 0.000 8.367 8.369 0.000
VANMET_231 2017-09-30 22:30:00 231 11739.0 -39.580 4.619 4.702 4.429 4.757 100.000 100.000 -39.540 4.432 10.980 11.390 10.640 9.540 0.257 0.263 0.335 0.610 0.01 0.00 0.00 1.2500 231.00 31.75 1 1 0 -39.570 4.650 4.731 4.815 4.456 -39.540 4.459 -39.580 4.586 4.667 4.704 4.396 -39.540 4.400 2.2740 0.193 0.193 0.000 8.381 8.383 0.000
VANMET_231 2017-09-30 22:25:00 231 11739.0 -39.580 4.670 4.745 4.461 4.792 100.000 100.000 -39.540 4.464 10.990 11.400 10.640 9.540 0.257 0.263 0.335 0.610 0.00 0.00 0.00 1.0320 242.80 23.88 1 1 0 -39.570 4.693 4.774 4.863 4.496 -39.540 4.499 -39.580 4.623 4.707 4.743 4.426 -39.540 4.429 1.9670 0.193 0.193 0.000 8.400 8.402 0.000
VANMET_231 2017-09-30 22:20:00 231 11739.0 -39.580 4.679 4.748 4.453 4.827 100.000 100.000 -39.540 4.456 11.000 11.400 10.640 9.540 0.256 0.262 0.335 0.610 0.00 0.00 0.00 1.0150 240.80 38.99 1 1 0 -39.570 4.694 4.776 4.891 4.469 -39.540 4.473 -39.580 4.651 4.723 4.793 4.416 -39.540 4.419 1.6860 0.193 0.193 0.000 8.395 8.397 0.000
VANMET_231 2017-09-30 22:15:00 231 11739.0 -39.580 4.622 4.711 4.429 4.758 100.000 100.000 -39.540 4.433 11.010 11.400 10.640 9.540 0.256 0.262 0.335 0.610 0.00 0.00 0.00 0.8510 221.90 29.70 1 1 0 -39.570 4.638 4.730 4.802 4.450 -39.540 4.453 -39.580 4.590 4.682 4.702 4.413 -39.540 4.416 1.2810 0.193 0.193 0.000 8.381 8.383 0.000
VANMET_231 2017-09-30 22:10:00 231 11739.0 -39.580 4.645 4.707 4.418 4.766 100.000 100.000 -39.540 4.421 11.020 11.400 10.640 9.540 0.256 0.262 0.335 0.610 0.00 0.00 0.00 0.9850 202.40 23.37 1 1 0 -39.570 4.655 4.719 4.797 4.430 -39.540 4.433 -39.580 4.629 4.698 4.736 4.406 -39.540 4.410 1.5480 0.193 0.193 0.000 8.375 8.376 0.000
VANMET_231 2017-09-30 22:05:00 231 11739.0 -39.580 4.633 4.706 4.419 4.759 100.000 100.000 -39.540 4.423 11.030 11.410 10.640 9.540 0.256 0.262 0.335 0.610 0.00 0.00 0.00 1.0050 208.70 24.34 1 1 0 -39.570 4.653 4.718 4.797 4.443 -39.540 4.446 -39.580 4.608 4.689 4.707 4.403 -39.540 4.406 1.9340 0.193 0.193 0.000 8.375 8.378 0.000
VANMET_231 2017-09-30 22:00:00 231 11739.0 -39.580 4.601 4.681 4.393 4.738 100.000 100.000 -39.540 4.396 11.030 11.410 10.640 9.540 0.255 0.262 0.335 0.610 0.00 0.00 0.00 0.7540 228.30 35.90 1 1 0 -39.570 4.644 4.722 4.801 4.429 -39.540 4.433 -39.580 4.575 4.653 4.666 4.363 -39.540 4.366 1.4770 0.193 0.193 0.000 8.360 8.362 0.000
VANMET_231 2017-09-30 21:55:00 231 11739.0 -39.580 4.559 4.650 4.360 4.731 100.000 100.000 -39.540 4.363 11.040 11.410 10.640 9.540 0.255 0.262 0.335 0.610 0.00 0.00 0.00 0.8590 220.80 16.77 1 1 0 -39.570 4.617 4.699 4.794 4.406 -39.540 4.410 -39.580 4.509 4.604 4.642 4.330 -39.540 4.333 1.9010 0.193 0.193 0.000 8.341 8.342 0.000
VANMET_231 2017-09-30 21:50:00 231 11739.0 -39.580 4.584 4.657 4.382 4.688 100.000 100.000 -39.540 4.385 11.050 11.410 10.640 9.540 0.255 0.262 0.335 0.610 0.01 0.00 0.00 0.8290 230.70 25.65 1 1 0 -39.570 4.656 4.732 4.821 4.439 -39.540 4.443 -39.580 4.519 4.605 4.600 4.333 -39.540 4.336 1.3590 0.193 0.193 0.000 8.353 8.355 0.000
VANMET_231 2017-09-30 21:45:00 231 11739.0 -39.580 4.612 4.699 4.408 4.771 100.000 100.000 -39.540 4.412 11.060 11.420 10.640 9.540 0.254 0.262 0.335 0.610 0.00 0.00 0.00 0.7110 240.90 27.48 1 1 0 -39.570 4.646 4.728 4.825 4.429 -39.540 4.433 -39.580 4.589 4.675 4.728 4.389 -39.540 4.392 1.4900 0.193 0.193 0.000 8.369 8.371 0.000
VANMET_231 2017-09-30 21:40:00 231 11739.0 -39.580 4.595 4.672 4.390 4.722 100.000 100.000 -39.540 4.393 11.070 11.420 10.640 9.540 0.254 0.262 0.335 0.610 0.00 0.00 0.00 0.7980 218.50 25.30 1 1 0 -39.580 4.614 4.687 4.741 4.403 -39.540 4.406 -39.580 4.575 4.653 4.694 4.370 -39.540 4.373 1.3790 0.193 0.193 0.000 8.358 8.360 0.000
VANMET_231 2017-09-30 21:35:00 231 11739.0 -39.580 4.635 4.727 4.457 4.776 100.000 100.000 -39.540 4.460 11.080 11.420 10.640 9.540 0.253 0.262 0.335 0.610 0.01 0.00 0.00 0.8950 232.10 25.12 1 1 0 -39.580 4.697 4.781 4.863 4.502 -39.540 4.506 -39.580 4.528 4.624 4.603 4.396 -39.540 4.399 1.3460 0.193 0.193 0.000 8.398 8.399 0.000
VANMET_231 2017-09-30 21:30:00 231 11739.0 -39.580 4.617 4.705 4.405 4.797 100.000 100.000 -39.540 4.409 11.080 11.420 10.640 9.540 0.253 0.262 0.335 0.610 0.00 0.00 0.00 0.5170 234.20 19.27 1 1 0 -39.570 4.679 4.768 4.883 4.459 -39.540 4.462 -39.580 4.556 4.634 4.689 4.356 -39.540 4.360 1.0260 0.193 0.193 0.000 8.367 8.369 0.000
VANMET_231 2017-09-30 21:25:00 231 11739.0 -39.580 4.533 4.618 4.366 4.656 100.000 100.000 -39.540 4.369 11.090 11.430 10.640 9.540 0.252 0.262 0.335 0.610 0.02 0.00 0.00 0.7590 230.90 15.18 1 1 0 -39.580 4.554 4.633 4.707 4.403 -39.540 4.406 -39.580 4.517 4.605 4.609 4.336 -39.540 4.340 1.1830 0.193 0.193 0.000 8.344 8.346 0.000
VANMET_231 2017-09-30 21:20:00 231 11739.0 -39.580 4.644 4.728 4.466 4.752 100.000 100.000 -39.540 4.469 11.100 11.430 10.640 9.540 0.252 0.262 0.335 0.610 0.03 0.00 0.00 1.0190 225.50 17.39 1 1 0 -39.580 4.683 4.753 4.819 4.499 -39.540 4.503 -39.580 4.572 4.651 4.632 4.409 -39.540 4.413 1.6790 0.193 0.193 0.000 8.403 8.405 0.000
VANMET_231 2017-09-30 21:15:00 231 11739.0 -39.580 4.689 4.777 4.509 4.811 100.000 100.000 -39.540 4.512 11.110 11.430 10.640 9.540 0.252 0.262 0.335 0.610 0.01 0.00 0.00 0.4610 250.10 25.05 1 1 0 -39.570 4.736 4.822 4.888 4.536 -39.540 4.539 -39.580 4.633 4.731 4.718 4.469 -39.540 4.472 1.2280 0.193 0.193 0.000 8.428 8.430 0.000
VANMET_231 2017-09-30 21:10:00 231 11739.0 -39.580 4.783 4.855 4.549 4.897 100.000 100.000 -39.540 4.552 11.120 11.430 10.640 9.540 0.252 0.262 0.335 0.610 0.00 0.00 0.00 0.3490 201.30 34.64 1 1 0 -39.580 4.848 4.917 5.055 4.589 -39.540 4.592 -39.580 4.708 4.770 4.768 4.479 -39.540 4.483 0.6930 0.193 0.193 0.000 8.452 8.454 0.000
VANMET_231 2017-09-30 21:05:00 231 11739.0 -39.580 4.670 4.757 4.475 4.789 100.000 100.000 -39.540 4.479 11.120 11.430 10.640 9.540 0.252 0.262 0.335 0.610 0.01 0.00 0.00 0.7630 209.90 63.04 1 1 0 -39.570 4.696 4.778 4.833 4.496 -39.540 4.499 -39.580 4.661 4.735 4.747 4.449 -39.540 4.452 1.4700 0.193 0.193 0.000 8.408 8.410 0.000
VANMET_231 2017-09-30 21:00:00 231 11739.0 -39.580 4.686 4.770 4.475 4.828 100.000 100.000 -39.540 4.479 11.130 11.430 10.640 9.540 0.251 0.261 0.335 0.610 0.01 0.00 0.00 0.3600 194.20 43.87 1 1 0 -39.580 4.706 4.792 4.876 4.502 -39.540 4.506 -39.580 4.644 4.727 4.763 4.439 -39.540 4.442 1.4050 0.193 0.193 0.000 8.408 8.410 0.000
VANMET_231 2017-09-30 20:55:00 231 11739.0 -39.580 4.637 4.709 4.422 4.780 100.000 100.000 -39.540 4.425 11.140 11.440 10.640 9.540 0.251 0.261 0.335 0.610 0.00 0.00 0.00 0.6530 204.20 23.78 1 1 0 -39.580 4.655 4.741 4.848 4.449 -39.540 4.452 -39.580 4.614 4.677 4.713 4.399 -39.540 4.402 1.6860 0.193 0.193 0.000 8.377 8.379 0.000
VANMET_231 2017-09-30 20:50:00 231 11739.0 -39.580 4.573 4.659 4.394 4.730 100.000 100.000 -39.540 4.397 11.150 11.440 10.640 9.540 0.251 0.261 0.335 0.610 0.01 0.00 0.00 0.9060 211.30 22.00 1 1 0 -39.580 4.619 4.700 4.790 4.422 -39.540 4.425 -39.580 4.531 4.621 4.647 4.366 -39.540 4.369 1.6330 0.193 0.193 0.000 8.360 8.362 0.000
VANMET_231 2017-09-30 20:45:00 231 11739.0 -39.580 4.595 4.682 4.438 4.700 100.000 100.000 -39.540 4.441 11.150 11.440 10.640 9.540 0.250 0.261 0.335 0.610 0.05 0.00 0.00 1.4450 207.60 28.39 1 1 0 -39.580 4.696 4.784 4.817 4.515 -39.540 4.519 -39.580 4.546 4.634 4.654 4.379 -39.540 4.383 2.4370 0.193 0.193 0.000 8.386 8.388 0.000
VANMET_231 2017-09-30 20:40:00 231 11739.0 -39.580 4.707 4.788 4.515 4.853 100.000 100.000 -39.540 4.518 11.160 11.440 10.640 9.540 0.250 0.261 0.335 0.610 0.00 0.00 0.00 0.7500 233.70 26.80 1 1 0 -39.580 4.747 4.822 4.951 4.535 -39.540 4.539 -39.580 4.667 4.759 4.778 4.495 -39.540 4.499 1.3000 0.193 0.193 0.000 8.432 8.433 0.000
VANMET_231 2017-09-30 20:35:00 231 11739.0 -39.580 4.677 4.762 4.485 4.833 100.000 100.000 -39.540 4.488 11.170 11.440 10.640 9.540 0.250 0.261 0.335 0.610 0.00 0.00 0.00 0.4100 206.30 51.57 1 1 0 -39.580 4.717 4.795 4.931 4.525 -39.540 4.529 -39.580 4.647 4.729 4.760 4.449 -39.540 4.452 1.6070 0.193 0.193 0.000 8.414 8.416 0.000
VANMET_231 2017-09-30 20:30:00 231 11739.0 -39.580 4.648 4.730 4.446 4.795 100.000 100.000 -39.540 4.450 11.180 11.450 10.640 9.540 0.250 0.261 0.335 0.610 0.00 0.00 0.00 0.2360 247.60 36.11 1 1 0 -39.580 4.662 4.744 4.854 4.472 -39.540 4.476 -39.580 4.629 4.710 4.718 4.422 -39.540 4.425 0.7120 0.193 0.193 0.000 8.391 8.393 0.000
VANMET_231 2017-09-30 20:25:00 231 11739.0 -39.580 4.626 4.704 4.419 4.752 100.000 100.000 -39.540 4.422 11.180 11.450 10.640 9.540 0.250 0.261 0.335 0.610 0.00 0.00 0.00 0.9270 222.40 34.03 1 1 0 -39.580 4.657 4.728 4.798 4.448 -39.540 4.452 -39.580 4.586 4.667 4.708 4.382 -39.540 4.385 2.6260 0.193 0.193 0.000 8.375 8.377 0.000
VANMET_231 2017-09-30 20:20:00 231 11739.0 -39.580 4.611 4.682 4.405 4.714 100.000 100.000 -39.540 4.408 11.190 11.450 10.640 9.540 0.250 0.261 0.335 0.610 0.00 0.00 0.00 1.0500 229.50 15.04 1 1 0 -39.580 4.653 4.714 4.757 4.425 -39.540 4.429 -39.580 4.584 4.666 4.682 4.385 -39.540 4.389 1.6660 0.193 0.193 0.000 8.367 8.369 0.000
VANMET_231 2017-09-30 20:15:00 231 11739.0 -39.580 4.664 4.724 4.430 4.785 100.000 100.000 -39.540 4.433 11.200 11.450 10.640 9.540 0.250 0.261 0.335 0.610 0.00 0.00 0.00 0.9010 223.40 24.68 1 1 0 -39.580 4.682 4.743 4.850 4.449 -39.540 4.452 -39.580 4.650 4.701 4.734 4.412 -39.540 4.415 1.8420 0.193 0.193 0.000 8.382 8.383 0.000
VANMET_231 2017-09-30 20:10:00 231 11739.0 -39.580 4.677 4.746 4.454 4.807 100.000 100.000 -39.540 4.457 11.210 11.450 10.640 9.540 0.250 0.261 0.335 0.610 0.00 0.00 0.00 0.8230 227.90 37.52 1 1 0 -39.580 4.695 4.757 4.865 4.475 -39.540 4.479 -39.580 4.657 4.732 4.756 4.435 -39.540 4.438 1.2870 0.193 0.193 0.000 8.396 8.398 0.000
VANMET_231 2017-09-30 20:05:00 231 11739.0 -39.580 4.614 4.704 4.410 4.767 100.000 100.000 -39.540 4.414 11.210 11.450 10.640 9.540 0.250 0.261 0.335 0.610 0.00 0.00 0.00 0.6320 226.20 25.28 1 1 0 -39.580 4.652 4.744 4.825 4.435 -39.540 4.438 -39.580 4.570 4.668 4.713 4.389 -39.540 4.392 1.3650 0.193 0.193 0.000 8.370 8.372 0.000
VANMET_231 2017-09-30 20:00:00 231 11739.0 -39.580 4.570 4.674 4.396 4.711 100.000 100.000 -39.540 4.400 11.220 11.460 10.640 9.540 0.250 0.261 0.335 0.610 0.00 0.00 0.00 0.6970 218.80 22.44 1 1 0 -39.580 4.600 4.703 4.809 4.419 -39.540 4.422 -39.580 4.537 4.638 4.667 4.352 -39.540 4.355 1.8620 0.193 0.193 0.000 8.362 8.364 0.000
VANMET_231 2017-09-30 19:55:00 231 11739.0 -39.580 4.572 4.664 4.395 4.680 100.000 100.000 -39.540 4.398 11.230 11.460 10.640 9.540 0.250 0.261 0.335 0.610 0.00 0.00 0.00 0.9730 226.10 14.26 1 1 0 -39.580 4.621 4.697 4.739 4.432 -39.540 4.435 -39.580 4.528 4.630 4.635 4.352 -39.540 4.355 1.5750 0.193 0.193 0.000 8.361 8.363 0.000
VANMET_231 2017-09-30 19:50:00 231 11739.0 -39.580 4.665 4.738 4.456 4.766 100.000 100.000 -39.540 4.460 11.230 11.460 10.640 9.540 0.250 0.261 0.335 0.610 0.00 0.00 0.00 0.9910 223.50 30.83 1 1 0 -39.580 4.688 4.767 4.828 4.478 -39.540 4.481 -39.580 4.625 4.700 4.702 4.425 -39.540 4.428 2.1040 0.193 0.193 0.000 8.397 8.399 0.000
VANMET_231 2017-09-30 19:45:00 231 11739.0 -39.580 4.692 4.774 4.471 4.842 100.000 100.000 -39.540 4.474 11.240 11.460 10.640 9.540 0.250 0.261 0.335 0.610 0.00 0.00 0.00 0.7160 199.90 33.48 1 1 0 -39.580 4.734 4.816 4.936 4.511 -39.540 4.514 -39.580 4.599 4.695 4.706 4.401 -39.540 4.405 1.9080 0.193 0.193 0.000 8.406 8.408 0.000
VANMET_231 2017-09-30 19:40:00 231 11739.0 -39.580 4.605 4.698 4.408 4.745 100.000 100.000 -39.540 4.412 11.250 11.460 10.640 9.540 0.250 0.261 0.335 0.610 0.00 0.00 0.00 0.7940 236.50 44.26 1 1 0 -39.580 4.662 4.755 4.877 4.441 -39.540 4.445 -39.580 4.544 4.637 4.660 4.361 -39.540 4.365 1.4900 0.193 0.193 0.000 8.369 8.371 0.000
VANMET_231 2017-09-30 19:35:00 231 11739.0 -39.580 4.583 4.663 4.377 4.684 100.000 100.000 -39.540 4.380 11.250 11.460 10.640 9.540 0.250 0.261 0.335 0.610 0.00 0.00 0.00 0.8720 229.90 51.49 1 1 0 -39.580 4.632 4.695 4.759 4.398 -39.540 4.401 -39.580 4.532 4.634 4.621 4.355 -39.540 4.358 2.0250 0.193 0.193 0.000 8.351 8.352 0.000
VANMET_231 2017-09-30 19:30:00 231 11739.0 -39.580 4.615 4.677 4.389 4.703 100.000 100.000 -39.540 4.392 11.260 11.460 10.640 9.540 0.250 0.261 0.335 0.610 0.00 0.00 0.00 1.0340 240.70 30.68 1 1 0 -39.580 4.666 4.728 4.816 4.428 -39.540 4.431 -39.580 4.549 4.629 4.610 4.348 -39.540 4.351 1.6660 0.193 0.193 0.000 8.358 8.359 0.000
VANMET_231 2017-09-30 19:25:00 231 11739.0 -39.580 4.612 4.690 4.403 4.784 100.000 100.000 -39.540 4.406 11.260 11.470 10.640 9.540 0.250 0.261 0.335 0.610 0.00 0.00 0.00 0.4480 221.10 41.87 1 1 0 -39.580 4.655 4.726 4.831 4.427 -39.540 4.431 -39.580 4.564 4.635 4.675 4.361 -39.540 4.364 1.1960 0.193 0.193 0.000 8.366 8.368 0.000
VANMET_231 2017-09-30 19:20:00 231 11739.0 -39.580 4.568 4.648 4.380 4.672 100.000 100.000 -39.540 4.383 11.270 11.470 10.640 9.540 0.250 0.261 0.335 0.610 0.00 0.00 0.00 0.7710 233.10 15.87 1 1 0 -39.580 4.611 4.686 4.705 4.404 -39.540 4.408 -39.580 4.550 4.633 4.635 4.354 -39.540 4.358 1.3720 0.193 0.193 0.000 8.352 8.354 0.000
VANMET_231 2017-09-30 19:15:00 231 11739.0 -39.580 4.602 4.678 4.392 4.733 100.000 100.000 -39.540 4.395 11.280 11.470 10.640 9.540 0.250 0.261 0.335 0.610 0.00 0.00 0.00 0.7950 217.00 17.79 1 1 0 -39.580 4.624 4.694 4.807 4.417 -39.540 4.421 -39.580 4.560 4.647 4.689 4.361 -39.540 4.364 1.3980 0.193 0.193 0.000 8.359 8.361 0.000
VANMET_231 2017-09-30 19:10:00 231 11739.0 -39.580 4.579 4.659 4.385 4.692 100.000 100.000 -39.540 4.388 11.280 11.470 10.640 9.540 0.250 0.261 0.335 0.610 0.00 0.00 0.00 0.8120 222.50 51.22 1 1 0 -39.580 4.607 4.686 4.792 4.401 -39.540 4.404 -39.580 4.531 4.618 4.611 4.371 -39.540 4.374 1.6010 0.193 0.193 0.000 8.355 8.357 0.000
VANMET_231 2017-09-30 19:05:00 231 11739.0 -39.580 4.564 4.648 4.381 4.696 100.000 100.000 -39.540 4.384 11.290 11.470 10.640 9.540 0.250 0.260 0.335 0.610 0.00 0.00 0.00 0.9830 210.00 38.77 1 1 0 -39.580 4.607 4.693 4.753 4.401 -39.540 4.404 -39.580 4.538 4.630 4.666 4.357 -39.540 4.361 2.1760 0.193 0.193 0.000 8.353 8.355 0.000
VANMET_231 2017-09-30 19:00:00 231 11739.0 -39.580 4.585 4.648 4.378 4.713 100.000 100.000 -39.540 4.381 11.290 11.470 10.640 9.540 0.250 0.260 0.335 0.610 0.00 0.00 0.00 0.6070 210.00 20.73 1 1 0 -39.580 4.618 4.691 4.803 4.394 -39.540 4.397 -39.580 4.552 4.628 4.653 4.364 -39.540 4.367 1.2220 0.193 0.193 0.000 8.351 8.353 0.000
VANMET_231 2017-09-30 18:55:00 231 11739.0 -39.580 4.549 4.628 4.368 4.649 100.000 100.000 -39.540 4.371 11.290 11.470 10.640 9.540 0.250 0.260 0.335 0.610 0.00 0.00 0.00 0.5000 217.60 26.16 1 1 0 -39.580 4.580 4.663 4.677 4.390 -39.540 4.393 -39.580 4.533 4.612 4.622 4.350 -39.540 4.353 1.1240 0.193 0.193 0.000 8.345 8.347 0.000
VANMET_231 2017-09-30 18:50:00 231 11739.0 -39.580 4.602 4.670 4.378 4.739 100.000 100.000 -39.540 4.381 11.300 11.480 10.640 9.540 0.250 0.260 0.335 0.610 0.00 0.00 0.00 0.6220 198.20 20.24 1 1 0 -39.580 4.643 4.694 4.788 4.403 -39.540 4.406 -39.580 4.543 4.614 4.646 4.343 -39.540 4.346 1.2670 0.193 0.193 0.000 8.351 8.353 0.000
VANMET_231 2017-09-30 18:45:00 231 11739.0 -39.580 4.553 4.634 4.349 4.689 100.000 100.000 -39.540 4.352 11.300 11.480 10.640 9.540 0.250 0.260 0.335 0.610 0.00 0.00 0.00 0.5160 248.00 25.11 1 1 0 -39.580 4.567 4.642 4.738 4.360 -39.540 4.363 -39.580 4.538 4.617 4.640 4.333 -39.540 4.336 0.8690 0.193 0.193 0.000 8.334 8.336 0.000
VANMET_231 2017-09-30 18:40:00 231 11739.0 -39.580 4.595 4.662 4.380 4.698 100.000 100.000 -39.540 4.383 11.300 11.480 10.640 9.540 0.250 0.260 0.335 0.610 0.00 0.00 0.00 0.9850 229.20 18.51 1 1 0 -39.580 4.637 4.710 4.807 4.413 -39.540 4.416 -39.580 4.535 4.618 4.580 4.343 -39.540 4.347 1.7640 0.193 0.193 0.000 8.352 8.354 0.000
VANMET_231 2017-09-30 18:35:00 231 11739.0 -39.580 4.646 4.700 4.415 4.764 100.000 100.000 -39.540 4.418 11.310 11.480 10.640 9.540 0.250 0.260 0.335 0.610 0.00 0.00 0.00 0.7170 283.60 57.18 1 1 0 -39.580 4.667 4.718 4.843 4.429 -39.540 4.433 -39.580 4.622 4.682 4.709 4.396 -39.540 4.399 1.4180 0.193 0.193 0.000 8.373 8.375 0.000
VANMET_231 2017-09-30 18:30:00 231 11739.0 -39.580 4.661 4.720 4.415 4.804 100.000 100.000 -39.540 4.418 11.310 11.480 10.640 9.540 0.250 0.260 0.335 0.610 0.00 0.00 0.00 0.4100 260.20 18.00 1 1 0 -39.580 4.686 4.741 4.840 4.442 -39.540 4.446 -39.580 4.619 4.683 4.733 4.379 -39.540 4.382 0.9540 0.193 0.193 0.000 8.373 8.375 0.000
VANMET_231 2017-09-30 18:25:00 231 11739.0 -39.580 4.588 4.654 4.380 4.707 100.000 100.000 -39.540 4.383 11.310 11.480 10.640 9.540 0.250 0.260 0.335 0.610 0.00 0.00 0.00 0.4550 265.60 25.95 1 1 0 -39.580 4.608 4.676 4.809 4.395 -39.540 4.399 -39.580 4.566 4.636 4.627 4.362 -39.540 4.365 0.8750 0.193 0.193 0.000 8.352 8.354 0.000
VANMET_231 2017-09-30 18:20:00 231 11739.0 -39.580 4.591 4.674 4.394 4.718 100.000 100.000 -39.540 4.397 11.310 11.480 10.640 9.540 0.250 0.260 0.335 0.610 0.00 0.00 0.00 0.6420 223.70 10.56 1 1 0 -39.580 4.600 4.694 4.764 4.415 -39.540 4.418 -39.580 4.572 4.651 4.667 4.358 -39.550 4.362 1.0850 0.193 0.193 0.000 8.360 8.362 0.000
VANMET_231 2017-09-30 18:15:00 231 11739.0 -39.580 4.561 4.638 4.351 4.692 100.000 100.000 -39.540 4.354 11.310 11.490 10.640 9.540 0.249 0.260 0.335 0.610 0.00 0.00 0.00 0.2960 219.20 17.02 1 1 0 -39.580 4.594 4.672 4.744 4.392 -39.540 4.395 -39.580 4.547 4.622 4.629 4.325 -39.550 4.328 1.0130 0.193 0.193 0.000 8.335 8.337 0.000
VANMET_231 2017-09-30 18:10:00 231 11739.0 -39.580 4.546 4.634 4.342 4.670 100.000 100.000 -39.550 4.345 11.320 11.490 10.640 9.540 0.249 0.260 0.335 0.610 0.00 0.00 0.00 0.6180 216.90 10.58 1 1 0 -39.580 4.564 4.662 4.756 4.361 -39.540 4.365 -39.580 4.535 4.615 4.612 4.318 -39.550 4.321 1.0980 0.193 0.193 0.000 8.330 8.332 0.000
VANMET_231 2017-09-30 18:05:00 231 11739.0 -39.580 4.565 4.638 4.347 4.655 100.000 100.000 -39.550 4.351 11.320 11.490 10.640 9.540 0.249 0.259 0.335 0.610 0.17 0.00 0.00 1.0310 200.20 25.56 1 1 0 -39.580 4.620 4.680 4.765 4.391 -39.540 4.394 -39.580 4.522 4.596 4.546 4.308 -39.550 4.311 2.2410 0.193 0.193 0.000 8.333 8.335 0.000
VANMET_231 2017-09-30 18:00:00 231 11739.0 -39.580 4.652 4.721 4.467 4.734 100.000 100.000 -39.550 4.470 11.320 11.490 10.640 9.540 0.249 0.259 0.335 0.610 0.32 0.00 0.00 0.6590 215.20 21.34 1 1 0 -39.580 4.713 4.781 4.871 4.503 -39.540 4.507 -39.580 4.584 4.645 4.513 4.404 -39.550 4.407 1.4900 0.193 0.193 0.000 8.403 8.405 0.000
VANMET_231 2017-09-30 17:55:00 231 11739.0 -39.580 4.666 4.749 4.497 4.803 100.000 100.000 -39.550 4.500 11.320 11.490 10.640 9.540 0.249 0.259 0.335 0.610 0.37 0.00 0.00 0.5990 199.20 32.05 1 1 0 -39.580 4.728 4.796 4.908 4.539 -39.540 4.543 -39.580 4.618 4.707 4.690 4.472 -39.550 4.476 1.6270 0.193 0.193 0.000 8.421 8.423 0.000
VANMET_231 2017-09-30 17:50:00 231 11739.0 -39.580 4.649 4.742 4.495 4.743 100.000 100.000 -39.550 4.498 11.320 11.490 10.640 9.540 0.249 0.259 0.335 0.610 0.56 0.00 0.00 0.3360 185.80 33.77 1 1 0 -39.580 4.686 4.775 4.862 4.522 -39.540 4.526 -39.580 4.620 4.714 4.666 4.466 -39.550 4.469 0.8820 0.193 0.193 0.000 8.420 8.422 0.000
VANMET_231 2017-09-30 17:45:00 231 11739.0 -39.580 4.677 4.745 4.490 4.794 100.000 100.000 -39.550 4.494 11.310 11.500 10.640 9.540 0.249 0.259 0.335 0.610 0.99 0.00 0.00 0.7930 201.60 30.75 1 1 0 -39.580 4.715 4.780 4.865 4.545 -39.550 4.548 -39.580 4.667 4.732 4.729 4.475 -39.550 4.479 2.2740 0.193 0.193 0.000 8.417 8.419 0.000
VANMET_231 2017-09-30 17:40:00 231 11739.0 -39.580 4.706 4.774 4.509 4.826 100.000 100.000 -39.550 4.512 11.310 11.500 10.640 9.540 0.248 0.259 0.335 0.610 1.50 0.00 0.00 0.8050 205.60 55.10 1 1 0 -39.580 4.747 4.801 4.946 4.538 -39.550 4.542 -39.580 4.672 4.753 4.748 4.485 -39.550 4.488 1.5030 0.193 0.193 0.000 8.428 8.430 0.000
VANMET_231 2017-09-30 17:35:00 231 11739.0 -39.580 4.739 4.815 4.544 4.837 100.000 100.000 -39.550 4.547 11.310 11.500 10.640 9.540 0.248 0.259 0.335 0.610 2.71 0.00 0.00 0.8690 188.10 39.75 1 1 0 -39.580 4.792 4.868 4.938 4.578 -39.550 4.581 -39.580 4.683 4.754 4.745 4.512 -39.550 4.515 1.4630 0.193 0.193 0.000 8.449 8.451 0.000
VANMET_231 2017-09-30 17:30:00 231 11739.0 -39.580 4.685 4.783 4.515 4.804 99.900 100.000 -39.560 4.519 11.310 11.500 10.640 9.540 0.248 0.259 0.335 0.610 4.62 0.00 0.00 0.7090 225.80 64.84 1 1 0 -39.580 4.730 4.820 4.899 4.541 -39.550 4.545 -39.580 4.668 4.758 4.709 4.494 -39.560 4.498 1.3720 0.193 0.193 0.000 8.432 8.434 0.000
VANMET_231 2017-09-30 17:25:00 231 11739.0 -39.580 4.725 4.804 4.553 4.841 99.900 100.000 -39.560 4.557 11.310 11.500 10.640 9.540 0.248 0.258 0.335 0.610 6.90 0.00 0.00 0.3490 206.70 29.01 1 1 0 -39.580 4.763 4.843 4.941 4.590 -39.550 4.594 -39.580 4.682 4.765 4.690 4.504 -39.570 4.507 1.4630 0.193 0.193 0.000 8.454 8.457 0.000
VANMET_231 2017-09-30 17:20:00 231 11739.0 -39.580 4.690 4.764 4.508 4.769 99.500 100.000 -39.600 4.512 11.310 11.510 10.640 9.530 0.248 0.258 0.335 0.610 9.77 0.00 0.00 0.6370 135.20 44.14 1 1 0 -39.580 4.724 4.806 4.885 4.547 -39.580 4.550 -39.580 4.660 4.735 4.718 4.477 -39.630 4.480 1.6010 0.193 0.192 0.001 8.428 8.430 0.000
VANMET_231 2017-09-30 17:15:00 231 11739.0 -39.580 4.735 4.813 4.561 4.814 99.300 100.000 -39.620 4.564 11.310 11.510 10.640 9.540 0.247 0.258 0.335 0.610 9.82 0.00 0.00 0.9210 132.20 75.03 1 1 0 -39.580 4.793 4.863 4.933 4.596 -39.590 4.599 -39.580 4.698 4.778 4.722 4.523 -39.650 4.526 1.8290 0.193 0.192 0.001 8.459 8.461 0.000
VANMET_231 2017-09-30 17:10:00 231 11739.0 -39.580 4.725 4.816 4.565 4.802 98.800 100.000 -39.660 4.569 11.310 11.510 10.640 9.530 0.246 0.258 0.335 0.610 9.51 0.00 0.00 0.6800 22.96 91.20 1 1 0 -39.580 4.731 4.823 4.836 4.582 -39.610 4.586 -39.580 4.719 4.806 4.761 4.556 -39.680 4.559 1.5350 0.193 0.191 0.002 8.461 8.464 0.000
VANMET_231 2017-09-30 17:05:00 231 11739.0 -39.580 4.800 4.876 4.643 4.850 99.600 100.000 -39.590 4.647 11.310 11.510 10.640 9.530 0.245 0.258 0.335 0.610 10.63 0.00 0.00 0.7490 175.90 87.90 1 1 0 -39.580 4.871 4.931 4.996 4.708 -39.570 4.712 -39.580 4.736 4.816 4.764 4.575 -39.600 4.579 1.4960 0.193 0.192 0.001 8.508 8.510 0.000
VANMET_231 2017-09-30 17:00:00 231 11739.0 -39.580 4.854 4.952 4.755 4.903 99.200 100.000 -39.620 4.759 11.310 11.510 10.640 9.530 0.244 0.258 0.335 0.610 11.97 0.00 0.00 0.3560 231.30 71.24 1 1 0 -39.580 4.880 4.983 4.936 4.811 -39.600 4.815 -39.580 4.835 4.932 4.877 4.701 -39.650 4.705 1.1630 0.193 0.192 0.002 8.575 8.577 0.000
VANMET_231 2017-09-30 16:55:00 231 11739.0 -39.580 5.003 5.117 4.958 4.914 99.200 100.000 -39.630 4.962 11.310 11.510 10.640 9.530 0.243 0.258 0.335 0.610 7.59 0.00 0.00 0.6910 280.80 60.50 1 1 0 -39.580 5.222 5.316 5.018 5.219 -39.580 5.223 -39.580 4.883 4.994 4.813 4.798 -39.650 4.801 1.8880 0.193 0.192 0.002 8.697 8.700 0.000
VANMET_231 2017-09-30 16:50:00 231 11739.0 -39.580 5.596 5.691 5.461 5.612 100.000 100.000 -39.550 5.466 11.310 11.520 10.640 9.530 0.232 0.258 0.335 0.610 4.45 0.00 0.00 0.6230 201.90 56.90 1 1 0 -39.580 5.734 5.820 5.804 5.554 -39.550 5.558 -39.580 5.284 5.387 5.094 5.265 -39.570 5.269 1.9140 0.193 0.193 0.000 9.007 9.010 0.000
VANMET_231 2017-09-30 16:45:00 231 11739.0 -39.580 5.748 5.833 5.556 5.869 100.000 100.000 -39.550 5.560 11.300 11.520 10.640 9.530 0.230 0.258 0.335 0.610 2.94 0.00 0.00 0.5340 295.70 28.94 1 1 0 -39.580 5.768 5.849 5.927 5.574 -39.540 5.578 -39.580 5.737 5.818 5.813 5.541 -39.550 5.545 1.1240 0.193 0.193 0.000 9.067 9.070 0.000
VANMET_231 2017-09-30 16:40:00 231 11739.0 -39.580 5.747 5.822 5.548 5.840 100.000 100.000 -39.550 5.552 11.300 11.520 10.640 9.530 0.231 0.258 0.335 0.610 11.39 0.00 0.00 0.5470 261.40 22.80 1 1 0 -39.580 5.770 5.847 5.897 5.571 -39.540 5.575 -39.580 5.712 5.796 5.773 5.531 -39.560 5.535 1.2940 0.193 0.193 0.000 9.062 9.064 0.000
VANMET_231 2017-09-30 16:35:00 231 11739.0 -39.580 5.742 5.822 5.560 5.816 99.800 100.000 -39.560 5.565 11.290 11.520 10.640 9.530 0.231 0.258 0.335 0.610 15.64 0.00 0.00 0.9000 253.80 17.97 1 1 0 -39.580 5.767 5.845 5.850 5.601 -39.560 5.605 -39.580 5.708 5.795 5.788 5.517 -39.570 5.522 1.4700 0.193 0.193 0.000 9.070 9.073 0.000
VANMET_231 2017-09-30 16:30:00 231 11739.0 -39.580 5.807 5.877 5.604 5.860 99.700 100.000 -39.570 5.608 11.290 11.520 10.640 9.530 0.230 0.258 0.335 0.610 12.49 0.00 0.00 0.7530 250.70 12.22 1 1 0 -39.580 5.844 5.909 5.918 5.634 -39.560 5.638 -39.580 5.777 5.850 5.819 5.571 -39.580 5.575 1.7840 0.193 0.193 0.001 9.097 9.100 0.000
VANMET_231 2017-09-30 16:25:00 231 11739.0 -39.580 5.866 5.934 5.659 5.892 99.600 100.000 -39.580 5.663 11.290 11.530 10.640 9.530 0.230 0.258 0.335 0.610 10.84 0.00 0.00 0.7990 264.00 25.89 1 1 0 -39.580 5.914 5.973 5.938 5.700 -39.580 5.705 -39.580 5.818 5.882 5.829 5.624 -39.590 5.628 1.3390 0.193 0.193 0.001 9.132 9.135 0.000
VANMET_231 2017-09-30 16:20:00 231 11739.0 -39.580 5.944 6.011 5.735 5.983 99.500 100.000 -39.590 5.739 11.280 11.530 10.640 9.530 0.230 0.258 0.335 0.610 14.78 0.00 0.00 0.7280 253.00 21.92 1 1 0 -39.580 5.982 6.039 6.070 5.770 -39.580 5.775 -39.580 5.917 5.980 5.915 5.694 -39.600 5.698 1.3330 0.193 0.192 0.001 9.180 9.183 0.000
VANMET_231 2017-09-30 16:15:00 231 11739.0 -39.580 5.990 6.056 5.791 6.021 99.300 100.000 -39.610 5.796 11.280 11.530 10.640 9.530 0.230 0.258 0.335 0.610 27.13 0.00 0.00 0.9550 270.00 33.31 1 1 0 -39.580 6.016 6.090 6.095 5.843 -39.600 5.847 -39.580 5.961 6.025 5.956 5.753 -39.630 5.758 1.5880 0.193 0.192 0.001 9.216 9.219 0.000
VANMET_231 2017-09-30 16:10:00 231 11739.0 -39.580 6.095 6.159 5.914 6.121 99.200 100.000 -39.630 5.918 11.270 11.530 10.640 9.530 0.231 0.258 0.335 0.610 31.36 0.00 0.00 1.3200 247.10 35.72 1 1 0 -39.580 6.233 6.293 6.267 6.042 -39.610 6.047 -39.580 6.017 6.079 6.021 5.830 -39.640 5.834 3.2800 0.193 0.192 0.002 9.295 9.298 0.000
VANMET_231 2017-09-30 16:05:00 231 11739.0 -39.580 6.294 6.353 6.079 6.314 99.300 100.000 -39.610 6.084 11.270 11.540 10.640 9.530 0.230 0.258 0.335 0.610 29.49 0.00 0.00 0.8840 249.60 29.74 1 1 0 -39.580 6.363 6.395 6.426 6.112 -39.600 6.116 -39.580 6.232 6.296 6.242 6.039 -39.620 6.043 1.8360 0.193 0.192 0.001 9.402 9.405 0.000
VANMET_231 2017-09-30 16:00:00 231 11739.0 -39.580 6.305 6.342 6.071 6.332 99.100 100.000 -39.630 6.076 11.260 11.540 10.640 9.530 0.230 0.258 0.335 0.610 49.73 0.00 0.00 0.9720 241.80 19.25 1 1 0 -39.580 6.379 6.399 6.439 6.115 -39.600 6.120 -39.580 6.223 6.279 6.203 6.045 -39.670 6.050 2.2470 0.193 0.192 0.002 9.397 9.400 0.000
VANMET_231 2017-09-30 15:55:00 231 11739.0 -39.580 6.368 6.416 6.153 6.335 99.000 100.000 -39.640 6.158 11.260 11.540 10.640 9.530 0.230 0.258 0.335 0.610 46.06 0.00 0.00 0.8370 244.20 44.67 1 1 0 -39.580 6.427 6.480 6.406 6.205 -39.630 6.210 -39.580 6.331 6.394 6.275 6.125 -39.650 6.130 1.7440 0.193 0.191 0.002 9.450 9.453 0.000
VANMET_231 2017-09-30 15:50:00 231 11739.0 -39.580 6.456 6.488 6.187 6.439 99.100 100.000 -39.630 6.192 11.250 11.540 10.640 9.530 0.230 0.258 0.335 0.610 46.95 0.00 0.00 0.9200 238.00 22.87 1 1 0 -39.580 6.499 6.544 6.614 6.225 -39.620 6.230 -39.580 6.436 6.452 6.356 6.154 -39.650 6.159 1.7510 0.193 0.192 0.002 9.472 9.476 0.000
VANMET_231 2017-09-30 15:45:00 231 11739.0 -39.580 6.532 6.570 6.259 6.541 99.100 100.000 -39.630 6.261 11.250 11.550 10.640 9.530 0.230 0.258 0.335 0.610 73.70 0.00 0.00 0.9350 228.40 34.80 1 1 0 -39.580 6.640 6.684 6.735 6.324 -39.600 6.329 -39.580 6.460 6.484 6.384 6.197 -39.660 6.185 1.5420 0.193 0.192 0.002 9.520 9.521 0.000
VANMET_231 2017-09-30 15:40:00 231 11739.0 -39.580 6.414 6.468 6.188 6.380 98.600 99.700 -39.680 6.148 11.250 11.550 10.640 9.530 0.230 0.258 0.335 0.610 71.41 0.00 0.00 1.3220 224.40 15.94 1 1 0 -39.580 6.446 6.512 6.458 6.234 -39.660 6.187 -39.580 6.347 6.399 6.283 6.144 -39.700 6.098 2.5940 0.193 0.191 0.003 9.473 9.447 0.028
VANMET_231 2017-09-30 15:35:00 231 11739.0 -39.580 6.474 6.542 6.252 6.439 98.400 99.500 -39.690 6.183 11.240 11.550 10.640 9.530 0.230 0.258 0.335 0.610 55.05 0.00 0.00 0.9670 252.60 30.31 1 1 0 -39.580 6.494 6.567 6.541 6.281 -39.680 6.217 -39.580 6.452 6.517 6.351 6.221 -39.710 6.159 1.5880 0.193 0.190 0.003 9.515 9.470 0.048
VANMET_231 2017-09-30 15:30:00 231 11739.0 -39.580 6.477 6.539 6.262 6.407 98.300 99.000 -39.710 6.124 11.240 11.550 10.640 9.530 0.230 0.258 0.335 0.610 70.62 0.00 0.00 0.5930 277.50 26.15 1 1 0 -39.580 6.495 6.565 6.454 6.304 -39.700 6.181 -39.580 6.438 6.494 6.306 6.244 -39.720 6.078 1.0390 0.193 0.190 0.003 9.522 9.431 0.095
VANMET_231 2017-09-30 15:25:00 231 11739.0 -39.580 6.478 6.555 6.275 6.468 98.000 98.700 -39.740 6.091 11.240 11.560 10.640 9.530 0.230 0.258 0.335 0.610 92.80 0.00 0.00 0.7710 231.20 27.60 1 1 0 -39.580 6.510 6.602 6.568 6.297 -39.710 6.153 -39.580 6.444 6.503 6.361 6.248 -39.770 6.004 1.3000 0.193 0.189 0.004 9.530 9.410 0.124
VANMET_231 2017-09-30 15:20:00 231 11739.0 -39.580 6.494 6.562 6.318 6.417 97.200 97.900 -39.820 6.009 11.240 11.560 10.630 9.530 0.230 0.258 0.335 0.610 54.88 0.00 0.00 1.1980 233.70 32.00 1 1 0 -39.580 6.589 6.678 6.566 6.415 -39.780 6.133 -39.580 6.424 6.499 6.281 6.245 -39.860 5.926 2.7240 0.193 0.188 0.005 9.558 9.356 0.201
VANMET_231 2017-09-30 15:15:00 231 11739.0 -39.580 6.661 6.745 6.522 6.514 95.200 96.600 -40.020 6.018 11.230 11.560 10.630 9.530 0.230 0.258 0.335 0.610 45.71 0.00 0.00 1.2030 243.80 29.11 1 1 0 -39.580 6.879 6.939 6.659 6.697 -39.880 6.163 -39.580 6.547 6.643 6.410 6.421 -40.110 5.893 2.0060 0.193 0.184 0.009 9.694 9.362 0.330
VANMET_231 2017-09-30 15:10:00 231 11739.0 -39.580 7.206 7.249 6.939 6.818 95.000 95.100 -40.040 6.215 11.230 11.570 10.630 9.530 0.230 0.258 0.335 0.610 86.20 0.00 0.00 0.8780 243.90 35.86 1 1 0 -39.580 7.519 7.581 7.090 7.179 -39.980 6.500 -39.580 6.914 6.972 6.537 6.690 -40.160 5.923 2.0650 0.193 0.183 0.010 9.976 9.491 0.489
VANMET_231 2017-09-30 15:05:00 231 11739.0 -39.580 7.791 7.847 7.349 7.325 97.800 97.400 -39.760 6.963 11.230 11.570 10.630 9.530 0.230 0.258 0.335 0.610 181.60 0.00 0.00 0.9000 228.20 15.16 1 1 0 -39.580 8.010 8.030 7.611 7.439 -39.570 7.341 -39.580 7.557 7.626 7.056 7.215 -39.950 6.520 1.6010 0.193 0.189 0.004 10.261 9.993 0.267
VANMET_231 2017-09-30 15:00:00 231 11739.0 -39.580 7.389 7.415 6.938 7.126 99.100 99.100 -39.630 6.819 11.230 11.570 10.630 9.530 0.230 0.258 0.335 0.610 403.30 0.00 0.00 0.7130 210.90 15.11 1 1 0 -39.580 7.875 7.919 7.668 7.346 -39.570 7.323 -39.580 6.920 6.980 6.662 6.641 -39.730 6.454 1.0450 0.193 0.192 0.002 9.975 9.894 0.090
VANMET_231 2017-09-30 14:55:00 231 11739.0 -39.580 6.842 6.931 6.592 6.746 98.300 99.100 -39.710 6.462 11.230 11.570 10.630 9.530 0.230 0.258 0.335 0.610 201.60 0.00 0.00 0.5560 234.50 16.40 1 1 0 -39.580 6.901 6.995 6.913 6.641 -39.680 6.526 -39.580 6.752 6.828 6.588 6.492 -39.740 6.311 0.9150 0.193 0.190 0.003 9.741 9.654 0.088
VANMET_231 2017-09-30 14:50:00 231 11739.0 -39.580 6.628 6.694 6.380 6.489 97.300 97.900 -39.810 6.078 11.230 11.580 10.630 9.530 0.230 0.258 0.335 0.610 157.00 0.00 0.00 0.6180 240.00 31.05 1 1 0 -39.580 6.741 6.813 6.705 6.463 -39.730 6.271 -39.580 6.571 6.637 6.395 6.333 -39.920 5.930 0.9080 0.193 0.188 0.005 9.599 9.401 0.202
VANMET_231 2017-09-30 14:45:00 231 11739.0 -39.580 6.692 6.741 6.434 6.504 95.700 96.600 -39.960 5.938 11.230 11.580 10.630 9.530 0.230 0.258 0.335 0.610 94.60 0.00 0.00 0.9740 247.00 23.15 1 1 0 -39.580 6.769 6.812 6.749 6.513 -39.910 6.041 -39.580 6.591 6.645 6.337 6.367 -40.040 5.846 1.3790 0.193 0.185 0.008 9.635 9.310 0.328
VANMET_231 2017-09-30 14:40:00 231 11739.0 -39.580 6.881 6.915 6.650 6.508 92.900 94.000 -40.250 5.759 11.220 11.580 10.630 9.530 0.230 0.258 0.335 0.610 103.80 0.00 0.00 0.9810 232.10 26.97 1 1 0 -39.580 7.142 7.130 6.666 6.886 -40.030 5.997 -39.580 6.793 6.815 6.343 6.533 -40.590 5.427 2.2670 0.193 0.179 0.014 9.780 9.196 0.587
VANMET_231 2017-09-30 14:35:00 231 11739.0 -39.580 7.493 7.548 7.168 7.102 95.200 95.400 -40.010 6.491 11.220 11.590 10.630 9.530 0.230 0.258 0.335 0.610 150.70 0.00 0.00 1.1820 239.10 21.50 1 1 0 -39.580 7.696 7.731 7.426 7.285 -39.880 6.828 -39.580 7.179 7.181 6.650 6.916 -40.130 5.951 1.6790 0.193 0.184 0.009 10.134 9.673 0.466
VANMET_231 2017-09-30 14:30:00 231 11739.0 -39.580 7.650 7.696 7.247 7.207 96.300 96.500 -39.910 6.728 11.220 11.590 10.630 9.530 0.230 0.258 0.335 0.610 326.60 0.00 0.00 1.0080 219.20 34.76 1 1 0 -39.570 7.760 7.816 7.350 7.322 -39.860 6.864 -39.580 7.368 7.442 6.963 7.073 -39.990 6.510 1.7380 0.193 0.186 0.007 10.189 9.832 0.357
VANMET_231 2017-09-30 14:25:00 231 11739.0 -39.580 7.372 7.465 7.114 6.857 94.000 94.500 -40.140 6.297 11.220 11.590 10.630 9.530 0.230 0.258 0.335 0.610 274.80 0.00 0.00 0.9570 234.50 30.61 1 1 0 -39.570 7.554 7.665 7.096 7.326 -39.990 6.579 -39.580 7.225 7.327 6.682 6.980 -40.330 5.970 1.8620 0.193 0.182 0.012 10.097 9.545 0.555
VANMET_231 2017-09-30 14:20:00 231 11739.0 -39.570 7.818 7.938 7.539 7.251 94.700 95.500 -40.070 6.877 11.220 11.600 10.630 9.530 0.230 0.258 0.335 0.610 268.30 0.00 0.00 0.9810 247.60 26.30 1 1 0 -39.570 8.290 8.340 7.733 7.788 -39.860 7.425 -39.570 7.603 7.703 7.052 7.339 -40.220 6.630 2.2280 0.193 0.183 0.010 10.395 9.934 0.468
VANMET_231 2017-09-30 14:15:00 231 11739.0 -39.570 8.420 8.490 7.742 7.932 98.800 99.500 -39.660 7.677 11.220 11.600 10.630 9.530 0.230 0.258 0.335 0.610 510.80 0.00 0.00 1.4020 213.00 15.43 1 1 0 -39.570 8.830 8.940 8.760 8.080 -39.540 8.090 -39.570 7.946 7.947 7.362 7.173 -39.990 7.179 2.0510 0.193 0.191 0.002 10.540 10.493 0.053
VANMET_231 2017-09-30 14:10:00 231 11739.0 -39.570 7.313 7.326 6.700 6.852 100.000 100.000 -39.540 6.705 11.220 11.600 10.630 9.530 0.230 0.258 0.335 0.610 659.70 0.00 0.00 1.2340 210.80 11.42 1 1 0 -39.570 7.880 7.828 7.389 7.114 -39.540 7.119 -39.580 6.951 6.944 6.503 6.403 -39.540 6.408 1.6400 0.193 0.193 0.000 9.813 9.817 0.000
VANMET_231 2017-09-30 14:05:00 231 11739.0 -39.580 6.745 6.844 6.370 6.584 100.000 100.000 -39.540 6.376 11.220 11.610 10.630 9.530 0.230 0.258 0.335 0.610 309.30 0.00 0.00 0.8420 198.40 18.96 1 1 0 -39.570 6.962 6.981 6.951 6.466 -39.540 6.471 -39.580 6.537 6.654 6.388 6.216 -39.550 6.221 1.7250 0.193 0.193 0.000 9.593 9.597 0.000
VANMET_231 2017-09-30 14:00:00 231 11739.0 -39.580 6.393 6.454 6.038 6.351 99.900 100.000 -39.560 6.043 11.220 11.610 10.630 9.530 0.230 0.258 0.335 0.610 221.50 0.00 0.00 0.6980 215.50 16.17 1 1 0 -39.570 6.538 6.669 6.669 6.223 -39.540 6.228 -39.580 6.209 6.284 6.191 5.891 -39.580 5.895 0.9930 0.193 0.193 0.000 9.375 9.378 0.000
VANMET_231 2017-09-30 13:55:00 231 11739.0 -39.580 6.086 6.148 5.789 6.013 99.600 100.000 -39.580 5.794 11.220 11.610 10.630 9.530 0.230 0.258 0.335 0.610 143.40 0.00 0.00 0.7850 237.50 11.58 1 1 0 -39.570 6.167 6.250 6.238 5.848 -39.570 5.852 -39.580 6.046 6.113 5.926 5.764 -39.600 5.769 1.1040 0.193 0.193 0.001 9.215 9.218 0.000
VANMET_231 2017-09-30 13:50:00 231 11739.0 -39.580 6.085 6.091 5.729 5.984 99.700 100.000 -39.570 5.734 11.210 11.620 10.630 9.530 0.230 0.258 0.335 0.610 116.00 0.00 0.00 0.7210 217.70 24.88 1 1 0 -39.570 6.137 6.177 6.153 5.788 -39.560 5.792 -39.580 6.016 6.018 5.874 5.678 -39.580 5.683 1.6730 0.193 0.193 0.001 9.177 9.180 0.000
VANMET_231 2017-09-30 13:45:00 231 11739.0 -39.580 6.049 6.076 5.730 5.939 99.800 100.000 -39.560 5.735 11.210 11.620 10.630 9.530 0.230 0.258 0.335 0.610 144.20 0.00 0.00 0.5810 225.10 35.22 1 1 0 -39.570 6.119 6.125 6.101 5.775 -39.550 5.779 -39.580 5.975 6.018 5.773 5.681 -39.560 5.686 1.1430 0.193 0.193 0.000 9.177 9.180 0.000
VANMET_231 2017-09-30 13:40:00 231 11739.0 -39.580 6.006 6.051 5.723 5.920 99.800 100.000 -39.560 5.727 11.210 11.630 10.630 9.530 0.230 0.258 0.335 0.610 124.20 0.00 0.00 0.6990 210.00 45.48 1 1 0 -39.570 6.075 6.096 6.077 5.758 -39.550 5.762 -39.580 5.966 6.011 5.763 5.681 -39.580 5.686 1.4440 0.193 0.193 0.000 9.173 9.175 0.000
VANMET_231 2017-09-30 13:35:00 231 11739.0 -39.580 5.950 6.048 5.741 5.994 99.700 100.000 -39.570 5.746 11.210 11.630 10.630 9.530 0.230 0.258 0.335 0.610 95.10 0.00 0.00 0.6940 259.80 25.35 1 1 0 -39.570 5.998 6.096 6.177 5.774 -39.560 5.779 -39.580 5.890 5.986 5.844 5.707 -39.580 5.712 1.4050 0.193 0.193 0.001 9.184 9.187 0.000
VANMET_231 2017-09-30 13:30:00 231 11739.0 -39.570 5.981 6.052 5.735 6.023 99.800 100.000 -39.560 5.740 11.210 11.630 10.630 9.530 0.230 0.258 0.335 0.610 107.60 0.00 0.00 0.8620 257.00 33.20 1 1 0 -39.570 6.060 6.113 6.225 5.791 -39.550 5.795 -39.580 5.890 5.978 5.833 5.658 -39.580 5.662 1.4830 0.193 0.193 0.000 9.180 9.184 0.000
VANMET_231 2017-09-30 13:25:00 231 11739.0 -39.580 5.873 5.947 5.649 5.823 99.500 100.000 -39.590 5.654 11.210 11.640 10.630 9.530 0.230 0.258 0.335 0.610 107.10 0.00 0.00 1.0710 229.00 21.41 1 1 0 -39.570 5.970 6.045 5.990 5.728 -39.570 5.732 -39.580 5.801 5.893 5.689 5.605 -39.610 5.609 1.6460 0.193 0.192 0.001 9.126 9.129 0.000
VANMET_231 2017-09-30 13:20:00 231 11739.0 -39.580 6.009 6.082 5.749 5.989 99.800 100.000 -39.560 5.753 11.200 11.640 10.630 9.530 0.230 0.258 0.335 0.610 109.10 0.00 0.00 0.7050 246.90 26.13 1 1 0 -39.570 6.090 6.164 6.185 5.810 -39.550 5.815 -39.580 5.942 6.008 5.782 5.684 -39.570 5.689 1.3260 0.193 0.193 0.000 9.189 9.192 0.000
VANMET_231 2017-09-30 13:15:00 231 11739.0 -39.580 5.962 6.029 5.703 5.896 99.800 100.000 -39.560 5.707 11.200 11.650 10.630 9.530 0.229 0.258 0.335 0.610 134.60 0.00 0.00 0.5130 189.90 44.24 1 1 0 -39.570 6.007 6.069 6.068 5.751 -39.550 5.755 -39.580 5.925 5.990 5.745 5.651 -39.570 5.655 1.1500 0.193 0.193 0.000 9.160 9.163 0.000
VANMET_231 2017-09-30 13:10:00 231 11739.0 -39.580 5.937 5.991 5.697 5.848 99.800 100.000 -39.560 5.702 11.200 11.650 10.630 9.530 0.229 0.258 0.335 0.610 136.30 0.00 0.00 0.6350 205.10 31.52 1 1 0 -39.570 5.986 6.043 6.010 5.797 -39.560 5.802 -39.580 5.854 5.916 5.635 5.647 -39.560 5.652 1.0130 0.193 0.193 0.000 9.156 9.159 0.000
VANMET_231 2017-09-30 13:05:00 231 11739.0 -39.580 6.119 6.143 5.810 6.122 100.000 100.000 -39.550 5.814 11.200 11.650 10.630 9.530 0.229 0.258 0.335 0.610 103.00 0.00 0.00 0.9580 224.70 15.86 1 1 0 -39.570 6.221 6.256 6.311 5.877 -39.540 5.882 -39.580 5.982 6.028 5.866 5.718 -39.560 5.722 1.7250 0.193 0.193 0.000 9.228 9.231 0.000
VANMET_231 2017-09-30 13:00:00 231 11739.0 -39.580 6.072 6.053 5.729 6.010 100.000 100.000 -39.540 5.733 11.190 11.660 10.630 9.530 0.230 0.258 0.335 0.610 92.70 0.00 0.00 0.7320 234.80 15.81 1 1 0 -39.570 6.109 6.109 6.155 5.771 -39.540 5.775 -39.580 6.028 6.008 5.843 5.704 -39.550 5.708 1.4240 0.193 0.193 0.000 9.177 9.179 0.000
VANMET_231 2017-09-30 12:55:00 231 11739.0 -39.580 6.046 6.058 5.773 6.065 100.000 100.000 -39.540 5.777 11.190 11.660 10.630 9.530 0.230 0.258 0.335 0.610 150.40 0.00 0.00 0.8490 196.30 24.49 1 1 0 -39.570 6.157 6.163 6.259 5.830 -39.540 5.835 -39.580 5.956 5.942 5.795 5.707 -39.540 5.712 1.7180 0.193 0.193 0.000 9.205 9.207 0.000
VANMET_231 2017-09-30 12:50:00 231 11739.0 -39.580 5.859 5.911 5.614 5.957 99.900 100.000 -39.550 5.618 11.190 11.670 10.630 9.530 0.230 0.258 0.335 0.610 121.80 0.00 0.00 0.9460 218.50 43.29 1 1 0 -39.580 5.972 6.033 6.119 5.730 -39.540 5.735 -39.580 5.757 5.813 5.804 5.521 -39.570 5.525 2.6200 0.193 0.193 0.000 9.104 9.106 0.000
VANMET_231 2017-09-30 12:45:00 231 11739.0 -39.580 5.815 5.853 5.578 5.811 99.800 100.000 -39.570 5.583 11.190 11.670 10.630 9.530 0.229 0.258 0.335 0.610 78.58 0.00 0.00 1.2140 202.50 39.23 1 1 0 -39.570 5.923 5.942 5.982 5.630 -39.550 5.635 -39.580 5.697 5.736 5.678 5.497 -39.590 5.502 3.0710 0.193 0.193 0.000 9.081 9.084 0.000
VANMET_231 2017-09-30 12:40:00 231 11739.0 -39.580 5.841 5.872 5.592 5.844 99.700 100.000 -39.570 5.597 11.180 11.680 10.630 9.530 0.229 0.258 0.335 0.610 113.90 0.00 0.00 1.1460 225.80 27.88 1 1 0 -39.580 5.947 5.961 6.101 5.634 -39.550 5.638 -39.580 5.767 5.804 5.696 5.560 -39.580 5.565 2.2280 0.193 0.193 0.001 9.090 9.093 0.000
VANMET_231 2017-09-30 12:35:00 231 11739.0 -39.580 5.907 5.959 5.653 5.940 99.800 100.000 -39.560 5.657 11.180 11.680 10.630 9.530 0.229 0.258 0.335 0.610 112.50 0.00 0.00 1.0180 211.00 44.35 1 1 0 -39.570 5.985 6.044 6.150 5.707 -39.550 5.711 -39.580 5.823 5.860 5.764 5.590 -39.580 5.595 2.1360 0.193 0.193 0.000 9.128 9.131 0.000
VANMET_231 2017-09-30 12:30:00 231 11739.0 -39.580 5.909 5.928 5.640 5.917 99.900 100.000 -39.560 5.645 11.180 11.690 10.630 9.530 0.229 0.258 0.335 0.610 117.00 0.00 0.00 0.7870 239.90 27.91 1 1 0 -39.570 5.972 5.986 6.048 5.670 -39.550 5.675 -39.580 5.855 5.882 5.818 5.594 -39.570 5.598 1.6070 0.193 0.193 0.000 9.120 9.123 0.000
VANMET_231 2017-09-30 12:25:00 231 11739.0 -39.580 5.807 5.864 5.581 5.859 99.500 100.000 -39.590 5.585 11.180 11.690 10.630 9.530 0.229 0.258 0.335 0.610 88.60 0.00 0.00 1.1910 221.90 29.01 1 1 0 -39.570 5.872 5.900 5.926 5.607 -39.570 5.611 -39.580 5.708 5.770 5.679 5.547 -39.620 5.551 2.3130 0.193 0.192 0.001 9.083 9.085 0.000
VANMET_231 2017-09-30 12:20:00 231 11739.0 -39.580 5.764 5.801 5.520 5.777 99.300 100.000 -39.610 5.525 11.170 11.700 10.630 9.530 0.229 0.258 0.335 0.610 96.00 0.00 0.00 0.9650 232.40 20.35 1 1 0 -39.580 5.870 5.873 5.934 5.580 -39.580 5.584 -39.580 5.673 5.738 5.648 5.460 -39.640 5.465 1.6660 0.193 0.192 0.001 9.044 9.047 0.000
VANMET_231 2017-09-30 12:15:00 231 11739.0 -39.580 5.681 5.753 5.492 5.672 98.700 100.000 -39.670 5.496 11.170 11.700 10.630 9.530 0.229 0.258 0.335 0.610 80.90 0.00 0.00 1.1400 209.60 38.96 1 1 0 -39.570 5.751 5.842 5.805 5.560 -39.640 5.564 -39.580 5.646 5.704 5.599 5.440 -39.700 5.444 2.1560 0.193 0.191 0.003 9.027 9.029 0.000
VANMET_231 2017-09-30 12:10:00 231 11739.0 -39.580 5.784 5.867 5.592 5.750 98.600 99.900 -39.680 5.586 11.170 11.710 10.620 9.530 0.229 0.258 0.335 0.610 69.20 0.00 0.00 0.7090 247.40 39.29 1 1 0 -39.570 5.855 5.930 5.958 5.639 -39.670 5.635 -39.580 5.708 5.796 5.649 5.546 -39.700 5.547 1.5420 0.193 0.191 0.003 9.090 9.086 0.009
VANMET_231 2017-09-30 12:05:00 231 11739.0 -39.580 5.883 5.931 5.642 5.798 98.600 99.700 -39.680 5.601 11.170 11.710 10.620 9.530 0.229 0.258 0.335 0.610 68.25 0.00 0.00 0.8590 244.00 28.95 1 1 0 -39.570 5.953 5.989 5.897 5.699 -39.660 5.650 -39.580 5.795 5.842 5.677 5.583 -39.700 5.539 1.5940 0.193 0.191 0.003 9.121 9.095 0.027
VANMET_231 2017-09-30 12:00:00 231 11739.0 -39.580 5.957 6.016 5.698 5.884 98.700 99.500 -39.670 5.637 11.160 11.720 10.620 9.530 0.229 0.258 0.335 0.610 71.81 0.00 0.00 0.5060 240.80 25.58 1 1 0 -39.570 5.981 6.058 5.987 5.729 -39.660 5.692 -39.580 5.925 5.986 5.811 5.673 -39.680 5.586 0.8230 0.193 0.191 0.003 9.157 9.118 0.046
VANMET_231 2017-09-30 11:55:00 231 11739.0 -39.580 6.000 6.049 5.731 5.873 98.800 99.300 -39.660 5.639 11.160 11.720 10.620 9.530 0.229 0.258 0.335 0.610 83.70 0.00 0.00 0.6110 223.10 33.13 1 1 0 -39.570 6.056 6.113 6.101 5.786 -39.650 5.715 -39.580 5.915 5.971 5.696 5.666 -39.680 5.567 1.3130 0.193 0.191 0.002 9.178 9.119 0.064
VANMET_231 2017-09-30 11:50:00 231 11739.0 -39.580 5.929 6.018 5.694 5.926 97.800 98.700 -39.760 5.503 11.160 11.730 10.620 9.530 0.229 0.258 0.335 0.610 83.70 0.00 0.00 0.3800 238.20 21.86 1 1 0 -39.570 6.049 6.119 6.056 5.779 -39.680 5.678 -39.580 5.844 5.934 5.732 5.633 -39.830 5.359 0.7910 0.193 0.189 0.004 9.154 9.034 0.119
VANMET_231 2017-09-30 11:45:00 231 11739.0 -39.580 5.866 5.938 5.663 5.695 96.600 97.500 -39.870 5.307 11.160 11.730 10.620 9.530 0.229 0.258 0.335 0.610 95.90 0.00 0.00 0.7440 226.70 26.48 1 1 0 -39.570 5.904 5.981 5.865 5.686 -39.820 5.400 -39.580 5.827 5.905 5.553 5.623 -39.920 5.202 1.6730 0.193 0.187 0.007 9.135 8.911 0.228
VANMET_231 2017-09-30 11:40:00 231 11739.0 -39.580 6.117 6.158 5.878 5.890 98.000 99.000 -39.740 5.733 11.160 11.740 10.620 9.530 0.229 0.258 0.335 0.610 113.10 0.00 0.00 0.8760 237.80 22.90 1 1 0 -39.570 6.224 6.256 6.156 5.952 -39.680 5.885 -39.580 5.925 5.945 5.606 5.720 -39.890 5.277 1.9080 0.193 0.189 0.004 9.272 9.179 0.093
VANMET_231 2017-09-30 11:35:00 231 11739.0 -39.580 6.154 6.252 5.924 6.079 98.300 99.400 -39.710 5.846 11.160 11.740 10.620 9.530 0.229 0.258 0.335 0.610 136.20 0.00 0.00 0.5510 214.40 34.01 1 1 0 -39.570 6.247 6.355 6.371 5.988 -39.670 5.946 -39.580 6.076 6.163 5.754 5.865 -39.740 5.758 0.9410 0.193 0.190 0.003 9.301 9.251 0.056
VANMET_231 2017-09-30 11:30:00 231 11739.0 -39.580 6.192 6.268 5.975 6.097 98.700 99.800 -39.670 5.954 11.150 11.750 10.620 9.530 0.229 0.258 0.335 0.610 144.50 0.00 0.00 0.7130 243.10 22.40 1 1 0 -39.570 6.315 6.378 6.638 6.048 -39.620 6.053 -39.580 6.078 6.157 5.823 5.885 -39.730 5.789 1.4440 0.193 0.191 0.003 9.334 9.321 0.019
VANMET_231 2017-09-30 11:25:00 231 11739.0 -39.580 6.116 6.159 5.840 6.094 99.100 99.800 -39.630 5.811 11.150 11.760 10.620 9.530 0.229 0.258 0.335 0.610 167.80 0.00 0.00 0.5100 230.80 18.17 1 1 0 -39.570 6.229 6.290 6.370 5.938 -39.620 5.943 -39.580 6.017 6.027 5.934 5.713 -39.650 5.622 0.9280 0.193 0.192 0.002 9.247 9.229 0.018
VANMET_231 2017-09-30 11:20:00 231 11739.0 -39.580 5.925 5.954 5.635 5.846 98.400 98.800 -39.700 5.463 11.150 11.760 10.620 9.530 0.229 0.258 0.335 0.610 106.90 0.00 0.00 0.4840 230.10 23.35 1 1 0 -39.570 6.017 6.029 5.986 5.716 -39.660 5.614 -39.580 5.864 5.901 5.665 5.590 -39.730 5.357 0.8040 0.193 0.190 0.003 9.117 9.009 0.109
VANMET_231 2017-09-30 11:15:00 231 11739.0 -39.580 5.807 5.885 5.584 5.655 97.500 97.900 -39.790 5.289 11.150 11.770 10.620 9.530 0.229 0.258 0.335 0.610 86.20 0.00 0.00 0.3620 179.40 30.39 1 1 0 -39.570 5.857 5.925 5.796 5.613 -39.730 5.364 -39.580 5.769 5.856 5.540 5.557 -39.840 5.230 0.9870 0.193 0.188 0.005 9.085 8.900 0.191
VANMET_231 2017-09-30 11:10:00 231 11739.0 -39.580 5.847 5.927 5.642 5.642 96.500 97.200 -39.890 5.245 11.150 11.770 10.620 9.530 0.230 0.258 0.335 0.610 78.11 0.00 0.00 0.4570 192.40 24.82 1 1 0 -39.570 5.920 5.994 5.727 5.704 -39.850 5.276 -39.580 5.817 5.891 5.559 5.587 -39.910 5.219 1.2540 0.193 0.186 0.007 9.121 8.873 0.255
VANMET_231 2017-09-30 11:05:00 231 11739.0 -39.580 6.083 6.142 5.829 5.823 96.900 97.100 -39.850 5.403 11.160 11.780 10.620 9.530 0.230 0.258 0.335 0.610 98.40 0.00 0.00 0.7450 200.60 26.79 1 1 0 -39.570 6.175 6.272 6.122 5.946 -39.800 5.602 -39.580 5.941 6.017 5.603 5.714 -39.920 5.229 1.1830 0.193 0.187 0.006 9.240 8.971 0.268
VANMET_231 2017-09-30 11:00:00 231 11739.0 -39.580 6.087 6.192 5.900 5.735 95.300 95.800 -40.010 5.293 11.160 11.790 10.620 9.530 0.230 0.258 0.335 0.610 148.80 0.00 0.00 0.3290 257.60 46.51 1 1 0 -39.570 6.214 6.287 6.047 5.983 -39.880 5.429 -39.580 6.019 6.135 5.525 5.847 -40.100 5.165 0.5810 0.193 0.184 0.009 9.286 8.903 0.390
VANMET_231 2017-09-30 10:55:00 231 11739.0 -39.580 6.329 6.391 6.045 6.017 96.100 96.000 -39.920 5.460 11.160 11.790 10.620 9.530 0.230 0.258 0.335 0.610 144.80 0.00 0.00 0.4040 240.10 34.85 1 1 0 -39.570 6.366 6.434 6.148 6.076 -39.870 5.532 -39.580 6.277 6.325 5.889 6.002 -39.970 5.279 0.7970 0.193 0.186 0.008 9.380 9.007 0.375
VANMET_231 2017-09-30 10:50:00 231 11739.0 -39.580 6.257 6.320 5.961 6.070 95.800 95.300 -39.950 5.277 11.160 11.800 10.620 9.530 0.229 0.258 0.335 0.610 208.40 0.00 0.00 0.6340 235.70 24.46 1 1 0 -39.570 6.400 6.466 6.298 6.073 -39.850 5.598 -39.580 6.052 6.115 5.812 5.830 -40.160 4.823 1.0580 0.193 0.185 0.008 9.325 8.893 0.438
VANMET_231 2017-09-30 10:45:00 231 11739.0 -39.580 6.036 6.119 5.821 5.775 93.000 92.400 -40.240 4.686 11.160 11.800 10.620 9.530 0.229 0.258 0.335 0.610 220.50 0.00 0.00 0.8640 247.40 43.80 1 1 0 -39.570 6.087 6.193 5.918 5.867 -40.030 5.017 -39.580 5.999 6.074 5.603 5.764 -40.580 4.413 1.6200 0.193 0.180 0.013 9.235 8.533 0.702
VANMET_231 2017-09-30 10:40:00 231 11739.0 -39.580 6.103 6.199 5.898 5.758 93.100 92.600 -40.230 4.796 11.170 11.810 10.620 9.530 0.229 0.258 0.335 0.610 195.80 0.00 0.00 1.0260 226.10 25.78 1 1 0 -39.570 6.296 6.395 6.033 6.044 -39.880 5.528 -39.580 6.003 6.105 5.556 5.831 -40.610 4.215 2.3720 0.193 0.180 0.013 9.285 8.599 0.687
VANMET_231 2017-09-30 10:35:00 231 11739.0 -39.580 6.307 6.413 6.041 5.960 94.400 94.100 -40.090 5.168 11.170 11.820 10.620 9.530 0.229 0.258 0.335 0.610 154.60 0.00 0.00 0.6820 238.50 23.39 1 1 0 -39.570 6.429 6.562 6.058 6.167 -39.930 5.463 -39.580 6.262 6.354 5.779 5.987 -40.280 4.756 1.4570 0.193 0.183 0.011 9.377 8.825 0.553
VANMET_231 2017-09-30 10:30:00 231 11739.0 -39.580 6.529 6.698 6.213 6.016 94.300 94.000 -40.100 5.328 11.170 11.820 10.620 9.530 0.229 0.258 0.335 0.610 222.20 0.00 0.00 0.4940 249.50 21.59 1 1 0 -39.570 6.582 6.768 6.231 6.250 -40.010 5.504 -39.580 6.459 6.596 5.784 6.164 -40.290 5.011 0.8430 0.193 0.182 0.011 9.489 8.924 0.569
VANMET_231 2017-09-30 10:25:00 231 11739.0 -39.580 6.439 6.588 6.109 5.974 93.600 93.700 -40.180 5.177 11.180 11.830 10.620 9.530 0.229 0.258 0.335 0.610 265.00 0.00 0.00 0.3270 254.00 16.21 1 1 0 -39.570 6.559 6.757 6.257 6.201 -40.030 5.440 -39.580 6.348 6.480 5.786 6.058 -40.290 5.033 0.4830 0.193 0.181 0.012 9.421 8.831 0.594
VANMET_231 2017-09-30 10:20:00 231 11739.0 -39.580 6.363 6.498 6.123 5.975 95.600 96.000 -39.980 5.536 11.180 11.830 10.620 9.530 0.229 0.258 0.335 0.610 228.70 0.00 0.00 0.5750 258.30 13.87 1 1 0 -39.580 6.456 6.569 6.259 6.172 -39.830 5.782 -39.580 6.292 6.420 5.735 6.052 -40.250 5.121 1.2020 0.193 0.185 0.008 9.430 9.054 0.377
VANMET_231 2017-09-30 10:15:00 231 11739.0 -39.580 6.412 6.499 6.134 6.093 97.000 97.400 -39.840 5.754 11.190 11.840 10.620 9.530 0.229 0.258 0.335 0.610 223.50 0.00 0.00 0.6510 239.50 21.58 1 1 0 -39.580 6.492 6.582 6.261 6.176 -39.730 5.952 -39.580 6.372 6.454 5.911 6.099 -39.920 5.650 1.0520 0.193 0.187 0.006 9.438 9.193 0.245
VANMET_231 2017-09-30 10:10:00 231 11739.0 -39.580 6.331 6.435 6.052 6.148 97.200 97.800 -39.820 5.738 11.190 11.850 10.620 9.530 0.229 0.258 0.335 0.610 221.90 0.00 0.00 0.5280 209.90 14.18 1 1 0 -39.580 6.471 6.578 6.262 6.199 -39.740 5.985 -39.580 6.226 6.293 5.920 5.936 -39.940 5.476 0.7640 0.193 0.188 0.005 9.384 9.182 0.206
VANMET_231 2017-09-30 10:05:00 231 11739.0 -39.580 6.275 6.304 5.936 5.875 96.200 96.700 -39.920 5.456 11.200 11.850 10.620 9.530 0.229 0.258 0.335 0.610 159.80 0.00 0.00 0.5400 258.30 29.12 1 1 0 -39.580 6.338 6.349 6.057 5.960 -39.870 5.494 -39.580 6.211 6.279 5.783 5.907 -39.950 5.401 0.8950 0.193 0.186 0.007 9.309 9.004 0.307
VANMET_231 2017-09-30 10:00:00 231 11739.0 -39.580 6.314 6.377 5.954 5.933 96.200 96.600 -39.910 5.452 11.210 11.860 10.620 9.530 0.229 0.258 0.335 0.610 173.30 0.00 0.00 0.6320 206.00 25.74 1 1 0 -39.580 6.367 6.413 6.011 5.980 -39.870 5.490 -39.580 6.217 6.340 5.822 5.938 -39.990 5.405 1.1630 0.193 0.186 0.007 9.321 9.002 0.317
VANMET_231 2017-09-30 09:55:00 231 11739.0 -39.580 6.217 6.389 6.002 5.845 95.100 95.800 -40.030 5.392 11.210 11.860 10.620 9.530 0.229 0.258 0.335 0.610 196.50 0.00 0.00 0.7120 205.90 33.86 1 1 0 -39.580 6.311 6.533 6.050 6.067 -39.920 5.587 -39.580 6.113 6.289 5.615 5.921 -40.180 5.104 1.3390 0.193 0.184 0.009 9.352 8.964 0.393
VANMET_231 2017-09-30 09:50:00 231 11739.0 -39.580 6.316 6.458 6.048 5.751 94.300 95.800 -40.110 5.426 11.220 11.870 10.620 9.530 0.229 0.258 0.335 0.610 248.20 0.00 0.00 0.3900 272.60 38.34 1 1 0 -39.580 6.375 6.507 5.998 6.095 -39.990 5.581 -39.580 6.259 6.389 5.585 6.018 -40.260 5.291 0.8490 0.193 0.182 0.011 9.382 8.985 0.394
VANMET_231 2017-09-30 09:45:00 231 11739.0 -39.580 6.481 6.548 6.106 5.950 96.000 98.000 -39.940 5.811 11.230 11.880 10.610 9.530 0.229 0.258 0.335 0.610 236.70 0.00 0.00 0.2380 310.10 9.97 1 1 0 -39.580 6.556 6.646 6.130 6.135 -39.860 5.911 -39.580 6.364 6.469 5.786 6.082 -40.080 5.643 0.5360 0.193 0.185 0.008 9.419 9.229 0.188
VANMET_231 2017-09-30 09:40:00 231 11739.0 -39.580 6.475 6.673 6.006 5.840 93.900 99.400 -40.150 5.922 11.240 11.880 10.610 9.530 0.229 0.258 0.335 0.610 326.60 0.00 0.00 0.9540 243.60 39.21 1 1 0 -39.580 6.549 6.777 6.196 6.068 -39.940 6.034 -39.580 6.353 6.618 5.562 5.893 -40.360 5.728 1.9210 0.193 0.181 0.012 9.354 9.300 0.056
VANMET_231 2017-09-30 09:35:00 231 11739.0 -39.580 6.027 6.242 5.630 5.387 92.400 100.000 -40.300 5.635 11.240 11.890 10.610 9.530 0.229 0.258 0.335 0.610 669.10 0.00 0.00 0.6030 199.80 20.35 1 1 0 -39.580 6.303 6.580 5.632 5.860 -39.810 5.864 -39.580 5.862 5.999 5.084 5.428 -40.560 5.432 1.4110 0.193 0.179 0.015 9.114 9.117 0.000
VANMET_231 2017-09-30 09:30:00 231 11739.0 -39.580 5.788 5.887 5.303 5.364 98.900 100.000 -39.650 5.307 11.250 11.900 10.610 9.530 0.229 0.258 0.335 0.610 411.20 0.00 0.00 0.5160 205.20 24.08 1 1 0 -39.580 5.949 6.036 5.708 5.455 -39.590 5.459 -39.580 5.615 5.752 5.097 5.152 -39.770 5.156 0.9020 0.193 0.191 0.002 8.909 8.911 0.000
VANMET_231 2017-09-30 09:25:00 231 11739.0 -39.580 5.521 5.607 5.060 5.162 99.300 100.000 -39.610 5.064 11.260 11.900 10.610 9.530 0.229 0.258 0.335 0.610 245.60 0.00 0.00 0.3810 189.00 27.88 1 1 0 -39.580 5.636 5.754 5.646 5.172 -39.550 5.176 -39.580 5.395 5.459 4.847 4.947 -39.640 4.950 1.0850 0.193 0.192 0.001 8.759 8.762 0.000
VANMET_231 2017-09-30 09:20:00 231 11739.0 -39.580 5.371 5.452 4.896 5.142 99.700 100.000 -39.580 4.900 11.270 11.910 10.610 9.530 0.229 0.258 0.335 0.610 237.10 0.00 0.00 0.5780 208.50 11.68 1 1 0 -39.580 5.494 5.579 5.257 5.023 -39.550 5.027 -39.580 5.187 5.286 4.912 4.737 -39.620 4.741 1.1430 0.193 0.193 0.001 8.660 8.662 0.000
VANMET_231 2017-09-30 09:15:00 231 11739.0 -39.580 5.159 5.273 4.795 4.735 99.700 100.000 -39.570 4.799 11.280 11.910 10.610 9.530 0.229 0.258 0.335 0.610 174.90 0.00 0.00 0.4430 241.20 12.90 1 1 0 -39.580 5.290 5.403 4.999 4.948 -39.540 4.951 -39.580 5.068 5.183 4.489 4.691 -39.630 4.695 0.7320 0.193 0.193 0.001 8.599 8.601 0.000
VANMET_231 2017-09-30 09:10:00 231 11739.0 -39.580 5.186 5.301 4.823 5.006 100.000 100.000 -39.540 4.827 11.290 11.920 10.610 9.530 0.229 0.258 0.335 0.610 155.40 0.00 0.00 0.2830 269.50 27.19 1 1 0 -39.580 5.292 5.414 5.204 4.948 -39.540 4.951 -39.580 5.058 5.142 4.625 4.711 -39.550 4.715 0.7510 0.193 0.193 0.000 8.615 8.618 0.000
VANMET_231 2017-09-30 09:05:00 231 11739.0 -39.580 5.138 5.261 4.885 4.976 100.000 100.000 -39.550 4.889 11.300 11.930 10.610 9.530 0.229 0.258 0.335 0.610 192.00 0.00 0.00 0.6740 243.00 12.65 1 1 0 -39.580 5.189 5.327 5.248 4.954 -39.540 4.958 -39.580 5.059 5.179 4.758 4.771 -39.550 4.775 1.3070 0.193 0.193 0.000 8.653 8.655 0.000
VANMET_231 2017-09-30 09:00:00 231 11739.0 -39.580 5.018 5.150 4.765 4.791 100.000 100.000 -39.550 4.769 11.310 11.930 10.610 9.530 0.229 0.258 0.335 0.610 138.20 0.00 0.00 0.4790 240.50 25.03 1 1 0 -39.580 5.050 5.208 4.988 4.809 -39.540 4.812 -39.580 4.983 5.128 4.655 4.732 -39.550 4.736 0.8890 0.193 0.193 0.000 8.581 8.583 0.000
VANMET_231 2017-09-30 08:55:00 231 11739.0 -39.580 5.110 5.212 4.807 4.956 100.000 100.000 -39.550 4.811 11.320 11.940 10.610 9.530 0.229 0.258 0.335 0.610 100.10 0.00 0.00 0.3180 205.50 10.84 1 1 0 -39.580 5.172 5.256 5.154 4.842 -39.540 4.846 -39.580 5.060 5.155 4.686 4.769 -39.550 4.772 0.5420 0.193 0.193 0.000 8.606 8.608 0.000
VANMET_231 2017-09-30 08:50:00 231 11739.0 -39.580 5.099 5.229 4.827 4.936 100.000 100.000 -39.550 4.831 11.340 11.940 10.610 9.530 0.229 0.258 0.335 0.610 66.29 0.00 0.00 0.3170 216.00 10.69 1 1 0 -39.580 5.134 5.296 5.070 4.882 -39.540 4.886 -39.580 5.075 5.195 4.870 4.769 -39.550 4.773 0.6400 0.193 0.193 0.000 8.618 8.620 0.000
VANMET_231 2017-09-30 08:45:00 231 11739.0 -39.580 5.150 5.310 4.907 4.962 100.000 100.000 -39.540 4.911 11.350 11.950 10.610 9.530 0.229 0.258 0.335 0.610 81.30 0.00 0.00 0.3100 189.70 16.37 1 1 0 -39.580 5.197 5.366 5.131 4.959 -39.540 4.963 -39.580 5.077 5.245 4.747 4.833 -39.550 4.836 0.9470 0.193 0.193 0.000 8.666 8.669 0.000
VANMET_231 2017-09-30 08:40:00 231 11739.0 -39.580 5.393 5.484 5.047 5.052 100.000 100.000 -39.550 5.050 11.360 11.960 10.610 9.530 0.229 0.258 0.335 0.610 152.40 0.00 0.00 0.6440 208.10 19.17 1 1 0 -39.580 5.589 5.642 5.304 5.192 -39.540 5.196 -39.580 5.198 5.332 4.815 4.926 -39.550 4.930 1.2610 0.193 0.193 0.000 8.751 8.753 0.000
VANMET_231 2017-09-30 08:35:00 231 11739.0 -39.580 5.386 5.504 5.085 5.150 100.000 100.000 -39.550 5.089 11.370 11.960 10.610 9.530 0.229 0.258 0.335 0.610 392.80 0.00 0.00 0.7780 196.90 18.64 1 1 0 -39.580 5.639 5.737 5.641 5.299 -39.540 5.303 -39.580 5.203 5.324 4.693 4.930 -39.550 4.934 1.3720 0.193 0.193 0.000 8.775 8.777 0.000
VANMET_231 2017-09-30 08:30:00 231 11739.0 -39.580 5.127 5.222 4.842 4.999 100.000 100.000 -39.550 4.846 11.380 11.970 10.610 9.530 0.229 0.258 0.335 0.610 253.70 0.00 0.00 0.2950 175.40 30.82 1 1 0 -39.580 5.217 5.330 5.168 4.967 -39.550 4.970 -39.580 5.005 5.116 4.893 4.760 -39.550 4.764 0.7250 0.193 0.193 0.000 8.627 8.629 0.000
VANMET_231 2017-09-30 08:25:00 231 11739.0 -39.580 4.829 4.986 4.651 4.797 100.000 100.000 -39.550 4.654 11.400 11.970 10.610 9.530 0.229 0.258 0.335 0.610 142.40 0.00 0.00 0.3230 196.70 24.59 1 1 0 -39.580 4.982 5.111 5.073 4.754 -39.550 4.757 -39.580 4.714 4.887 4.401 4.568 -39.550 4.572 0.8300 0.193 0.193 0.000 8.512 8.514 0.000
VANMET_231 2017-09-30 08:20:00 231 11739.0 -39.580 5.024 5.081 4.746 4.862 100.000 100.000 -39.550 4.749 11.410 11.980 10.610 9.530 0.229 0.258 0.335 0.610 151.90 0.00 0.00 0.5260 189.10 32.49 1 1 0 -39.580 5.108 5.140 5.204 4.791 -39.550 4.794 -39.580 4.802 4.921 4.458 4.671 -39.550 4.675 0.9280 0.193 0.193 0.000 8.569 8.571 0.000
VANMET_231 2017-09-30 08:15:00 231 11739.0 -39.580 4.899 5.027 4.760 4.885 100.000 100.000 -39.550 4.764 11.420 11.990 10.610 9.530 0.229 0.258 0.335 0.610 126.40 0.00 0.00 0.3380 194.20 29.28 1 1 0 -39.580 4.973 5.071 4.990 4.804 -39.550 4.808 -39.580 4.845 4.979 4.755 4.714 -39.550 4.718 0.9150 0.193 0.193 0.000 8.578 8.580 0.000
VANMET_231 2017-09-30 08:10:00 231 11739.0 -39.580 4.994 5.115 4.838 4.987 100.000 100.000 -39.550 4.842 11.430 11.990 10.610 9.530 0.229 0.258 0.335 0.610 115.90 0.00 0.00 0.5900 212.60 19.84 1 1 0 -39.580 5.096 5.192 5.117 4.874 -39.550 4.878 -39.580 4.871 5.005 4.781 4.798 -39.550 4.802 1.0450 0.193 0.193 0.000 8.625 8.627 0.000
VANMET_231 2017-09-30 08:05:00 231 11739.0 -39.580 4.935 5.023 4.689 4.977 100.000 100.000 -39.550 4.693 11.450 12.000 10.610 9.530 0.229 0.258 0.335 0.610 181.80 0.00 0.00 0.4680 221.40 14.66 1 1 0 -39.580 5.068 5.169 5.085 4.848 -39.550 4.851 -39.580 4.778 4.880 4.838 4.549 -39.550 4.552 0.8170 0.193 0.193 0.000 8.535 8.537 0.000
VANMET_231 2017-09-30 08:00:00 231 11739.0 -39.580 4.733 4.820 4.487 4.770 100.000 100.000 -39.550 4.491 11.460 12.000 10.610 9.530 0.229 0.258 0.335 0.610 92.40 0.00 0.00 0.3000 201.20 23.16 1 1 0 -39.580 4.781 4.885 4.876 4.546 -39.550 4.549 -39.580 4.716 4.785 4.634 4.443 -39.550 4.447 0.7910 0.193 0.193 0.000 8.415 8.418 0.000
VANMET_231 2017-09-30 07:55:00 231 11739.0 -39.580 4.631 4.694 4.391 4.713 100.000 100.000 -39.550 4.394 11.480 12.010 10.610 9.530 0.229 0.258 0.335 0.610 79.16 0.00 0.00 0.3150 193.30 35.23 1 1 0 -39.580 4.719 4.771 4.869 4.433 -39.550 4.437 -39.580 4.559 4.621 4.567 4.337 -39.550 4.340 0.6080 0.193 0.193 0.000 8.359 8.360 0.000
VANMET_231 2017-09-30 07:50:00 231 11739.0 -39.580 4.630 4.682 4.409 4.666 100.000 100.000 -39.550 4.412 11.490 12.010 10.610 9.530 0.229 0.258 0.335 0.610 30.43 0.00 0.00 0.6370 252.00 21.51 1 1 0 -39.580 4.690 4.716 4.747 4.484 -39.550 4.487 -39.580 4.570 4.631 4.564 4.357 -39.550 4.360 0.8560 0.193 0.193 0.000 8.369 8.371 0.000
VANMET_231 2017-09-30 07:45:00 231 11739.0 -39.580 4.756 4.825 4.533 4.894 100.000 100.000 -39.550 4.536 11.500 12.020 10.610 9.530 0.229 0.258 0.335 0.610 84.50 0.00 0.00 0.4450 215.00 27.32 1 1 0 -39.580 4.813 4.881 5.035 4.594 -39.550 4.597 -39.580 4.629 4.721 4.694 4.424 -39.550 4.427 0.7450 0.193 0.193 0.000 8.442 8.444 0.000
VANMET_231 2017-09-30 07:40:00 231 11739.0 -39.580 4.512 4.616 4.314 4.681 100.000 100.000 -39.550 4.317 11.520 12.030 10.610 9.530 0.229 0.258 0.335 0.610 67.78 0.00 0.00 0.0000 0.00 0.00 1 1 0 -39.580 4.623 4.716 4.927 4.401 -39.550 4.404 -39.580 4.398 4.500 4.511 4.215 -39.550 4.218 0.0000 0.193 0.193 0.000 8.314 8.315 0.000
VANMET_231 2017-09-30 07:35:00 231 11739.0 -39.580 4.342 4.436 4.181 4.453 100.000 100.000 -39.550 4.184 11.530 12.030 10.610 9.530 0.229 0.258 0.335 0.610 74.34 0.00 0.00 0.4070 302.10 22.78 1 1 0 -39.580 4.397 4.495 4.538 4.228 -39.550 4.231 -39.580 4.294 4.390 4.368 4.142 -39.550 4.145 0.9600 0.193 0.193 0.000 8.236 8.238 0.000
VANMET_231 2017-09-30 07:30:00 231 11739.0 -39.580 4.466 4.559 4.320 4.568 100.000 100.000 -39.550 4.324 11.550 12.040 10.600 9.530 0.229 0.258 0.335 0.610 62.36 0.00 0.00 0.9240 229.20 22.91 1 1 0 -39.580 4.615 4.713 4.819 4.418 -39.550 4.421 -39.580 4.373 4.451 4.418 4.201 -39.550 4.205 1.2350 0.193 0.193 0.000 8.317 8.320 0.000
VANMET_231 2017-09-30 07:25:00 231 11739.0 -39.580 4.525 4.612 4.373 4.651 100.000 100.000 -39.550 4.377 11.560 12.040 10.600 9.530 0.230 0.258 0.335 0.610 63.12 0.00 0.00 0.5940 248.80 15.67 1 1 0 -39.580 4.559 4.660 4.748 4.415 -39.550 4.418 -39.580 4.485 4.550 4.518 4.328 -39.550 4.332 0.9210 0.193 0.193 0.000 8.348 8.351 0.000
VANMET_231 2017-09-30 07:20:00 231 11739.0 -39.580 4.487 4.569 4.289 4.620 100.000 100.000 -39.550 4.292 11.580 12.050 10.600 9.530 0.230 0.258 0.335 0.610 58.15 0.00 0.00 0.0000 0.00 0.00 1 1 0 -39.580 4.534 4.646 4.742 4.392 -39.550 4.395 -39.580 4.434 4.533 4.542 4.242 -39.550 4.245 0.0000 0.193 0.193 0.000 8.299 8.301 0.000
VANMET_231 2017-09-30 07:15:00 231 11739.0 -39.580 4.388 4.487 4.182 4.535 100.000 100.000 -39.550 4.185 11.590 12.050 10.600 9.530 0.230 0.258 0.335 0.610 44.29 0.00 0.00 0.1570 126.00 4.43 1 1 0 -39.580 4.436 4.531 4.606 4.235 -39.550 4.239 -39.580 4.326 4.432 4.473 4.123 -39.550 4.126 0.5810 0.193 0.193 0.000 8.237 8.239 0.000
VANMET_231 2017-09-30 07:10:00 231 11739.0 -39.580 4.280 4.386 4.096 4.431 100.000 100.000 -39.550 4.099 11.610 12.060 10.600 9.530 0.229 0.258 0.335 0.610 32.81 0.00 0.00 0.0000 0.00 0.00 1 1 0 -39.580 4.320 4.426 4.476 4.133 -39.550 4.136 -39.580 4.224 4.331 4.365 4.053 -39.550 4.056 0.0000 0.193 0.193 0.000 8.187 8.189 0.000
VANMET_231 2017-09-30 07:05:00 231 11739.0 -39.580 4.202 4.305 4.046 4.293 100.000 100.000 -39.550 4.049 11.620 12.060 10.600 9.530 0.229 0.258 0.335 0.610 27.88 0.00 0.00 0.0200 108.10 0.32 1 1 0 -39.580 4.221 4.327 4.352 4.063 -39.550 4.066 -39.590 4.184 4.293 4.252 4.023 -39.550 4.026 0.2350 0.193 0.193 0.000 8.159 8.160 0.000
VANMET_231 2017-09-30 07:00:00 231 11739.0 -39.580 4.186 4.299 4.039 4.292 100.000 100.000 -39.550 4.042 11.640 12.070 10.600 9.530 0.229 0.258 0.335 0.610 21.83 0.00 0.00 0.1060 112.50 1.24 1 1 0 -39.580 4.233 4.338 4.371 4.060 -39.550 4.063 -39.580 4.165 4.281 4.251 4.020 -39.550 4.023 0.6270 0.193 0.193 0.000 8.155 8.156 0.000
VANMET_231 2017-09-30 06:55:00 231 11739.0 -39.580 4.197 4.302 4.020 4.363 100.000 100.000 -39.550 4.023 11.650 12.070 10.600 9.530 0.229 0.258 0.335 0.610 16.39 0.00 0.00 0.0000 0.00 0.00 1 1 0 -39.580 4.238 4.344 4.458 4.063 -39.550 4.066 -39.580 4.170 4.275 4.278 3.997 -39.550 4.000 0.0000 0.193 0.193 0.000 8.144 8.145 0.000
VANMET_231 2017-09-30 06:50:00 231 11739.0 -39.580 4.140 4.247 3.964 4.305 100.000 100.000 -39.550 3.967 11.670 12.080 10.600 9.530 0.229 0.258 0.335 0.610 14.31 0.00 0.00 0.0000 0.00 0.00 1 1 0 -39.580 4.183 4.282 4.354 4.007 -39.550 4.010 -39.580 4.099 4.210 4.247 3.941 -39.550 3.944 0.0000 0.193 0.193 0.000 8.112 8.113 0.000
VANMET_231 2017-09-30 06:45:00 231 11739.0 -39.580 4.073 4.180 3.906 4.235 100.000 100.000 -39.550 3.909 11.680 12.080 10.600 9.530 0.229 0.258 0.335 0.610 10.57 0.00 0.00 0.0000 0.00 0.00 1 1 0 -39.580 4.096 4.209 4.285 3.947 -39.550 3.950 -39.580 4.052 4.154 4.197 3.864 -39.550 3.867 0.0000 0.193 0.193 0.000 8.079 8.080 0.000
VANMET_231 2017-09-30 06:40:00 231 11739.0 -39.580 4.049 4.154 3.875 4.197 100.000 100.000 -39.550 3.878 11.700 12.090 10.600 9.530 0.229 0.258 0.335 0.610 6.66 0.00 0.00 0.0000 0.00 0.00 1 1 0 -39.580 4.057 4.158 4.218 3.891 -39.550 3.894 -39.580 4.035 4.144 4.180 3.851 -39.550 3.854 0.0000 0.193 0.193 0.000 8.061 8.063 0.000
VANMET_231 2017-09-30 06:35:00 231 11739.0 -39.580 4.019 4.127 3.837 4.188 100.000 100.000 -39.550 3.840 11.710 12.090 10.600 9.530 0.229 0.258 0.335 0.610 5.73 0.00 0.00 0.1510 239.40 7.49 1 1 0 -39.580 4.030 4.142 4.213 3.861 -39.550 3.864 -39.580 4.000 4.099 4.158 3.808 -39.550 3.811 0.5360 0.193 0.193 0.000 8.039 8.041 0.000
VANMET_231 2017-09-30 06:30:00 231 11739.0 -39.580 3.953 4.050 3.762 4.156 100.000 100.000 -39.550 3.765 11.730 12.100 10.600 9.530 0.229 0.258 0.335 0.610 4.49 0.00 0.00 0.0000 0.00 0.00 1 1 0 -39.580 3.999 4.097 4.205 3.821 -39.550 3.824 -39.580 3.914 4.014 4.068 3.728 -39.550 3.731 0.0000 0.193 0.193 0.000 7.997 7.999 0.000
VANMET_231 2017-09-30 06:25:00 231 11739.0 -39.580 3.895 3.994 3.702 4.094 100.000 100.000 -39.550 3.705 11.740 12.100 10.600 9.530 0.229 0.258 0.335 0.610 6.80 0.00 0.00 0.0000 0.00 0.00 1 1 0 -39.580 3.914 4.012 4.146 3.738 -39.550 3.741 -39.580 3.862 3.952 4.062 3.652 -39.550 3.654 0.0000 0.193 0.193 0.000 7.963 7.965 0.000
VANMET_231 2017-09-30 06:20:00 231 11739.0 -39.580 3.813 3.901 3.600 4.059 100.000 100.000 -39.550 3.603 11.750 12.110 10.600 9.530 0.229 0.258 0.335 0.610 5.02 0.00 0.00 0.0000 0.00 0.00 1 1 0 -39.580 3.857 3.945 4.106 3.648 -39.550 3.651 -39.590 3.770 3.858 4.020 3.542 -39.550 3.545 0.0000 0.193 0.193 0.000 7.906 7.908 -0.000
VANMET_231 2017-09-30 06:15:00 231 11739.0 -39.590 3.717 3.803 3.513 3.932 100.000 100.000 -39.550 3.516 11.770 12.110 10.600 9.530 0.229 0.258 0.335 0.610 4.87 0.00 0.00 0.0000 0.00 0.00 1 1 0 -39.580 3.765 3.849 4.020 3.542 -39.550 3.545 -39.590 3.690 3.779 3.867 3.492 -39.550 3.495 0.0000 0.192 0.193 0.000 7.858 7.859 0.000
VANMET_231 2017-09-30 06:10:00 231 11739.0 -39.590 3.672 3.765 3.486 3.872 100.000 100.000 -39.550 3.488 11.780 12.120 10.600 9.530 0.229 0.258 0.335 0.610 2.48 0.00 0.00 0.0000 0.00 0.00 1 1 0 -39.580 3.690 3.779 3.908 3.505 -39.550 3.508 -39.590 3.633 3.740 3.828 3.466 -39.550 3.468 0.0000 0.192 0.193 0.000 7.843 7.844 0.000
VANMET_231 2017-09-30 06:05:00 231 11739.0 -39.590 3.611 3.716 3.450 3.795 100.000 100.000 -39.550 3.453 11.800 12.120 10.600 9.530 0.229 0.258 0.335 0.610 1.31 0.00 0.00 0.0000 0.00 0.00 1 1 0 -39.580 3.632 3.738 3.827 3.482 -39.550 3.485 -39.590 3.575 3.683 3.767 3.426 -39.550 3.428 0.0000 0.192 0.193 0.000 7.823 7.824 0.000
VANMET_231 2017-09-30 06:00:00 231 11739.0 -39.590 3.520 3.634 3.370 3.711 100.000 100.000 -39.550 3.373 11.810 12.130 10.600 9.530 0.229 0.258 0.335 0.610 0.64 0.00 0.00 0.0000 0.00 0.00 1 1 0 -39.580 3.566 3.676 3.770 3.416 -39.550 3.418 -39.590 3.462 3.582 3.679 3.289 -39.550 3.292 0.0000 0.192 0.193 0.000 7.779 7.780 0.000
VANMET_231 2017-09-30 05:55:00 231 11739.0 -39.590 3.385 3.492 3.207 3.632 100.000 100.000 -39.550 3.209 11.830 12.130 10.600 9.530 0.229 0.258 0.335 0.610 0.58 0.00 0.00 0.0000 0.00 0.00 1 1 0 -39.580 3.457 3.572 3.697 3.289 -39.550 3.291 -39.590 3.325 3.433 3.534 3.153 -39.550 3.155 0.0000 0.192 0.193 0.000 7.689 7.690 0.000
VANMET_231 2017-09-30 05:50:00 231 11739.0 -39.590 3.259 3.367 3.072 3.510 100.000 100.000 -39.550 3.074 11.840 12.140 10.590 9.530 0.229 0.258 0.335 0.610 0.54 0.00 0.00 0.0000 0.00 0.00 1 1 0 -39.580 3.320 3.427 3.552 3.139 -39.550 3.141 -39.590 3.197 3.312 3.455 3.003 -39.550 3.005 0.0000 0.192 0.193 0.000 7.616 7.617 0.000
VANMET_231 2017-09-30 05:45:00 231 11739.0 -39.590 3.092 3.198 2.893 3.350 100.000 100.000 -39.550 2.895 11.850 12.140 10.590 9.530 0.229 0.258 0.335 0.610 0.18 0.00 0.00 0.0190 5.86 0.00 1 1 0 -39.590 3.191 3.305 3.453 3.000 -39.550 3.002 -39.590 2.980 3.106 3.225 2.807 -39.550 2.809 0.2420 0.192 0.193 0.000 7.520 7.521 -0.000
VANMET_231 2017-09-30 05:40:00 231 11739.0 -39.590 2.871 2.993 2.709 3.147 100.000 100.000 -39.550 2.711 11.870 12.150 10.590 9.530 0.229 0.258 0.335 0.610 0.00 0.00 0.00 0.4980 2.71 1.80 1 1 0 -39.590 2.966 3.095 3.250 2.787 -39.550 2.789 -39.590 2.782 2.913 2.982 2.630 -39.550 2.632 0.6790 0.192 0.193 0.000 7.422 7.423 -0.000
VANMET_231 2017-09-30 05:35:00 231 11739.0 -39.590 2.757 2.876 2.612 2.971 100.000 100.000 -39.550 2.614 11.880 12.150 10.590 9.530 0.229 0.258 0.335 0.610 0.00 0.00 0.00 0.5640 5.17 1.36 1 1 0 -39.590 2.780 2.911 3.035 2.643 -39.550 2.645 -39.590 2.717 2.848 2.915 2.584 -39.560 2.585 0.8950 0.192 0.193 0.000 7.371 7.372 0.000
VANMET_231 2017-09-30 05:30:00 231 11739.0 -39.590 2.665 2.824 2.568 2.876 100.000 100.000 -39.560 2.570 11.890 12.150 10.590 9.530 0.230 0.258 0.335 0.610 0.00 0.00 0.00 0.6660 3.70 2.38 1 1 0 -39.590 2.704 2.856 2.941 2.607 -39.550 2.609 -39.590 2.627 2.781 2.785 2.523 -39.560 2.525 0.8170 0.192 0.193 0.000 7.348 7.349 0.000
VANMET_231 2017-09-30 05:25:00 231 11739.0 -39.590 2.677 2.812 2.557 2.829 100.000 100.000 -39.560 2.559 11.910 12.160 10.590 9.530 0.229 0.258 0.335 0.610 0.00 0.00 0.00 0.6380 2.31 0.28 1 1 0 -39.590 2.701 2.834 2.879 2.590 -39.560 2.591 -39.590 2.640 2.786 2.782 2.540 -39.560 2.542 0.8100 0.192 0.193 0.000 7.342 7.343 0.000
VANMET_231 2017-09-30 05:20:00 231 11739.0 -39.600 2.702 2.869 2.621 2.886 100.000 100.000 -39.560 2.623 11.920 12.160 10.590 9.530 0.229 0.258 0.335 0.610 0.00 0.00 0.00 0.7110 2.49 0.03 1 1 0 -39.590 2.718 2.885 2.936 2.642 -39.560 2.644 -39.600 2.679 2.842 2.811 2.596 -39.560 2.598 0.8560 0.192 0.193 0.000 7.376 7.377 -0.000
VANMET_231 2017-09-30 05:15:00 231 11739.0 -39.600 2.742 2.865 2.636 2.844 100.000 100.000 -39.560 2.638 11.930 12.170 10.590 9.530 0.229 0.258 0.335 0.610 0.00 0.00 0.00 0.6620 2.20 0.05 1 1 0 -39.600 2.831 2.913 2.914 2.695 -39.560 2.697 -39.600 2.680 2.839 2.810 2.586 -39.570 2.588 0.8100 0.192 0.193 0.000 7.384 7.385 0.000
VANMET_231 2017-09-30 05:10:00 231 11739.0 -39.600 2.851 2.943 2.714 3.013 100.000 100.000 -39.570 2.716 11.940 12.170 10.590 9.530 0.229 0.258 0.335 0.610 0.00 0.00 0.00 0.7180 2.94 1.44 1 1 0 -39.600 2.858 2.948 3.057 2.731 -39.570 2.733 -39.600 2.829 2.924 2.948 2.692 -39.570 2.693 0.8300 0.192 0.193 0.000 7.425 7.426 0.000
VANMET_231 2017-09-30 05:05:00 231 11739.0 -39.600 2.890 3.002 2.812 3.018 100.000 100.000 -39.570 2.814 11.960 12.180 10.590 9.530 0.229 0.258 0.335 0.610 0.00 0.00 0.00 0.6990 6.92 0.00 1 1 0 -39.600 2.964 3.047 3.081 2.864 -39.570 2.866 -39.610 2.824 2.929 2.975 2.731 -39.570 2.733 0.8170 0.192 0.193 0.000 7.477 7.478 -0.000
VANMET_231 2017-09-30 05:00:00 231 11739.0 -39.610 3.060 3.208 2.982 3.191 100.000 100.000 -39.580 2.984 11.970 12.180 10.590 9.530 0.229 0.258 0.335 0.610 0.00 0.00 0.00 0.7470 6.93 0.00 1 1 0 -39.610 3.141 3.276 3.334 3.053 -39.570 3.055 -39.610 2.948 3.071 3.030 2.864 -39.580 2.866 0.8890 0.192 0.193 0.000 7.568 7.569 0.000
VANMET_231 2017-09-30 04:55:00 231 11739.0 -39.610 3.136 3.257 3.036 3.282 100.000 100.000 -39.580 3.039 11.980 12.180 10.590 9.530 0.229 0.258 0.335 0.610 0.00 0.00 0.00 0.6770 6.99 0.15 1 1 0 -39.610 3.145 3.265 3.362 3.059 -39.580 3.061 -39.610 3.127 3.248 3.255 3.013 -39.580 3.015 0.8490 0.192 0.193 0.000 7.597 7.598 0.000
VANMET_231 2017-09-30 04:50:00 231 11739.0 -39.620 3.219 3.339 3.105 3.331 100.000 100.000 -39.580 3.108 12.000 12.190 10.590 9.530 0.229 0.258 0.335 0.610 0.00 0.00 0.00 0.5680 7.23 2.34 1 1 0 -39.610 3.274 3.384 3.392 3.135 -39.580 3.137 -39.620 3.152 3.271 3.254 3.049 -39.580 3.051 0.8690 0.192 0.193 0.000 7.634 7.636 0.000
VANMET_231 2017-09-30 04:45:00 231 11739.0 -39.620 3.311 3.420 3.168 3.433 100.000 100.000 -39.590 3.170 12.010 12.190 10.590 9.530 0.229 0.257 0.335 0.610 0.00 0.00 0.00 0.6290 6.27 0.54 1 1 0 -39.620 3.328 3.443 3.504 3.211 -39.580 3.214 -39.620 3.275 3.380 3.337 3.115 -39.590 3.117 0.8890 0.192 0.192 0.000 7.668 7.669 0.000
VANMET_231 2017-09-30 04:40:00 231 11739.0 -39.620 3.303 3.429 3.194 3.439 100.000 100.000 -39.590 3.197 12.020 12.200 10.590 9.530 0.229 0.257 0.335 0.610 0.00 0.00 0.00 0.7850 4.49 1.66 1 1 0 -39.620 3.341 3.448 3.507 3.214 -39.580 3.217 -39.620 3.274 3.403 3.380 3.178 -39.590 3.180 0.9930 0.192 0.192 0.000 7.682 7.684 -0.000
VANMET_231 2017-09-30 04:35:00 231 11739.0 -39.620 3.407 3.486 3.243 3.524 100.000 100.000 -39.590 3.245 12.030 12.200 10.590 9.530 0.229 0.257 0.335 0.610 0.00 0.00 0.00 0.6890 12.14 3.58 1 1 0 -39.620 3.447 3.517 3.595 3.287 -39.580 3.290 -39.620 3.347 3.452 3.460 3.194 -39.590 3.197 0.8620 0.192 0.192 0.000 7.709 7.710 -0.000
VANMET_231 2017-09-30 04:30:00 231 11739.0 -39.620 3.399 3.516 3.305 3.525 100.000 100.000 -39.580 3.308 12.050 12.200 10.590 9.530 0.229 0.257 0.335 0.610 0.00 0.00 0.00 0.7280 13.32 5.15 1 1 0 -39.620 3.432 3.561 3.585 3.370 -39.580 3.373 -39.620 3.384 3.476 3.480 3.254 -39.590 3.256 0.8620 0.192 0.193 0.000 7.743 7.745 -0.000
VANMET_231 2017-09-30 04:25:00 231 11739.0 -39.620 3.469 3.648 3.470 3.599 100.000 100.000 -39.580 3.473 12.060 12.210 10.590 9.530 0.229 0.257 0.335 0.610 0.00 0.00 0.00 0.7560 12.92 4.06 1 1 0 -39.620 3.533 3.718 3.677 3.536 -39.580 3.539 -39.620 3.424 3.571 3.519 3.387 -39.590 3.389 0.9730 0.192 0.193 0.000 7.834 7.835 -0.000
VANMET_231 2017-09-30 04:20:00 231 11739.0 -39.620 3.636 3.791 3.609 3.811 100.000 100.000 -39.590 3.611 12.070 12.210 10.580 9.530 0.229 0.257 0.335 0.610 0.00 0.00 0.00 0.4680 24.21 3.26 1 1 0 -39.620 3.670 3.818 3.908 3.633 -39.590 3.635 -39.620 3.545 3.727 3.676 3.559 -39.590 3.562 0.7060 0.192 0.192 0.000 7.911 7.912 -0.000
VANMET_231 2017-09-30 04:15:00 231 11739.0 -39.620 3.706 3.851 3.687 3.804 100.000 100.000 -39.590 3.690 12.080 12.220 10.580 9.530 0.229 0.257 0.335 0.610 0.00 0.00 0.00 0.4870 18.62 1.39 1 1 0 -39.620 3.794 3.941 3.847 3.779 -39.580 3.782 -39.620 3.640 3.795 3.762 3.599 -39.590 3.602 0.8490 0.192 0.192 0.000 7.955 7.956 0.000
VANMET_231 2017-09-30 04:10:00 231 11739.0 -39.620 3.926 4.072 3.898 4.012 100.000 100.000 -39.580 3.901 12.090 12.220 10.580 9.530 0.229 0.257 0.335 0.610 0.00 0.00 0.00 0.4670 13.54 2.98 1 1 0 -39.620 4.037 4.178 4.185 3.978 -39.580 3.981 -39.620 3.806 3.954 3.860 3.796 -39.580 3.799 0.6270 0.192 0.193 0.000 8.074 8.076 0.000
VANMET_231 2017-09-30 04:05:00 231 11739.0 -39.620 4.112 4.230 4.014 4.262 100.000 100.000 -39.580 4.017 12.110 12.220 10.580 9.530 0.229 0.257 0.335 0.610 0.00 0.00 0.00 0.3830 7.53 6.26 1 1 0 -39.610 4.161 4.264 4.350 4.041 -39.580 4.044 -39.620 4.048 4.183 4.175 3.981 -39.580 3.984 0.4440 0.192 0.193 0.000 8.140 8.142 0.000
VANMET_231 2017-09-30 04:00:00 231 11739.0 -39.610 4.180 4.286 4.075 4.325 100.000 100.000 -39.580 4.078 12.120 12.230 10.580 9.530 0.229 0.257 0.335 0.610 0.00 0.00 0.00 0.3200 1.21 6.34 1 1 0 -39.610 4.197 4.302 4.350 4.118 -39.580 4.121 -39.610 4.164 4.266 4.298 4.041 -39.580 4.044 0.5810 0.192 0.193 0.000 8.175 8.177 0.000
VANMET_231 2017-09-30 03:55:00 231 11739.0 -39.610 4.244 4.349 4.172 4.368 100.000 100.000 -39.580 4.175 12.130 12.230 10.580 9.530 0.229 0.257 0.335 0.610 0.00 0.00 0.00 0.0000 0.00 0.00 1 1 0 -39.610 4.306 4.410 4.406 4.227 -39.580 4.230 -39.610 4.201 4.305 4.348 4.118 -39.580 4.121 0.0000 0.192 0.193 0.000 8.231 8.233 0.000
VANMET_231 2017-09-30 03:50:00 231 11739.0 -39.610 4.402 4.506 4.318 4.501 100.000 100.000 -39.580 4.322 12.140 12.240 10.580 9.530 0.229 0.257 0.335 0.610 0.00 0.00 0.00 0.0000 0.00 0.00 1 1 0 -39.610 4.486 4.590 4.575 4.383 -39.580 4.387 -39.610 4.315 4.417 4.396 4.227 -39.580 4.230 0.0000 0.192 0.193 0.000 8.316 8.318 0.000
VANMET_231 2017-09-30 03:45:00 231 11739.0 -39.610 4.552 4.655 4.440 4.704 100.000 100.000 -39.580 4.443 12.150 12.240 10.580 9.530 0.229 0.257 0.335 0.610 0.00 0.00 0.00 0.0000 0.00 0.00 1 1 0 -39.610 4.598 4.690 4.815 4.466 -39.580 4.470 -39.610 4.492 4.597 4.592 4.397 -39.580 4.400 0.0000 0.192 0.193 0.000 8.388 8.389 0.000
VANMET_231 2017-09-30 03:40:00 231 11739.0 -39.610 4.594 4.698 4.466 4.817 100.000 100.000 -39.580 4.470 12.170 12.240 10.580 9.530 0.229 0.257 0.335 0.610 0.00 0.00 0.00 0.0000 0.00 0.00 1 1 0 -39.610 4.607 4.703 4.861 4.483 -39.580 4.486 -39.610 4.581 4.684 4.786 4.453 -39.580 4.456 0.0000 0.192 0.193 0.000 8.403 8.405 0.000
VANMET_231 2017-09-30 03:35:00 231 11739.0 -39.610 4.571 4.690 4.467 4.755 100.000 100.000 -39.580 4.470 12.180 12.250 10.580 9.530 0.230 0.257 0.335 0.610 0.00 0.00 0.00 0.0000 0.00 0.00 1 1 0 -39.610 4.576 4.698 4.804 4.489 -39.580 4.493 -39.610 4.567 4.686 4.729 4.450 -39.580 4.453 0.0000 0.192 0.193 0.000 8.403 8.405 0.000
VANMET_231 2017-09-30 03:30:00 231 11739.0 -39.610 4.596 4.728 4.495 4.793 100.000 100.000 -39.580 4.499 12.190 12.250 10.580 9.530 0.230 0.257 0.335 0.610 0.00 0.00 0.00 0.0000 0.00 0.00 1 1 0 -39.610 4.620 4.750 4.840 4.519 -39.580 4.523 -39.610 4.571 4.699 4.741 4.476 -39.580 4.479 0.0000 0.192 0.193 0.000 8.420 8.422 0.000
VANMET_231 2017-09-30 03:25:00 231 11739.0 -39.610 4.575 4.704 4.445 4.831 100.000 100.000 -39.580 4.448 12.200 12.250 10.580 9.530 0.230 0.257 0.335 0.610 0.00 0.00 0.00 0.2820 226.40 6.05 1 1 0 -39.610 4.628 4.758 4.862 4.516 -39.580 4.519 -39.610 4.487 4.606 4.755 4.343 -39.580 4.346 0.6660 0.192 0.193 0.000 8.390 8.392 0.000
VANMET_231 2017-09-30 03:20:00 231 11739.0 -39.610 4.485 4.587 4.350 4.672 100.000 100.000 -39.580 4.353 12.210 12.260 10.580 9.530 0.230 0.257 0.335 0.610 0.00 0.00 0.00 0.0000 0.00 0.00 1 1 0 -39.610 4.496 4.601 4.737 4.373 -39.580 4.376 -39.610 4.478 4.581 4.635 4.329 -39.580 4.332 0.0000 0.192 0.193 0.000 8.335 8.336 0.000
VANMET_231 2017-09-30 03:15:00 231 11739.0 -39.610 4.516 4.617 4.362 4.673 100.000 100.000 -39.580 4.365 12.220 12.260 10.580 9.530 0.230 0.257 0.335 0.610 0.00 0.00 0.00 0.0000 0.00 0.00 1 1 0 -39.610 4.535 4.635 4.710 4.382 -39.580 4.385 -39.610 4.497 4.596 4.639 4.336 -39.580 4.339 0.0000 0.192 0.193 0.000 8.342 8.343 0.000
VANMET_231 2017-09-30 03:10:00 231 11739.0 -39.610 4.508 4.614 4.340 4.727 100.000 100.000 -39.580 4.344 12.230 12.260 10.580 9.530 0.230 0.257 0.335 0.610 0.00 0.00 0.00 0.0000 0.00 0.00 1 1 0 -39.610 4.536 4.639 4.785 4.382 -39.580 4.385 -39.610 4.449 4.557 4.663 4.296 -39.580 4.299 0.0000 0.192 0.193 0.000 8.329 8.331 0.000
VANMET_231 2017-09-30 03:05:00 231 11739.0 -39.610 4.395 4.507 4.237 4.612 100.000 100.000 -39.580 4.240 12.240 12.270 10.580 9.530 0.229 0.257 0.335 0.610 0.00 0.00 0.00 0.0000 0.00 0.00 1 1 0 -39.610 4.443 4.552 4.682 4.292 -39.580 4.296 -39.610 4.357 4.473 4.559 4.189 -39.580 4.192 0.0000 0.192 0.193 0.000 8.269 8.271 0.000
VANMET_231 2017-09-30 03:00:00 231 11739.0 -39.610 4.303 4.421 4.150 4.503 100.000 100.000 -39.580 4.153 12.260 12.270 10.570 9.530 0.230 0.257 0.335 0.610 0.00 0.00 0.00 0.2730 0.65 6.28 1 1 0 -39.610 4.353 4.470 4.570 4.189 -39.580 4.192 -39.610 4.271 4.390 4.467 4.115 -39.580 4.118 0.4830 0.192 0.193 0.000 8.218 8.220 0.000
VANMET_231 2017-09-30 02:55:00 231 11739.0 -39.610 4.196 4.327 4.072 4.407 100.000 100.000 -39.580 4.075 12.270 12.270 10.570 9.530 0.230 0.257 0.335 0.610 0.00 0.00 0.00 0.3340 5.77 0.09 1 1 0 -39.610 4.266 4.388 4.484 4.115 -39.580 4.118 -39.610 4.158 4.290 4.338 4.039 -39.580 4.042 0.5880 0.192 0.193 0.000 8.174 8.175 0.000
VANMET_231 2017-09-30 02:50:00 231 11739.0 -39.610 4.145 4.272 4.033 4.294 100.000 100.000 -39.580 4.036 12.280 12.280 10.570 9.530 0.230 0.257 0.335 0.610 0.00 0.00 0.00 0.0620 5.69 0.00 1 1 0 -39.610 4.157 4.287 4.334 4.052 -39.570 4.055 -39.610 4.135 4.261 4.268 4.012 -39.580 4.015 0.6270 0.192 0.193 0.000 8.151 8.153 0.000
VANMET_231 2017-09-30 02:45:00 231 11739.0 -39.610 4.109 4.224 3.970 4.269 100.000 100.000 -39.570 3.973 12.290 12.280 10.570 9.530 0.230 0.257 0.335 0.610 0.00 0.00 0.00 0.0000 0.00 0.00 1 1 0 -39.600 4.160 4.277 4.391 4.032 -39.570 4.035 -39.610 4.084 4.198 4.211 3.941 -39.580 3.944 0.0000 0.192 0.193 0.000 8.115 8.117 0.000
VANMET_231 2017-09-30 02:40:00 231 11739.0 -39.600 4.014 4.120 3.856 4.230 100.000 100.000 -39.570 3.859 12.300 12.280 10.570 9.530 0.230 0.257 0.335 0.610 0.00 0.00 0.00 0.0000 0.00 0.00 1 1 0 -39.600 4.094 4.212 4.323 3.931 -39.570 3.934 -39.600 3.922 4.032 4.098 3.805 -39.570 3.808 0.0000 0.192 0.193 0.000 8.050 8.052 0.000
VANMET_231 2017-09-30 02:35:00 231 11739.0 -39.600 3.930 4.047 3.825 4.066 100.000 100.000 -39.560 3.828 12.310 12.290 10.570 9.530 0.230 0.257 0.335 0.610 0.00 0.00 0.00 0.1070 25.30 5.94 1 1 0 -39.590 3.993 4.106 4.320 3.841 -39.560 3.844 -39.600 3.901 4.021 3.992 3.808 -39.570 3.811 0.4900 0.192 0.193 0.000 8.033 8.034 0.000
VANMET_231 2017-09-30 02:30:00 231 11739.0 -39.580 3.808 3.930 3.700 4.012 100.000 100.000 -39.550 3.703 12.320 12.290 10.570 9.530 0.229 0.257 0.335 0.610 0.00 0.00 0.00 0.3150 352.50 26.34 1 1 0 -39.570 3.978 4.079 4.429 3.814 -39.540 3.817 -39.590 3.783 3.908 3.929 3.668 -39.560 3.670 0.7320 0.193 0.193 0.000 7.962 7.964 0.000
VANMET_231 2017-09-30 02:25:00 231 11739.0 -39.560 3.846 3.963 3.750 3.938 100.000 100.000 -39.520 3.753 12.330 12.290 10.570 9.530 0.229 0.257 0.335 0.610 0.00 0.00 0.00 0.4890 355.00 6.65 1 1 0 -39.540 3.928 4.038 4.008 3.837 -39.510 3.840 -39.570 3.791 3.919 3.884 3.684 -39.540 3.687 0.6210 0.193 0.194 -0.000 7.990 7.992 0.000
VANMET_231 2017-09-30 02:20:00 231 11739.0 -39.530 4.016 4.144 3.957 4.117 100.000 100.000 -39.500 3.960 12.340 12.300 10.570 9.530 0.229 0.257 0.335 0.610 0.00 0.00 0.00 0.5030 0.09 0.01 1 1 0 -39.530 4.075 4.221 4.213 4.033 -39.490 4.036 -39.540 3.938 4.050 3.999 3.841 -39.510 3.843 0.5680 0.194 0.194 0.000 8.108 8.109 0.000
VANMET_231 2017-09-30 02:15:00 231 11739.0 -39.520 4.155 4.312 4.150 4.222 100.000 100.000 -39.490 4.153 12.350 12.300 10.570 9.530 0.229 0.257 0.335 0.610 0.00 0.00 0.00 0.4340 5.51 2.33 1 1 0 -39.520 4.237 4.406 4.265 4.266 -39.480 4.269 -39.530 4.084 4.230 4.175 4.060 -39.500 4.063 0.5620 0.194 0.194 0.000 8.218 8.220 0.000
VANMET_231 2017-09-30 02:10:00 231 11739.0 -39.520 4.352 4.512 4.328 4.462 100.000 100.000 -39.480 4.332 12.360 12.300 10.570 9.530 0.229 0.257 0.335 0.610 0.00 0.00 0.00 0.3520 1.90 3.78 1 1 0 -39.510 4.436 4.588 4.554 4.385 -39.480 4.388 -39.520 4.252 4.425 4.273 4.272 -39.480 4.275 0.7190 0.194 0.195 0.000 8.322 8.324 0.000
VANMET_231 2017-09-30 02:05:00 231 11739.0 -39.510 4.530 4.652 4.439 4.661 100.000 100.000 -39.470 4.442 12.370 12.310 10.570 9.530 0.229 0.257 0.335 0.610 0.00 0.00 0.00 0.0000 0.00 0.00 1 1 0 -39.500 4.574 4.687 4.717 4.475 -39.470 4.478 -39.510 4.452 4.601 4.582 4.385 -39.480 4.388 0.0000 0.194 0.195 -0.000 8.387 8.389 0.000
VANMET_231 2017-09-30 02:00:00 231 11739.0 -39.480 4.626 4.745 4.550 4.718 100.000 100.000 -39.450 4.554 12.380 12.310 10.570 9.530 0.229 0.257 0.335 0.610 0.00 0.00 0.00 0.0000 0.00 0.00 1 1 0 -39.450 4.701 4.817 4.749 4.620 -39.420 4.624 -39.500 4.577 4.692 4.699 4.491 -39.470 4.494 0.0000 0.195 0.195 0.000 8.452 8.455 0.000
VANMET_231 2017-09-30 01:55:00 231 11739.0 -39.400 4.818 4.935 4.752 4.836 100.000 100.000 -39.370 4.756 12.390 12.310 10.570 9.530 0.229 0.257 0.335 0.610 0.00 0.00 0.00 0.0000 0.00 0.00 1 1 0 -39.360 4.928 5.047 4.952 4.850 -39.330 4.853 -39.450 4.710 4.824 4.749 4.657 -39.410 4.661 0.0000 0.196 0.197 0.000 8.573 8.575 0.000
VANMET_231 2017-09-30 01:50:00 231 11739.0 -39.250 5.075 5.187 4.994 5.079 100.000 100.000 -39.220 4.998 12.400 12.310 10.570 9.530 0.229 0.257 0.335 0.610 0.00 0.00 0.00 0.0290 246.80 0.00 1 1 0 -39.190 5.202 5.315 5.184 5.132 -39.160 5.136 -39.350 4.944 5.058 4.966 4.860 -39.320 4.863 0.2870 0.199 0.200 0.000 8.719 8.721 0.000
VANMET_231 2017-09-30 01:45:00 231 11739.0 -39.180 5.361 5.464 5.266 5.392 100.000 100.000 -39.150 5.270 12.410 12.320 10.560 9.530 0.229 0.257 0.335 0.610 0.00 0.00 0.00 0.2250 254.50 3.16 1 1 0 -39.180 5.508 5.602 5.608 5.368 -39.150 5.372 -39.190 5.213 5.323 5.174 5.135 -39.160 5.139 0.5030 0.201 0.201 0.000 8.886 8.888 0.000
VANMET_231 2017-09-30 01:40:00 231 11739.0 -39.170 5.529 5.632 5.386 5.661 100.000 100.000 -39.140 5.390 12.420 12.320 10.560 9.530 0.229 0.257 0.335 0.610 0.00 0.00 0.00 0.0000 0.00 0.00 1 1 0 -39.170 5.556 5.661 5.685 5.410 -39.140 5.414 -39.180 5.519 5.610 5.615 5.371 -39.150 5.375 0.0000 0.201 0.202 0.000 8.960 8.963 0.000
VANMET_231 2017-09-30 01:35:00 231 11739.0 -39.170 5.545 5.651 5.382 5.734 100.000 100.000 -39.140 5.386 12.430 12.320 10.560 9.530 0.229 0.257 0.335 0.610 0.00 0.00 0.00 0.2350 211.40 22.50 1 1 0 -39.170 5.569 5.675 5.796 5.413 -39.140 5.418 -39.170 5.505 5.611 5.686 5.350 -39.140 5.354 0.8430 0.201 0.202 0.000 8.958 8.960 0.000
VANMET_231 2017-09-30 01:30:00 231 11739.0 -39.160 5.492 5.603 5.338 5.670 100.000 100.000 -39.130 5.342 12.440 12.330 10.560 9.530 0.229 0.257 0.335 0.610 0.00 0.00 0.00 0.4610 253.90 17.79 1 1 0 -39.160 5.516 5.631 5.730 5.357 -39.130 5.361 -39.170 5.467 5.580 5.594 5.317 -39.140 5.321 0.6530 0.201 0.202 0.000 8.931 8.933 0.000
VANMET_231 2017-09-30 01:25:00 231 11739.0 -39.150 5.421 5.540 5.293 5.598 100.000 100.000 -39.120 5.298 12.440 12.330 10.560 9.530 0.229 0.257 0.335 0.610 0.00 0.00 0.00 0.1540 278.20 14.52 1 1 0 -39.150 5.474 5.589 5.709 5.310 -39.120 5.314 -39.160 5.390 5.506 5.494 5.270 -39.130 5.274 0.4510 0.201 0.202 0.000 8.903 8.906 0.000
VANMET_231 2017-09-30 01:20:00 231 11739.0 -39.130 5.445 5.566 5.355 5.527 100.000 100.000 -39.100 5.360 12.450 12.330 10.560 9.530 0.229 0.257 0.335 0.610 0.00 0.00 0.00 0.0720 317.10 0.08 1 1 0 -39.120 5.499 5.626 5.581 5.416 -39.090 5.420 -39.150 5.406 5.528 5.470 5.307 -39.120 5.311 0.2740 0.202 0.202 0.000 8.941 8.944 0.000
VANMET_231 2017-09-30 01:15:00 231 11739.0 -39.100 5.555 5.672 5.467 5.661 100.000 100.000 -39.070 5.471 12.460 12.330 10.560 9.530 0.229 0.257 0.335 0.610 0.00 0.00 0.00 0.4140 272.40 36.33 1 1 0 -39.090 5.623 5.741 5.778 5.529 -39.060 5.533 -39.120 5.503 5.631 5.605 5.419 -39.090 5.424 0.5230 0.202 0.203 0.000 9.011 9.014 0.000
VANMET_231 2017-09-30 01:10:00 231 11739.0 -39.070 5.675 5.788 5.575 5.817 100.000 100.000 -39.040 5.579 12.470 12.340 10.560 9.530 0.229 0.257 0.335 0.610 0.00 0.00 0.00 0.1230 227.60 3.16 1 1 0 -39.070 5.714 5.832 5.866 5.619 -39.040 5.623 -39.090 5.630 5.745 5.762 5.522 -39.060 5.527 0.5550 0.203 0.204 0.000 9.079 9.082 0.000
VANMET_231 2017-09-30 01:05:00 231 11739.0 -39.050 5.769 5.880 5.659 5.898 100.000 100.000 -39.030 5.663 12.480 12.340 10.560 9.530 0.229 0.257 0.335 0.610 0.00 0.00 0.00 0.0000 0.00 0.00 1 1 0 -39.040 5.818 5.931 5.961 5.705 -39.010 5.709 -39.060 5.720 5.836 5.846 5.615 -39.030 5.620 0.0000 0.204 0.204 0.000 9.132 9.135 0.000
VANMET_231 2017-09-30 01:00:00 231 11739.0 -39.030 5.821 5.936 5.696 5.996 100.000 100.000 -39.010 5.700 12.490 12.340 10.560 9.530 0.229 0.257 0.335 0.610 0.00 0.00 0.00 0.3030 230.10 27.31 1 1 0 -39.030 5.836 5.947 6.057 5.715 -39.000 5.719 -39.040 5.807 5.926 5.938 5.675 -39.010 5.679 0.6010 0.204 0.204 0.000 9.156 9.158 0.000
VANMET_231 2017-09-30 00:55:00 231 11739.0 -39.010 5.907 6.015 5.777 6.029 100.000 100.000 -38.980 5.782 12.500 12.340 10.560 9.530 0.229 0.257 0.335 0.610 0.00 0.00 0.00 0.6250 239.80 20.47 1 1 0 -38.960 5.949 6.063 6.087 5.837 -38.940 5.842 -39.030 5.813 5.927 5.913 5.705 -39.000 5.709 1.0710 0.204 0.205 0.000 9.207 9.210 0.000
VANMET_231 2017-09-30 00:50:00 231 11739.0 -38.960 5.981 6.096 5.854 6.133 100.000 100.000 -38.930 5.858 12.510 12.350 10.560 9.530 0.229 0.257 0.335 0.610 0.00 0.00 0.00 0.4810 221.60 18.19 1 1 0 -38.950 5.997 6.105 6.173 5.877 -38.930 5.882 -38.970 5.953 6.069 6.060 5.831 -38.940 5.835 0.8040 0.205 0.206 0.000 9.256 9.259 0.000
VANMET_231 2017-09-30 00:45:00 231 11739.0 -38.940 6.030 6.137 5.898 6.184 100.000 100.000 -38.920 5.903 12.520 12.350 10.560 9.530 0.229 0.257 0.335 0.610 0.00 0.00 0.00 0.4750 226.70 20.70 1 1 0 -38.930 6.045 6.155 6.269 5.913 -38.910 5.918 -38.950 6.005 6.112 6.139 5.880 -38.930 5.885 0.6990 0.206 0.206 0.000 9.285 9.288 0.000
VANMET_231 2017-09-30 00:40:00 231 11739.0 -38.930 6.038 6.155 5.918 6.197 100.000 100.000 -38.900 5.923 12.530 12.350 10.560 9.530 0.229 0.257 0.335 0.610 0.00 0.00 0.00 0.3030 201.80 30.33 1 1 0 -38.910 6.048 6.167 6.244 5.950 -38.890 5.955 -38.930 6.027 6.138 6.174 5.890 -38.900 5.895 0.6790 0.206 0.207 0.000 9.298 9.301 0.000
VANMET_231 2017-09-30 00:35:00 231 11739.0 -38.910 6.048 6.176 5.940 6.221 100.000 100.000 -38.880 5.945 12.540 12.350 10.560 9.530 0.229 0.257 0.335 0.610 0.00 0.00 0.00 0.4290 220.40 16.89 1 1 0 -38.900 6.064 6.197 6.294 5.963 -38.870 5.968 -38.910 6.032 6.156 6.171 5.917 -38.890 5.922 0.6080 0.207 0.207 -0.000 9.312 9.315 0.000
VANMET_231 2017-09-30 00:30:00 231 11739.0 -38.880 6.070 6.202 5.968 6.231 100.000 100.000 -38.850 5.973 12.550 12.360 10.560 9.530 0.229 0.257 0.335 0.610 0.00 0.00 0.00 0.3600 211.20 14.76 1 1 0 -38.860 6.095 6.224 6.300 5.987 -38.830 5.991 -38.900 6.040 6.170 6.188 5.937 -38.870 5.942 0.5750 0.207 0.208 0.000 9.330 9.333 0.000
VANMET_231 2017-09-30 00:25:00 231 11739.0 -38.840 6.091 6.211 5.973 6.255 100.000 100.000 -38.820 5.978 12.560 12.360 10.560 9.530 0.229 0.257 0.335 0.610 0.00 0.00 0.00 0.4110 211.00 7.37 1 1 0 -38.810 6.117 6.223 6.302 5.996 -38.780 6.001 -38.860 6.074 6.197 6.216 5.953 -38.830 5.958 0.5880 0.208 0.208 0.000 9.333 9.336 0.000
VANMET_231 2017-09-30 00:20:00 231 11739.0 -38.800 6.194 6.281 6.046 6.300 100.000 100.000 -38.770 6.051 12.570 12.360 10.550 9.530 0.229 0.257 0.335 0.610 0.00 0.00 0.00 0.4070 229.60 14.04 1 1 0 -38.790 6.241 6.321 6.357 6.106 -38.770 6.111 -38.810 6.126 6.228 6.218 5.983 -38.780 5.988 0.6270 0.209 0.210 0.000 9.380 9.384 0.000
VANMET_231 2017-09-30 00:15:00 231 11739.0 -38.780 6.299 6.377 6.129 6.446 100.000 100.000 -38.760 6.134 12.570 12.360 10.550 9.530 0.228 0.257 0.335 0.610 0.00 0.00 0.00 0.5960 223.30 17.20 1 1 0 -38.770 6.331 6.399 6.534 6.156 -38.740 6.161 -38.800 6.256 6.336 6.315 6.106 -38.770 6.111 0.8560 0.209 0.210 -0.000 9.434 9.438 0.000
VANMET_231 2017-09-30 00:10:00 231 11739.0 -38.760 6.340 6.433 6.202 6.471 100.000 100.000 -38.730 6.207 12.580 12.370 10.550 9.530 0.228 0.257 0.335 0.610 0.00 0.00 0.00 0.6470 236.50 14.69 1 1 0 -38.750 6.398 6.488 6.562 6.245 -38.720 6.250 -38.770 6.267 6.367 6.382 6.143 -38.740 6.147 1.1560 0.210 0.210 0.000 9.482 9.485 0.000
VANMET_231 2017-09-30 00:05:00 231 11739.0 -38.740 6.408 6.494 6.236 6.551 100.000 100.000 -38.710 6.241 12.590 12.370 10.550 9.530 0.228 0.257 0.335 0.610 0.00 0.00 0.00 0.4100 242.30 11.80 1 1 0 -38.730 6.427 6.508 6.605 6.255 -38.710 6.260 -38.750 6.389 6.482 6.514 6.219 -38.720 6.224 1.1110 0.210 0.211 0.000 9.504 9.508 0.000
VANMET_231 2017-09-30 00:00:00 231 11739.0 -38.720 6.383 6.479 6.224 6.545 100.000 100.000 -38.690 6.229 12.600 12.370 10.550 9.530 0.228 0.257 0.335 0.610 0.00 0.00 0.00 0.9180 222.20 12.68 1 1 0 -38.700 6.407 6.499 6.583 6.246 -38.680 6.251 -38.730 6.371 6.464 6.506 6.209 -38.710 6.214 1.2670 0.211 0.211 -0.000 9.497 9.500 0.000
VANMET_231 2017-09-29 23:55:00 231 11739.0 -38.630 6.386 6.476 6.223 6.545 100.000 100.000 -38.610 6.228 12.610 12.370 10.550 9.530 0.228 0.257 0.335 0.610 0.00 0.00 0.00 0.7250 223.20 19.54 1 1 0 -38.590 6.414 6.504 6.647 6.245 -38.560 6.250 -38.690 6.354 6.449 6.488 6.195 -38.670 6.200 1.4700 0.213 0.213 0.000 9.496 9.499 0.000
VANMET_231 2017-09-29 23:50:00 231 11739.0 -9.350 6.381 6.476 6.236 6.510 100.000 100.000 -9.340 6.241 12.620 12.370 10.550 9.530 0.228 0.257 0.335 0.610 0.00 0.00 0.00 0.6260 220.20 8.92 1 1 0 6.434 6.406 6.497 6.545 6.271 6.439 6.276 -38.660 6.360 6.452 6.477 6.198 -38.640 6.203 1.2480 3.008 3.010 0.000 9.504 9.508 0.000
VANMET_231 2017-09-29 23:45:00 231 11739.0 6.450 6.436 6.517 6.282 6.557 100.000 100.000 6.455 6.287 12.630 12.380 10.550 9.530 0.228 0.257 0.335 0.610 0.00 0.00 0.00 0.4390 220.60 14.40 1 1 0 6.474 6.462 6.542 6.590 6.308 6.479 6.313 6.421 6.411 6.499 6.529 6.248 6.426 6.253 0.7640 9.646 9.649 0.000 9.535 9.538 0.000
VANMET_231 2017-09-29 23:40:00 231 11739.0 6.487 6.461 6.558 6.306 6.595 100.000 100.000 6.492 6.311 12.640 12.380 10.550 9.530 0.228 0.257 0.335 0.610 0.00 0.00 0.00 0.3860 207.00 16.96 1 1 0 6.527 6.474 6.567 6.625 6.318 6.532 6.323 6.461 6.449 6.543 6.559 6.294 6.466 6.299 0.6860 9.671 9.674 0.000 9.550 9.554 0.000
VANMET_231 2017-09-29 23:35:00 231 11739.0 6.558 6.499 6.588 6.338 6.616 100.000 100.000 6.564 6.343 12.650 12.380 10.550 9.530 0.228 0.257 0.335 0.610 0.00 0.00 0.00 0.2210 235.90 12.11 1 1 0 6.600 6.540 6.615 6.650 6.370 6.605 6.375 6.507 6.475 6.567 6.561 6.308 6.512 6.313 0.4570 9.718 9.722 0.000 9.572 9.575 0.000
VANMET_231 2017-09-29 23:30:00 231 11739.0 6.610 6.591 6.668 6.425 6.672 100.000 100.000 6.616 6.430 12.660 12.380 10.550 9.530 0.228 0.257 0.335 0.610 0.00 0.00 0.00 0.5610 196.00 21.85 1 1 0 6.629 6.660 6.751 6.762 6.487 6.635 6.492 6.600 6.544 6.619 6.580 6.370 6.605 6.376 1.0650 9.753 9.757 0.000 9.629 9.633 0.000
VANMET_231 2017-09-29 23:25:00 231 11739.0 6.570 6.579 6.673 6.410 6.769 100.000 100.000 6.575 6.415 12.660 12.380 10.550 9.530 0.228 0.257 0.335 0.610 0.00 0.00 0.00 0.4190 208.30 19.54 1 1 0 6.620 6.685 6.774 6.950 6.483 6.625 6.489 6.533 6.521 6.617 6.645 6.374 6.538 6.379 0.7320 9.726 9.729 0.000 9.619 9.623 0.000
VANMET_231 2017-09-29 23:20:00 231 11739.0 6.591 6.562 6.652 6.401 6.673 100.000 100.000 6.596 6.406 12.670 12.390 10.550 9.530 0.228 0.257 0.335 0.610 0.00 0.00 0.00 0.6110 221.80 20.64 1 1 0 6.626 6.598 6.670 6.732 6.427 6.632 6.432 6.553 6.524 6.621 6.630 6.370 6.558 6.376 0.8430 9.740 9.743 0.000 9.613 9.617 0.000
VANMET_231 2017-09-29 23:15:00 231 11739.0 6.670 6.601 6.696 6.466 6.700 100.000 100.000 6.675 6.472 12.680 12.390 10.540 9.530 0.228 0.257 0.335 0.610 0.00 0.00 0.00 0.4410 221.70 24.07 1 1 0 6.725 6.643 6.721 6.749 6.506 6.731 6.511 6.626 6.575 6.671 6.643 6.420 6.631 6.425 1.3650 9.793 9.797 0.000 9.657 9.661 0.000
VANMET_231 2017-09-29 23:10:00 231 11739.0 6.762 6.736 6.786 6.527 6.844 100.000 100.000 6.768 6.533 12.690 12.390 10.540 9.530 0.228 0.257 0.335 0.610 0.02 0.00 0.00 0.6330 208.20 19.61 1 1 0 6.779 6.773 6.830 7.000 6.552 6.784 6.558 6.732 6.657 6.731 6.698 6.503 6.738 6.508 1.6730 9.855 9.860 0.000 9.697 9.701 0.000
VANMET_231 2017-09-29 23:05:00 231 11739.0 6.781 6.749 6.820 6.565 6.899 100.000 100.000 6.786 6.570 12.700 12.390 10.540 9.530 0.228 0.257 0.335 0.610 0.00 0.00 0.00 0.7230 217.20 16.44 1 1 0 6.792 6.766 6.836 6.946 6.586 6.797 6.591 6.762 6.736 6.801 6.869 6.533 6.767 6.538 1.4370 9.868 9.872 0.000 9.723 9.726 0.000
VANMET_231 2017-09-29 23:00:00 231 11739.0 6.814 6.787 6.842 6.568 6.904 100.000 100.000 6.820 6.573 12.710 12.390 10.540 9.530 0.228 0.257 0.336 0.610 0.00 0.00 0.00 0.9880 213.90 13.47 1 1 0 6.845 6.830 6.880 7.019 6.596 6.851 6.601 6.789 6.724 6.789 6.804 6.549 6.794 6.555 1.5610 9.891 9.895 0.000 9.725 9.728 0.000
VANMET_231 2017-09-29 22:55:00 231 11739.0 6.780 6.772 6.830 6.556 6.925 100.000 100.000 6.785 6.561 12.720 12.390 10.540 9.530 0.228 0.257 0.336 0.610 0.00 0.00 0.00 0.5920 208.60 18.84 1 1 0 6.822 6.788 6.853 6.980 6.573 6.827 6.578 6.742 6.740 6.804 6.879 6.536 6.747 6.541 1.0650 9.868 9.871 0.000 9.717 9.720 0.000
VANMET_231 2017-09-29 22:50:00 231 11739.0 6.725 6.707 6.788 6.533 6.866 100.000 100.000 6.730 6.538 12.730 12.400 10.540 9.530 0.228 0.257 0.336 0.610 0.00 0.00 0.00 0.6190 222.30 17.49 1 1 0 6.749 6.737 6.804 6.923 6.549 6.754 6.555 6.702 6.678 6.769 6.834 6.519 6.708 6.525 0.8690 9.830 9.834 0.000 9.701 9.705 0.000
VANMET_231 2017-09-29 22:45:00 231 11739.0 6.773 6.721 6.822 6.586 6.823 100.000 100.000 6.779 6.591 12.740 12.400 10.540 9.530 0.228 0.257 0.336 0.610 0.00 0.00 0.00 0.5840 195.00 22.87 1 1 0 6.808 6.769 6.869 6.939 6.629 6.814 6.634 6.719 6.670 6.768 6.772 6.536 6.724 6.541 1.2090 9.863 9.867 0.000 9.737 9.740 0.000
VANMET_231 2017-09-29 22:40:00 231 11739.0 6.864 6.794 6.884 6.641 6.924 100.000 100.000 6.870 6.646 12.740 12.400 10.540 9.530 0.228 0.257 0.336 0.610 0.00 0.00 0.00 0.4710 207.40 20.56 1 1 0 6.924 6.836 6.905 6.978 6.679 6.930 6.684 6.815 6.765 6.863 6.868 6.612 6.820 6.617 0.7710 9.925 9.929 0.000 9.774 9.777 0.000
VANMET_231 2017-09-29 22:35:00 231 11739.0 6.990 6.917 6.975 6.743 7.013 100.000 100.000 6.996 6.748 12.750 12.400 10.540 9.530 0.228 0.257 0.336 0.610 0.00 0.00 0.00 0.7880 222.40 13.42 1 1 0 7.027 6.981 7.032 7.134 6.795 7.033 6.800 6.948 6.832 6.905 6.897 6.672 6.953 6.677 1.1430 10.011 10.015 0.000 9.843 9.846 0.000
VANMET_231 2017-09-29 22:30:00 231 11739.0 7.010 7.010 7.084 6.825 7.171 100.000 100.000 7.015 6.831 12.760 12.400 10.540 9.530 0.228 0.257 0.336 0.610 0.00 0.00 0.00 0.4510 236.60 22.58 1 1 0 7.037 7.028 7.111 7.261 6.858 7.043 6.863 6.954 6.979 7.046 7.057 6.788 6.960 6.793 0.8490 10.025 10.028 0.000 9.898 9.902 0.000
VANMET_231 2017-09-29 22:25:00 231 11739.0 6.935 6.915 6.994 6.737 7.083 100.000 100.000 6.940 6.742 12.770 12.400 10.540 9.530 0.228 0.257 0.336 0.610 0.00 0.00 0.00 0.8870 232.10 23.55 1 1 0 6.974 6.978 7.055 7.199 6.784 6.980 6.790 6.910 6.857 6.942 6.984 6.711 6.916 6.716 1.7770 9.973 9.977 0.000 9.838 9.842 0.000
VANMET_231 2017-09-29 22:20:00 231 11739.0 7.007 6.931 7.007 6.770 7.037 100.000 100.000 7.012 6.776 12.780 12.400 10.540 9.530 0.228 0.257 0.336 0.610 0.01 0.00 0.00 1.3100 221.50 18.21 1 1 0 7.093 6.999 7.074 7.113 6.824 7.099 6.830 6.927 6.878 6.963 6.987 6.727 6.932 6.733 2.5680 10.023 10.026 0.000 9.861 9.865 0.000
VANMET_231 2017-09-29 22:15:00 231 11739.0 7.131 7.076 7.130 6.871 7.156 100.000 100.000 7.137 6.876 12.790 12.410 10.540 9.530 0.228 0.257 0.336 0.610 0.02 0.00 0.00 0.9390 207.70 22.53 1 1 0 7.176 7.132 7.171 7.235 6.913 7.182 6.919 7.087 6.995 7.070 7.063 6.834 7.092 6.840 1.5610 10.108 10.113 0.000 9.930 9.933 0.000
VANMET_231 2017-09-29 22:10:00 231 11739.0 7.130 7.092 7.154 6.922 7.212 100.000 100.000 7.136 6.928 12.790 12.410 10.530 9.530 0.228 0.257 0.336 0.610 0.03 0.00 0.00 0.9910 220.80 19.10 1 1 0 7.166 7.145 7.185 7.285 6.966 7.172 6.972 7.109 7.061 7.126 7.140 6.893 7.115 6.899 1.5940 10.108 10.112 0.000 9.964 9.969 0.000
VANMET_231 2017-09-29 22:05:00 231 11739.0 7.253 7.188 7.277 7.057 7.310 100.000 100.000 7.259 7.063 12.800 12.410 10.530 9.530 0.228 0.257 0.336 0.610 0.05 0.00 0.00 1.0560 231.40 20.55 1 1 0 7.335 7.306 7.400 7.511 7.126 7.341 7.132 7.143 7.091 7.182 7.196 6.990 7.148 6.995 1.5550 10.193 10.198 0.000 10.057 10.061 0.000
VANMET_231 2017-09-29 22:00:00 231 11739.0 7.337 7.301 7.369 7.123 7.443 100.000 100.000 7.343 7.129 12.810 12.410 10.530 9.530 0.228 0.257 0.336 0.610 0.00 0.00 0.00 0.8550 239.90 21.31 1 1 0 7.352 7.317 7.395 7.551 7.143 7.358 7.148 7.322 7.284 7.351 7.355 7.103 7.328 7.108 1.5030 10.252 10.256 0.000 10.103 10.107 0.000
VANMET_231 2017-09-29 21:55:00 231 11739.0 7.355 7.323 7.399 7.155 7.459 100.000 100.000 7.361 7.161 12.820 12.410 10.530 9.530 0.228 0.257 0.336 0.610 0.00 0.00 0.00 0.7930 233.50 20.49 1 1 0 7.382 7.355 7.448 7.627 7.192 7.388 7.198 7.328 7.286 7.365 7.353 7.126 7.334 7.131 1.3980 10.265 10.269 -0.000 10.125 10.129 0.000
VANMET_231 2017-09-29 21:50:00 231 11739.0 7.402 7.363 7.444 7.204 7.500 100.000 100.000 7.408 7.210 12.830 12.410 10.530 9.530 0.228 0.257 0.336 0.610 0.00 0.00 0.00 0.6280 247.30 16.37 1 1 0 7.448 7.375 7.455 7.563 7.232 7.454 7.238 7.382 7.355 7.436 7.437 7.179 7.388 7.185 1.2090 10.298 10.302 0.000 10.159 10.163 0.000
VANMET_231 2017-09-29 21:45:00 231 11739.0 7.503 7.460 7.531 7.286 7.544 100.000 100.000 7.510 7.292 12.840 12.410 10.530 9.530 0.228 0.257 0.336 0.610 0.02 0.00 0.00 0.9250 219.80 28.88 1 1 0 7.534 7.536 7.604 7.666 7.342 7.541 7.348 7.462 7.379 7.458 7.448 7.229 7.468 7.235 1.4180 10.369 10.374 0.000 10.216 10.221 0.000
VANMET_231 2017-09-29 21:40:00 231 11739.0 7.522 7.520 7.608 7.365 7.667 100.000 100.000 7.528 7.371 12.840 12.410 10.530 9.530 0.227 0.257 0.336 0.610 0.01 0.00 0.00 0.6660 247.10 27.18 1 1 0 7.534 7.544 7.635 7.730 7.401 7.541 7.407 7.501 7.495 7.585 7.576 7.345 7.507 7.351 0.9800 10.383 10.387 0.000 10.272 10.276 0.000
VANMET_231 2017-09-29 21:35:00 231 11739.0 7.549 7.540 7.631 7.392 7.716 100.000 100.000 7.555 7.398 12.850 12.410 10.530 9.530 0.227 0.257 0.336 0.610 0.01 0.00 0.00 0.8610 238.70 13.35 1 1 0 7.568 7.564 7.660 7.811 7.421 7.574 7.427 7.521 7.519 7.611 7.652 7.361 7.527 7.367 1.4180 10.402 10.406 -0.000 10.291 10.295 0.000
VANMET_231 2017-09-29 21:30:00 231 11739.0 7.522 7.527 7.610 7.366 7.705 100.000 100.000 7.528 7.372 12.860 12.410 10.530 9.530 0.227 0.257 0.336 0.610 0.00 0.00 0.00 0.5050 270.40 16.10 1 1 0 7.551 7.558 7.638 7.784 7.405 7.557 7.411 7.494 7.498 7.584 7.624 7.331 7.500 7.337 1.2220 10.383 10.387 0.000 10.273 10.277 0.000
VANMET_231 2017-09-29 21:25:00 231 11739.0 7.486 7.472 7.556 7.317 7.626 100.000 100.000 7.492 7.323 12.870 12.420 10.530 9.530 0.227 0.257 0.336 0.610 0.00 0.00 0.00 0.8380 228.20 18.16 1 1 0 7.517 7.504 7.585 7.706 7.341 7.523 7.347 7.468 7.459 7.546 7.590 7.298 7.474 7.304 1.4700 10.357 10.361 0.000 10.238 10.242 0.000
VANMET_231 2017-09-29 21:20:00 231 11739.0 7.521 7.511 7.597 7.353 7.653 100.000 100.000 7.527 7.359 12.870 12.420 10.530 9.530 0.227 0.257 0.336 0.610 0.00 0.00 0.00 0.7260 236.10 26.33 1 1 0 7.547 7.538 7.635 7.753 7.371 7.553 7.377 7.501 7.482 7.564 7.598 7.315 7.507 7.321 1.3920 10.382 10.386 0.000 10.263 10.268 0.000
VANMET_231 2017-09-29 21:15:00 231 11739.0 7.529 7.534 7.634 7.380 7.729 100.000 100.000 7.535 7.386 12.880 12.420 10.530 9.530 0.227 0.257 0.336 0.610 0.00 0.00 0.00 0.4170 274.80 50.72 1 1 0 7.554 7.542 7.642 7.789 7.398 7.560 7.404 7.517 7.515 7.608 7.662 7.361 7.523 7.367 0.7580 10.388 10.392 0.000 10.282 10.287 0.000
VANMET_231 2017-09-29 21:10:00 231 11739.0 7.579 7.557 7.648 7.396 7.711 100.000 100.000 7.585 7.402 12.890 12.420 10.530 9.530 0.227 0.257 0.336 0.610 0.00 0.00 0.00 0.8370 224.10 46.85 1 1 0 7.610 7.587 7.679 7.784 7.437 7.616 7.443 7.537 7.513 7.609 7.652 7.358 7.543 7.364 1.7050 10.423 10.428 0.000 10.294 10.298 0.000
VANMET_231 2017-09-29 21:05:00 231 11739.0 7.618 7.591 7.685 7.445 7.745 100.000 100.000 7.625 7.451 12.900 12.420 10.520 9.530 0.227 0.257 0.336 0.610 0.00 0.00 0.00 0.4930 234.90 27.35 1 1 0 7.673 7.659 7.732 7.789 7.497 7.679 7.503 7.590 7.574 7.674 7.697 7.424 7.596 7.430 0.9080 10.451 10.456 0.000 10.328 10.332 0.000
VANMET_231 2017-09-29 21:00:00 231 11739.0 7.629 7.651 7.748 7.493 7.838 100.000 100.000 7.636 7.499 12.900 12.420 10.520 9.530 0.227 0.257 0.336 0.610 0.00 0.00 0.00 0.6620 217.30 30.93 1 1 0 7.670 7.678 7.768 7.891 7.520 7.676 7.526 7.599 7.605 7.719 7.782 7.466 7.605 7.472 1.5610 10.459 10.464 0.000 10.362 10.366 -0.000
VANMET_231 2017-09-29 20:55:00 231 11739.0 7.624 7.606 7.717 7.469 7.786 100.000 100.000 7.630 7.475 12.910 12.420 10.520 9.530 0.227 0.257 0.336 0.610 0.00 0.00 0.00 0.4580 227.60 59.64 1 1 0 7.659 7.615 7.732 7.823 7.483 7.665 7.489 7.599 7.597 7.699 7.725 7.450 7.605 7.456 1.1500 10.455 10.460 0.000 10.345 10.349 0.000
VANMET_231 2017-09-29 20:50:00 231 11739.0 7.740 7.696 7.782 7.538 7.811 100.000 100.000 7.746 7.544 12.920 12.420 10.520 9.530 0.227 0.257 0.336 0.610 0.00 0.00 0.00 0.9270 220.80 30.60 1 1 0 7.782 7.772 7.866 7.920 7.609 7.788 7.615 7.666 7.615 7.709 7.707 7.473 7.672 7.479 1.6920 10.539 10.543 0.000 10.394 10.398 0.000
VANMET_231 2017-09-29 20:45:00 231 11739.0 7.819 7.794 7.887 7.631 7.945 100.000 100.000 7.826 7.637 12.920 12.420 10.520 9.530 0.227 0.257 0.336 0.610 0.00 0.00 0.00 0.6840 254.10 34.40 1 1 0 7.885 7.853 7.925 8.050 7.675 7.891 7.682 7.785 7.770 7.859 7.880 7.599 7.791 7.605 2.0190 10.595 10.601 0.000 10.460 10.465 0.000
VANMET_231 2017-09-29 20:40:00 231 11739.0 7.882 7.877 7.968 7.718 8.050 100.000 100.000 7.889 7.724 12.930 12.420 10.520 9.530 0.227 0.257 0.336 0.610 0.00 0.00 0.00 0.7640 189.80 64.59 1 1 0 7.915 7.903 7.992 8.100 7.742 7.921 7.748 7.851 7.827 7.928 7.990 7.695 7.858 7.702 1.8360 10.641 10.646 0.000 10.523 10.527 0.000
VANMET_231 2017-09-29 20:35:00 231 11739.0 7.897 7.871 7.955 7.715 8.020 100.000 100.000 7.903 7.722 12.940 12.420 10.520 9.530 0.227 0.257 0.336 0.610 0.00 0.00 0.00 0.9060 229.00 25.52 1 1 0 7.921 7.910 7.974 8.080 7.742 7.928 7.748 7.851 7.824 7.922 7.977 7.689 7.858 7.695 1.7510 10.652 10.656 0.000 10.521 10.526 0.000
VANMET_231 2017-09-29 20:30:00 231 11739.0 7.901 7.888 7.968 7.727 8.060 100.000 100.000 7.907 7.733 12.940 12.420 10.520 9.530 0.227 0.257 0.336 0.610 0.00 0.00 0.00 1.0520 215.70 31.60 1 1 0 7.914 7.911 7.988 8.110 7.755 7.921 7.761 7.888 7.873 7.953 8.020 7.712 7.894 7.718 3.2600 10.655 10.659 0.000 10.529 10.533 0.000
VANMET_231 2017-09-29 20:25:00 231 11739.0 7.926 7.900 7.981 7.753 8.040 100.000 100.000 7.933 7.760 12.950 12.420 10.520 9.530 0.227 0.257 0.336 0.610 0.00 0.00 0.00 0.8260 231.70 29.23 1 1 0 7.974 7.962 8.040 8.100 7.792 7.981 7.798 7.894 7.866 7.948 8.010 7.722 7.901 7.728 1.5290 10.673 10.678 -0.000 10.548 10.553 0.000
VANMET_231 2017-09-29 20:20:00 231 11739.0 -5.216 7.962 8.040 7.803 8.120 100.000 100.000 -5.217 7.809 12.950 12.420 10.520 9.520 0.227 0.257 0.336 0.610 0.00 0.00 0.00 0.9350 233.60 19.08 1 1 0 8.010 7.981 8.060 8.140 7.821 8.020 7.828 -30.510 7.939 8.030 8.080 7.784 -30.520 7.791 1.3720 4.143 4.143 0.000 10.584 10.588 -0.000
VANMET_231 2017-09-29 20:15:00 231 11739.0 -24.050 8.000 8.080 7.838 8.150 100.000 100.000 -24.060 7.845 12.960 12.420 10.520 9.530 0.227 0.257 0.336 0.610 0.00 0.00 0.00 0.7620 219.50 26.03 1 1 0 7.981 8.020 8.100 8.200 7.851 7.987 7.858 -32.520 7.964 8.050 8.090 7.821 -32.530 7.828 1.6860 0.871 0.870 0.000 10.609 10.614 0.000
VANMET_231 2017-09-29 20:10:00 231 11739.0 -23.930 8.010 8.100 7.858 8.180 100.000 100.000 -23.940 7.864 12.970 12.420 10.520 9.530 0.227 0.257 0.336 0.610 0.00 0.00 0.00 0.8470 231.60 17.74 1 1 0 -16.310 8.020 8.120 8.230 7.884 -16.310 7.891 -27.370 7.988 8.070 8.110 7.824 -27.390 7.831 2.1690 0.881 0.880 0.000 10.624 10.628 0.000
VANMET_231 2017-09-29 20:05:00 231 11739.0 -30.270 8.040 8.130 7.884 8.200 100.000 100.000 -30.270 7.890 12.970 12.420 10.510 9.530 0.227 0.257 0.336 0.610 0.00 0.00 0.00 0.6980 240.80 27.75 1 1 0 -11.880 8.070 8.160 8.250 7.911 -11.890 7.917 -36.840 8.020 8.110 8.150 7.864 -36.830 7.871 1.2280 0.489 0.489 0.000 10.643 10.647 0.000
VANMET_231 2017-09-29 20:00:00 231 11739.0 -37.280 8.080 8.170 7.921 8.230 100.000 100.000 -37.260 7.928 12.980 12.420 10.510 9.530 0.227 0.257 0.336 0.610 0.00 0.00 0.00 0.8800 246.20 35.80 1 1 0 -36.940 8.120 8.200 8.320 7.960 -36.930 7.967 -37.590 8.060 8.150 8.200 7.894 -37.580 7.901 2.3720 0.244 0.245 0.000 10.669 10.675 0.000
VANMET_231 2017-09-29 19:55:00 231 11739.0 -37.850 8.150 8.240 7.992 8.320 100.000 100.000 -37.840 7.998 12.980 12.420 10.510 9.530 0.227 0.257 0.336 0.610 0.00 0.00 0.00 0.7610 265.90 44.03 1 1 0 -37.620 8.160 8.250 8.370 8.010 -37.610 8.020 -38.060 8.120 8.200 8.240 7.964 -38.040 7.970 1.4180 0.230 0.231 0.000 10.721 10.726 0.000
VANMET_231 2017-09-29 19:50:00 231 11739.0 -38.220 8.200 8.280 8.050 8.340 100.000 100.000 -38.200 8.050 12.990 12.420 10.510 9.530 0.227 0.257 0.336 0.610 0.00 0.00 0.00 0.3630 275.00 40.00 1 1 0 -38.080 8.230 8.300 8.390 8.080 -38.060 8.090 -38.330 8.150 8.230 8.280 8.000 -38.310 8.010 0.8170 0.222 0.222 0.000 10.764 10.764 0.000
VANMET_231 2017-09-29 19:45:00 231 11739.0 -38.420 8.260 8.350 8.110 8.410 100.000 100.000 -38.390 8.120 12.990 12.420 10.510 9.530 0.226 0.257 0.336 0.610 0.00 0.00 0.00 0.5030 269.10 51.96 1 1 0 -38.340 8.310 8.400 8.530 8.140 -38.320 8.150 -38.490 8.230 8.320 8.350 8.070 -38.470 8.080 1.0450 0.217 0.218 0.000 10.808 10.815 0.000
VANMET_231 2017-09-29 19:40:00 231 11739.0 -38.600 8.300 8.370 8.130 8.470 100.000 100.000 -38.580 8.140 13.000 12.420 10.510 9.530 0.226 0.257 0.336 0.610 0.00 0.00 0.00 0.5520 262.90 30.69 1 1 0 -38.500 8.340 8.400 8.530 8.160 -38.480 8.170 -38.690 8.270 8.340 8.390 8.110 -38.670 8.110 1.1890 0.213 0.214 0.000 10.822 10.830 -0.000
VANMET_231 2017-09-29 19:35:00 231 11739.0 -38.790 8.280 8.360 8.130 8.450 100.000 100.000 -38.760 8.140 13.000 12.420 10.510 9.530 0.226 0.257 0.336 0.610 0.00 0.00 0.00 0.5060 280.10 51.15 1 1 0 -38.700 8.320 8.390 8.520 8.150 -38.680 8.160 -38.870 8.270 8.350 8.400 8.110 -38.840 8.120 0.8820 0.209 0.210 0.000 10.822 10.830 -0.000
VANMET_231 2017-09-29 19:30:00 231 11739.0 -38.930 8.290 8.370 8.150 8.440 100.000 100.000 -38.910 8.160 13.010 12.420 10.510 9.530 0.226 0.256 0.336 0.610 0.00 0.00 0.00 0.9570 221.70 22.18 1 1 0 -38.880 8.340 8.420 8.500 8.190 -38.850 8.200 -38.980 8.260 8.340 8.400 8.110 -38.950 8.120 1.7840 0.206 0.207 0.000 10.837 10.844 -0.000
VANMET_231 2017-09-29 19:25:00 231 11739.0 -39.020 8.370 8.450 8.220 8.520 100.000 100.000 -38.990 8.220 13.010 12.420 10.510 9.530 0.226 0.256 0.336 0.610 0.00 0.00 0.00 0.4930 245.40 27.13 1 1 0 -38.980 8.400 8.480 8.590 8.240 -38.960 8.250 -39.050 8.330 8.410 8.470 8.190 -39.020 8.190 1.1630 0.204 0.205 0.000 10.889 10.889 0.000
VANMET_231 2017-09-29 19:20:00 231 11739.0 -39.070 8.380 8.460 8.230 8.540 100.000 100.000 -39.040 8.230 13.020 12.420 10.510 9.530 0.226 0.257 0.336 0.610 0.00 0.00 0.00 0.8950 262.80 29.30 1 1 0 -39.050 8.420 8.490 8.590 8.260 -39.020 8.270 -39.090 8.340 8.430 8.470 8.200 -39.060 8.200 2.4630 0.203 0.204 0.000 10.896 10.896 0.000
VANMET_231 2017-09-29 19:15:00 231 11739.0 -39.100 8.430 8.510 8.270 8.580 100.000 100.000 -39.070 8.270 13.020 12.420 10.510 9.530 0.226 0.257 0.336 0.610 0.00 0.00 0.00 0.7040 256.60 31.08 1 1 0 -39.090 8.450 8.540 8.660 8.280 -39.060 8.290 -39.110 8.420 8.490 8.540 8.250 -39.080 8.260 1.1430 0.202 0.203 0.000 10.926 10.926 0.000
VANMET_231 2017-09-29 19:10:00 231 11739.0 -39.120 8.440 8.520 8.280 8.600 100.000 100.000 -39.090 8.290 13.020 12.420 10.500 9.530 0.226 0.257 0.336 0.610 0.00 0.00 0.00 0.4880 251.20 19.72 1 1 0 -39.110 8.440 8.530 8.690 8.310 -39.080 8.320 -39.130 8.420 8.500 8.560 8.250 -39.100 8.260 1.2810 0.202 0.203 0.000 10.933 10.941 0.000
VANMET_231 2017-09-29 19:05:00 231 11739.0 -39.130 8.430 8.520 8.290 8.590 100.000 100.000 -39.100 8.300 13.030 12.420 10.500 9.530 0.226 0.257 0.336 0.610 0.00 0.00 0.00 0.3530 251.10 20.07 1 1 0 -39.130 8.460 8.550 8.650 8.320 -39.100 8.330 -39.140 8.400 8.490 8.540 8.260 -39.110 8.270 0.6660 0.202 0.202 0.000 10.941 10.948 0.000
VANMET_231 2017-09-29 19:00:00 231 11739.0 -39.140 8.470 8.550 8.320 8.630 100.000 100.000 -39.110 8.320 13.030 12.420 10.500 9.530 0.226 0.256 0.336 0.610 0.00 0.00 0.00 0.2260 276.00 44.22 1 1 0 -39.140 8.490 8.560 8.670 8.330 -39.110 8.340 -39.140 8.460 8.540 8.580 8.300 -39.110 8.310 0.8820 0.202 0.202 0.000 10.963 10.963 0.000
VANMET_231 2017-09-29 18:55:00 231 11739.0 -39.140 8.470 8.560 8.320 8.640 100.000 100.000 -39.110 8.330 13.040 12.420 10.500 9.530 0.226 0.256 0.336 0.610 0.00 0.00 0.00 0.5090 246.90 35.35 1 1 0 -39.140 8.480 8.580 8.700 8.340 -39.110 8.350 -39.140 8.460 8.550 8.600 8.300 -39.110 8.310 1.0130 0.202 0.202 0.000 10.963 10.970 0.000
VANMET_231 2017-09-29 18:50:00 231 11739.0 -39.190 8.480 8.570 8.350 8.630 100.000 100.000 -39.160 8.360 13.040 12.420 10.500 9.530 0.226 0.256 0.336 0.610 0.00 0.00 0.00 0.8790 224.80 15.72 1 1 0 -39.140 8.510 8.600 8.720 8.400 -39.110 8.410 -39.240 8.450 8.550 8.580 8.320 -39.210 8.330 1.7710 0.201 0.201 0.000 10.985 10.993 -0.000
VANMET_231 2017-09-29 18:45:00 231 11739.0 -39.260 8.540 8.630 8.430 8.680 100.000 100.000 -39.220 8.430 13.040 12.420 10.500 9.530 0.226 0.256 0.336 0.610 0.00 0.00 0.00 0.8590 242.30 17.96 1 1 0 -39.250 8.560 8.660 8.700 8.470 -39.210 8.480 -39.270 8.510 8.610 8.650 8.400 -39.230 8.410 1.5160 0.199 0.200 0.000 11.045 11.045 -0.000
VANMET_231 2017-09-29 18:40:00 231 11739.0 -39.270 8.630 8.720 8.500 8.760 100.000 100.000 -39.240 8.510 13.040 12.420 10.500 9.530 0.226 0.256 0.336 0.610 0.00 0.00 0.00 0.6570 236.60 27.57 1 1 0 -39.270 8.660 8.750 8.830 8.540 -39.230 8.540 -39.270 8.570 8.660 8.700 8.460 -39.240 8.460 1.5940 0.199 0.200 0.000 11.098 11.105 -0.000
VANMET_231 2017-09-29 18:35:00 231 11739.0 -39.280 8.690 8.770 8.560 8.830 100.000 100.000 -39.250 8.560 13.050 12.420 10.500 9.530 0.226 0.256 0.336 0.610 0.00 0.00 0.00 0.4040 228.60 23.16 1 1 0 -39.280 8.720 8.800 8.860 8.590 -39.240 8.600 -39.280 8.660 8.740 8.790 8.530 -39.250 8.530 0.9210 0.199 0.199 0.000 11.143 11.143 0.000
VANMET_231 2017-09-29 18:30:00 231 11739.0 -39.290 8.730 8.810 8.580 8.890 100.000 100.000 -39.250 8.590 13.050 12.420 10.500 9.530 0.226 0.256 0.336 0.610 0.00 0.00 0.00 0.8520 216.20 31.76 1 1 0 -39.280 8.760 8.840 8.950 8.610 -39.250 8.610 -39.290 8.690 8.770 8.830 8.550 -39.260 8.560 3.0450 0.198 0.199 0.000 11.158 11.166 0.000
VANMET_231 2017-09-29 18:25:00 231 11739.0 -39.290 8.750 8.820 8.590 8.910 100.000 100.000 -39.260 8.590 13.050 12.420 10.500 9.530 0.226 0.256 0.336 0.610 0.00 0.00 0.00 0.5750 200.00 27.11 1 1 0 -39.290 8.780 8.850 8.980 8.620 -39.250 8.630 -39.290 8.730 8.800 8.860 8.560 -39.260 8.570 1.2480 0.198 0.199 0.000 11.166 11.166 0.000
VANMET_231 2017-09-29 18:20:00 231 11739.0 -39.290 8.710 8.790 8.560 8.860 100.000 100.000 -39.260 8.570 13.050 12.420 10.500 9.530 0.226 0.256 0.336 0.610 0.00 0.00 0.00 0.5640 219.30 17.41 1 1 0 -39.290 8.730 8.800 8.920 8.580 -39.260 8.590 -39.290 8.700 8.780 8.830 8.540 -39.260 8.550 0.9730 0.198 0.199 0.000 11.143 11.151 0.000
VANMET_231 2017-09-29 18:15:00 231 11739.0 -39.290 8.680 8.770 8.540 8.850 100.000 100.000 -39.260 8.550 13.060 12.420 10.500 9.530 0.226 0.256 0.336 0.610 0.00 0.00 0.00 0.1570 242.70 13.26 1 1 0 -39.290 8.700 8.780 8.880 8.570 -39.250 8.580 -39.290 8.660 8.750 8.800 8.520 -39.260 8.520 0.6140 0.198 0.199 0.000 11.128 11.135 0.000
VANMET_231 2017-09-29 18:10:00 231 11739.0 -39.290 8.670 8.750 8.530 8.810 99.900 100.000 -39.270 8.540 13.060 12.420 10.490 9.530 0.226 0.256 0.336 0.610 0.03 0.00 0.00 0.4460 254.10 12.21 1 1 0 -39.290 8.680 8.760 8.840 8.550 -39.260 8.550 -39.290 8.660 8.750 8.780 8.510 -39.270 8.510 0.8300 0.198 0.199 0.000 11.120 11.128 0.000
VANMET_231 2017-09-29 18:05:00 231 11739.0 -39.290 8.660 8.750 8.530 8.810 99.800 100.000 -39.270 8.540 13.060 12.420 10.490 9.520 0.226 0.256 0.336 0.610 0.39 0.00 0.00 0.2440 188.50 26.57 1 1 0 -39.290 8.680 8.770 8.890 8.550 -39.270 8.560 -39.290 8.650 8.740 8.770 8.510 -39.280 8.520 0.8560 0.198 0.199 0.000 11.120 11.128 0.000
VANMET_231 2017-09-29 18:00:00 231 11739.0 -39.290 8.680 8.780 8.560 8.790 99.800 100.000 -39.280 8.570 13.060 12.420 10.490 9.530 0.226 0.256 0.336 0.610 0.89 0.00 0.00 0.0000 0.00 0.00 1 1 0 -39.290 8.700 8.780 8.840 8.580 -39.270 8.580 -39.290 8.670 8.770 8.770 8.540 -39.280 8.540 0.0000 0.198 0.199 0.000 11.143 11.151 0.000
VANMET_231 2017-09-29 17:55:00 231 11739.0 -39.280 8.720 8.800 8.600 8.850 99.700 100.000 -39.280 8.600 13.060 12.420 10.490 9.530 0.226 0.256 0.336 0.610 1.26 0.00 0.00 0.1480 172.80 13.87 1 1 0 -39.280 8.740 8.820 8.890 8.620 -39.280 8.630 -39.290 8.700 8.780 8.780 8.570 -39.280 8.580 0.6990 0.199 0.199 0.001 11.173 11.173 0.000
VANMET_231 2017-09-29 17:50:00 231 11739.0 -39.280 8.730 8.810 8.620 8.870 99.600 100.000 -39.280 8.620 13.060 12.420 10.490 9.530 0.226 0.256 0.336 0.610 3.36 0.00 0.00 0.0000 0.00 0.00 1 1 0 -39.270 8.740 8.820 8.900 8.640 -39.280 8.640 -39.280 8.730 8.800 8.840 8.600 -39.290 8.600 0.0000 0.199 0.199 0.001 11.188 11.188 0.000
VANMET_231 2017-09-29 17:45:00 231 11739.0 -39.270 8.710 8.800 8.640 8.850 99.400 100.000 -39.290 8.650 13.060 12.420 10.490 9.530 0.226 0.256 0.336 0.610 3.68 0.00 0.00 0.2150 265.30 5.83 1 1 0 -39.260 8.720 8.810 8.920 8.670 -39.280 8.680 -39.270 8.680 8.780 8.780 8.610 -39.310 8.620 0.4770 0.199 0.198 0.001 11.204 11.211 0.000
VANMET_231 2017-09-29 17:40:00 231 11739.0 -39.260 8.710 8.810 8.650 8.830 99.000 100.000 -39.330 8.660 13.070 12.420 10.490 9.520 0.226 0.256 0.336 0.610 6.47 0.00 0.00 0.4060 255.90 2.52 1 1 0 -39.260 8.720 8.830 8.860 8.660 -39.310 8.670 -39.270 8.700 8.800 8.790 8.630 -39.340 8.640 0.5290 0.199 0.198 0.002 11.211 11.219 0.000
VANMET_231 2017-09-29 17:35:00 231 11739.0 -39.240 8.770 8.870 8.700 8.830 98.700 100.000 -39.330 8.700 13.070 12.420 10.490 9.530 0.226 0.256 0.336 0.610 9.96 0.00 0.00 0.4290 243.50 10.00 1 1 0 -39.220 8.820 8.920 8.890 8.760 -39.320 8.760 -39.260 8.720 8.820 8.780 8.650 -39.340 8.650 0.5950 0.200 0.198 0.003 11.249 11.249 0.000
VANMET_231 2017-09-29 17:30:00 231 11739.0 -39.190 8.930 9.030 8.870 8.920 98.800 100.000 -39.280 8.880 13.070 12.420 10.490 9.530 0.226 0.256 0.336 0.610 15.61 0.00 0.00 0.3420 223.20 14.36 1 1 0 -39.140 9.060 9.160 9.020 8.980 -39.220 8.990 -39.220 8.830 8.920 8.850 8.750 -39.320 8.750 0.6990 0.201 0.199 0.002 11.379 11.387 -0.000
VANMET_231 2017-09-29 17:25:00 231 11739.0 -39.130 9.170 9.270 9.060 9.190 98.900 100.000 -39.200 9.070 13.070 12.420 10.490 9.530 0.226 0.256 0.336 0.610 21.51 0.00 0.00 0.4140 183.70 38.94 1 1 0 -39.120 9.200 9.320 9.270 9.090 -39.190 9.100 -39.140 9.080 9.190 9.040 9.020 -39.220 9.020 0.6790 0.202 0.200 0.002 11.526 11.534 0.000
VANMET_231 2017-09-29 17:20:00 231 11739.0 -39.110 9.230 9.340 9.080 9.280 98.900 100.000 -39.180 9.090 13.070 12.420 10.480 9.530 0.226 0.256 0.336 0.610 39.27 0.00 0.00 0.1440 244.50 31.15 1 1 0 -39.100 9.270 9.370 9.370 9.110 -39.170 9.120 -39.120 9.200 9.310 9.160 9.040 -39.190 9.050 0.4970 0.202 0.201 0.002 11.542 11.550 0.000
VANMET_231 2017-09-29 17:15:00 231 11739.0 -39.090 9.190 9.270 9.000 9.190 99.000 100.000 -39.160 9.010 13.070 12.420 10.480 9.530 0.226 0.256 0.336 0.610 75.78 0.00 0.00 0.4600 252.70 35.41 1 1 0 -39.080 9.220 9.300 9.290 9.040 -39.120 9.050 -39.100 9.160 9.220 9.090 8.960 -39.180 8.970 0.7450 0.203 0.201 0.002 11.480 11.488 0.000
VANMET_231 2017-09-29 17:10:00 231 11739.0 -39.070 9.240 9.300 9.040 9.260 99.300 100.000 -39.110 9.040 13.070 12.420 10.480 9.530 0.226 0.256 0.336 0.610 59.10 0.00 0.00 0.5170 200.50 25.28 1 1 0 -39.060 9.260 9.330 9.370 9.070 -39.100 9.080 -39.080 9.210 9.260 9.110 9.010 -39.120 9.020 0.9340 0.203 0.202 0.001 11.511 11.511 -0.000
VANMET_231 2017-09-29 17:05:00 231 11739.0 -39.030 9.180 9.250 8.990 9.250 99.100 100.000 -39.080 9.000 13.070 12.420 10.480 9.530 0.226 0.256 0.336 0.610 55.60 0.00 0.00 0.3430 239.20 26.76 1 1 0 -38.990 9.220 9.300 9.370 9.030 -39.060 9.040 -39.060 9.140 9.190 9.090 8.950 -39.110 8.960 0.6790 0.204 0.203 0.002 11.472 11.480 0.000
VANMET_231 2017-09-29 17:00:00 231 11739.0 -38.930 9.090 9.170 8.920 9.160 98.600 100.000 -39.040 8.920 13.070 12.420 10.480 9.520 0.226 0.256 0.336 0.610 47.69 0.00 0.00 0.3930 234.10 45.14 1 1 0 -38.880 9.170 9.240 9.300 8.960 -39.010 8.970 -38.980 9.050 9.130 9.070 8.890 -39.070 8.900 1.4310 0.206 0.204 0.003 11.418 11.418 0.000
VANMET_231 2017-09-29 16:55:00 231 11739.0 -38.850 9.140 9.220 8.950 9.180 98.600 100.000 -38.960 8.960 13.070 12.420 10.480 9.530 0.225 0.256 0.336 0.610 41.74 0.00 0.00 0.4920 229.90 26.62 1 1 0 -38.820 9.220 9.300 9.330 8.990 -38.910 9.000 -38.880 9.080 9.160 9.070 8.920 -38.990 8.930 1.1170 0.208 0.205 0.003 11.441 11.449 0.000
VANMET_231 2017-09-29 16:50:00 231 11739.0 -38.790 9.200 9.270 8.970 9.220 98.700 100.000 -38.890 8.970 13.070 12.420 10.480 9.530 0.225 0.256 0.336 0.610 42.18 0.00 0.00 0.5820 232.30 23.25 1 1 0 -38.760 9.230 9.300 9.320 8.990 -38.870 9.000 -38.820 9.180 9.250 9.160 8.940 -38.920 8.950 1.2220 0.209 0.207 0.003 11.457 11.457 0.000
VANMET_231 2017-09-29 16:45:00 231 11739.0 -38.730 9.170 9.240 8.930 9.240 98.500 100.000 -38.850 8.940 13.060 12.420 10.480 9.520 0.225 0.256 0.336 0.610 54.75 0.00 0.00 0.4490 232.30 32.73 1 1 0 -38.700 9.230 9.290 9.330 8.970 -38.830 8.980 -38.760 9.110 9.190 9.130 8.900 -38.870 8.910 1.5160 0.210 0.208 0.003 11.426 11.433 0.000
VANMET_231 2017-09-29 16:40:00 231 11739.0 -38.650 9.120 9.180 8.900 9.180 98.500 100.000 -38.770 8.900 13.060 12.420 10.480 9.530 0.225 0.256 0.336 0.610 58.45 0.00 0.00 0.3580 234.30 51.45 1 1 0 -38.600 9.140 9.210 9.300 8.920 -38.730 8.930 -38.690 9.070 9.150 9.100 8.870 -38.820 8.880 0.8820 0.212 0.210 0.003 11.402 11.402 -0.000
VANMET_231 2017-09-29 16:35:00 231 11739.0 -38.560 9.080 9.150 8.860 9.130 98.500 100.000 -38.690 8.870 13.060 12.420 10.480 9.530 0.225 0.256 0.336 0.610 57.39 0.00 0.00 0.4050 223.40 26.78 1 1 0 -38.540 9.110 9.180 9.230 8.890 -38.640 8.900 -38.600 9.060 9.130 9.070 8.840 -38.730 8.840 1.2280 0.214 0.211 0.003 11.372 11.379 0.000
VANMET_231 2017-09-29 16:30:00 231 11739.0 -38.530 9.130 9.190 8.910 9.160 98.800 100.000 -38.630 8.920 13.060 12.420 10.480 9.530 0.225 0.256 0.336 0.610 38.59 0.00 0.00 0.4010 244.80 43.30 1 1 0 -38.530 9.180 9.240 9.280 8.950 -38.610 8.960 -38.550 9.080 9.130 9.050 8.860 -38.640 8.860 0.8560 0.215 0.213 0.003 11.410 11.418 0.000
VANMET_231 2017-09-29 16:25:00 231 11739.0 -38.580 9.140 9.220 8.930 9.180 98.600 100.000 -38.700 8.940 13.060 12.420 10.470 9.520 0.225 0.256 0.336 0.610 43.68 0.00 0.00 0.5280 246.60 26.70 1 1 0 -38.560 9.220 9.300 9.320 9.000 -38.640 9.010 -38.600 9.100 9.180 9.060 8.900 -38.730 8.910 1.1500 0.214 0.211 0.003 11.426 11.433 0.000
VANMET_231 2017-09-29 16:20:00 231 11739.0 -38.540 9.280 9.360 9.070 9.260 99.100 100.000 -38.600 9.070 13.060 12.420 10.470 9.530 0.225 0.256 0.336 0.610 50.33 0.00 0.00 0.8230 282.40 42.51 1 1 0 -38.510 9.430 9.490 9.380 9.160 -38.520 9.170 -38.570 9.220 9.310 9.150 9.000 -38.650 9.000 1.9270 0.215 0.213 0.002 11.534 11.534 0.000
VANMET_231 2017-09-29 16:15:00 231 11739.0 -38.460 9.450 9.500 9.190 9.450 99.700 100.000 -38.470 9.200 13.050 12.430 10.470 9.530 0.225 0.256 0.336 0.610 72.22 0.00 0.00 0.4410 275.20 50.49 1 1 0 -38.430 9.490 9.540 9.690 9.230 -38.440 9.240 -38.510 9.420 9.450 9.320 9.160 -38.510 9.160 1.3200 0.216 0.216 0.001 11.628 11.636 -0.000
VANMET_231 2017-09-29 16:10:00 231 11739.0 -38.380 9.400 9.460 9.160 9.460 99.500 100.000 -38.400 9.160 13.050 12.430 10.470 9.530 0.225 0.256 0.336 0.610 64.50 0.00 0.00 0.4340 282.90 50.81 1 1 0 -38.340 9.450 9.510 9.550 9.190 -38.380 9.200 -38.420 9.340 9.410 9.340 9.130 -38.430 9.140 1.0320 0.218 0.218 0.001 11.604 11.604 0.000
VANMET_231 2017-09-29 16:05:00 231 11739.0 -38.280 9.410 9.470 9.220 9.450 99.500 100.000 -38.310 9.230 13.050 12.430 10.470 9.530 0.225 0.256 0.336 0.610 52.82 0.00 0.00 0.4140 249.30 56.68 1 1 0 -38.140 9.480 9.530 9.550 9.290 -38.180 9.300 -38.340 9.330 9.390 9.280 9.150 -38.370 9.150 0.8950 0.220 0.220 0.001 11.652 11.659 0.000
VANMET_231 2017-09-29 16:00:00 231 11739.0 -38.290 9.640 9.680 9.480 9.550 99.700 100.000 -38.300 9.480 13.040 12.430 10.470 9.530 0.225 0.256 0.336 0.610 51.31 0.00 0.00 1.2830 234.90 28.84 1 1 0 -38.280 9.880 9.920 9.720 9.710 -38.260 9.720 -38.310 9.430 9.500 9.400 9.310 -38.350 9.320 2.8420 0.220 0.220 0.001 11.857 11.857 0.000
VANMET_231 2017-09-29 15:55:00 231 11739.0 -38.270 10.040 10.090 9.840 10.090 100.000 100.000 -38.250 9.850 13.040 12.430 10.470 9.520 0.225 0.256 0.336 0.610 38.49 0.00 0.00 1.0820 241.60 42.86 1 1 0 -38.270 10.090 10.150 10.210 9.900 -38.250 9.900 -38.280 9.960 10.000 9.900 9.760 -38.260 9.770 2.1230 0.221 0.221 0.000 12.148 12.156 -0.000
VANMET_231 2017-09-29 15:50:00 231 11739.0 -38.270 10.160 10.220 9.980 10.200 100.000 100.000 -38.250 9.990 13.040 12.430 10.470 9.520 0.225 0.256 0.336 0.610 33.59 0.00 0.00 0.6350 216.50 36.13 1 1 0 -38.260 10.230 10.280 10.400 10.030 -38.240 10.040 -38.270 10.080 10.140 10.020 9.900 -38.250 9.910 1.1830 0.221 0.221 0.000 12.262 12.271 0.000
VANMET_231 2017-09-29 15:45:00 231 11739.0 -38.260 10.210 10.270 10.030 10.260 100.000 100.000 -38.240 10.030 13.030 12.430 10.470 9.530 0.225 0.256 0.336 0.610 64.72 0.00 0.00 0.5130 201.40 43.07 1 1 0 -38.250 10.250 10.300 10.340 10.050 -38.230 10.060 -38.260 10.120 10.190 10.070 9.980 -38.240 9.990 1.3000 0.221 0.221 0.000 12.303 12.303 0.000
VANMET_231 2017-09-29 15:40:00 231 11739.0 -38.230 10.150 10.220 9.970 10.260 100.000 100.000 -38.210 9.970 13.030 12.430 10.470 9.530 0.225 0.256 0.336 0.610 64.63 0.00 0.00 0.7170 220.70 28.64 1 1 0 -38.210 10.220 10.270 10.350 10.010 -38.190 10.020 -38.250 10.060 10.130 10.110 9.910 -38.230 9.920 1.4570 0.222 0.222 0.000 12.254 12.254 0.000
VANMET_231 2017-09-29 15:35:00 231 11739.0 -38.150 10.040 10.110 9.860 10.180 100.000 100.000 -38.130 9.870 13.020 12.430 10.460 9.530 0.225 0.256 0.336 0.610 81.00 0.00 0.00 0.6300 248.70 19.20 1 1 0 -38.080 10.100 10.160 10.260 9.920 -38.060 9.930 -38.210 9.970 10.030 10.050 9.810 -38.190 9.820 1.2150 0.223 0.224 0.000 12.164 12.172 0.000
VANMET_231 2017-09-29 15:30:00 231 11739.0 -38.000 9.960 10.030 9.790 10.080 99.900 100.000 -37.990 9.800 13.020 12.430 10.460 9.520 0.225 0.256 0.336 0.610 34.80 0.00 0.00 0.5120 255.40 22.21 1 1 0 -37.960 9.990 10.050 10.130 9.810 -37.950 9.820 -38.070 9.930 10.010 10.020 9.780 -38.050 9.780 0.9600 0.227 0.227 0.000 12.107 12.115 0.000
VANMET_231 2017-09-29 15:25:00 231 11739.0 -37.930 10.040 10.100 9.860 10.110 100.000 100.000 -37.910 9.870 13.010 12.430 10.460 9.520 0.225 0.256 0.336 0.610 20.90 0.00 0.00 0.8080 269.30 26.00 1 1 0 -37.900 10.080 10.130 10.200 9.890 -37.890 9.900 -37.950 9.940 10.010 9.950 9.810 -37.940 9.820 1.7050 0.229 0.229 0.000 12.164 12.172 0.000
VANMET_231 2017-09-29 15:20:00 231 11739.0 -37.870 10.010 10.060 9.800 10.110 99.900 100.000 -37.860 9.810 13.010 12.430 10.460 9.520 0.225 0.256 0.336 0.610 40.51 0.00 0.00 0.5390 243.10 14.96 1 1 0 -37.840 10.040 10.100 10.170 9.860 -37.840 9.870 -37.900 9.970 10.020 10.020 9.750 -37.880 9.760 0.7640 0.230 0.230 0.000 12.115 12.123 0.000
VANMET_231 2017-09-29 15:15:00 231 11739.0 -37.820 9.970 10.020 9.770 9.970 99.800 100.000 -37.820 9.780 13.000 12.440 10.460 9.520 0.225 0.256 0.336 0.610 50.73 0.00 0.00 0.7270 241.40 46.22 1 1 0 -37.800 10.020 10.080 10.060 9.830 -37.810 9.840 -37.840 9.940 9.990 9.880 9.740 -37.840 9.750 1.4240 0.231 0.231 0.000 12.091 12.099 0.000
VANMET_231 2017-09-29 15:10:00 231 11739.0 -37.790 10.140 10.200 9.950 10.170 100.000 100.000 -37.780 9.960 13.000 12.440 10.460 9.520 0.225 0.256 0.336 0.610 50.81 0.00 0.00 1.1000 217.90 17.09 1 1 0 -37.770 10.270 10.310 10.450 10.010 -37.760 10.020 -37.800 9.990 10.060 9.930 9.830 -37.810 9.840 1.7710 0.232 0.232 0.000 12.238 12.246 0.000
VANMET_231 2017-09-29 15:05:00 231 11739.0 -37.740 10.120 10.170 9.910 10.210 100.000 100.000 -37.720 9.920 12.990 12.440 10.460 9.530 0.225 0.256 0.336 0.610 98.70 0.00 0.00 0.4510 233.30 33.70 1 1 0 -37.680 10.170 10.240 10.280 9.970 -37.670 9.980 -37.770 10.020 10.080 10.090 9.840 -37.750 9.850 1.1240 0.233 0.234 0.000 12.205 12.213 0.000
VANMET_231 2017-09-29 15:00:00 231 11739.0 -37.530 9.930 10.000 9.770 10.020 99.800 100.000 -37.540 9.780 12.980 12.440 10.460 9.530 0.225 0.256 0.336 0.610 80.20 0.00 0.00 0.5650 241.30 43.21 1 1 0 -37.340 10.010 10.080 10.140 9.830 -37.360 9.840 -37.670 9.890 9.960 9.870 9.710 -37.670 9.720 0.8950 0.238 0.238 0.000 12.091 12.099 0.000
VANMET_231 2017-09-29 14:55:00 231 11739.0 -37.010 9.850 9.910 9.680 9.950 99.600 100.000 -37.040 9.690 12.970 12.440 10.460 9.530 0.225 0.256 0.336 0.610 33.72 0.00 0.00 0.5010 245.40 37.41 1 1 0 -36.680 9.890 9.960 10.050 9.730 -36.720 9.740 -37.310 9.800 9.860 9.850 9.640 -37.330 9.650 0.8690 0.251 0.250 0.001 12.018 12.026 0.000
VANMET_231 2017-09-29 14:50:00 231 11739.0 -36.050 9.820 9.870 9.640 9.890 99.400 100.000 -36.110 9.650 12.970 12.440 10.460 9.530 0.225 0.256 0.336 0.610 28.14 0.00 0.00 0.4280 226.80 32.06 1 1 0 -35.690 9.870 9.900 10.000 9.680 -35.780 9.690 -36.600 9.760 9.820 9.810 9.580 -36.640 9.590 0.7450 0.277 0.275 0.002 11.986 11.994 0.000
VANMET_231 2017-09-29 14:45:00 231 11739.0 -35.530 9.790 9.840 9.610 9.840 99.000 100.000 -35.630 9.620 12.960 12.440 10.450 9.520 0.225 0.256 0.336 0.610 21.45 0.00 0.00 0.5710 238.40 22.61 1 1 0 -34.760 9.810 9.870 9.880 9.640 -34.870 9.650 -35.810 9.760 9.810 9.780 9.590 -35.900 9.600 1.0060 0.292 0.289 0.003 11.962 11.970 0.000
VANMET_231 2017-09-29 14:40:00 231 11739.0 -33.790 9.820 9.890 9.640 9.880 98.800 100.000 -33.910 9.650 12.950 12.450 10.450 9.530 0.225 0.256 0.336 0.610 19.97 0.00 0.00 0.5580 247.30 22.91 1 1 0 -31.610 9.840 9.910 9.930 9.650 -31.740 9.660 -34.860 9.810 9.870 9.830 9.610 -35.000 9.620 1.1170 0.347 0.343 0.004 11.986 11.994 0.000
VANMET_231 2017-09-29 14:35:00 231 11739.0 -34.310 9.870 9.950 9.670 9.870 98.700 100.000 -34.450 9.680 12.940 12.450 10.450 9.530 0.225 0.256 0.336 0.610 20.35 0.00 0.00 0.4810 209.00 39.13 1 1 0 -33.770 9.910 9.990 10.040 9.700 -33.920 9.710 -34.920 9.800 9.890 9.770 9.620 -35.040 9.630 0.9020 0.330 0.325 0.004 12.010 12.018 0.000
VANMET_231 2017-09-29 14:30:00 231 11739.0 -34.310 9.970 10.030 9.760 9.920 98.800 100.000 -34.430 9.770 12.940 12.450 10.450 9.530 0.225 0.256 0.336 0.610 39.31 0.00 0.00 0.4830 204.20 28.42 1 1 0 -30.660 10.040 10.090 10.030 9.820 -30.790 9.830 -35.090 9.900 9.960 9.790 9.700 -35.200 9.700 0.7380 0.330 0.326 0.004 12.083 12.091 0.000
VANMET_231 2017-09-29 14:25:00 231 11739.0 -36.030 10.020 10.090 9.820 10.070 98.900 100.000 -36.140 9.830 12.930 12.450 10.450 9.530 0.224 0.256 0.336 0.610 44.67 0.00 0.00 0.5060 217.20 19.16 1 1 0 -35.010 10.080 10.130 10.190 9.850 -35.130 9.860 -36.880 9.980 10.050 9.980 9.790 -36.990 9.790 1.2020 0.278 0.274 0.003 12.131 12.140 0.000
VANMET_231 2017-09-29 14:20:00 231 11739.0 -36.950 10.010 10.070 9.800 10.010 98.800 100.000 -37.060 9.810 12.920 12.450 10.450 9.530 0.225 0.256 0.336 0.610 61.81 0.00 0.00 0.5410 164.00 37.02 1 1 0 -36.440 10.040 10.100 10.110 9.840 -36.550 9.850 -37.300 9.970 10.040 9.920 9.770 -37.400 9.780 1.2090 0.253 0.250 0.003 12.115 12.123 0.000
VANMET_231 2017-09-29 14:15:00 231 11739.0 -36.940 10.010 10.060 9.800 9.970 98.700 100.000 -37.060 9.810 12.910 12.460 10.450 9.530 0.224 0.256 0.336 0.610 64.41 0.00 0.00 0.7510 191.10 46.61 1 1 0 -36.170 10.100 10.130 10.180 9.890 -36.320 9.900 -37.510 9.950 10.000 9.840 9.740 -37.610 9.750 2.3450 0.253 0.250 0.003 12.115 12.123 0.000
VANMET_231 2017-09-29 14:10:00 231 11739.0 -37.810 10.100 10.130 9.900 10.170 98.900 100.000 -37.910 9.900 12.900 12.460 10.450 9.520 0.224 0.256 0.336 0.610 58.17 0.00 0.00 0.6810 210.60 53.17 1 1 0 -36.800 10.130 10.170 10.250 9.910 -36.890 9.920 -38.060 10.060 10.100 10.090 9.870 -38.150 9.880 1.6860 0.231 0.229 0.003 12.197 12.197 0.000
VANMET_231 2017-09-29 14:05:00 231 11739.0 -37.970 10.050 10.090 9.850 10.100 98.300 99.800 -38.120 9.840 12.900 12.460 10.440 9.520 0.224 0.256 0.336 0.610 42.77 0.00 0.00 0.7620 250.20 32.47 1 1 0 -37.920 10.090 10.110 10.200 9.880 -38.040 9.890 -38.040 10.030 10.060 10.030 9.830 -38.220 9.790 1.4180 0.228 0.224 0.004 12.156 12.148 0.024
VANMET_231 2017-09-29 14:00:00 231 11739.0 -38.070 10.140 10.160 9.950 10.100 97.800 99.200 -38.260 9.840 12.890 12.460 10.440 9.530 0.224 0.256 0.336 0.610 32.32 0.00 0.00 0.9280 242.90 33.54 1 1 0 -38.030 10.280 10.300 10.360 10.050 -38.230 9.950 -38.100 10.030 10.060 9.960 9.850 -38.310 9.760 2.4890 0.225 0.221 0.005 12.238 12.148 0.098
VANMET_231 2017-09-29 13:55:00 231 11739.0 -38.090 10.260 10.290 10.040 10.260 97.500 98.700 -38.320 9.860 12.880 12.470 10.440 9.530 0.224 0.256 0.336 0.610 31.52 0.00 0.00 0.5730 222.40 23.88 1 1 0 -38.040 10.290 10.310 10.300 10.060 -38.240 9.910 -38.130 10.240 10.260 10.170 10.020 -38.380 9.800 1.0320 0.225 0.220 0.006 12.312 12.164 0.160
VANMET_231 2017-09-29 13:50:00 231 11739.0 -38.110 10.340 10.350 10.140 10.270 96.600 98.000 -38.430 9.850 12.870 12.470 10.440 9.530 0.224 0.256 0.336 0.610 58.75 0.00 0.00 0.9080 249.60 42.66 1 1 0 -38.090 10.440 10.440 10.360 10.270 -38.370 10.050 -38.140 10.240 10.280 10.190 10.060 -38.520 9.790 2.3450 0.224 0.217 0.008 12.394 12.156 0.248
VANMET_231 2017-09-29 13:45:00 231 11739.0 -38.190 10.540 10.580 10.340 10.520 97.300 98.800 -38.430 10.160 12.870 12.470 10.440 9.530 0.224 0.256 0.336 0.610 90.30 0.00 0.00 0.7500 220.10 36.85 1 1 0 -38.100 10.610 10.630 10.670 10.390 -38.300 10.260 -38.320 10.490 10.510 10.300 10.300 -38.600 10.060 2.0060 0.223 0.217 0.006 12.561 12.411 0.151
VANMET_231 2017-09-29 13:40:00 231 11739.0 -38.320 10.550 10.600 10.350 10.500 96.600 98.200 -38.630 10.090 12.860 12.480 10.440 9.530 0.224 0.256 0.336 0.610 86.20 0.00 0.00 0.8410 237.90 17.11 1 1 0 -38.300 10.600 10.630 10.600 10.370 -38.580 10.170 -38.350 10.510 10.560 10.390 10.320 -38.700 9.970 1.2670 0.220 0.213 0.007 12.570 12.353 0.226
VANMET_231 2017-09-29 13:35:00 231 11739.0 -38.290 10.710 10.720 10.470 10.510 96.300 97.500 -38.630 10.110 12.850 12.480 10.440 9.530 0.224 0.256 0.336 0.610 104.10 0.00 0.00 0.9660 215.70 43.13 1 1 0 -38.230 10.910 10.890 10.640 10.640 -38.550 10.390 -38.330 10.590 10.610 10.380 10.360 -38.670 9.950 2.4170 0.220 0.213 0.008 12.671 12.370 0.317
VANMET_231 2017-09-29 13:30:00 231 11739.0 -38.280 10.960 11.010 10.720 10.880 97.100 98.500 -38.550 10.500 12.850 12.480 10.440 9.530 0.224 0.256 0.336 0.610 110.30 0.00 0.00 0.9430 227.80 24.61 1 1 0 -38.240 10.990 11.060 10.980 10.750 -38.490 10.560 -38.310 10.920 10.940 10.740 10.660 -38.590 10.420 1.8100 0.220 0.214 0.006 12.884 12.696 0.193
VANMET_231 2017-09-29 13:25:00 231 11739.0 -38.310 10.940 10.990 10.630 10.930 96.800 98.500 -38.600 10.410 12.840 12.480 10.440 9.530 0.224 0.256 0.336 0.610 142.00 0.00 0.00 0.5940 221.50 17.46 1 1 0 -38.290 11.020 11.060 11.100 10.710 -38.550 10.510 -38.320 10.890 10.900 10.710 10.520 -38.650 10.250 1.1430 0.220 0.213 0.007 12.807 12.620 0.192
VANMET_231 2017-09-29 13:20:00 231 11739.0 -38.250 10.800 10.830 10.480 10.680 96.700 97.800 -38.560 10.160 12.840 12.490 10.440 9.530 0.224 0.256 0.336 0.610 166.40 0.00 0.00 0.6780 225.80 18.28 1 1 0 -38.220 10.880 10.880 10.820 10.520 -38.490 10.240 -38.300 10.750 10.790 10.550 10.450 -38.620 10.100 1.0320 0.221 0.214 0.007 12.679 12.411 0.279
VANMET_231 2017-09-29 13:15:00 231 11739.0 -38.260 10.690 10.710 10.390 10.550 96.300 97.300 -38.610 9.990 12.830 12.490 10.430 9.530 0.224 0.256 0.336 0.610 176.90 0.00 0.00 0.6770 236.70 24.98 1 1 0 -38.210 10.760 10.800 10.790 10.450 -38.510 10.160 -38.290 10.630 10.640 10.380 10.340 -38.710 9.840 1.3130 0.221 0.213 0.008 12.603 12.271 0.340
VANMET_231 2017-09-29 13:10:00 231 11739.0 -38.260 10.690 10.710 10.420 10.520 95.700 97.000 -38.670 9.970 12.830 12.490 10.430 9.530 0.224 0.256 0.336 0.610 184.60 0.00 0.00 0.7290 268.50 21.73 1 1 0 -38.250 10.730 10.740 10.580 10.460 -38.610 10.070 -38.290 10.640 10.650 10.420 10.360 -38.710 9.860 1.1110 0.221 0.212 0.009 12.629 12.254 0.379
VANMET_231 2017-09-29 13:05:00 231 11739.0 -38.280 10.790 10.790 10.500 10.620 96.100 97.100 -38.650 10.060 12.820 12.500 10.430 9.530 0.224 0.256 0.336 0.610 161.70 0.00 0.00 1.0110 236.20 26.64 1 1 0 -38.270 10.850 10.860 10.690 10.550 -38.570 10.120 -38.300 10.720 10.710 10.530 10.430 -38.720 9.960 1.7440 0.220 0.212 0.009 12.696 12.328 0.368
VANMET_231 2017-09-29 13:00:00 231 11739.0 -38.300 10.850 10.840 10.520 10.710 96.800 97.600 -38.590 10.170 12.820 12.500 10.430 9.530 0.224 0.256 0.336 0.610 210.40 0.00 0.00 0.6870 269.00 21.67 1 1 0 -38.230 10.930 10.930 10.830 10.610 -38.520 10.330 -38.360 10.770 10.750 10.610 10.450 -38.720 10.020 1.1960 0.220 0.214 0.007 12.713 12.419 0.305
VANMET_231 2017-09-29 12:55:00 231 11739.0 -38.300 10.840 10.850 10.540 10.650 96.100 96.800 -38.670 10.060 12.820 12.510 10.430 9.530 0.224 0.256 0.336 0.610 141.20 0.00 0.00 0.9470 238.30 18.70 1 1 0 -38.210 10.900 10.960 10.780 10.640 -38.510 10.170 -38.360 10.770 10.730 10.510 10.440 -38.810 9.940 2.0060 0.220 0.212 0.009 12.730 12.328 0.407
VANMET_231 2017-09-29 12:50:00 231 11739.0 -38.240 10.900 10.950 10.650 10.750 95.800 97.100 -38.640 10.220 12.810 12.510 10.430 9.530 0.224 0.257 0.336 0.610 196.70 0.00 0.00 0.9100 226.70 23.12 1 1 0 -38.100 11.000 11.040 10.930 10.690 -38.510 10.350 -38.330 10.830 10.880 10.560 10.590 -38.770 10.050 1.6070 0.221 0.212 0.009 12.824 12.461 0.372
VANMET_231 2017-09-29 12:45:00 231 11739.0 -38.290 10.840 10.830 10.580 10.600 94.400 95.100 -38.840 9.840 12.810 12.510 10.430 9.530 0.225 0.257 0.336 0.610 263.40 0.00 0.00 1.0630 242.10 20.72 1 1 0 -38.220 10.930 10.930 10.880 10.660 -38.600 10.150 -38.330 10.730 10.720 10.340 10.520 -39.080 9.540 1.6660 0.220 0.208 0.012 12.764 12.148 0.625
VANMET_231 2017-09-29 12:40:00 231 11739.0 -38.270 11.120 11.110 10.820 10.850 94.200 94.900 -38.820 10.040 12.810 12.520 10.430 9.530 0.224 0.257 0.336 0.610 270.10 0.00 0.00 0.9860 231.70 16.43 1 1 0 -38.190 11.250 11.250 11.220 10.910 -38.660 10.400 -38.330 10.980 10.940 10.570 10.700 -39.030 9.710 1.7050 0.221 0.208 0.013 12.970 12.312 0.661
VANMET_231 2017-09-29 12:35:00 231 11739.0 -38.330 11.250 11.220 10.890 10.930 95.500 95.300 -38.760 10.170 12.810 12.520 10.430 9.530 0.224 0.257 0.336 0.610 307.60 0.00 0.00 0.9940 244.30 25.54 1 1 0 -38.280 11.360 11.320 11.200 10.930 -38.650 10.410 -38.390 11.170 11.110 10.790 10.810 -38.930 9.830 1.4310 0.219 0.210 0.010 13.030 12.419 0.612
VANMET_231 2017-09-29 12:30:00 231 11739.0 -38.330 11.210 11.240 10.890 11.040 94.800 95.100 -38.830 10.150 12.810 12.520 10.420 9.530 0.224 0.257 0.336 0.610 237.00 0.00 0.00 0.9810 230.00 23.45 1 1 0 -38.290 11.360 11.330 11.400 10.920 -38.700 10.380 -38.370 11.140 11.130 10.810 10.840 -38.980 9.960 1.3200 0.219 0.208 0.011 13.030 12.403 0.638
VANMET_231 2017-09-29 12:25:00 231 11739.0 -38.150 11.170 11.240 10.910 10.900 94.700 94.600 -38.670 10.080 12.810 12.530 10.420 9.530 0.224 0.257 0.336 0.610 409.40 0.00 0.00 1.0500 222.40 23.35 1 1 0 -38.000 11.290 11.360 11.080 10.990 -38.440 10.300 -38.270 11.040 11.090 10.680 10.780 -38.850 9.810 1.6400 0.223 0.212 0.012 13.048 12.345 0.705
VANMET_231 2017-09-29 12:20:00 231 11739.0 -38.150 11.050 11.090 10.770 10.880 95.700 96.700 -38.560 10.280 12.810 12.530 10.420 9.530 0.224 0.257 0.336 0.610 351.40 0.00 0.00 0.8670 233.20 23.92 1 1 0 -37.970 11.160 11.210 11.200 10.820 -38.280 10.520 -38.330 10.960 11.000 10.610 10.660 -38.880 9.970 1.3920 0.223 0.214 0.010 12.927 12.511 0.427
VANMET_231 2017-09-29 12:15:00 231 11739.0 -38.170 10.810 10.840 10.570 10.540 94.400 96.200 -38.720 10.000 12.810 12.530 10.420 9.530 0.224 0.257 0.336 0.610 305.50 0.00 0.00 0.4940 191.30 18.11 1 1 0 -38.020 10.910 10.950 10.860 10.630 -38.520 10.200 -38.300 10.750 10.750 10.280 10.530 -38.920 9.820 0.8750 0.223 0.211 0.012 12.756 12.279 0.485
VANMET_231 2017-09-29 12:10:00 231 11739.0 -38.030 10.930 10.900 10.730 10.450 92.600 93.900 -38.770 9.790 12.810 12.540 10.420 9.530 0.224 0.257 0.336 0.610 227.80 0.00 0.00 0.8250 197.80 26.84 1 1 0 -37.620 11.230 11.150 10.790 11.020 -38.250 10.000 -38.210 10.730 10.730 10.270 10.520 -39.100 9.520 1.7440 0.226 0.210 0.017 12.892 12.107 0.786
VANMET_231 2017-09-29 12:05:00 231 11739.0 -38.180 11.430 11.470 11.260 10.960 93.200 93.900 -38.850 10.330 12.810 12.540 10.420 9.530 0.224 0.257 0.336 0.610 293.20 0.00 0.00 1.0000 197.40 30.71 1 1 0 -38.010 11.590 11.660 11.180 11.430 -38.580 10.590 -38.240 11.220 11.150 10.660 11.030 -39.180 9.810 2.0120 0.223 0.208 0.015 13.355 12.553 0.815
VANMET_231 2017-09-29 12:00:00 231 11739.0 -37.710 11.950 12.070 11.700 11.500 94.300 94.600 -38.270 10.880 12.810 12.550 10.420 9.530 0.224 0.257 0.337 0.610 185.60 0.00 0.00 0.8370 212.00 29.37 1 1 0 -36.270 12.200 12.360 11.950 11.840 -36.930 11.180 -38.250 11.680 11.740 11.180 11.520 -38.800 10.680 1.4050 0.234 0.221 0.013 13.749 13.022 0.742
VANMET_231 2017-09-29 11:55:00 231 11739.0 -38.650 11.960 12.080 11.550 11.760 96.300 96.600 -39.000 11.030 12.810 12.550 10.420 9.530 0.224 0.257 0.337 0.610 665.50 0.00 0.00 0.9370 209.40 31.62 1 1 0 -38.110 12.200 12.360 11.990 11.820 -38.540 11.320 -39.050 11.520 11.700 11.300 11.120 -39.440 10.600 2.5480 0.212 0.205 0.008 13.614 13.152 0.463
VANMET_231 2017-09-29 11:50:00 231 11739.0 -39.250 11.100 11.240 10.750 10.940 97.700 98.500 -39.450 10.530 12.820 12.560 10.420 9.530 0.223 0.257 0.337 0.610 672.00 0.00 0.00 0.8760 201.50 23.12 1 1 0 -39.090 11.460 11.630 11.220 11.090 -39.380 10.730 -39.310 10.510 10.620 10.380 10.330 -39.600 10.140 1.9400 0.199 0.195 0.005 12.910 12.722 0.194
VANMET_231 2017-09-29 11:45:00 231 11739.0 -39.310 10.430 10.510 10.180 10.160 96.700 98.700 -39.600 9.990 12.820 12.560 10.420 9.530 0.224 0.257 0.336 0.610 430.60 0.00 0.00 0.8620 217.90 28.77 1 1 0 -39.310 10.620 10.710 10.560 10.300 -39.460 10.250 -39.310 10.320 10.420 9.930 10.070 -39.690 9.790 1.7770 0.198 0.192 0.007 12.428 12.271 0.162
VANMET_231 2017-09-29 11:40:00 231 11739.0 -39.310 10.560 10.580 10.200 10.410 98.900 100.000 -39.380 10.210 12.820 12.560 10.410 9.530 0.223 0.257 0.336 0.610 381.20 0.00 0.00 0.8710 214.30 14.62 1 1 0 -39.310 10.670 10.720 10.650 10.320 -39.330 10.330 -39.310 10.400 10.380 10.150 10.040 -39.470 10.050 1.4370 0.198 0.197 0.002 12.444 12.453 0.000
VANMET_231 2017-09-29 11:35:00 231 11739.0 -39.310 10.150 10.200 9.830 10.130 98.700 100.000 -39.400 9.840 12.820 12.570 10.410 9.530 0.223 0.257 0.336 0.610 317.80 0.00 0.00 0.5800 211.50 28.90 1 1 0 -39.310 10.540 10.470 10.620 10.060 -39.330 10.070 -39.310 9.900 9.950 9.660 9.640 -39.470 9.640 1.2280 0.198 0.196 0.003 12.140 12.148 0.000
VANMET_231 2017-09-29 11:30:00 231 11739.0 -39.310 9.890 9.940 9.600 9.770 98.500 99.900 -39.430 9.600 12.820 12.570 10.410 9.530 0.223 0.257 0.336 0.610 297.90 0.00 0.00 0.7430 220.30 27.20 1 1 0 -39.310 10.030 10.050 9.950 9.690 -39.390 9.700 -39.310 9.640 9.720 9.490 9.430 -39.510 9.380 1.1040 0.198 0.196 0.003 11.953 11.953 0.012
VANMET_231 2017-09-29 11:25:00 231 11739.0 -39.310 9.710 9.740 9.420 9.600 98.400 99.800 -39.430 9.400 12.830 12.580 10.410 9.530 0.223 0.257 0.336 0.610 262.80 0.00 0.00 0.7500 225.60 27.08 1 1 0 -39.310 9.810 9.820 9.950 9.490 -39.370 9.500 -39.310 9.610 9.620 9.350 9.290 -39.510 9.220 1.2020 0.198 0.196 0.003 11.810 11.794 0.024
VANMET_231 2017-09-29 11:20:00 231 11739.0 -39.310 9.490 9.510 9.240 9.460 98.200 99.500 -39.460 9.180 12.830 12.580 10.410 9.530 0.223 0.257 0.336 0.610 201.30 0.00 0.00 0.7990 224.50 21.09 1 1 0 -39.310 9.560 9.570 9.620 9.280 -39.440 9.240 -39.310 9.410 9.440 9.320 9.180 -39.490 9.100 1.1690 0.198 0.195 0.004 11.667 11.620 0.058
VANMET_231 2017-09-29 11:15:00 231 11739.0 -39.310 9.360 9.400 9.180 9.340 97.200 98.700 -39.550 9.000 12.830 12.590 10.410 9.530 0.223 0.257 0.336 0.610 122.00 0.00 0.00 0.6870 241.20 31.70 1 1 0 -39.310 9.420 9.460 9.510 9.220 -39.480 9.110 -39.310 9.310 9.360 9.170 9.140 -39.640 8.940 1.1110 0.198 0.193 0.006 11.620 11.480 0.151
VANMET_231 2017-09-29 11:10:00 231 11739.0 -39.310 9.600 9.650 9.440 9.450 97.000 98.200 -39.580 9.180 12.830 12.590 10.410 9.530 0.223 0.257 0.336 0.610 77.68 0.00 0.00 1.1300 230.30 15.08 1 1 0 -39.310 9.820 9.860 9.640 9.630 -39.550 9.390 -39.310 9.390 9.440 9.200 9.260 -39.610 9.010 1.5880 0.198 0.193 0.006 11.826 11.620 0.213
VANMET_231 2017-09-29 11:05:00 231 11739.0 -39.310 9.930 9.980 9.710 9.780 97.500 98.500 -39.530 9.500 12.840 12.590 10.410 9.530 0.223 0.257 0.336 0.610 141.60 0.00 0.00 0.6690 200.90 37.04 1 1 0 -39.310 10.020 10.090 10.040 9.790 -39.480 9.630 -39.310 9.830 9.880 9.630 9.650 -39.570 9.410 1.5030 0.198 0.194 0.005 12.042 11.873 0.181
VANMET_231 2017-09-29 11:00:00 231 11739.0 -39.310 9.980 10.030 9.780 9.920 97.500 98.400 -39.520 9.550 12.840 12.600 10.410 9.530 0.223 0.257 0.336 0.610 128.20 0.00 0.00 0.5310 238.90 32.62 1 1 0 -39.310 10.060 10.070 10.080 9.800 -39.490 9.590 -39.310 9.930 9.990 9.790 9.730 -39.550 9.430 0.8620 0.198 0.194 0.005 12.099 11.913 0.194
VANMET_231 2017-09-29 10:55:00 231 11739.0 -39.310 9.990 10.000 9.760 9.870 96.600 97.200 -39.610 9.350 12.840 12.600 10.400 9.530 0.223 0.257 0.336 0.610 163.30 0.00 0.00 0.9930 237.80 15.07 1 1 0 -39.310 10.170 10.110 10.100 9.830 -39.460 9.550 -39.310 9.870 9.900 9.740 9.690 -39.730 9.210 1.7970 0.198 0.192 0.007 12.083 11.754 0.338
VANMET_231 2017-09-29 10:50:00 231 11739.0 -39.310 10.080 10.120 9.810 10.040 97.600 97.900 -39.520 9.510 12.850 12.610 10.400 9.530 0.223 0.257 0.336 0.610 259.50 0.00 0.00 0.7910 229.50 18.58 1 1 0 -39.310 10.250 10.220 10.200 9.910 -39.440 9.670 -39.310 9.940 9.970 9.780 9.700 -39.640 9.260 1.3330 0.198 0.194 0.005 12.123 11.881 0.255
VANMET_231 2017-09-29 10:45:00 231 11739.0 -39.310 9.860 9.930 9.640 9.820 97.300 98.000 -39.550 9.350 12.850 12.610 10.400 9.530 0.223 0.257 0.336 0.610 280.30 0.00 0.00 0.8800 241.00 28.82 1 1 0 -39.310 9.970 10.060 10.150 9.720 -39.380 9.650 -39.310 9.770 9.850 9.680 9.570 -39.660 9.020 1.2870 0.198 0.193 0.005 11.986 11.754 0.240
VANMET_231 2017-09-29 10:40:00 231 11739.0 -39.310 9.800 9.910 9.590 9.800 98.500 99.400 -39.430 9.510 12.850 12.620 10.400 9.530 0.223 0.257 0.336 0.610 238.50 0.00 0.00 0.6280 231.60 15.19 1 1 0 -39.310 10.010 10.070 10.040 9.710 -39.380 9.670 -39.320 9.620 9.770 9.580 9.480 -39.490 9.350 1.0450 0.198 0.196 0.003 11.945 11.881 0.072
VANMET_231 2017-09-29 10:35:00 231 11739.0 -39.320 9.570 9.710 9.410 9.590 97.900 99.100 -39.490 9.280 12.860 12.620 10.400 9.530 0.223 0.257 0.336 0.610 209.50 0.00 0.00 0.3770 319.70 24.24 1 1 0 -39.310 9.620 9.770 9.780 9.470 -39.430 9.320 -39.320 9.530 9.660 9.480 9.350 -39.530 9.240 0.4770 0.198 0.194 0.004 11.802 11.699 0.106
VANMET_231 2017-09-29 10:30:00 231 11739.0 -39.320 9.370 9.470 9.190 9.440 97.800 98.400 -39.500 8.950 12.860 12.630 10.400 9.530 0.223 0.257 0.336 0.610 152.00 0.00 0.00 0.5320 344.00 18.32 1 1 0 -39.310 9.540 9.630 9.670 9.330 -39.450 9.210 -39.320 9.270 9.340 9.160 9.090 -39.530 8.750 0.8820 0.198 0.194 0.004 11.628 11.441 0.186
VANMET_231 2017-09-29 10:25:00 231 11739.0 -39.310 9.370 9.450 9.150 9.450 97.800 99.000 -39.500 9.020 12.870 12.630 10.400 9.530 0.223 0.257 0.336 0.610 101.90 0.00 0.00 0.6630 338.90 24.27 1 1 0 -39.310 9.430 9.510 9.600 9.220 -39.450 9.090 -39.320 9.270 9.340 9.250 9.070 -39.570 8.920 0.8170 0.198 0.194 0.004 11.597 11.495 0.116
VANMET_231 2017-09-29 10:20:00 231 11739.0 -39.310 9.300 9.360 9.110 9.350 97.900 99.500 -39.480 9.040 12.870 12.640 10.400 9.530 0.223 0.257 0.336 0.610 108.40 0.00 0.00 0.9270 37.31 38.37 1 1 0 -39.310 9.340 9.400 9.450 9.140 -39.450 9.110 -39.310 9.230 9.300 9.240 9.070 -39.560 8.950 1.6590 0.198 0.195 0.004 11.565 11.511 0.058
VANMET_231 2017-09-29 10:15:00 231 11739.0 -39.310 9.170 9.230 9.010 9.150 97.800 99.000 -39.500 8.860 12.880 12.640 10.400 9.530 0.223 0.257 0.336 0.610 136.60 0.00 0.00 0.6740 86.20 37.65 1 1 0 -39.310 9.210 9.290 9.300 9.070 -39.480 8.980 -39.310 9.150 9.190 9.030 8.960 -39.520 8.810 1.3920 0.198 0.194 0.004 11.488 11.372 0.115
VANMET_231 2017-09-29 10:10:00 231 11739.0 -39.310 9.180 9.230 9.010 9.120 97.100 98.300 -39.560 8.760 12.880 12.650 10.400 9.530 0.223 0.257 0.336 0.610 98.10 0.00 0.00 0.8160 105.50 28.15 1 1 0 -39.310 9.230 9.300 9.170 9.110 -39.520 8.850 -39.310 9.160 9.210 9.010 8.990 -39.600 8.720 1.2480 0.198 0.193 0.006 11.488 11.295 0.195
VANMET_231 2017-09-29 10:05:00 231 11739.0 -39.310 9.330 9.370 9.140 9.290 96.900 97.900 -39.580 8.840 12.890 12.650 10.390 9.530 0.223 0.257 0.336 0.610 64.88 0.00 0.00 0.6130 128.20 22.14 1 1 0 -39.310 9.350 9.400 9.390 9.160 -39.550 8.880 -39.310 9.260 9.320 9.200 9.110 -39.610 8.760 0.8750 0.198 0.193 0.006 11.589 11.356 0.243
VANMET_231 2017-09-29 10:00:00 231 11739.0 -39.310 9.410 9.460 9.230 9.460 96.000 97.000 -39.670 8.790 12.890 12.660 10.390 9.530 0.223 0.257 0.336 0.610 56.16 0.00 0.00 0.9580 230.90 18.51 1 1 0 -39.310 9.500 9.550 9.670 9.310 -39.610 8.850 -39.310 9.340 9.390 9.320 9.170 -39.700 8.720 1.5160 0.198 0.191 0.008 11.659 11.318 0.350
VANMET_231 2017-09-29 09:55:00 231 11739.0 -39.310 9.430 9.460 9.260 9.510 94.800 96.000 -39.790 8.660 12.900 12.660 10.390 9.530 0.223 0.257 0.336 0.610 72.38 0.00 0.00 0.9270 239.80 16.23 1 1 0 -39.310 9.490 9.550 9.690 9.300 -39.690 8.850 -39.310 9.390 9.410 9.360 9.220 -39.860 8.480 1.3850 0.198 0.188 0.010 11.683 11.219 0.467
VANMET_231 2017-09-29 09:50:00 231 11739.0 -39.300 9.560 9.570 9.410 9.530 93.900 94.500 -39.880 8.580 12.900 12.670 10.390 9.530 0.223 0.257 0.336 0.610 56.28 0.00 0.00 0.9450 230.20 13.56 1 1 0 -39.300 9.610 9.650 9.620 9.510 -39.840 8.640 -39.310 9.470 9.460 9.420 9.320 -39.950 8.510 1.1690 0.198 0.187 0.012 11.802 11.158 0.649
VANMET_231 2017-09-29 09:45:00 231 11739.0 -39.300 9.760 9.800 9.610 9.670 93.100 93.900 -39.960 8.690 12.910 12.670 10.390 9.530 0.223 0.257 0.336 0.610 60.56 0.00 0.00 0.8130 228.40 17.01 1 1 0 -39.300 9.850 9.870 9.800 9.660 -39.890 8.760 -39.310 9.630 9.660 9.490 9.530 -40.040 8.570 1.0190 0.198 0.185 0.014 11.962 11.242 0.730
VANMET_231 2017-09-29 09:40:00 231 11739.0 -39.300 10.030 10.030 9.850 9.790 91.400 92.200 -40.130 8.660 12.920 12.680 10.390 9.530 0.223 0.257 0.336 0.610 63.42 0.00 0.00 1.0120 225.60 21.78 1 1 0 -39.300 10.250 10.250 9.950 10.040 -40.060 8.710 -39.310 9.850 9.870 9.670 9.680 -40.230 8.610 1.2810 0.198 0.182 0.017 12.156 11.219 0.948
VANMET_231 2017-09-29 09:35:00 231 11739.0 -39.300 10.450 10.450 10.210 10.220 90.700 91.100 -40.210 8.830 12.930 12.680 10.390 9.530 0.223 0.257 0.336 0.610 104.40 0.00 0.00 0.6200 196.70 26.79 1 1 0 -39.300 10.560 10.580 10.480 10.330 -40.130 8.960 -39.310 10.270 10.280 9.920 10.060 -40.330 8.700 1.2350 0.198 0.180 0.018 12.453 11.349 1.108
VANMET_231 2017-09-29 09:30:00 231 11739.0 -39.310 10.630 10.670 10.470 10.450 90.000 90.100 -40.290 8.920 12.930 12.690 10.390 9.530 0.223 0.257 0.336 0.610 135.90 0.00 0.00 0.9230 239.70 13.17 1 1 0 -39.310 10.760 10.830 10.600 10.600 -40.190 9.020 -39.310 10.520 10.550 10.320 10.340 -40.370 8.870 1.5090 0.198 0.179 0.020 12.671 11.418 1.254
VANMET_231 2017-09-29 09:25:00 231 11739.0 -39.310 10.950 10.980 10.650 10.760 88.500 88.500 -40.450 8.840 12.940 12.690 10.390 9.530 0.223 0.257 0.336 0.610 199.60 0.00 0.00 0.8500 208.80 27.58 1 1 0 -39.310 11.020 11.020 11.010 10.690 -40.250 8.950 -39.310 10.750 10.830 10.400 10.610 -40.570 8.750 1.4960 0.198 0.176 0.023 12.824 11.356 1.475
VANMET_231 2017-09-29 09:20:00 231 11739.0 -39.310 10.790 10.850 10.500 10.820 89.600 88.400 -40.340 8.680 12.950 12.700 10.380 9.530 0.223 0.257 0.336 0.610 184.50 0.00 0.00 0.7330 213.60 15.74 1 1 0 -39.310 10.990 10.990 11.020 10.620 -40.200 8.830 -39.310 10.630 10.700 10.560 10.390 -40.520 8.370 1.1430 0.198 0.178 0.021 12.696 11.234 1.473
VANMET_231 2017-09-29 09:15:00 231 11739.0 -39.300 10.540 10.600 10.300 10.460 89.400 89.200 -40.350 8.600 12.960 12.700 10.380 9.530 0.223 0.257 0.336 0.610 227.70 0.00 0.00 0.6180 194.90 20.37 1 1 0 -39.300 10.610 10.690 10.570 10.380 -40.220 8.740 -39.310 10.450 10.490 10.290 10.220 -40.510 8.480 1.3000 0.198 0.178 0.021 12.528 11.173 1.353
VANMET_231 2017-09-29 09:10:00 231 11739.0 -39.300 10.420 10.490 10.200 10.400 89.900 89.500 -40.290 8.560 12.970 12.710 10.380 9.530 0.223 0.257 0.336 0.610 233.30 0.00 0.00 0.8830 219.70 16.61 1 1 0 -39.300 10.460 10.520 10.550 10.240 -40.040 8.880 -39.300 10.360 10.440 10.270 10.140 -40.470 8.250 1.3260 0.198 0.179 0.020 12.444 11.143 1.307
VANMET_231 2017-09-29 09:05:00 231 11739.0 -39.300 10.180 10.250 10.010 10.200 91.700 91.700 -40.100 8.740 12.970 12.710 10.380 9.530 0.223 0.257 0.336 0.610 173.70 0.00 0.00 0.5320 185.20 40.25 1 1 0 -39.300 10.350 10.420 10.540 10.120 -39.980 8.970 -39.300 10.090 10.150 9.950 9.950 -40.230 8.530 0.9730 0.198 0.182 0.016 12.287 11.280 1.020
VANMET_231 2017-09-29 09:00:00 231 11739.0 -39.300 10.160 10.220 10.010 10.100 91.200 91.100 -40.150 8.640 12.980 12.720 10.380 9.530 0.223 0.257 0.336 0.610 143.60 0.00 0.00 0.6930 212.60 18.76 1 1 0 -39.300 10.210 10.270 10.210 10.040 -40.090 8.770 -39.300 10.100 10.160 9.970 9.980 -40.230 8.520 1.0780 0.198 0.181 0.017 12.287 11.204 1.094
VANMET_231 2017-09-29 08:55:00 231 11739.0 -39.300 10.130 10.190 9.990 10.100 91.200 91.000 -40.160 8.590 12.990 12.720 10.380 9.530 0.223 0.257 0.336 0.610 108.30 0.00 0.00 0.6920 208.60 38.84 1 1 0 -39.300 10.170 10.240 10.220 10.020 -40.070 8.710 -39.300 10.080 10.140 9.970 9.970 -40.320 8.430 1.5420 0.198 0.181 0.017 12.271 11.166 1.104
VANMET_231 2017-09-29 08:50:00 231 11739.0 -39.300 10.200 10.240 10.090 10.020 89.900 90.000 -40.290 8.530 13.000 12.730 10.380 9.530 0.223 0.257 0.336 0.610 88.00 0.00 0.00 0.6130 209.50 26.69 1 1 0 -39.300 10.400 10.420 10.260 10.280 -40.200 8.600 -39.300 10.090 10.150 9.890 9.980 -40.370 8.400 1.3460 0.198 0.179 0.020 12.353 11.120 1.235
VANMET_231 2017-09-29 08:45:00 231 11739.0 -39.300 10.590 10.640 10.450 10.560 89.200 87.600 -40.360 8.500 13.010 12.730 10.380 9.530 0.223 0.257 0.336 0.610 98.00 0.00 0.00 1.1660 218.60 15.13 1 1 0 -39.300 10.700 10.760 10.790 10.540 -40.280 8.700 -39.300 10.440 10.450 10.280 10.300 -40.480 7.912 1.5680 0.198 0.177 0.021 12.654 11.098 1.569
VANMET_231 2017-09-29 08:40:00 231 11739.0 -39.300 10.540 10.600 10.410 10.610 86.600 84.300 -40.650 7.887 13.020 12.730 10.370 9.530 0.223 0.257 0.336 0.610 123.10 0.00 0.00 0.6870 235.70 19.60 1 1 0 -39.300 10.600 10.650 10.680 10.440 -40.360 8.370 -39.300 10.500 10.560 10.560 10.380 -40.960 7.585 1.0190 0.198 0.172 0.027 12.620 10.645 1.981
VANMET_231 2017-09-29 08:35:00 231 11739.0 -39.300 10.510 10.580 10.420 10.520 87.000 85.300 -40.610 8.060 13.030 12.740 10.370 9.530 0.223 0.257 0.336 0.610 87.70 0.00 0.00 0.2770 233.70 7.10 1 1 0 -39.300 10.520 10.610 10.580 10.450 -40.420 8.320 -39.300 10.490 10.560 10.470 10.390 -40.930 7.779 0.7640 0.198 0.173 0.026 12.629 10.771 1.856
VANMET_231 2017-09-29 08:30:00 231 11739.0 -39.300 10.600 10.680 10.520 10.500 86.600 85.700 -40.650 8.230 13.040 12.750 10.370 9.530 0.223 0.257 0.336 0.610 67.78 0.00 0.00 0.3090 207.60 13.05 1 1 0 -39.300 10.670 10.740 10.630 10.570 -40.450 8.500 -39.300 10.520 10.620 10.410 10.450 -40.930 7.900 0.6860 0.198 0.172 0.027 12.713 10.896 1.818
VANMET_231 2017-09-29 08:25:00 231 11739.0 -39.300 10.710 10.790 10.610 10.690 85.300 83.600 -40.800 7.959 13.050 12.750 10.370 9.530 0.223 0.257 0.336 0.610 76.43 0.00 0.00 0.4940 244.70 22.92 1 1 0 -39.300 10.740 10.840 10.730 10.660 -40.610 8.220 -39.300 10.680 10.750 10.630 10.570 -41.210 7.466 0.7910 0.198 0.169 0.029 12.790 10.697 2.098
VANMET_231 2017-09-29 08:20:00 231 11739.0 -39.300 10.850 10.930 10.690 10.750 85.500 84.200 -40.770 8.140 13.070 12.750 10.370 9.530 0.223 0.257 0.336 0.610 112.20 0.00 0.00 0.3580 253.40 33.80 1 1 0 -39.300 10.880 10.960 10.830 10.730 -40.540 8.600 -39.300 10.760 10.850 10.670 10.630 -41.220 7.507 0.7910 0.198 0.170 0.029 12.858 10.830 2.032
VANMET_231 2017-09-29 08:15:00 231 11739.0 -39.300 10.750 10.840 10.570 10.750 84.200 81.900 -40.920 7.616 13.080 12.760 10.370 9.530 0.223 0.257 0.336 0.610 123.90 0.00 0.00 0.4920 190.90 16.67 1 1 0 -39.300 10.820 10.900 10.810 10.630 -40.690 7.966 -39.300 10.690 10.770 10.690 10.520 -41.200 7.137 1.0780 0.198 0.167 0.031 12.756 10.450 2.309
VANMET_231 2017-09-29 08:10:00 231 11739.0 -39.300 10.610 10.700 10.470 10.710 85.400 82.600 -40.790 7.639 13.090 12.760 10.370 9.530 0.223 0.257 0.336 0.610 100.10 0.00 0.00 0.3300 168.60 42.92 1 1 0 -39.300 10.680 10.770 10.740 10.530 -40.600 7.957 -39.300 10.560 10.660 10.690 10.430 -41.090 7.347 0.8040 0.198 0.169 0.029 12.671 10.466 2.205
VANMET_231 2017-09-29 08:05:00 231 11739.0 -39.300 10.470 10.580 10.380 10.600 88.100 85.700 -40.490 8.100 13.100 12.770 10.370 9.530 0.223 0.257 0.336 0.610 91.40 0.00 0.00 0.3820 259.80 35.74 1 1 0 -39.300 10.550 10.660 10.760 10.440 -40.400 8.360 -39.300 10.410 10.520 10.460 10.320 -40.600 7.836 0.7510 0.198 0.175 0.024 12.595 10.800 1.801
VANMET_231 2017-09-29 08:00:00 231 11739.0 -39.300 10.370 10.490 10.300 10.460 84.800 82.900 -40.850 7.532 13.110 12.770 10.370 9.530 0.223 0.257 0.336 0.610 76.26 0.00 0.00 0.0000 0.00 0.00 1 1 0 -39.300 10.410 10.520 10.500 10.320 -40.620 7.796 -39.300 10.350 10.470 10.420 10.270 -40.960 7.364 0.0000 0.198 0.168 0.030 12.528 10.390 2.142
VANMET_231 2017-09-29 07:55:00 231 11739.0 -39.300 10.360 10.480 10.310 10.460 85.000 82.600 -40.830 7.490 13.120 12.780 10.370 9.530 0.223 0.257 0.336 0.610 58.28 0.00 0.00 0.4400 243.90 21.27 1 1 0 -39.300 10.370 10.500 10.500 10.340 -40.640 7.676 -39.300 10.340 10.460 10.440 10.270 -40.990 7.333 0.9600 0.198 0.169 0.030 12.536 10.360 2.181
VANMET_231 2017-09-29 07:50:00 231 11739.0 -39.300 10.360 10.490 10.340 10.420 86.800 83.200 -40.630 7.614 13.140 12.780 10.360 9.530 0.223 0.257 0.336 0.610 62.19 0.00 0.00 0.4950 256.70 40.63 1 1 0 -39.300 10.370 10.510 10.480 10.360 -40.500 7.849 -39.300 10.350 10.480 10.390 10.310 -40.920 7.169 0.7380 0.198 0.172 0.026 12.561 10.448 2.110
VANMET_231 2017-09-29 07:45:00 231 11739.0 -39.300 10.400 10.540 10.360 10.530 85.200 81.100 -40.800 7.268 13.150 12.790 10.360 9.530 0.223 0.257 0.336 0.610 61.96 0.00 0.00 0.4350 311.60 28.04 1 1 0 -39.300 10.440 10.570 10.750 10.380 -40.670 7.403 -39.300 10.370 10.510 10.420 10.340 -41.070 6.948 0.6080 0.198 0.169 0.029 12.578 10.204 2.377
VANMET_231 2017-09-29 07:40:00 231 11739.0 -39.300 10.400 10.530 10.310 10.530 86.100 83.900 -40.710 7.713 13.160 12.790 10.360 9.530 0.223 0.257 0.336 0.610 66.52 0.00 0.00 0.0870 16.27 10.96 1 1 0 -39.300 10.430 10.550 10.810 10.350 -40.520 8.010 -39.300 10.380 10.500 10.430 10.290 -41.250 6.601 0.5550 0.198 0.171 0.028 12.536 10.519 2.018
VANMET_231 2017-09-29 07:35:00 231 11739.0 -39.300 10.350 10.480 10.260 10.470 86.700 82.500 -40.640 7.421 13.170 12.800 10.360 9.530 0.223 0.257 0.336 0.610 94.70 0.00 0.00 0.0000 0.00 0.00 1 1 0 -39.300 10.390 10.510 10.500 10.290 -40.490 7.697 -39.300 10.300 10.440 10.430 10.220 -40.800 7.276 0.0000 0.198 0.172 0.026 12.494 10.311 2.187
VANMET_231 2017-09-29 07:30:00 231 11739.0 -39.300 10.230 10.380 10.180 10.370 88.100 85.000 -40.480 7.781 13.180 12.800 10.360 9.530 0.223 0.257 0.336 0.610 104.80 0.00 0.00 0.0000 0.00 0.00 1 1 0 -39.300 10.300 10.440 10.440 10.240 -40.360 7.941 -39.300 10.160 10.320 10.320 10.120 -40.620 7.588 0.0000 0.198 0.175 0.024 12.428 10.568 1.864
VANMET_231 2017-09-29 07:25:00 231 11739.0 -39.300 10.050 10.210 10.060 10.270 88.500 84.900 -40.450 7.648 13.200 12.810 10.360 9.530 0.223 0.257 0.336 0.610 109.50 0.00 0.00 0.0000 0.00 0.00 1 1 0 -39.300 10.150 10.310 10.340 10.120 -40.350 7.852 -39.300 9.980 10.130 10.220 10.000 -40.600 7.421 0.0000 0.198 0.176 0.023 12.328 10.473 1.862
VANMET_231 2017-09-29 07:20:00 231 11739.0 -39.300 9.900 10.050 9.930 10.140 88.800 85.200 -40.410 7.572 13.210 12.810 10.360 9.530 0.223 0.257 0.336 0.610 92.00 0.00 0.00 0.0000 0.00 0.00 1 1 0 -39.300 9.970 10.120 10.210 10.000 -40.350 7.668 -39.300 9.840 9.990 10.050 9.860 -40.490 7.500 0.0000 0.198 0.176 0.022 12.221 10.418 1.809
VANMET_231 2017-09-29 07:15:00 231 11739.0 -39.300 9.790 9.930 9.820 10.060 87.600 84.000 -40.540 7.252 13.220 12.820 10.360 9.530 0.223 0.257 0.336 0.610 70.75 0.00 0.00 0.3000 333.30 8.30 1 1 0 -39.300 9.840 9.980 10.100 9.870 -40.440 7.591 -39.300 9.760 9.890 10.010 9.770 -40.610 7.030 0.4830 0.198 0.174 0.025 12.131 10.193 1.941
VANMET_231 2017-09-29 07:10:00 231 11739.0 -39.290 9.730 9.860 9.750 10.020 88.300 84.600 -40.460 7.286 13.240 12.820 10.360 9.530 0.223 0.257 0.336 0.610 47.26 0.00 0.00 0.0850 337.80 14.05 1 1 0 -39.290 9.760 9.890 10.030 9.780 -40.350 7.456 -39.300 9.700 9.830 9.990 9.710 -40.610 7.161 0.3460 0.198 0.176 0.023 12.075 10.216 1.859
VANMET_231 2017-09-29 07:05:00 231 11739.0 -39.290 9.670 9.810 9.710 9.950 88.600 85.600 -40.410 7.421 13.250 12.830 10.360 9.530 0.223 0.257 0.336 0.610 37.82 0.00 0.00 0.3310 14.05 5.49 1 1 0 -39.280 9.690 9.830 9.990 9.740 -40.350 7.656 -39.300 9.660 9.800 9.880 9.700 -40.550 7.285 0.4570 0.198 0.176 0.023 12.042 10.311 1.734
VANMET_231 2017-09-29 07:00:00 231 11739.0 -39.270 9.670 9.810 9.720 9.950 88.300 85.700 -40.440 7.446 13.260 12.830 10.350 9.530 0.223 0.257 0.336 0.610 26.47 0.00 0.00 0.2890 342.10 30.78 1 1 0 -39.270 9.670 9.810 9.980 9.740 -40.300 7.715 -39.280 9.660 9.800 9.900 9.700 -40.580 7.132 0.4700 0.199 0.176 0.023 12.050 10.329 1.723
VANMET_231 2017-09-29 06:55:00 231 11739.0 -39.270 9.670 9.810 9.740 9.980 87.900 84.600 -40.480 7.269 13.270 12.840 10.350 9.530 0.223 0.257 0.336 0.610 15.07 0.00 0.00 0.1010 305.30 7.80 1 1 0 -39.270 9.680 9.830 10.030 9.760 -40.440 7.314 -39.280 9.670 9.800 9.940 9.730 -40.530 7.198 0.5230 0.199 0.175 0.024 12.066 10.205 1.858
VANMET_231 2017-09-29 06:50:00 231 11739.0 -39.280 9.680 9.820 9.730 10.020 88.100 84.800 -40.460 7.298 13.290 12.840 10.350 9.530 0.223 0.257 0.336 0.610 9.66 0.00 0.00 0.1890 258.20 21.16 1 1 0 -39.270 9.680 9.820 10.110 9.740 -40.410 7.460 -39.280 9.670 9.810 9.950 9.710 -40.520 7.138 0.6340 0.199 0.176 0.024 12.058 10.225 1.833
VANMET_231 2017-09-29 06:45:00 231 11739.0 -39.270 9.700 9.830 9.760 9.960 87.800 85.400 -40.480 7.429 13.300 12.840 10.350 9.530 0.223 0.257 0.336 0.610 7.91 0.00 0.00 0.2600 321.60 12.34 1 1 0 -39.260 9.720 9.850 9.990 9.790 -40.440 7.537 -39.270 9.690 9.810 9.920 9.730 -40.540 7.338 0.6210 0.199 0.175 0.024 12.083 10.317 1.764
VANMET_231 2017-09-29 06:40:00 231 11739.0 -39.220 9.780 9.920 9.860 9.940 87.200 84.700 -40.510 7.423 13.310 12.850 10.350 9.530 0.223 0.257 0.336 0.610 7.25 0.00 0.00 0.1200 276.10 32.25 1 1 0 -39.190 9.850 9.990 10.000 9.940 -40.460 7.504 -39.250 9.720 9.860 9.880 9.790 -40.550 7.326 0.5620 0.200 0.175 0.026 12.164 10.313 1.861
VANMET_231 2017-09-29 06:35:00 231 11739.0 -39.160 9.910 10.060 10.000 10.120 86.000 83.400 -40.580 7.318 13.330 12.850 10.350 9.530 0.223 0.257 0.336 0.610 6.21 0.00 0.00 0.3080 325.70 34.35 1 1 0 -39.150 9.950 10.110 10.240 10.070 -40.530 7.380 -39.180 9.860 10.000 10.020 9.950 -40.640 7.250 1.1500 0.201 0.173 0.028 12.279 10.239 2.038
VANMET_231 2017-09-29 06:30:00 231 11739.0 -39.150 9.970 10.140 10.080 10.300 85.500 81.800 -40.620 7.115 13.340 12.860 10.350 9.530 0.223 0.257 0.336 0.610 4.37 0.00 0.00 0.3770 223.50 20.97 1 1 0 -39.140 9.980 10.150 10.340 10.110 -40.560 7.286 -39.150 9.950 10.120 10.250 10.060 -40.680 6.951 1.1040 0.201 0.173 0.029 12.345 10.097 2.247
VANMET_231 2017-09-29 06:25:00 231 11739.0 -39.130 10.020 10.190 10.120 10.300 85.800 81.100 -40.570 7.038 13.360 12.860 10.350 9.530 0.223 0.257 0.336 0.610 3.46 0.00 0.00 0.2380 359.20 24.82 1 1 0 -39.130 10.060 10.210 10.410 10.150 -40.470 7.279 -39.140 9.980 10.150 10.200 10.080 -40.680 6.872 0.4700 0.202 0.173 0.029 12.378 10.044 2.339
VANMET_231 2017-09-29 06:20:00 231 11739.0 -39.120 10.000 10.150 10.050 10.410 85.100 80.300 -40.640 6.830 13.370 12.870 10.350 9.530 0.223 0.257 0.336 0.610 3.52 0.00 0.00 0.1620 292.10 5.12 1 1 0 -39.110 10.060 10.210 10.570 10.110 -40.560 6.917 -39.130 9.950 10.110 10.250 10.010 -40.740 6.723 0.4570 0.202 0.172 0.030 12.320 9.902 2.427
VANMET_231 2017-09-29 06:15:00 231 11739.0 -39.090 9.950 10.120 10.000 10.340 85.500 81.000 -40.570 6.907 13.380 12.870 10.350 9.530 0.223 0.257 0.336 0.610 2.98 0.00 0.00 0.0000 0.00 0.00 1 1 0 -39.070 9.970 10.130 10.420 10.030 -40.430 6.963 -39.100 9.900 10.080 10.300 9.970 -40.690 6.859 0.0000 0.203 0.173 0.029 12.279 9.954 2.333
VANMET_231 2017-09-29 06:10:00 231 11739.0 -39.060 9.870 10.030 9.930 10.260 86.200 81.900 -40.460 6.993 13.400 12.880 10.340 9.530 0.223 0.257 0.337 0.610 1.27 0.00 0.00 0.2040 313.80 12.59 1 1 0 -39.040 9.900 10.070 10.380 9.980 -40.270 7.044 -39.070 9.820 9.970 10.200 9.890 -40.610 6.885 0.4120 0.203 0.176 0.028 12.221 10.013 2.212
VANMET_231 2017-09-29 06:05:00 231 11739.0 -39.020 9.810 9.960 9.880 10.190 87.600 82.800 -40.270 7.104 13.410 12.880 10.340 9.530 0.223 0.257 0.337 0.610 0.27 0.00 0.00 0.1180 351.80 1.27 1 1 0 -39.010 9.820 9.980 10.220 9.920 -40.130 7.315 -39.040 9.750 9.890 10.150 9.820 -40.490 6.940 0.4770 0.204 0.179 0.025 12.180 10.090 2.095
VANMET_231 2017-09-29 06:00:00 231 11739.0 -39.000 9.730 9.880 9.820 10.150 86.600 83.100 -40.360 7.092 13.430 12.880 10.340 9.530 0.223 0.257 0.337 0.610 0.00 0.00 0.00 0.3990 318.20 14.93 1 1 0 -38.990 9.740 9.880 10.180 9.840 -40.260 7.189 -39.010 9.720 9.870 10.100 9.800 -40.460 7.017 0.5880 0.205 0.177 0.027 12.131 10.081 2.050
VANMET_231 2017-09-29 05:55:00 231 11739.0 -39.020 9.730 9.880 9.840 10.090 87.500 84.000 -40.280 7.278 13.440 12.890 10.340 9.530 0.223 0.257 0.337 0.610 0.00 0.00 0.00 0.3390 351.00 15.64 1 1 0 -39.010 9.750 9.900 10.120 9.870 -40.240 7.439 -39.030 9.720 9.870 10.040 9.810 -40.350 7.188 0.4380 0.204 0.179 0.026 12.148 10.211 1.944
VANMET_231 2017-09-29 05:50:00 231 11739.0 -39.070 9.780 9.930 9.890 10.060 87.100 84.100 -40.370 7.332 13.450 12.890 10.340 9.530 0.223 0.257 0.337 0.610 0.00 0.00 0.00 0.4590 8.19 1.90 1 1 0 -39.040 9.790 9.940 10.110 9.910 -40.260 7.479 -39.090 9.760 9.910 10.020 9.860 -40.510 7.144 0.6270 0.203 0.177 0.026 12.189 10.249 1.938
VANMET_231 2017-09-29 05:45:00 231 11739.0 -39.080 9.820 9.970 9.950 10.110 86.400 83.000 -40.450 7.206 13.470 12.900 10.340 9.530 0.223 0.257 0.337 0.610 0.00 0.00 0.00 0.2990 50.93 19.90 1 1 0 -39.070 9.850 10.000 10.130 10.020 -40.380 7.337 -39.090 9.800 9.940 10.080 9.910 -40.530 7.155 0.5030 0.203 0.176 0.028 12.238 10.161 2.080
VANMET_231 2017-09-29 05:40:00 231 11739.0 -39.090 9.920 10.080 10.100 10.130 85.800 83.200 -40.530 7.383 13.480 12.900 10.340 9.530 0.223 0.257 0.337 0.610 0.00 0.00 0.00 0.3880 4.06 16.81 1 1 0 -39.070 9.990 10.150 10.250 10.170 -40.450 7.494 -39.100 9.850 10.010 10.080 10.010 -40.630 7.214 0.7640 0.203 0.174 0.029 12.361 10.284 2.077
VANMET_231 2017-09-29 05:35:00 231 11739.0 -39.100 10.050 10.210 10.210 10.410 84.600 81.600 -40.670 7.216 13.500 12.900 10.340 9.530 0.223 0.257 0.337 0.610 0.00 0.00 0.00 0.2230 242.40 23.66 1 1 0 -39.090 10.090 10.250 10.550 10.250 -40.630 7.267 -39.100 10.000 10.150 10.280 10.170 -40.700 7.130 0.5100 0.202 0.172 0.031 12.453 10.168 2.291
VANMET_231 2017-09-29 05:30:00 231 11739.0 -39.080 10.110 10.260 10.250 10.550 84.600 80.600 -40.660 7.067 13.510 12.910 10.340 9.530 0.223 0.257 0.337 0.610 0.00 0.00 0.00 0.4190 238.60 3.93 1 1 0 -39.070 10.120 10.270 10.620 10.270 -40.610 7.214 -39.090 10.090 10.250 10.510 10.230 -40.740 6.973 0.7510 0.203 0.172 0.031 12.486 10.064 2.422
VANMET_231 2017-09-29 05:25:00 231 11739.0 -39.060 10.120 10.280 10.280 10.500 85.100 80.700 -40.580 7.123 13.530 12.910 10.330 9.530 0.223 0.257 0.337 0.610 0.00 0.00 0.00 0.3920 242.30 8.52 1 1 0 -39.050 10.140 10.310 10.570 10.310 -40.460 7.316 -39.070 10.100 10.250 10.430 10.250 -40.680 6.996 0.5160 0.203 0.173 0.030 12.511 10.103 2.415
VANMET_231 2017-09-29 05:20:00 231 11739.0 -39.040 10.150 10.320 10.320 10.530 85.400 81.400 -40.530 7.277 13.540 12.920 10.330 9.530 0.223 0.257 0.337 0.610 0.00 0.00 0.00 0.2170 263.60 2.14 1 1 0 -39.020 10.180 10.350 10.600 10.340 -40.420 7.467 -39.050 10.140 10.310 10.490 10.280 -40.580 7.161 0.7710 0.204 0.174 0.030 12.545 10.210 2.333
VANMET_231 2017-09-29 05:15:00 231 11739.0 -38.980 10.190 10.370 10.350 10.650 84.500 80.600 -40.580 7.177 13.560 12.920 10.330 9.530 0.223 0.257 0.337 0.610 0.00 0.00 0.00 0.1600 254.60 4.55 1 1 0 -38.940 10.210 10.380 10.690 10.380 -40.340 7.298 -39.010 10.180 10.350 10.550 10.340 -40.670 7.123 0.2940 0.205 0.173 0.032 12.570 10.140 2.439
VANMET_231 2017-09-29 05:10:00 231 11739.0 -38.930 10.240 10.410 10.400 10.560 85.700 81.800 -40.390 7.424 13.570 12.920 10.330 9.530 0.223 0.257 0.337 0.610 0.00 0.00 0.00 0.5160 246.70 13.68 1 1 0 -38.910 10.270 10.440 10.620 10.440 -40.280 7.565 -38.940 10.210 10.380 10.530 10.370 -40.490 7.300 1.3460 0.206 0.177 0.029 12.612 10.313 2.295
VANMET_231 2017-09-29 05:05:00 231 11739.0 -38.960 10.290 10.450 10.450 10.680 86.400 81.500 -40.330 7.421 13.590 12.930 10.330 9.530 0.223 0.257 0.337 0.610 0.00 0.00 0.00 0.2540 260.60 5.72 1 1 0 -38.940 10.300 10.460 10.760 10.470 -40.280 7.584 -38.970 10.280 10.440 10.600 10.430 -40.410 7.303 0.7380 0.205 0.178 0.028 12.654 10.311 2.341
VANMET_231 2017-09-29 05:00:00 231 11739.0 -38.990 10.260 10.420 10.460 10.770 85.100 81.100 -40.520 7.364 13.600 12.930 10.330 9.530 0.223 0.257 0.337 0.610 0.00 0.00 0.00 0.0000 0.00 0.00 1 1 0 -38.970 10.290 10.450 10.830 10.480 -40.310 7.628 -39.010 10.240 10.410 10.710 10.450 -40.620 7.258 0.0000 0.205 0.174 0.031 12.662 10.271 2.393
VANMET_231 2017-09-29 04:55:00 231 11739.0 -39.030 10.280 10.450 10.500 10.720 85.800 81.500 -40.480 7.481 13.620 12.930 10.330 9.530 0.223 0.257 0.337 0.610 0.00 0.00 0.00 0.0000 0.00 0.00 1 1 0 -39.010 10.290 10.460 10.760 10.530 -40.380 7.588 -39.060 10.270 10.430 10.680 10.470 -40.600 7.374 0.0000 0.204 0.175 0.029 12.696 10.354 2.349
VANMET_231 2017-09-29 04:50:00 231 11739.0 -39.070 10.290 10.450 10.530 10.660 87.100 82.000 -40.370 7.590 13.630 12.940 10.330 9.530 0.223 0.257 0.337 0.610 0.00 0.00 0.00 0.0000 0.00 0.00 1 1 0 -39.060 10.310 10.470 10.750 10.570 -40.310 7.928 -39.080 10.270 10.440 10.590 10.490 -40.430 7.277 0.0000 0.203 0.177 0.026 12.722 10.431 2.290
VANMET_231 2017-09-29 04:45:00 231 11739.0 -39.090 10.310 10.470 10.600 10.770 86.600 82.100 -40.450 7.689 13.650 12.940 10.330 9.530 0.223 0.257 0.337 0.610 0.00 0.00 0.00 0.0820 320.40 12.48 1 1 0 -39.080 10.330 10.490 10.880 10.640 -40.360 7.865 -39.100 10.300 10.470 10.650 10.570 -40.560 7.596 0.2680 0.203 0.176 0.027 12.781 10.502 2.288
VANMET_231 2017-09-29 04:40:00 231 11739.0 -39.110 10.340 10.510 10.650 10.870 85.500 81.500 -40.580 7.620 13.660 12.940 10.330 9.530 0.223 0.257 0.337 0.610 0.00 0.00 0.00 0.0000 0.00 0.00 1 1 0 -39.100 10.370 10.540 10.910 10.700 -40.520 7.658 -39.140 10.310 10.490 10.830 10.620 -40.640 7.591 0.0000 0.202 0.173 0.029 12.824 10.453 2.372
VANMET_231 2017-09-29 04:35:00 231 11739.0 -39.160 10.410 10.570 10.730 10.860 85.800 81.100 -40.610 7.622 13.680 12.950 10.320 9.530 0.223 0.257 0.337 0.610 0.00 0.00 0.00 0.0000 0.00 0.00 1 1 0 -39.140 10.460 10.600 10.900 10.770 -40.540 7.696 -39.180 10.360 10.540 10.800 10.680 -40.760 7.580 0.0000 0.201 0.173 0.029 12.892 10.454 2.437
VANMET_231 2017-09-29 04:30:00 231 11739.0 -39.170 10.530 10.680 10.850 10.880 84.900 81.100 -40.710 7.743 13.690 12.950 10.320 9.530 0.223 0.257 0.337 0.610 0.00 0.00 0.00 0.2580 259.10 6.71 1 1 0 -39.160 10.610 10.770 10.970 10.920 -40.670 7.857 -39.170 10.460 10.600 10.810 10.780 -40.800 7.641 0.5230 0.201 0.171 0.030 12.996 10.541 2.456
VANMET_231 2017-09-29 04:25:00 231 11739.0 -34.150 10.710 10.880 11.010 11.030 85.100 80.200 -35.760 7.743 13.710 12.950 10.320 9.530 0.223 0.257 0.337 0.610 0.00 0.00 0.00 0.3750 275.10 3.06 1 1 0 10.900 10.800 10.970 11.270 11.090 8.550 7.811 -39.160 10.620 10.780 10.940 10.920 -40.720 7.651 0.5100 0.335 0.285 0.050 13.135 10.541 2.601
VANMET_231 2017-09-29 04:20:00 231 11739.0 10.900 10.800 10.970 11.120 11.350 83.400 79.340 8.200 7.688 13.730 12.960 10.320 9.530 0.223 0.257 0.337 0.610 0.00 0.00 0.00 0.2790 294.40 7.37 1 1 0 10.940 10.810 10.990 11.410 11.140 8.380 7.763 10.860 10.800 10.960 11.280 11.100 8.100 7.555 0.4180 13.039 10.874 2.164 13.231 10.501 2.734
VANMET_231 2017-09-29 04:15:00 231 11739.0 11.000 10.870 11.070 11.210 11.320 83.000 78.630 8.220 7.643 13.740 12.960 10.320 9.530 0.223 0.257 0.337 0.610 0.00 0.00 0.00 0.1800 339.60 2.93 1 1 0 11.040 10.940 11.150 11.370 11.280 8.290 7.697 10.960 10.820 11.000 11.290 11.150 8.150 7.590 0.4440 13.126 10.889 2.231 13.310 10.469 2.844
VANMET_231 2017-09-29 04:10:00 231 11739.0 11.100 11.020 11.240 11.360 11.410 83.700 78.250 8.460 7.720 13.760 12.960 10.320 9.530 0.223 0.257 0.337 0.610 0.00 0.00 0.00 0.4060 338.10 12.65 1 1 0 11.150 11.090 11.320 11.480 11.450 8.680 7.860 11.050 10.950 11.150 11.300 11.270 8.290 7.652 0.4900 13.214 11.068 2.154 13.444 10.524 2.924
VANMET_231 2017-09-29 04:05:00 231 11739.0 11.210 11.160 11.420 11.540 11.530 83.600 77.630 8.540 7.773 13.770 12.970 10.320 9.530 0.223 0.257 0.337 0.610 0.00 0.00 0.00 0.4610 13.99 12.27 1 1 0 11.280 11.230 11.510 11.590 11.620 8.820 7.852 11.150 11.100 11.330 11.480 11.450 8.280 7.677 0.6270 13.310 11.128 2.183 13.605 10.562 3.043
VANMET_231 2017-09-29 04:00:00 231 11739.0 11.390 11.340 11.580 11.720 11.730 83.300 76.870 8.670 7.809 13.790 12.970 10.320 9.530 0.223 0.257 0.337 0.610 0.00 0.00 0.00 0.1830 31.76 5.29 1 1 0 11.500 11.440 11.630 11.810 11.790 8.860 7.840 11.300 11.240 11.520 11.600 11.640 8.430 7.757 0.5810 13.470 11.226 2.250 13.768 10.588 3.184
VANMET_231 2017-09-29 03:55:00 231 11739.0 11.590 11.570 11.760 11.890 11.810 81.700 76.250 8.580 7.854 13.810 12.970 10.320 9.530 0.223 0.257 0.337 0.610 0.00 0.00 0.00 0.0000 0.00 0.00 1 1 0 11.690 11.740 11.910 12.050 12.030 8.770 7.943 11.510 11.450 11.640 11.700 11.810 8.460 7.810 0.0000 13.650 11.158 2.498 13.923 10.621 3.307
VANMET_231 2017-09-29 03:50:00 231 11739.0 11.660 11.800 11.990 12.070 12.270 80.000 75.470 8.340 7.879 13.820 12.980 10.320 9.530 0.223 0.257 0.337 0.610 0.00 0.00 0.00 0.0000 0.00 0.00 1 1 0 11.680 11.820 12.010 12.380 12.100 8.410 7.940 11.640 11.760 11.930 12.090 12.010 8.260 7.811 0.0000 13.713 10.978 2.743 14.089 10.639 3.456
VANMET_231 2017-09-29 03:45:00 231 11739.0 11.630 11.760 11.990 12.060 12.430 80.000 74.660 8.300 7.708 13.840 12.980 10.310 9.530 0.223 0.257 0.337 0.610 0.00 0.00 0.00 0.0760 246.50 10.69 1 1 0 11.650 11.790 12.010 12.540 12.100 8.600 7.818 11.610 11.720 11.960 12.310 12.010 8.210 7.632 0.3590 13.686 10.948 2.737 14.080 10.516 3.568
VANMET_231 2017-09-29 03:40:00 231 11739.0 11.640 11.740 11.980 12.040 12.190 80.900 74.690 8.480 7.694 13.860 12.980 10.310 9.530 0.223 0.257 0.337 0.610 0.00 0.00 0.00 0.4440 267.40 28.51 1 1 0 11.670 11.800 12.040 12.410 12.080 8.730 7.847 11.610 11.700 11.940 12.020 12.010 8.240 7.563 0.8300 13.695 11.083 2.616 14.062 10.505 3.559
VANMET_231 2017-09-29 03:35:00 231 11739.0 11.630 11.760 11.990 11.990 12.320 81.200 74.480 8.540 7.607 13.880 12.980 10.310 9.530 0.223 0.257 0.337 0.610 0.00 0.00 0.00 0.6340 329.70 19.21 1 1 0 11.650 11.810 12.040 12.390 12.030 8.730 7.721 11.620 11.680 11.920 12.190 11.950 8.420 7.541 0.7970 13.686 11.128 2.573 14.015 10.443 3.577
VANMET_231 2017-09-29 03:30:00 231 11739.0 11.660 11.680 11.900 11.990 12.090 82.900 76.130 8.860 7.929 13.890 12.990 10.310 9.530 0.223 0.257 0.337 0.610 0.00 0.00 0.00 0.7900 8.50 6.64 1 1 0 11.680 11.690 11.910 12.160 12.020 9.110 8.150 11.650 11.640 11.890 12.010 11.960 8.600 7.709 0.9670 13.713 11.372 2.345 14.015 10.675 3.345
VANMET_231 2017-09-29 03:25:00 231 11739.0 11.770 11.680 11.920 12.080 12.020 83.000 74.960 8.990 7.789 13.910 12.990 10.310 9.530 0.223 0.257 0.337 0.610 0.00 0.00 0.00 0.7020 19.65 9.09 1 1 0 11.890 11.790 12.020 12.150 12.180 9.220 7.874 11.680 11.620 11.880 11.900 12.000 8.690 7.727 0.9150 13.813 11.472 2.348 14.099 10.574 3.530
VANMET_231 2017-09-29 03:20:00 231 11739.0 12.020 12.030 12.240 12.380 12.210 79.780 73.600 8.650 7.809 13.930 12.990 10.310 9.530 0.223 0.257 0.337 0.610 0.00 0.00 0.00 0.3460 38.06 6.60 1 1 0 12.120 12.220 12.400 12.420 12.540 8.920 7.894 11.890 11.810 12.040 11.920 12.170 8.330 7.742 0.4510 14.043 11.211 2.839 14.380 10.588 3.796
VANMET_231 2017-09-29 03:15:00 231 11739.0 12.150 12.340 12.520 12.670 12.730 77.240 71.470 8.300 7.658 13.950 12.990 10.310 9.530 0.223 0.257 0.337 0.610 0.00 0.00 0.00 0.0430 63.88 3.09 1 1 0 12.170 12.400 12.610 12.850 12.750 8.640 7.773 12.130 12.230 12.420 12.450 12.550 8.110 7.600 0.4180 14.164 10.948 3.224 14.656 10.480 4.181
VANMET_231 2017-09-29 03:10:00 231 11739.0 12.130 12.430 12.680 12.850 12.860 76.630 70.060 8.160 7.535 13.960 13.000 10.310 9.530 0.223 0.257 0.337 0.610 0.00 0.00 0.00 0.0000 0.00 0.00 1 1 0 12.150 12.490 12.760 12.950 12.910 8.350 7.684 12.110 12.390 12.610 12.790 12.740 8.040 7.414 0.0000 14.145 10.844 3.306 14.830 10.392 4.440
VANMET_231 2017-09-29 03:05:00 231 11739.0 12.060 12.480 12.770 12.830 13.140 76.420 69.520 8.050 7.405 13.980 13.000 10.310 9.530 0.223 0.257 0.337 0.610 0.00 0.00 0.00 0.3510 253.90 32.31 1 1 0 12.110 12.510 12.800 13.210 12.920 8.190 7.542 11.990 12.430 12.750 12.990 12.730 7.943 7.276 0.8100 14.080 10.764 3.320 14.811 10.300 4.514
VANMET_231 2017-09-29 03:00:00 231 11739.0 11.960 12.370 12.680 12.650 13.060 77.200 69.550 8.100 7.240 14.000 13.000 10.310 9.530 0.223 0.257 0.337 0.610 0.00 0.00 0.00 0.4150 330.90 11.43 1 1 0 12.010 12.420 12.740 13.160 12.730 8.220 7.301 11.910 12.300 12.590 12.960 12.570 8.030 7.190 0.5950 13.988 10.800 3.189 14.637 10.184 4.457
VANMET_231 2017-09-29 02:55:00 231 11739.0 11.870 12.230 12.530 12.530 12.930 77.920 70.130 8.150 7.244 14.020 13.000 10.310 9.530 0.223 0.257 0.337 0.610 0.00 0.00 0.00 0.5400 353.30 7.14 1 1 0 11.900 12.290 12.570 13.030 12.560 8.240 7.268 11.830 12.160 12.490 12.880 12.490 8.060 7.194 0.6340 13.905 10.837 3.070 14.522 10.187 4.338
VANMET_231 2017-09-29 02:50:00 231 11739.0 11.850 12.110 12.450 12.480 12.670 78.740 70.940 8.290 7.363 14.040 13.000 10.310 9.530 0.223 0.257 0.337 0.610 0.00 0.00 0.00 0.6530 356.10 10.32 1 1 0 11.880 12.150 12.490 12.910 12.500 8.500 7.457 11.840 12.090 12.430 12.570 12.460 8.170 7.259 0.7910 13.886 10.941 2.952 14.475 10.270 4.206
VANMET_231 2017-09-29 02:45:00 231 11739.0 11.910 12.110 12.430 12.420 12.690 79.050 71.420 8.400 7.410 14.050 13.000 10.300 9.530 0.223 0.257 0.337 0.610 0.00 0.00 0.00 0.6830 355.40 1.83 1 1 0 11.950 12.120 12.460 12.770 12.470 8.480 7.496 11.870 12.100 12.400 12.570 12.380 8.260 7.337 0.8300 13.941 11.023 2.921 14.418 10.304 4.121
VANMET_231 2017-09-29 02:40:00 231 11739.0 12.010 12.110 12.330 12.320 12.510 78.110 72.060 8.320 7.443 14.070 13.000 10.300 9.530 0.223 0.257 0.337 0.610 0.00 0.00 0.00 0.8120 358.90 11.64 1 1 0 12.040 12.140 12.390 12.720 12.380 8.690 7.606 11.940 12.070 12.310 12.390 12.290 8.120 7.328 1.0520 14.034 10.963 3.072 14.323 10.327 4.002
VANMET_231 2017-09-29 02:35:00 231 11739.0 11.960 12.120 12.310 12.330 12.470 77.530 72.490 8.160 7.534 14.090 13.010 10.300 9.530 0.223 0.257 0.337 0.610 0.00 0.00 0.00 0.8320 11.44 0.37 1 1 0 12.010 12.140 12.320 12.490 12.350 8.250 7.560 11.900 12.090 12.310 12.430 12.290 8.110 7.503 0.9410 13.988 10.844 3.143 14.333 10.391 3.943
VANMET_231 2017-09-29 02:30:00 231 11739.0 11.830 12.050 12.300 12.340 12.480 78.080 72.560 8.140 7.562 14.110 13.010 10.300 9.530 0.223 0.257 0.337 0.610 0.00 0.00 0.00 0.7230 16.74 4.41 1 1 0 11.900 12.090 12.300 12.500 12.360 8.280 7.592 11.780 12.000 12.290 12.470 12.310 8.070 7.488 0.9540 13.868 10.830 3.040 14.342 10.411 3.935
VANMET_231 2017-09-29 02:25:00 231 11739.0 11.770 12.010 12.270 12.330 12.540 78.660 72.720 8.190 7.579 14.130 13.010 10.300 9.530 0.223 0.257 0.337 0.610 0.00 0.00 0.00 0.4230 38.73 11.38 1 1 0 11.800 12.050 12.300 12.620 12.370 8.380 7.620 11.710 11.970 12.200 12.460 12.250 8.010 7.523 0.5420 13.813 10.867 2.948 14.333 10.423 3.910
VANMET_231 2017-09-29 02:20:00 231 11739.0 11.700 11.920 12.180 12.250 12.470 79.070 72.820 8.200 7.528 14.150 13.010 10.300 9.530 0.223 0.257 0.337 0.610 0.00 0.00 0.00 0.3430 338.30 34.06 1 1 0 11.740 11.960 12.190 12.530 12.280 8.300 7.554 11.670 11.880 12.170 12.390 12.230 8.080 7.487 0.5810 13.749 10.874 2.878 14.257 10.387 3.875
VANMET_231 2017-09-29 02:15:00 231 11739.0 11.760 11.870 12.170 12.320 12.350 79.650 72.720 8.370 7.569 14.170 13.010 10.300 9.530 0.223 0.257 0.337 0.610 0.00 0.00 0.00 0.5280 2.24 8.49 1 1 0 11.830 11.900 12.210 12.480 12.370 8.580 7.642 11.730 11.840 12.150 12.260 12.280 8.200 7.526 0.6470 13.804 11.000 2.809 14.323 10.416 3.907
VANMET_231 2017-09-29 02:10:00 231 11739.0 11.910 12.050 12.320 12.470 12.470 79.230 72.410 8.440 7.653 14.180 13.010 10.300 9.530 0.223 0.257 0.337 0.610 0.00 0.00 0.00 0.5870 7.18 12.59 1 1 0 11.940 12.130 12.400 12.640 12.540 8.660 7.711 11.860 11.910 12.220 12.320 12.370 8.190 7.558 0.7120 13.941 11.053 2.896 14.465 10.476 3.991
VANMET_231 2017-09-29 02:05:00 231 11739.0 11.840 12.050 12.350 12.470 12.630 78.900 72.910 8.300 7.757 14.200 13.010 10.300 9.530 0.223 0.257 0.337 0.610 0.00 0.00 0.00 0.5380 62.79 13.50 1 1 0 11.880 12.130 12.400 12.710 12.530 8.560 7.836 11.790 11.990 12.280 12.510 12.400 8.170 7.654 0.6790 13.877 10.948 2.928 14.465 10.551 3.919
VANMET_231 2017-09-29 02:00:00 231 11739.0 11.900 12.060 12.280 12.400 12.580 78.430 72.700 8.270 7.647 14.220 13.010 10.300 9.530 0.223 0.257 0.337 0.610 0.00 0.00 0.00 0.3770 338.30 22.19 1 1 0 11.930 12.070 12.300 12.690 12.410 8.360 7.674 11.860 12.040 12.250 12.470 12.390 8.190 7.620 0.7450 13.932 10.926 3.005 14.399 10.472 3.931
VANMET_231 2017-09-29 01:55:00 231 11739.0 11.980 12.080 12.330 12.390 12.570 78.710 72.880 8.410 7.678 14.240 13.010 10.300 9.530 0.223 0.257 0.337 0.610 0.00 0.00 0.00 0.5690 343.60 14.07 1 1 0 12.030 12.150 12.370 12.700 12.410 8.550 7.720 11.940 12.060 12.290 12.440 12.380 8.280 7.635 0.6930 14.006 11.030 2.982 14.389 10.494 3.902
VANMET_231 2017-09-29 01:50:00 231 11739.0 11.950 12.110 12.340 12.360 12.500 78.050 73.090 8.250 7.688 14.260 13.010 10.290 9.530 0.223 0.257 0.337 0.610 0.00 0.00 0.00 0.6010 1.94 0.69 1 1 0 12.010 12.160 12.370 12.540 12.400 8.330 7.725 11.880 12.030 12.310 12.440 12.330 8.200 7.657 0.6990 13.978 10.911 3.068 14.361 10.501 3.865
VANMET_231 2017-09-29 01:45:00 231 11739.0 11.980 12.040 12.320 12.360 12.500 79.820 73.100 8.610 7.692 14.280 13.020 10.290 9.530 0.223 0.257 0.337 0.610 0.00 0.00 0.00 0.7690 7.77 0.62 1 1 0 12.070 12.150 12.330 12.530 12.370 8.820 7.715 11.880 11.980 12.310 12.460 12.340 8.290 7.669 0.9280 14.006 11.181 2.826 14.361 10.504 3.863
VANMET_231 2017-09-29 01:40:00 231 11739.0 12.030 12.160 12.330 12.340 12.480 77.430 73.200 8.210 7.688 14.300 13.020 10.290 9.530 0.223 0.257 0.337 0.610 0.00 0.00 0.00 0.6100 8.53 0.59 1 1 0 12.060 12.170 12.330 12.510 12.350 8.340 7.711 11.980 12.150 12.320 12.430 12.320 8.150 7.644 0.8040 14.052 10.881 3.172 14.342 10.501 3.844
VANMET_231 2017-09-29 01:35:00 231 11739.0 11.960 12.160 12.360 12.380 12.500 77.320 72.590 8.130 7.609 14.320 13.010 10.290 9.530 0.223 0.257 0.337 0.610 0.00 0.00 0.00 0.6230 9.11 0.14 1 1 0 11.990 12.180 12.410 12.520 12.430 8.170 7.651 11.940 12.140 12.330 12.470 12.330 8.090 7.560 0.8100 13.988 10.822 3.172 14.380 10.445 3.942
VANMET_231 2017-09-29 01:30:00 231 11739.0 11.950 12.210 12.460 12.460 12.640 77.070 71.890 8.070 7.541 14.340 13.010 10.290 9.530 0.223 0.257 0.337 0.610 0.00 0.00 0.00 0.5870 4.61 4.31 1 1 0 11.960 12.250 12.470 12.780 12.480 8.150 7.584 11.930 12.180 12.420 12.510 12.440 7.986 7.493 0.7710 13.978 10.778 3.205 14.456 10.396 4.063
VANMET_231 2017-09-29 01:25:00 231 11739.0 11.890 12.200 12.440 12.400 12.700 76.810 71.620 7.962 7.425 14.350 13.010 10.290 9.530 0.223 0.257 0.337 0.610 0.00 0.00 0.00 0.5340 13.95 10.86 1 1 0 11.950 12.270 12.480 12.780 12.460 8.110 7.486 11.810 12.070 12.340 12.620 12.300 7.858 7.393 0.8040 13.923 10.699 3.229 14.399 10.314 4.086
VANMET_231 2017-09-29 01:20:00 231 11739.0 11.830 11.970 12.250 12.270 12.440 78.210 71.960 8.160 7.370 14.370 13.010 10.290 9.530 0.223 0.257 0.337 0.610 0.00 0.00 0.00 0.5960 3.51 7.20 1 1 0 11.880 12.050 12.320 12.580 12.300 8.350 7.435 11.780 11.930 12.230 12.370 12.240 7.946 7.322 0.8950 13.868 10.844 3.022 14.276 10.275 4.003
VANMET_231 2017-09-29 01:15:00 231 11739.0 11.880 12.030 12.260 12.240 12.410 77.350 71.790 8.060 7.307 14.390 13.010 10.290 9.530 0.223 0.257 0.337 0.610 0.00 0.00 0.00 0.7080 6.04 7.24 1 1 0 11.910 12.060 12.270 12.470 12.270 8.340 7.373 11.850 11.990 12.240 12.360 12.200 7.847 7.253 0.9670 13.914 10.771 3.152 14.248 10.231 4.019
VANMET_231 2017-09-29 01:10:00 231 11739.0 11.830 11.980 12.170 12.150 12.360 76.660 71.890 7.876 7.242 14.410 13.010 10.290 9.530 0.223 0.257 0.337 0.610 0.00 0.00 0.00 0.6070 5.26 1.52 1 1 0 11.880 12.040 12.240 12.410 12.220 8.230 7.291 11.770 11.910 12.100 12.290 12.100 7.769 7.213 0.7510 13.868 10.637 3.237 14.164 10.186 3.981
VANMET_231 2017-09-29 01:05:00 231 11739.0 11.770 11.880 12.100 12.130 12.260 77.130 71.960 7.902 7.237 14.430 13.010 10.290 9.530 0.223 0.257 0.337 0.610 0.00 0.00 0.00 0.4790 12.14 2.15 1 1 0 11.800 11.910 12.130 12.320 12.160 7.997 7.272 11.740 11.860 12.090 12.240 12.110 7.809 7.201 0.6790 13.813 10.656 3.159 14.145 10.182 3.966
VANMET_231 2017-09-29 01:00:00 231 11739.0 11.690 11.890 12.110 12.090 12.290 77.140 71.710 7.829 7.151 14.450 13.010 10.290 9.530 0.223 0.257 0.337 0.610 0.00 0.00 0.00 0.2330 3.71 11.72 1 1 0 11.740 11.910 12.130 12.330 12.130 7.920 7.182 11.630 11.830 12.060 12.230 12.050 7.668 7.114 0.4900 13.740 10.603 3.141 14.108 10.122 3.991
VANMET_231 2017-09-29 00:55:00 231 11739.0 11.600 11.760 12.010 12.050 12.150 77.720 71.790 7.852 7.127 14.470 13.010 10.290 9.530 0.223 0.257 0.337 0.611 0.00 0.00 0.00 0.3370 14.27 26.01 1 1 0 11.630 11.830 12.050 12.220 12.120 8.300 7.168 11.570 11.710 11.980 12.090 12.010 7.635 7.085 0.5620 13.659 10.619 3.043 14.071 10.106 3.969
VANMET_231 2017-09-29 00:50:00 231 11739.0 11.630 11.820 12.080 12.130 12.330 78.350 71.260 7.999 7.099 14.490 13.010 10.280 9.530 0.223 0.257 0.337 0.610 0.00 0.00 0.00 0.3340 7.47 13.39 1 1 0 11.660 11.870 12.110 12.470 12.160 8.380 7.171 11.600 11.780 12.040 12.140 12.110 7.848 7.052 0.5290 13.686 10.726 2.963 14.145 10.086 4.065
VANMET_231 2017-09-29 00:45:00 231 11739.0 11.670 11.850 12.080 12.130 12.330 77.240 71.440 7.833 7.135 14.510 13.010 10.280 9.530 0.223 0.257 0.337 0.610 0.00 0.00 0.00 0.3170 5.78 4.18 1 1 0 11.710 11.870 12.100 12.450 12.150 7.973 7.174 11.640 11.840 12.070 12.250 12.110 7.707 7.074 0.6530 13.722 10.606 3.123 14.145 10.111 4.040
VANMET_231 2017-09-29 00:40:00 231 11739.0 11.560 11.710 11.950 12.020 12.170 78.670 72.340 7.986 7.209 14.530 13.010 10.280 9.530 0.223 0.257 0.337 0.610 0.00 0.00 0.00 0.3520 317.70 48.96 1 1 0 11.660 11.850 12.070 12.310 12.140 8.500 7.385 11.500 11.590 11.860 12.020 11.960 7.738 7.096 0.6730 13.623 10.717 2.906 14.043 10.163 3.884
VANMET_231 2017-09-29 00:35:00 231 11739.0 11.540 11.640 11.960 12.090 12.150 80.600 72.920 8.330 7.390 14.550 13.000 10.280 9.530 0.223 0.257 0.337 0.610 0.00 0.00 0.00 0.6060 348.80 16.55 1 1 0 11.550 11.680 12.020 12.200 12.170 8.490 7.531 11.530 11.620 11.890 12.070 12.010 8.160 7.297 0.9470 13.605 10.970 2.639 14.108 10.289 3.820
VANMET_231 2017-09-29 00:30:00 231 11739.0 11.630 11.700 12.090 12.230 12.240 82.500 72.270 8.770 7.394 14.570 13.000 10.280 9.530 0.223 0.257 0.337 0.610 0.00 0.00 0.00 0.6570 19.95 6.96 1 1 0 11.740 11.790 12.180 12.330 12.300 8.930 7.536 11.560 11.650 12.030 12.200 12.180 8.450 7.341 0.7640 13.686 11.303 2.395 14.239 10.292 3.948
VANMET_231 2017-09-29 00:25:00 231 11739.0 11.850 11.930 12.240 12.370 12.410 80.600 71.860 8.630 7.446 14.590 13.000 10.280 9.540 0.223 0.257 0.337 0.610 0.00 0.00 0.00 0.5400 43.34 22.78 1 1 0 11.940 12.070 12.290 12.460 12.450 8.890 7.557 11.740 11.800 12.190 12.340 12.320 8.210 7.385 0.7250 13.886 11.196 2.694 14.370 10.329 4.044
VANMET_231 2017-09-29 00:20:00 231 11739.0 11.930 12.050 12.350 12.580 12.460 79.110 71.720 8.430 7.625 14.600 13.000 10.280 9.540 0.223 0.257 0.337 0.611 0.00 0.00 0.00 0.3270 347.20 5.36 1 1 0 11.990 12.100 12.450 12.580 12.720 8.580 7.681 11.890 12.020 12.290 12.410 12.450 8.300 7.565 0.4640 13.960 11.045 2.916 14.570 10.456 4.120
VANMET_231 2017-09-29 00:15:00 231 11739.0 12.060 12.230 12.580 12.850 12.680 78.300 70.370 8.410 7.604 14.620 13.000 10.280 9.540 0.223 0.257 0.337 0.611 0.00 0.00 0.00 0.5190 7.47 13.45 1 1 0 12.110 12.330 12.700 12.990 12.970 8.630 7.672 11.990 12.110 12.460 12.580 12.720 8.280 7.544 0.7060 14.080 11.030 3.055 14.830 10.441 4.394
VANMET_231 2017-09-29 00:10:00 231 11739.0 12.090 12.260 12.660 12.950 12.940 77.780 70.180 8.340 7.655 14.640 12.990 10.280 9.540 0.224 0.257 0.337 0.610 0.00 0.00 0.00 0.3410 63.29 3.21 1 1 0 12.160 12.320 12.700 13.070 12.970 8.710 7.700 12.030 12.210 12.630 12.850 12.910 8.140 7.577 0.9670 14.108 10.978 3.135 14.928 10.478 4.451
VANMET_231 2017-09-29 00:05:00 231 11739.0 12.110 12.270 12.580 12.730 13.210 76.680 70.710 8.150 7.558 14.660 12.990 10.280 9.540 0.224 0.257 0.337 0.610 0.00 0.00 0.00 0.3790 265.20 16.60 1 1 0 12.170 12.320 12.680 13.370 12.900 8.360 7.588 12.040 12.200 12.470 12.960 12.560 8.050 7.538 0.7510 14.127 10.837 3.294 14.714 10.408 4.310
VANMET_231 2017-09-29 00:00:00 231 11739.0 12.110 12.240 12.500 12.540 12.780 78.280 71.340 8.460 7.504 14.680 12.990 10.280 9.540 0.224 0.257 0.337 0.610 0.00 0.00 0.00 0.5690 319.40 30.49 1 1 0 12.190 12.310 12.540 12.910 12.560 8.720 7.552 12.040 12.190 12.460 12.690 12.520 8.120 7.460 0.7380 14.127 11.068 3.068 14.532 10.370 4.165
VANMET_231 2017-09-28 23:55:00 231 11739.0 12.170 12.350 12.550 12.550 12.730 76.620 71.050 8.200 7.452 14.700 12.990 10.270 9.540 0.224 0.257 0.337 0.611 0.00 0.00 0.00 0.8230 6.87 3.83 1 1 0 12.230 12.370 12.550 12.760 12.560 8.710 7.485 12.080 12.310 12.530 12.690 12.520 8.060 7.413 0.9280 14.182 10.874 3.316 14.541 10.333 4.210
VANMET_231 2017-09-28 23:50:00 231 11739.0 11.910 12.200 12.450 12.440 12.670 77.210 71.440 8.060 7.434 14.720 12.980 10.270 9.540 0.224 0.257 0.337 0.610 0.00 0.00 0.00 0.8760 7.85 7.80 1 1 0 12.080 12.340 12.540 12.760 12.510 8.350 7.484 11.770 12.080 12.380 12.500 12.390 7.978 7.405 1.1240 13.941 10.771 3.177 14.437 10.320 4.123
VANMET_231 2017-09-28 23:45:00 231 11739.0 11.730 11.990 12.330 12.310 12.570 80.800 72.620 8.550 7.545 14.740 12.980 10.270 9.540 0.224 0.257 0.337 0.610 0.00 0.00 0.00 0.8260 11.51 8.02 1 1 0 11.780 12.070 12.390 12.610 12.390 8.990 7.613 11.680 11.910 12.250 12.480 12.230 8.240 7.492 1.0980 13.777 11.135 2.645 14.314 10.399 3.919
VANMET_231 2017-09-28 23:40:00 231 11739.0 11.680 11.820 12.150 12.180 12.510 80.600 73.170 8.460 7.526 14.760 12.980 10.270 9.540 0.224 0.257 0.337 0.610 0.00 0.00 0.00 0.7750 357.10 9.08 1 1 0 11.700 11.900 12.240 12.610 12.220 8.560 7.638 11.660 11.780 12.070 12.440 12.120 8.320 7.456 0.9410 13.731 11.068 2.664 14.192 10.386 3.808
VANMET_231 2017-09-28 23:35:00 231 11739.0 11.720 11.790 12.050 12.140 12.270 80.800 73.200 8.540 7.499 14.780 12.970 10.270 9.540 0.224 0.257 0.337 0.611 0.00 0.00 0.00 0.8710 1.13 7.28 1 1 0 11.750 11.820 12.070 12.420 12.160 9.030 7.543 11.690 11.750 12.020 12.200 12.120 8.250 7.448 1.1240 13.768 11.128 2.643 14.154 10.366 3.793
VANMET_231 2017-09-28 23:30:00 231 11739.0 11.840 11.790 12.070 12.210 12.170 84.400 74.070 9.300 7.740 14.800 12.970 10.270 9.540 0.224 0.257 0.337 0.610 0.00 0.00 0.00 0.8710 17.86 5.89 1 1 0 11.940 11.900 12.160 12.300 12.260 9.450 7.940 11.730 11.720 12.010 12.050 12.150 8.640 7.445 1.0980 13.877 11.715 2.165 14.220 10.539 3.687
VANMET_231 2017-09-28 23:25:00 231 11739.0 11.930 11.940 12.200 12.330 12.340 80.900 73.920 8.760 7.824 14.820 12.970 10.270 9.540 0.224 0.257 0.337 0.610 0.00 0.00 0.00 0.6860 6.68 2.84 1 1 0 11.950 11.960 12.240 12.440 12.410 9.210 8.030 11.910 11.910 12.170 12.250 12.270 8.490 7.599 0.9410 13.960 11.295 2.666 14.333 10.599 3.738
VANMET_231 2017-09-28 23:20:00 231 11739.0 12.000 11.980 12.310 12.500 12.390 80.400 72.010 8.750 7.605 14.830 12.960 10.270 9.540 0.224 0.258 0.337 0.611 0.00 0.00 0.00 0.5480 23.50 13.88 1 1 0 12.130 12.070 12.410 12.430 12.650 9.040 7.726 11.920 11.940 12.240 12.290 12.390 8.480 7.532 0.7840 14.025 11.287 2.749 14.494 10.442 4.057
VANMET_231 2017-09-28 23:15:00 231 11739.0 12.240 12.350 12.660 12.860 12.750 78.020 70.080 8.530 7.547 14.850 12.960 10.270 9.540 0.224 0.258 0.337 0.611 0.00 0.00 0.00 0.2920 44.89 3.03 1 1 0 12.300 12.520 12.780 13.080 12.940 8.850 7.601 12.130 12.090 12.440 12.330 12.680 8.050 7.519 0.6790 14.248 11.120 3.132 14.840 10.401 4.440
VANMET_231 2017-09-28 23:10:00 231 11739.0 12.260 12.430 12.640 12.810 13.070 75.980 70.200 8.160 7.527 14.870 12.950 10.270 9.540 0.224 0.258 0.337 0.611 0.00 0.00 0.00 0.0000 0.00 0.00 1 1 0 12.270 12.510 12.770 13.340 12.920 8.310 7.562 12.230 12.350 12.520 12.870 12.730 8.060 7.489 0.0000 14.267 10.844 3.427 14.791 10.386 4.408
VANMET_231 2017-09-28 23:05:00 231 11739.0 12.250 12.380 12.530 12.770 12.980 75.570 70.350 8.070 7.521 14.890 12.950 10.270 9.540 0.224 0.258 0.337 0.610 0.00 0.00 0.00 0.2200 313.50 11.00 1 1 0 12.260 12.390 12.560 13.040 12.790 8.190 7.579 12.230 12.360 12.510 12.920 12.760 8.010 7.462 0.4900 14.257 10.778 3.483 14.753 10.382 4.374
VANMET_231 2017-09-28 23:00:00 231 11739.0 12.240 12.440 12.620 12.800 12.980 75.770 69.810 8.100 7.442 14.910 12.940 10.270 9.540 0.224 0.258 0.337 0.610 0.00 0.00 0.00 0.4420 323.00 14.55 1 1 0 12.270 12.480 12.670 13.040 12.830 8.290 7.482 12.210 12.390 12.570 12.890 12.770 7.963 7.416 0.6530 14.248 10.800 3.452 14.782 10.326 4.463
VANMET_231 2017-09-28 22:55:00 231 11739.0 12.190 12.450 12.690 12.800 13.080 75.730 69.550 8.040 7.387 14.930 12.940 10.260 9.540 0.224 0.258 0.337 0.611 0.00 0.00 0.00 0.5100 330.10 11.51 1 1 0 12.250 12.490 12.710 13.130 12.830 8.160 7.433 12.140 12.360 12.660 13.020 12.770 7.947 7.331 0.8230 14.201 10.756 3.447 14.782 10.287 4.501
VANMET_231 2017-09-28 22:50:00 231 11739.0 12.100 12.250 12.590 12.710 12.940 76.760 69.870 8.150 7.364 14.950 12.930 10.260 9.540 0.224 0.258 0.337 0.611 0.00 0.00 0.00 0.7700 343.00 14.64 1 1 0 12.160 12.370 12.660 13.160 12.780 8.500 7.467 12.050 12.200 12.560 12.760 12.660 7.882 7.302 0.9020 14.117 10.837 3.281 14.695 10.271 4.428
VANMET_231 2017-09-28 22:45:00 231 11739.0 12.290 12.350 12.680 12.780 12.910 77.830 69.590 8.540 7.368 14.960 12.930 10.260 9.540 0.224 0.258 0.337 0.611 0.00 0.00 0.00 0.8140 352.50 2.05 1 1 0 12.410 12.430 12.720 12.980 12.850 8.630 7.464 12.180 12.260 12.600 12.780 12.730 8.460 7.270 0.9150 14.295 11.128 3.169 14.762 10.274 4.489
VANMET_231 2017-09-28 22:40:00 231 11739.0 12.520 12.590 12.840 12.910 12.940 76.190 69.450 8.450 7.470 14.980 12.920 10.260 9.540 0.224 0.258 0.337 0.610 0.00 0.00 0.00 0.9130 5.87 5.21 1 1 0 12.630 12.650 12.900 13.060 12.970 8.720 7.584 12.440 12.440 12.730 12.790 12.830 8.080 7.344 1.0910 14.513 11.060 3.455 14.889 10.346 4.548
VANMET_231 2017-09-28 22:35:00 231 11739.0 12.740 12.760 12.940 12.980 13.090 74.120 68.420 8.260 7.314 15.000 12.920 10.260 9.540 0.224 0.258 0.337 0.611 0.00 0.00 0.00 0.9190 8.37 0.26 1 1 0 12.790 12.820 12.960 13.120 12.990 8.750 7.341 12.640 12.660 12.910 13.060 12.960 7.956 7.274 1.0320 14.724 10.918 3.810 14.957 10.236 4.723
VANMET_231 2017-09-28 22:30:00 231 11739.0 12.770 12.850 12.990 13.020 13.120 72.040 68.090 7.872 7.281 15.020 12.910 10.260 9.540 0.225 0.258 0.337 0.611 0.00 0.00 0.00 0.7140 8.12 1.27 1 1 0 12.790 12.880 13.030 13.150 13.060 8.010 7.312 12.740 12.820 12.960 13.080 12.970 7.829 7.252 1.0060 14.753 10.634 4.125 14.996 10.213 4.785
VANMET_231 2017-09-28 22:25:00 231 11739.0 12.700 12.860 13.050 13.100 13.170 72.230 67.480 7.845 7.232 15.040 12.900 10.260 9.540 0.224 0.258 0.337 0.611 0.00 0.00 0.00 0.8680 11.75 1.29 1 1 0 12.750 12.870 13.090 13.190 13.180 8.150 7.260 12.660 12.840 13.030 13.150 13.060 7.787 7.211 1.0000 14.685 10.614 4.078 15.075 10.179 4.902
VANMET_231 2017-09-28 22:20:00 231 11739.0 12.770 12.940 13.160 13.260 13.280 72.220 66.600 7.902 7.194 15.050 12.900 10.260 9.540 0.224 0.258 0.337 0.611 0.00 0.00 0.00 0.7740 9.45 5.92 1 1 0 12.800 12.990 13.220 13.390 13.350 8.180 7.217 12.730 12.880 13.100 13.190 13.180 7.772 7.175 1.0190 14.753 10.656 4.098 15.233 10.152 5.088
VANMET_231 2017-09-28 22:15:00 231 11739.0 12.760 12.960 13.200 13.320 13.430 71.920 66.360 7.840 7.199 15.070 12.890 10.260 9.540 0.224 0.258 0.337 0.611 0.00 0.00 0.00 0.5490 351.70 25.83 1 1 0 12.790 12.990 13.220 13.500 13.340 7.985 7.233 12.740 12.940 13.180 13.380 13.310 7.744 7.163 0.8360 14.743 10.611 4.140 15.293 10.156 5.145
VANMET_231 2017-09-28 22:10:00 231 11739.0 12.800 12.940 13.190 13.310 13.450 72.220 66.450 7.935 7.205 15.090 12.880 10.260 9.540 0.224 0.258 0.337 0.611 0.00 0.00 0.00 0.4420 336.00 26.26 1 1 0 12.830 12.960 13.210 13.510 13.350 8.250 7.243 12.760 12.920 13.140 13.360 13.250 7.803 7.175 0.7060 14.782 10.680 4.106 15.283 10.160 5.127
VANMET_231 2017-09-28 22:05:00 231 11739.0 12.850 12.960 13.160 13.290 13.300 72.540 67.050 8.040 7.318 15.110 12.880 10.260 9.540 0.224 0.258 0.337 0.611 0.00 0.00 0.00 0.5740 352.80 19.01 1 1 0 12.900 13.050 13.240 13.420 13.350 8.260 7.389 12.790 12.900 13.110 13.180 13.230 7.863 7.202 0.9540 14.830 10.756 4.072 15.263 10.239 5.029
VANMET_231 2017-09-28 22:00:00 231 11739.0 12.940 13.070 13.280 13.410 13.470 71.750 66.520 7.976 7.311 15.120 12.870 10.260 9.540 0.224 0.258 0.337 0.611 0.00 0.00 0.00 0.4970 329.50 26.28 1 1 0 13.020 13.120 13.350 13.580 13.460 8.060 7.372 12.880 13.050 13.230 13.410 13.350 7.897 7.257 1.0520 14.918 10.709 4.214 15.383 10.234 5.150
VANMET_231 2017-09-28 21:55:00 231 11739.0 13.090 13.180 13.390 13.490 13.550 70.990 66.150 7.959 7.306 15.140 12.860 10.250 9.540 0.224 0.258 0.337 0.610 0.00 0.00 0.00 0.3090 348.10 26.66 1 1 0 13.130 13.220 13.450 13.590 13.530 8.040 7.328 13.030 13.130 13.350 13.520 13.450 7.886 7.265 0.4970 15.065 10.697 4.370 15.463 10.230 5.234
VANMET_231 2017-09-28 21:50:00 231 11739.0 13.120 13.250 13.470 13.550 13.640 70.770 65.950 7.945 7.323 15.160 12.860 10.250 9.540 0.224 0.258 0.337 0.611 0.00 0.00 0.00 0.4030 2.22 9.38 1 1 0 13.150 13.280 13.490 13.700 13.580 8.050 7.344 13.080 13.220 13.450 13.570 13.530 7.866 7.297 0.6790 15.094 10.687 4.412 15.524 10.242 5.286
VANMET_231 2017-09-28 21:45:00 231 11739.0 13.030 13.270 13.490 13.550 13.670 71.460 66.120 8.000 7.356 15.170 12.850 10.250 9.540 0.224 0.258 0.337 0.611 0.00 0.00 0.00 0.3830 352.10 10.80 1 1 0 13.090 13.280 13.500 13.700 13.570 8.140 7.423 12.960 13.250 13.460 13.630 13.530 7.926 7.296 0.7450 15.006 10.727 4.283 15.524 10.265 5.259
VANMET_231 2017-09-28 21:40:00 231 11739.0 12.960 13.230 13.490 13.570 13.750 72.320 66.140 8.110 7.380 15.190 12.840 10.250 9.540 0.224 0.258 0.337 0.611 0.00 0.00 0.00 0.4910 338.40 24.49 1 1 0 12.990 13.270 13.500 13.820 13.590 8.340 7.428 12.940 13.200 13.470 13.700 13.550 7.988 7.342 0.7250 14.937 10.808 4.135 15.544 10.282 5.263
VANMET_231 2017-09-28 21:35:00 231 11739.0 13.040 13.230 13.530 13.620 13.720 72.820 66.150 8.290 7.431 15.210 12.830 10.250 9.540 0.224 0.258 0.337 0.611 0.00 0.00 0.00 0.6530 355.20 14.05 1 1 0 13.120 13.270 13.580 13.780 13.680 8.450 7.520 12.990 13.200 13.500 13.630 13.580 8.100 7.346 0.8890 15.016 10.941 4.081 15.595 10.318 5.279
VANMET_231 2017-09-28 21:30:00 231 11739.0 13.170 13.390 13.670 13.720 13.850 72.440 65.720 8.340 7.434 15.220 12.820 10.250 9.540 0.224 0.258 0.337 0.610 0.00 0.00 0.00 0.6640 6.09 9.10 1 1 0 13.210 13.480 13.730 13.960 13.750 8.480 7.497 13.110 13.280 13.600 13.740 13.680 7.969 7.357 0.7640 15.144 10.978 4.174 15.697 10.320 5.381
VANMET_231 2017-09-28 21:25:00 231 11739.0 13.170 13.390 13.680 13.730 13.860 71.900 65.490 8.220 7.388 15.240 12.820 10.250 9.540 0.224 0.258 0.337 0.611 0.00 0.00 0.00 0.8220 2.74 11.66 1 1 0 13.220 13.430 13.700 13.930 13.750 8.390 7.407 13.130 13.350 13.650 13.780 13.700 7.984 7.356 1.0000 15.144 10.889 4.255 15.707 10.288 5.420
VANMET_231 2017-09-28 21:20:00 231 11739.0 13.270 13.530 13.780 13.790 13.900 71.230 65.070 8.190 7.359 15.250 12.810 10.250 9.540 0.224 0.258 0.337 0.610 0.00 0.00 0.00 0.7340 0.72 7.81 1 1 0 13.310 13.600 13.820 14.020 13.820 8.380 7.403 13.230 13.430 13.710 13.840 13.750 7.905 7.339 0.9800 15.243 10.867 4.385 15.768 10.268 5.508
VANMET_231 2017-09-28 21:15:00 231 11739.0 13.280 13.510 13.790 13.820 13.950 70.900 64.690 8.130 7.293 15.270 12.800 10.250 9.540 0.224 0.258 0.337 0.611 0.00 0.00 0.00 0.7660 359.90 8.63 1 1 0 13.320 13.550 13.810 14.010 13.850 8.330 7.349 13.240 13.480 13.770 13.860 13.790 7.946 7.242 1.0060 15.253 10.822 4.439 15.799 10.221 5.579
VANMET_231 2017-09-28 21:10:00 231 11739.0 13.340 13.560 13.850 13.900 14.010 70.440 64.260 8.090 7.271 15.280 12.790 10.250 9.540 0.224 0.258 0.337 0.611 0.00 0.00 0.00 0.6060 1.05 8.36 1 1 0 13.370 13.620 13.900 14.090 13.940 8.220 7.298 13.310 13.520 13.810 13.940 13.860 7.949 7.253 0.8750 15.313 10.793 4.526 15.881 10.206 5.676
VANMET_231 2017-09-28 21:05:00 231 11739.0 13.310 13.630 13.910 13.940 14.130 69.920 64.020 7.951 7.258 15.300 12.780 10.250 9.540 0.224 0.258 0.337 0.611 0.00 0.00 0.00 0.5610 1.22 8.27 1 1 0 13.350 13.660 13.920 14.210 13.960 8.090 7.307 13.270 13.590 13.890 14.030 13.920 7.814 7.203 0.6470 15.283 10.691 4.597 15.923 10.197 5.729
VANMET_231 2017-09-28 21:00:00 231 11739.0 13.310 13.600 13.900 13.950 14.280 70.090 63.590 7.983 7.167 15.310 12.770 10.240 9.540 0.224 0.258 0.337 0.611 0.00 0.00 0.00 0.6270 2.18 10.83 1 1 0 13.350 13.610 13.910 14.330 13.960 8.120 7.219 13.270 13.590 13.890 14.210 13.930 7.929 7.117 0.7120 15.283 10.715 4.571 15.933 10.133 5.801
VANMET_231 2017-09-28 20:55:00 231 11739.0 13.390 13.620 13.930 13.990 14.230 69.740 63.050 7.993 7.081 15.330 12.760 10.240 9.540 0.224 0.258 0.337 0.610 0.00 0.00 0.00 0.6240 3.12 6.99 1 1 0 13.430 13.650 13.950 14.290 14.020 8.130 7.125 13.350 13.590 13.910 14.150 13.950 7.861 7.032 0.6990 15.363 10.722 4.649 15.974 10.074 5.902
VANMET_231 2017-09-28 20:50:00 231 11739.0 13.450 13.680 13.980 14.060 14.100 69.000 62.380 7.893 6.995 15.340 12.750 10.240 9.540 0.225 0.258 0.337 0.611 0.00 0.00 0.00 0.6240 0.78 0.51 1 1 0 13.480 13.700 14.010 14.150 14.080 8.020 7.052 13.420 13.640 13.950 14.080 14.020 7.748 6.909 0.8170 15.423 10.649 4.781 16.047 10.015 6.037
VANMET_231 2017-09-28 20:45:00 231 11739.0 13.510 13.810 14.090 14.130 14.200 68.310 61.590 7.800 6.879 15.350 12.740 10.240 9.540 0.225 0.258 0.337 0.611 0.00 0.00 0.00 0.6510 2.93 2.63 1 1 0 13.540 13.860 14.130 14.300 14.160 7.981 6.933 13.470 13.710 14.010 14.100 14.090 7.536 6.830 0.7710 15.483 10.582 4.907 16.120 9.935 6.192
VANMET_231 2017-09-28 20:40:00 231 11739.0 13.540 13.820 14.130 14.180 14.300 67.660 61.020 7.686 6.790 15.360 12.730 10.240 9.540 0.224 0.258 0.337 0.611 0.00 0.00 0.00 0.7030 2.72 3.10 1 1 0 13.610 13.860 14.150 14.370 14.230 7.819 6.835 13.490 13.800 14.130 14.270 14.150 7.429 6.756 0.9080 15.514 10.500 5.017 16.172 9.874 6.304
VANMET_231 2017-09-28 20:35:00 231 11739.0 13.650 13.950 14.220 14.280 14.340 66.800 59.900 7.605 6.608 15.380 12.720 10.240 9.540 0.224 0.258 0.337 0.610 0.00 0.00 0.00 0.6530 358.90 7.55 1 1 0 13.710 14.030 14.280 14.380 14.320 7.781 6.746 13.580 13.870 14.150 14.320 14.230 7.439 6.515 0.7380 15.625 10.442 5.188 16.277 9.752 6.527
VANMET_231 2017-09-28 20:30:00 231 11739.0 13.750 14.070 14.330 14.350 14.430 65.040 58.680 7.309 6.376 15.390 12.710 10.240 9.540 0.224 0.258 0.337 0.611 0.00 0.00 0.00 0.6470 5.48 1.24 1 1 0 13.810 14.130 14.370 14.530 14.380 7.432 6.501 13.700 14.030 14.290 14.360 14.310 7.089 6.258 0.7710 15.727 10.233 5.498 16.351 9.597 6.756
VANMET_231 2017-09-28 20:25:00 231 11739.0 13.810 14.130 14.370 14.390 14.560 64.010 58.240 7.134 6.309 15.400 12.700 10.240 9.540 0.224 0.258 0.337 0.611 0.00 0.00 0.00 0.7560 7.88 4.90 1 1 0 13.860 14.160 14.380 14.610 14.410 7.307 6.372 13.780 14.090 14.370 14.510 14.360 6.989 6.261 0.9540 15.789 10.111 5.682 16.394 9.552 6.846
VANMET_231 2017-09-28 20:20:00 231 11739.0 13.740 14.070 14.380 14.400 14.590 64.640 58.630 7.207 6.417 15.410 12.690 10.240 9.540 0.225 0.258 0.337 0.611 0.00 0.00 0.00 0.5750 1.42 4.34 1 1 0 13.770 14.090 14.400 14.670 14.410 7.308 6.444 13.710 14.050 14.370 14.540 14.400 7.096 6.399 0.7580 15.717 10.161 5.558 16.404 9.624 6.786
VANMET_231 2017-09-28 20:15:00 231 11739.0 13.690 14.020 14.370 14.390 14.560 65.090 58.440 7.265 6.356 15.420 12.680 10.240 9.540 0.225 0.258 0.337 0.611 0.00 0.00 0.00 0.5650 359.50 8.52 1 1 0 13.730 14.040 14.380 14.600 14.410 7.428 6.393 13.670 14.000 14.360 14.520 14.370 7.154 6.312 0.7840 15.666 10.202 5.469 16.394 9.584 6.813
VANMET_231 2017-09-28 20:10:00 231 11739.0 13.660 14.010 14.390 14.420 14.690 65.290 58.130 7.278 6.304 15.430 12.670 10.240 9.540 0.225 0.258 0.337 0.611 0.00 0.00 0.00 0.5720 4.52 7.62 1 1 0 13.680 14.020 14.400 14.830 14.440 7.363 6.329 13.630 14.000 14.370 14.580 14.400 7.113 6.264 0.6930 15.635 10.211 5.427 16.426 9.549 6.877
VANMET_231 2017-09-28 20:05:00 231 11739.0 13.700 14.010 14.380 14.430 14.530 64.600 57.450 7.160 6.146 15.440 12.650 10.240 9.540 0.225 0.258 0.337 0.611 0.00 0.00 0.00 0.6630 2.92 2.59 1 1 0 13.730 14.040 14.410 14.760 14.450 7.314 6.267 13.680 13.980 14.350 14.460 14.390 6.931 6.034 0.7970 15.676 10.129 5.549 16.436 9.445 6.994
VANMET_231 2017-09-28 20:00:00 231 11739.0 13.750 14.070 14.420 14.460 14.560 65.370 56.900 7.381 6.032 15.450 12.640 10.230 9.540 0.225 0.258 0.337 0.611 0.00 0.00 0.00 0.7820 3.43 3.29 1 1 0 13.780 14.100 14.440 14.610 14.470 7.649 6.222 13.720 14.040 14.400 14.510 14.440 7.220 5.979 1.1170 15.727 10.283 5.446 16.468 9.371 7.098
VANMET_231 2017-09-28 19:55:00 231 11739.0 13.830 14.090 14.440 14.510 14.550 67.510 59.270 7.936 6.676 15.460 12.630 10.230 9.540 0.225 0.258 0.337 0.611 0.00 0.00 0.00 0.6530 1.31 1.50 1 1 0 13.880 14.150 14.490 14.570 14.570 8.120 6.886 13.770 14.040 14.400 14.500 14.460 7.620 6.283 0.8040 15.809 10.680 5.136 16.521 9.797 6.729
VANMET_231 2017-09-28 19:50:00 231 11739.0 13.930 14.240 14.550 14.600 14.610 67.350 59.420 7.990 6.799 15.470 12.620 10.230 9.540 0.225 0.258 0.337 0.611 0.00 0.00 0.00 0.7050 4.31 4.02 1 1 0 13.970 14.330 14.610 14.700 14.630 8.120 6.879 13.870 14.160 14.500 14.570 14.570 7.765 6.740 0.8690 15.912 10.720 5.195 16.618 9.881 6.743
VANMET_231 2017-09-28 19:45:00 231 11739.0 13.960 14.300 14.580 14.610 14.720 66.200 59.220 7.766 6.754 15.470 12.610 10.230 9.540 0.225 0.258 0.337 0.611 0.00 0.00 0.00 0.7420 359.90 5.67 1 1 0 14.000 14.350 14.620 14.760 14.640 7.985 6.784 13.930 14.240 14.530 14.650 14.570 7.607 6.735 0.9730 15.943 10.557 5.389 16.628 9.850 6.781
VANMET_231 2017-09-28 19:40:00 231 11739.0 14.040 14.230 14.500 14.570 14.590 66.020 59.320 7.806 6.742 15.480 12.590 10.230 9.540 0.225 0.258 0.338 0.611 0.00 0.00 0.00 0.6550 1.08 1.38 1 1 0 14.090 14.280 14.520 14.630 14.590 8.020 6.803 13.970 14.200 14.490 14.550 14.540 7.485 6.688 0.7970 16.026 10.586 5.446 16.586 9.842 6.747
VANMET_231 2017-09-28 19:35:00 231 11739.0 13.960 14.290 14.510 14.600 14.660 65.130 59.050 7.528 6.702 15.480 12.580 10.230 9.540 0.225 0.258 0.338 0.611 0.00 0.00 0.00 0.7390 3.24 2.10 1 1 0 14.070 14.310 14.510 14.710 14.620 7.693 6.833 13.810 14.250 14.500 14.610 14.580 7.381 6.636 0.9280 15.943 10.387 5.559 16.618 9.815 6.805
VANMET_231 2017-09-28 19:30:00 231 11739.0 13.750 14.240 14.560 14.660 14.640 68.460 59.010 8.060 6.752 15.490 12.570 10.230 9.540 0.225 0.258 0.338 0.611 0.00 0.00 0.00 0.6970 2.71 1.08 1 1 0 13.790 14.250 14.590 14.680 14.700 8.600 6.923 13.700 14.210 14.510 14.610 14.620 7.761 6.569 0.7770 15.727 10.771 4.960 16.682 9.849 6.838
VANMET_231 2017-09-28 19:25:00 231 11739.0 13.940 14.310 14.640 14.720 14.690 69.780 57.930 8.520 6.542 15.490 12.560 10.230 9.540 0.225 0.258 0.338 0.611 0.00 0.00 0.00 0.8840 6.29 2.11 1 1 0 14.110 14.370 14.670 14.760 14.750 8.750 6.581 13.780 14.250 14.590 14.630 14.690 8.210 6.512 1.0580 15.923 11.113 4.812 16.747 9.707 7.045
VANMET_231 2017-09-28 19:20:00 231 11739.0 14.270 14.450 14.700 14.790 14.830 65.740 57.610 7.956 6.520 15.500 12.540 10.230 9.540 0.225 0.258 0.338 0.611 0.00 0.00 0.00 0.9080 7.47 3.25 1 1 0 14.330 14.490 14.730 14.890 14.840 8.690 6.570 14.140 14.370 14.670 14.730 14.750 7.314 6.495 1.0390 16.267 10.695 5.573 16.823 9.693 7.131
VANMET_231 2017-09-28 19:15:00 231 11739.0 14.390 14.530 14.740 14.830 14.900 63.640 57.220 7.599 6.466 15.500 12.530 10.230 9.540 0.225 0.258 0.338 0.611 0.00 0.00 0.00 0.9570 10.44 1.26 1 1 0 14.440 14.570 14.750 14.950 14.870 8.420 6.562 14.320 14.490 14.730 14.860 14.800 7.151 6.414 1.0850 16.394 10.438 5.961 16.866 9.657 7.215
VANMET_231 2017-09-28 19:10:00 231 11739.0 14.380 14.550 14.760 14.810 14.920 61.930 56.980 7.186 6.380 15.500 12.520 10.220 9.540 0.225 0.258 0.338 0.611 0.00 0.00 0.00 0.9160 8.49 2.13 1 1 0 14.420 14.570 14.780 14.990 14.840 7.309 6.428 14.350 14.510 14.740 14.860 14.770 7.068 6.324 1.0520 16.383 10.147 6.237 16.844 9.599 7.246
VANMET_231 2017-09-28 19:05:00 231 11739.0 14.370 14.500 14.710 14.750 14.870 62.440 57.130 7.298 6.365 15.500 12.500 10.220 9.540 0.225 0.258 0.338 0.611 0.00 0.00 0.00 0.7530 2.64 7.16 1 1 0 14.390 14.510 14.740 14.930 14.780 7.551 6.417 14.340 14.480 14.690 14.830 14.720 7.123 6.320 0.8820 16.372 10.225 6.150 16.779 9.589 7.193
VANMET_231 2017-09-28 19:00:00 231 11739.0 14.380 14.560 14.760 14.820 14.910 62.370 56.620 7.294 6.300 15.500 12.490 10.220 9.540 0.225 0.258 0.338 0.611 0.00 0.00 0.00 0.7760 3.92 1.84 1 1 0 14.400 14.600 14.800 14.990 14.860 7.591 6.366 14.350 14.510 14.710 14.850 14.760 7.114 6.244 0.9340 16.383 10.222 6.165 16.855 9.547 7.312
VANMET_231 2017-09-28 18:55:00 231 11739.0 14.290 14.580 14.810 14.880 14.970 62.170 55.980 7.165 6.190 15.500 12.480 10.220 9.540 0.225 0.258 0.338 0.611 0.00 0.00 0.00 0.8830 6.56 2.02 1 1 0 14.380 14.600 14.820 14.990 14.910 7.699 6.267 14.180 14.520 14.790 14.950 14.850 7.021 6.123 1.1240 16.288 10.132 6.162 16.921 9.474 7.448
VANMET_231 2017-09-28 18:50:00 231 11739.0 14.150 14.450 14.750 14.820 14.830 64.640 56.420 7.594 6.251 15.490 12.470 10.220 9.540 0.225 0.258 0.338 0.611 0.00 0.00 0.00 0.7960 3.56 2.98 1 1 0 14.180 14.510 14.790 14.920 14.850 8.160 6.464 14.120 14.420 14.720 14.720 14.790 7.202 6.145 0.9800 16.141 10.434 5.707 16.855 9.514 7.346
VANMET_231 2017-09-28 18:45:00 231 11739.0 14.200 14.490 14.800 14.830 14.910 66.020 56.500 7.954 6.280 15.490 12.450 10.220 9.540 0.225 0.258 0.338 0.611 0.00 0.00 0.00 0.9150 4.15 3.16 1 1 0 14.240 14.550 14.820 14.960 14.860 8.260 6.507 14.160 14.440 14.780 14.870 14.810 7.551 6.120 1.2090 16.193 10.693 5.502 16.866 9.533 7.337
VANMET_231 2017-09-28 18:40:00 231 11739.0 14.240 14.560 14.840 14.860 14.990 64.490 56.630 7.646 6.337 15.490 12.440 10.220 9.540 0.225 0.258 0.338 0.611 0.00 0.00 0.00 0.8510 4.84 3.52 1 1 0 14.270 14.590 14.860 15.070 14.880 7.949 6.560 14.210 14.540 14.810 14.950 14.840 7.434 6.176 1.0130 16.235 10.471 5.765 16.899 9.571 7.329
VANMET_231 2017-09-28 18:35:00 231 11739.0 14.310 14.580 14.850 14.870 15.020 65.910 57.480 8.030 6.562 15.480 12.430 10.220 9.540 0.225 0.258 0.338 0.611 0.00 0.00 0.00 0.8550 8.59 3.66 1 1 0 14.360 14.600 14.860 15.040 14.890 8.500 6.660 14.260 14.570 14.840 14.980 14.850 7.668 6.421 1.1040 16.309 10.749 5.560 16.910 9.721 7.190
VANMET_231 2017-09-28 18:30:00 231 11739.0 14.430 14.600 14.850 14.910 14.990 66.810 58.290 8.360 6.808 15.470 12.410 10.220 9.540 0.225 0.258 0.338 0.611 0.00 0.00 0.00 0.9440 8.12 1.04 1 1 0 14.520 14.630 14.870 15.070 14.950 8.930 6.916 14.370 14.580 14.830 14.930 14.880 7.801 6.645 1.1040 16.436 10.993 5.455 16.953 9.887 7.071
VANMET_231 2017-09-28 18:25:00 231 11739.0 14.610 14.690 14.900 15.010 15.050 66.690 58.570 8.500 6.970 15.460 12.400 10.210 9.540 0.225 0.258 0.338 0.611 0.00 0.00 0.00 0.9710 10.91 1.52 1 1 0 14.700 14.750 14.950 15.100 15.070 9.100 7.189 14.530 14.650 14.870 15.020 14.950 7.942 6.784 1.0520 16.628 11.098 5.539 17.063 9.997 7.069
VANMET_231 2017-09-28 18:20:00 231 11739.0 14.710 14.790 15.000 15.140 15.140 64.840 58.070 8.180 6.966 15.460 12.390 10.210 9.540 0.225 0.258 0.338 0.611 0.00 0.00 0.00 0.8800 16.93 3.26 1 1 0 14.750 14.820 15.060 15.220 15.220 8.990 7.423 14.680 14.760 14.950 15.100 15.080 7.820 6.717 1.0850 16.736 10.859 5.884 17.206 9.995 7.215
VANMET_231 2017-09-28 18:15:00 231 11739.0 14.770 14.840 15.140 15.340 15.270 66.460 57.990 8.590 7.129 15.440 12.370 10.210 9.540 0.225 0.258 0.338 0.611 0.00 0.00 0.00 0.6490 23.45 5.91 1 1 0 14.890 14.940 15.240 15.350 15.450 9.700 7.725 14.700 14.810 15.070 15.220 15.230 8.050 6.840 0.8560 16.801 11.166 5.635 17.429 10.107 7.322
VANMET_231 2017-09-28 18:10:00 231 11739.0 14.940 15.090 15.370 15.620 15.450 65.590 56.790 8.560 7.092 15.430 12.360 10.210 9.540 0.225 0.258 0.338 0.611 0.00 0.00 0.00 0.6380 19.59 6.57 1 1 0 15.020 15.180 15.500 15.560 15.790 9.530 7.259 14.870 14.960 15.250 15.350 15.460 8.110 6.885 0.8820 16.986 11.143 5.845 17.745 10.081 7.667
VANMET_231 2017-09-28 18:05:00 231 11739.0 15.140 15.270 15.610 15.900 15.730 65.330 56.000 8.700 7.149 15.420 12.340 10.210 9.540 0.225 0.258 0.338 0.611 0.00 0.00 0.00 0.4850 10.90 25.03 1 1 0 15.250 15.390 15.700 15.840 16.010 9.380 7.351 15.030 15.190 15.510 15.610 15.790 8.150 6.799 0.7060 17.206 11.249 5.965 18.065 10.121 7.949
VANMET_231 2017-09-28 18:00:00 231 11739.0 15.330 15.500 15.790 16.110 15.950 63.740 55.300 8.510 7.160 15.400 12.330 10.210 9.540 0.225 0.258 0.338 0.611 0.00 0.00 0.00 0.4320 2.76 21.76 1 1 0 15.360 15.560 15.840 16.050 16.160 9.360 7.393 15.260 15.400 15.710 15.840 16.030 8.270 6.834 0.6210 17.418 11.105 6.316 18.309 10.129 8.184
VANMET_231 2017-09-28 17:55:00 231 11739.0 15.450 15.650 15.920 16.280 16.040 63.230 55.510 8.500 7.378 15.390 12.320 10.210 9.540 0.225 0.258 0.338 0.611 0.00 0.00 0.00 0.3970 338.10 14.87 1 1 0 15.530 15.770 16.060 16.140 16.450 8.770 7.591 15.370 15.580 15.840 15.980 16.150 8.180 6.895 0.6660 17.552 11.098 6.454 18.509 10.281 8.235
VANMET_231 2017-09-28 17:50:00 231 11739.0 15.690 15.940 16.250 16.630 16.290 64.410 55.590 9.010 7.722 15.370 12.300 10.210 9.540 0.225 0.258 0.338 0.611 0.33 0.00 0.00 0.4490 338.30 9.03 1 1 0 15.860 16.100 16.440 16.530 16.790 9.270 8.010 15.550 15.790 16.080 16.130 16.460 8.660 7.508 0.6790 17.824 11.488 6.344 18.926 10.526 8.405
VANMET_231 2017-09-28 17:45:00 231 11739.0 16.030 16.260 16.620 16.980 16.660 64.010 55.120 9.240 7.922 15.350 12.290 10.210 9.540 0.225 0.258 0.338 0.611 2.54 0.00 0.00 0.5130 312.00 13.17 1 1 0 16.180 16.410 16.800 16.870 17.150 9.500 8.060 15.870 16.120 16.450 16.500 16.810 8.930 7.713 0.6860 18.216 11.667 6.556 19.351 10.670 8.685
VANMET_231 2017-09-28 17:40:00 231 11739.0 16.350 16.570 16.960 17.290 16.970 64.220 53.900 9.590 7.880 15.330 12.280 10.200 9.540 0.225 0.258 0.338 0.611 6.51 0.00 0.00 0.5650 291.20 31.58 1 1 0 16.510 16.750 17.110 17.110 17.440 10.220 8.110 16.200 16.430 16.820 16.860 17.140 9.290 7.399 0.8620 18.592 11.945 6.652 19.734 10.640 9.098
VANMET_231 2017-09-28 17:35:00 231 11739.0 16.670 16.910 17.260 17.580 17.350 62.220 52.060 9.420 7.637 15.310 12.260 10.200 9.540 0.225 0.258 0.338 0.611 9.50 0.00 0.00 0.4410 281.90 18.41 1 1 0 16.800 17.010 17.380 17.540 17.700 9.890 7.928 16.520 16.770 17.130 17.140 17.460 8.950 7.252 0.6530 18.974 11.810 7.168 20.099 10.465 9.635
VANMET_231 2017-09-28 17:30:00 231 11739.0 16.970 17.130 17.490 17.830 17.580 60.890 51.620 9.380 7.749 15.290 12.250 10.200 9.540 0.225 0.258 0.338 0.611 12.07 0.00 0.00 0.3810 304.50 22.54 1 1 0 17.120 17.250 17.610 17.760 17.970 10.060 8.310 16.800 17.020 17.390 17.480 17.690 8.870 7.099 1.1960 19.339 11.778 7.563 20.418 10.545 9.878
VANMET_231 2017-09-28 17:25:00 231 11739.0 17.220 17.370 17.750 18.100 17.820 59.060 51.120 9.170 7.855 15.260 12.240 10.200 9.540 0.225 0.258 0.338 0.611 14.33 0.00 0.00 0.5030 257.30 35.77 1 1 0 17.370 17.480 17.860 18.010 18.210 9.800 8.290 17.130 17.260 17.620 17.560 17.990 8.430 7.196 1.0910 19.647 11.612 8.044 20.768 10.622 10.151
VANMET_231 2017-09-28 17:20:00 231 11739.0 17.480 17.610 17.990 18.320 18.170 58.560 49.780 9.280 7.669 15.240 12.220 10.200 9.540 0.225 0.258 0.338 0.611 16.89 0.00 0.00 0.3600 283.20 32.03 1 1 0 17.630 17.730 18.100 18.310 18.430 10.070 8.560 17.370 17.520 17.890 18.040 18.220 8.770 7.338 0.6400 19.973 11.699 8.277 21.057 10.488 10.575
VANMET_231 2017-09-28 17:15:00 231 11739.0 17.790 17.870 18.230 18.560 18.300 58.880 50.750 9.650 8.170 15.210 12.210 10.200 9.540 0.225 0.258 0.338 0.611 27.35 0.00 0.00 0.4450 282.30 50.24 1 1 0 17.910 17.960 18.340 18.460 18.690 10.730 8.990 17.650 17.750 18.110 18.150 18.420 8.800 7.609 1.1170 20.367 11.994 8.375 21.376 10.852 10.528
VANMET_231 2017-09-28 17:10:00 231 11739.0 18.140 18.110 18.490 18.820 18.380 59.860 49.610 10.220 8.080 15.180 12.200 10.200 9.540 0.225 0.258 0.338 0.611 37.54 0.00 0.00 0.6260 233.20 30.93 1 1 0 18.350 18.270 18.650 18.560 19.020 10.940 8.910 17.920 17.950 18.340 18.160 18.710 8.700 7.236 1.7570 20.820 12.461 8.357 21.726 10.786 10.948
VANMET_231 2017-09-28 17:05:00 231 11739.0 18.510 18.500 18.880 19.180 18.790 56.360 48.630 9.670 8.110 15.150 12.190 10.200 9.540 0.225 0.258 0.338 0.611 82.10 0.00 0.00 0.8570 244.10 30.45 1 1 0 18.620 18.680 19.040 19.160 19.290 10.670 9.230 18.390 18.300 18.680 18.370 19.040 8.510 7.013 1.8490 21.309 12.010 9.299 22.220 10.808 11.414
VANMET_231 2017-09-28 17:00:00 231 11739.0 18.750 18.720 19.110 19.380 19.000 56.050 47.900 9.810 8.080 15.120 12.170 10.200 9.540 0.225 0.258 0.338 0.611 120.20 0.00 0.00 0.5680 267.60 43.62 1 1 0 18.890 18.880 19.220 19.220 19.480 11.040 9.140 18.590 18.620 19.040 18.830 19.290 8.220 7.471 1.1240 21.631 12.123 9.507 22.498 10.786 11.721
VANMET_231 2017-09-28 16:55:00 231 11739.0 19.040 19.000 19.340 19.590 19.130 54.770 47.670 9.740 8.190 15.090 12.160 10.190 9.540 0.225 0.258 0.338 0.611 137.00 0.00 0.00 1.5960 221.80 37.81 1 1 0 19.200 19.220 19.540 19.360 19.730 10.650 9.270 18.890 18.890 19.240 18.920 19.500 8.520 7.257 2.8420 22.026 12.066 9.963 22.793 10.867 11.928
VANMET_231 2017-09-28 16:50:00 231 11739.0 19.300 19.370 19.710 19.940 19.540 53.510 48.070 9.640 8.640 15.060 12.150 10.190 9.540 0.225 0.258 0.338 0.611 151.20 0.00 0.00 1.0310 243.30 33.80 1 1 0 19.430 19.570 19.870 19.870 20.140 10.230 9.240 19.200 19.240 19.590 19.360 19.770 8.580 7.754 2.0450 22.386 11.986 10.407 23.294 11.204 12.096
VANMET_231 2017-09-28 16:45:00 231 11739.0 19.570 19.750 20.030 20.340 19.860 52.640 45.900 9.640 8.320 15.020 12.140 10.190 9.540 0.225 0.258 0.338 0.611 133.10 0.00 0.00 1.0420 229.80 46.63 1 1 0 19.700 19.990 20.180 20.060 20.510 10.290 8.950 19.440 19.560 19.860 19.730 20.140 8.710 7.561 2.3650 22.765 11.986 10.782 23.877 10.963 12.917
VANMET_231 2017-09-28 16:40:00 231 11739.0 19.910 20.350 20.520 20.800 19.980 51.700 44.870 9.690 8.400 14.990 12.130 10.190 9.540 0.225 0.258 0.338 0.611 166.80 0.00 0.00 1.2870 230.60 27.17 1 1 0 20.120 20.650 20.880 20.280 21.050 10.360 9.210 19.720 20.050 20.220 19.630 20.520 8.700 7.655 2.6390 23.250 12.026 11.230 24.563 11.023 13.542
VANMET_231 2017-09-28 16:35:00 231 11739.0 20.360 20.710 21.140 21.270 20.250 48.660 42.440 9.200 8.010 14.950 12.120 10.190 9.540 0.225 0.258 0.338 0.611 199.00 0.00 0.00 0.8680 266.30 45.86 1 1 0 20.550 20.850 21.390 20.590 21.420 10.170 8.760 20.140 20.630 20.940 20.010 21.080 8.640 7.372 1.6070 23.906 11.636 12.274 25.283 10.734 14.553
VANMET_231 2017-09-28 16:30:00 231 11739.0 20.680 20.850 21.270 21.360 20.680 46.670 40.730 8.870 7.490 14.910 12.100 10.190 9.540 0.225 0.258 0.338 0.611 217.00 0.00 0.00 1.4130 246.00 26.37 1 1 0 20.770 20.950 21.390 20.870 21.440 9.970 8.400 20.560 20.780 21.190 20.410 21.290 8.090 6.957 3.7040 24.383 11.379 13.003 25.422 10.360 15.068
VANMET_231 2017-09-28 16:25:00 231 11739.0 20.920 21.030 21.420 21.710 20.920 46.550 39.990 9.040 7.530 14.880 12.090 10.190 9.540 0.225 0.258 0.338 0.611 232.90 0.00 0.00 1.7020 225.90 36.24 1 1 0 20.990 21.230 21.580 21.130 21.900 10.960 9.670 20.790 20.810 21.240 20.570 21.490 7.923 7.050 3.3390 24.745 11.511 13.226 25.973 10.388 15.586
VANMET_231 2017-09-28 16:20:00 231 11739.0 21.160 21.440 21.740 22.080 21.330 45.240 38.250 8.850 7.216 14.840 12.080 10.190 9.540 0.225 0.258 0.338 0.611 232.90 0.00 0.00 1.8200 227.00 34.24 1 1 0 21.330 21.620 21.840 21.500 22.220 9.470 7.758 20.990 21.270 21.600 21.140 21.920 8.160 6.704 2.9400 25.113 11.364 13.752 26.565 10.168 16.404
VANMET_231 2017-09-28 16:15:00 231 11739.0 21.540 21.640 22.070 22.400 21.310 44.350 37.660 8.900 7.266 14.800 12.070 10.180 9.540 0.225 0.258 0.338 0.611 264.00 0.00 0.00 1.6180 213.00 33.08 1 1 0 21.880 21.750 22.380 21.440 22.730 10.180 8.720 21.330 21.580 21.840 21.180 22.240 7.787 6.696 2.5610 25.704 11.402 14.304 27.088 10.202 16.886
VANMET_231 2017-09-28 16:10:00 231 11739.0 22.370 22.330 22.940 22.910 21.300 40.300 35.830 8.230 6.995 14.760 12.060 10.180 9.540 0.225 0.258 0.338 0.611 278.10 0.00 0.00 1.1460 251.00 38.51 1 1 0 22.730 22.840 23.210 21.460 23.010 9.600 8.130 21.920 21.800 22.470 21.120 22.790 7.139 6.333 2.5550 27.038 10.896 16.142 27.938 10.015 17.928
VANMET_231 2017-09-28 16:05:00 231 11739.0 22.920 23.050 23.440 23.170 21.620 37.860 34.810 7.790 6.792 14.710 12.050 10.180 9.540 0.225 0.258 0.338 0.611 294.20 0.00 0.00 0.9940 232.00 61.73 1 1 0 23.080 23.190 23.560 21.860 23.280 9.630 8.130 22.740 22.820 23.170 21.290 22.920 6.942 5.907 2.2150 27.955 10.575 17.371 28.381 9.876 18.502
VANMET_231 2017-09-28 16:00:00 231 11739.0 23.410 22.980 23.240 23.150 21.690 37.430 33.360 8.050 6.174 14.670 12.040 10.180 9.540 0.225 0.258 0.339 0.611 310.30 0.00 0.00 0.9910 249.90 25.91 1 1 0 23.880 23.490 23.630 21.960 23.440 9.960 6.938 23.070 22.710 23.010 21.420 23.000 6.423 5.644 2.0910 28.795 10.764 18.017 28.347 9.464 18.890
VANMET_231 2017-09-28 15:55:00 231 11739.0 23.870 23.750 23.870 23.420 22.050 34.660 33.190 7.346 6.327 14.630 12.030 10.180 9.540 0.225 0.258 0.339 0.611 325.10 0.00 0.00 1.0550 219.60 28.11 1 1 0 23.930 23.890 24.030 22.140 23.490 8.280 7.569 23.740 23.620 23.750 21.900 23.370 6.016 5.521 2.3980 29.603 10.258 19.343 28.812 9.564 19.250
VANMET_231 2017-09-28 15:50:00 231 11739.0 23.470 23.500 23.700 23.410 22.220 37.130 33.610 7.986 6.490 14.590 12.020 10.180 9.540 0.225 0.258 0.339 0.611 341.20 0.00 0.00 0.8030 176.00 41.17 1 1 0 23.720 23.790 23.880 22.400 23.500 9.320 7.855 23.350 23.210 23.540 22.030 23.350 6.011 5.029 1.3390 28.899 10.717 18.169 28.795 9.673 19.117
VANMET_231 2017-09-28 15:45:00 231 11739.0 23.720 23.440 23.660 23.550 22.460 33.490 30.960 6.701 5.438 14.540 12.010 10.180 9.540 0.225 0.258 0.339 0.611 357.20 0.00 0.00 1.0830 242.70 22.14 1 1 0 23.950 23.730 23.810 22.700 23.640 8.420 6.249 23.370 23.100 23.440 22.230 23.430 5.523 4.843 1.9990 29.338 9.814 19.513 29.039 8.993 20.049
VANMET_231 2017-09-28 15:40:00 231 11739.0 23.930 23.550 23.670 23.530 22.530 30.560 28.900 5.566 4.427 14.500 12.000 10.180 9.540 0.225 0.258 0.339 0.611 372.80 0.00 0.00 1.0950 234.90 50.06 1 1 0 24.070 23.740 23.880 22.800 23.680 7.514 5.840 23.810 23.300 23.450 22.230 23.410 4.246 3.131 3.0640 29.710 9.073 20.631 29.004 8.380 20.622
VANMET_231 2017-09-28 15:35:00 231 11739.0 23.950 23.610 23.930 23.700 22.430 31.490 27.550 5.987 3.871 14.450 11.990 10.180 9.540 0.225 0.258 0.339 0.611 387.60 0.00 0.00 1.1430 214.10 42.61 1 1 0 24.010 23.730 24.050 22.690 23.810 8.470 5.850 23.870 23.530 23.800 22.170 23.550 3.910 2.663 3.5870 29.746 9.342 20.379 29.302 8.059 21.230
VANMET_231 2017-09-28 15:30:00 231 11739.0 24.010 23.710 24.060 23.820 22.660 29.610 26.780 5.173 3.585 14.400 11.990 10.180 9.540 0.225 0.258 0.339 0.611 403.40 0.00 0.00 1.2350 222.00 32.85 1 1 0 24.060 23.780 24.150 23.030 23.870 7.795 5.888 23.980 23.620 23.950 22.380 23.760 3.956 2.553 2.2080 29.853 8.829 21.014 29.515 7.898 21.611
VANMET_231 2017-09-28 15:25:00 231 11739.0 24.130 23.610 23.900 23.780 22.870 28.940 25.470 4.911 2.823 14.360 11.980 10.170 9.540 0.225 0.258 0.339 0.611 419.00 0.00 0.00 1.3390 242.90 21.81 1 1 0 24.340 23.750 24.070 23.110 23.820 7.645 5.516 24.050 23.420 23.700 22.570 23.710 2.389 1.477 2.5220 30.069 8.669 21.367 29.444 7.483 21.944
VANMET_231 2017-09-28 15:20:00 231 11739.0 24.730 23.950 24.130 24.010 22.860 30.430 25.560 6.156 3.069 14.310 11.970 10.170 9.540 0.225 0.258 0.339 0.611 433.50 0.00 0.00 1.5070 228.50 25.15 1 1 0 25.020 24.170 24.310 22.950 24.160 7.991 4.504 24.360 23.700 23.890 22.660 23.830 2.873 0.716 2.7240 31.168 9.452 21.684 29.853 7.615 22.223
VANMET_231 2017-09-28 15:15:00 231 11739.0 25.160 24.580 24.750 24.390 22.870 31.020 28.820 6.820 5.085 14.260 11.960 10.170 9.540 0.225 0.258 0.339 0.611 446.50 0.00 0.00 1.0500 206.60 45.02 1 1 0 25.250 24.750 24.960 23.000 24.500 8.520 6.962 25.040 24.210 24.360 22.770 24.200 4.159 2.248 2.2340 31.977 9.895 22.058 30.541 8.775 21.739
VANMET_231 2017-09-28 15:10:00 231 11739.0 24.950 24.480 24.700 24.320 23.210 29.560 27.830 5.950 4.556 14.210 11.950 10.170 9.540 0.225 0.258 0.339 0.611 460.70 0.00 0.00 1.0190 205.20 31.78 1 1 0 25.050 24.550 24.790 23.400 24.430 8.110 6.200 24.810 24.390 24.590 22.970 24.210 4.243 2.144 1.7510 31.580 9.318 22.245 30.413 8.456 21.949
VANMET_231 2017-09-28 15:05:00 231 11739.0 24.790 24.240 24.460 24.150 23.180 27.630 25.340 4.841 3.084 14.160 11.950 10.170 9.540 0.225 0.258 0.339 0.611 474.90 0.00 0.00 0.9920 223.10 33.61 1 1 0 24.900 24.400 24.700 23.400 24.260 7.139 5.084 24.740 24.110 24.230 23.000 24.050 2.650 1.987 1.6070 31.280 8.626 22.637 30.105 7.623 22.476
VANMET_231 2017-09-28 15:00:00 231 11739.0 25.220 24.330 24.540 24.350 23.180 27.750 23.730 5.247 2.342 14.110 11.940 10.170 9.540 0.225 0.258 0.339 0.611 488.30 0.00 0.00 1.2240 271.60 28.55 1 1 0 25.440 24.460 24.710 23.310 24.560 7.838 3.175 24.940 24.110 24.280 23.020 24.140 3.132 1.582 2.5810 32.091 8.874 23.186 30.468 7.231 23.238
VANMET_231 2017-09-28 14:55:00 231 11739.0 25.350 24.850 25.040 24.620 23.460 30.710 27.620 6.860 4.704 14.060 11.930 10.170 9.540 0.225 0.258 0.339 0.611 500.90 0.00 0.00 0.9470 223.60 45.13 1 1 0 25.620 25.160 25.320 23.880 24.790 9.010 6.182 24.900 24.440 24.680 23.140 24.360 4.571 2.903 2.1300 32.340 9.922 22.408 30.964 8.544 22.412
VANMET_231 2017-09-28 14:50:00 231 11739.0 24.840 24.190 24.460 24.290 23.250 28.750 24.700 5.445 2.845 14.010 11.930 10.170 9.540 0.225 0.258 0.339 0.611 515.20 0.00 0.00 1.0510 252.40 39.19 1 1 0 24.880 24.360 24.590 23.580 24.340 7.282 3.875 24.800 24.060 24.350 22.960 24.240 2.845 1.588 2.5350 31.373 8.997 22.353 30.359 7.494 22.860
VANMET_231 2017-09-28 14:45:00 231 11739.0 24.800 24.150 24.430 24.270 23.100 26.730 24.470 4.351 2.676 13.960 11.920 10.170 9.540 0.225 0.258 0.339 0.611 527.80 0.00 0.00 0.9490 221.60 39.36 1 1 0 24.870 24.240 24.570 23.290 24.460 6.469 3.863 24.730 24.050 24.370 22.930 24.160 2.171 1.157 1.3920 31.298 8.335 22.932 30.322 7.405 22.902
VANMET_231 2017-09-28 14:40:00 231 11739.0 25.190 24.400 24.720 24.550 23.490 28.240 23.970 5.459 2.641 13.900 11.920 10.170 9.540 0.225 0.258 0.339 0.611 541.10 0.00 0.00 1.0890 251.40 26.93 1 1 0 25.330 24.850 24.980 23.830 24.620 8.880 3.858 24.920 24.150 24.530 23.190 24.470 2.272 1.398 1.6460 32.034 9.006 22.988 30.835 7.386 23.444
VANMET_231 2017-09-28 14:35:00 231 11739.0 25.160 24.420 24.530 24.230 23.350 27.790 25.020 5.227 2.958 13.850 11.910 10.160 9.540 0.225 0.258 0.339 0.611 552.00 0.00 0.00 0.9310 239.20 31.70 1 1 0 25.260 24.810 24.950 23.870 24.460 7.846 5.858 25.090 24.270 24.320 22.980 24.110 2.013 1.506 1.4370 31.977 8.862 23.090 30.250 7.555 22.681
VANMET_231 2017-09-28 14:30:00 231 11739.0 25.060 24.380 24.430 24.170 23.440 27.150 24.470 4.782 2.582 13.800 11.910 10.160 9.540 0.225 0.258 0.339 0.611 564.20 0.00 0.00 1.3620 239.70 29.72 1 1 0 25.180 24.590 24.640 23.740 24.280 8.170 4.694 24.940 24.260 24.240 23.240 24.030 2.210 0.997 2.9330 31.787 8.591 23.157 30.141 7.355 22.766
VANMET_231 2017-09-28 14:25:00 231 11739.0 25.020 24.220 24.340 24.140 23.380 25.860 23.900 4.017 2.215 13.750 11.900 10.160 9.540 0.225 0.258 0.339 0.611 574.20 0.00 0.00 1.3640 227.90 29.93 1 1 0 25.300 24.510 24.610 23.700 24.310 8.390 5.274 24.870 24.110 24.170 23.180 24.020 1.266 0.159 2.8290 31.711 8.142 23.511 30.087 7.165 22.896
VANMET_231 2017-09-28 14:20:00 231 11739.0 25.310 24.450 24.500 24.310 23.380 28.910 25.740 5.909 3.400 13.690 11.900 10.160 9.540 0.225 0.259 0.339 0.611 584.10 0.00 0.00 1.0850 236.40 34.99 1 1 0 25.400 24.550 24.570 23.610 24.370 8.960 6.118 25.200 24.240 24.380 23.130 24.260 3.516 0.501 2.1760 32.263 9.292 22.936 30.395 7.795 22.571
VANMET_231 2017-09-28 14:15:00 231 11739.0 25.190 24.380 24.410 24.240 23.310 30.300 27.420 6.490 4.261 13.640 11.900 10.160 9.540 0.225 0.259 0.339 0.611 592.10 0.00 0.00 1.1580 192.20 34.95 1 1 0 25.360 24.690 24.660 23.770 24.410 9.490 6.354 25.030 24.130 24.140 22.840 24.060 4.078 1.814 2.5680 32.034 9.673 22.328 30.268 8.283 21.968
VANMET_231 2017-09-28 14:10:00 231 11739.0 25.670 24.760 24.920 24.670 23.290 26.790 25.360 5.116 3.504 13.590 11.890 10.160 9.540 0.226 0.259 0.339 0.611 601.30 0.00 0.00 0.5770 167.10 48.37 1 1 0 25.870 24.950 25.120 23.680 24.880 7.186 5.506 25.410 24.480 24.560 22.960 24.380 2.796 2.191 1.0190 32.960 8.794 24.130 31.056 7.853 23.181
VANMET_231 2017-09-28 14:05:00 231 11739.0 25.850 25.280 25.460 24.980 23.710 29.450 26.730 6.661 4.521 13.530 11.890 10.160 9.540 0.226 0.259 0.339 0.611 610.00 0.00 0.00 0.7820 232.00 30.40 1 1 0 26.000 25.410 25.570 23.890 25.050 9.700 7.699 25.570 25.000 25.160 23.580 24.870 4.041 3.019 1.4050 33.313 9.787 23.502 31.636 8.435 23.180
VANMET_231 2017-09-28 14:00:00 231 11739.0 25.380 24.920 25.160 24.700 23.460 25.490 24.480 4.194 3.053 13.480 11.890 10.160 9.540 0.225 0.259 0.339 0.611 618.70 0.00 0.00 0.6330 187.10 42.40 1 1 0 25.550 25.200 25.410 23.780 24.890 5.637 4.549 25.290 24.650 24.930 23.160 24.590 2.221 1.454 1.1300 32.398 8.244 24.140 31.112 7.606 23.496
VANMET_231 2017-09-28 13:55:00 231 11739.0 25.160 24.560 24.720 24.360 23.810 29.750 26.470 6.214 3.835 13.430 11.880 10.160 9.540 0.226 0.259 0.339 0.611 627.40 0.00 0.00 1.1290 195.90 28.02 1 1 0 25.330 24.750 24.960 23.960 24.610 7.932 6.422 25.050 24.350 24.460 23.660 24.200 3.338 2.132 1.9990 31.977 9.490 22.464 30.486 8.038 22.417
VANMET_231 2017-09-28 13:50:00 231 11739.0 24.890 24.300 24.370 24.020 23.470 26.340 25.260 4.227 2.898 13.380 11.880 10.160 9.540 0.226 0.259 0.339 0.611 634.40 0.00 0.00 0.8490 234.80 88.20 1 1 0 25.040 24.690 24.760 23.870 24.260 7.038 5.622 24.750 24.090 24.140 23.190 23.820 2.068 1.112 1.2540 31.467 8.263 23.178 29.871 7.523 22.326
VANMET_231 2017-09-28 13:45:00 231 11739.0 24.530 24.190 24.270 23.890 23.450 27.940 25.630 4.763 2.999 13.330 11.880 10.160 9.540 0.226 0.259 0.339 0.611 642.40 0.00 0.00 0.8580 181.30 25.41 1 1 0 25.010 24.700 24.760 24.000 24.270 7.315 4.799 24.240 23.750 23.800 22.730 23.550 2.947 1.383 1.6270 30.798 8.579 22.193 29.639 7.577 22.043
VANMET_231 2017-09-28 13:40:00 231 11739.0 24.400 24.050 24.150 23.840 23.190 26.580 24.990 3.952 2.608 13.270 11.880 10.150 9.540 0.226 0.259 0.339 0.611 649.90 0.00 0.00 1.0010 158.00 60.50 1 1 0 24.470 24.170 24.300 23.510 23.960 6.409 4.617 24.300 23.880 23.890 22.970 23.680 2.475 1.079 2.2670 30.559 8.105 22.437 29.550 7.369 22.166
VANMET_231 2017-09-28 13:35:00 231 11739.0 24.090 23.760 23.960 23.730 23.090 26.720 24.400 3.773 2.191 13.220 11.880 10.150 9.540 0.226 0.259 0.339 0.611 658.40 0.00 0.00 0.6070 167.80 54.33 1 1 0 24.400 24.140 24.280 23.280 23.970 5.780 3.763 23.860 23.440 23.600 22.940 23.440 2.120 1.187 1.6070 29.997 8.003 21.982 29.355 7.153 22.193
VANMET_231 2017-09-28 13:30:00 231 11739.0 23.770 23.260 23.330 23.230 22.740 27.930 25.990 4.108 2.661 13.170 11.880 10.150 9.540 0.226 0.259 0.339 0.611 664.50 0.00 0.00 0.9890 161.50 42.98 1 1 0 23.850 23.390 23.540 23.010 23.420 6.472 3.948 23.700 23.200 23.220 22.530 23.140 2.318 1.039 2.4370 29.426 8.194 21.207 28.484 7.397 21.081
VANMET_231 2017-09-28 13:25:00 231 11739.0 24.160 23.590 23.640 23.570 22.940 25.590 23.790 3.213 1.711 13.120 11.880 10.150 9.540 0.226 0.259 0.339 0.611 671.80 0.00 0.00 1.1360 168.40 51.52 1 1 0 24.290 23.850 23.860 23.300 23.750 6.152 3.005 23.870 23.220 23.240 22.540 23.170 2.062 0.764 2.6980 30.123 7.693 22.415 29.074 6.912 22.157
VANMET_231 2017-09-28 13:20:00 231 11739.0 24.150 23.700 23.860 23.660 22.880 26.960 25.360 3.952 2.669 13.080 11.880 10.150 9.540 0.226 0.259 0.340 0.611 676.60 0.00 0.00 0.7730 177.00 36.38 1 1 0 24.280 23.910 24.100 23.160 23.830 5.407 4.163 24.020 23.470 23.550 22.480 23.420 2.805 1.124 2.4430 30.105 8.105 21.989 29.232 7.401 21.819
VANMET_231 2017-09-28 13:15:00 231 11739.0 24.210 23.680 23.850 23.820 22.950 26.470 24.060 3.668 2.032 13.030 11.880 10.150 9.540 0.226 0.259 0.340 0.611 682.10 0.00 0.00 0.9030 142.00 50.74 1 1 0 24.380 23.900 24.090 23.440 24.040 8.670 4.946 24.040 23.350 23.390 22.730 23.400 1.745 0.305 1.4570 30.214 7.944 22.216 29.515 7.072 22.413
VANMET_231 2017-09-28 13:10:00 231 11739.0 24.080 23.850 24.020 23.960 23.240 28.090 25.740 4.478 3.129 12.980 11.880 10.150 9.540 0.226 0.259 0.340 0.611 687.00 0.00 0.00 0.9560 169.70 59.61 1 1 0 24.200 24.040 24.150 23.730 24.040 5.525 5.173 23.930 23.710 23.870 23.040 23.850 2.744 1.608 2.1230 29.979 8.410 21.558 29.764 7.647 22.103
VANMET_231 2017-09-28 13:05:00 231 11739.0 23.630 23.600 23.900 23.850 22.960 26.470 23.570 3.257 1.818 12.940 11.880 10.150 9.540 0.226 0.259 0.340 0.611 692.20 0.00 0.00 0.8860 170.60 45.51 1 1 0 23.890 23.750 24.150 23.260 23.980 5.075 2.863 23.450 23.470 23.810 22.830 23.720 1.879 0.946 1.9470 29.179 7.717 21.456 29.568 6.965 22.599
VANMET_231 2017-09-28 13:00:00 231 11739.0 23.380 23.570 24.100 23.920 22.770 26.870 23.630 3.259 1.898 12.890 11.880 10.150 9.540 0.226 0.259 0.340 0.611 695.50 0.00 0.00 0.5530 154.30 19.70 1 1 0 23.500 23.760 24.320 23.040 24.100 4.781 4.147 23.290 23.390 23.920 22.600 23.760 2.055 0.945 1.2670 28.743 7.718 21.020 29.693 7.005 22.676
VANMET_231 2017-09-28 12:55:00 231 11739.0 23.450 23.370 23.820 23.700 22.450 26.120 24.180 2.906 2.043 12.850 11.880 10.150 9.540 0.226 0.259 0.340 0.611 701.00 0.00 0.00 0.4970 168.40 43.51 1 1 0 23.610 23.440 23.900 22.730 23.760 5.179 3.927 23.310 23.270 23.730 22.150 23.630 1.349 0.503 1.5750 28.865 7.527 21.325 29.302 7.078 22.217
VANMET_231 2017-09-28 12:50:00 231 11739.0 23.840 23.240 23.520 23.520 22.430 25.410 23.750 2.814 1.597 12.800 11.880 10.150 9.540 0.226 0.259 0.340 0.611 706.00 0.00 0.00 0.6370 191.50 53.08 1 1 0 24.080 23.350 23.710 22.870 23.620 5.025 4.477 23.590 23.130 23.370 22.120 23.470 1.067 0.132 1.9530 29.550 7.478 22.041 28.987 6.855 22.102
VANMET_231 2017-09-28 12:45:00 231 11739.0 24.080 23.460 23.610 23.520 23.140 28.590 25.070 4.708 2.369 12.760 11.880 10.140 9.540 0.226 0.259 0.340 0.611 711.10 0.00 0.00 1.1400 241.20 27.45 1 1 0 24.160 23.570 23.750 23.420 23.670 7.134 5.633 24.020 23.190 23.330 22.780 23.390 2.896 0.186 2.0910 29.979 8.546 21.408 28.987 7.245 21.720
VANMET_231 2017-09-28 12:40:00 231 11739.0 24.410 23.650 23.780 23.810 22.980 24.630 22.730 2.846 1.226 12.720 11.880 10.140 9.540 0.226 0.259 0.340 0.611 714.70 0.00 0.00 1.6620 215.40 22.03 1 1 0 24.510 23.960 24.130 23.210 24.010 5.647 3.113 24.100 23.170 23.310 22.570 23.430 0.547 -1.150 2.5940 30.578 7.495 23.046 29.497 6.675 22.792
VANMET_231 2017-09-28 12:35:00 231 11739.0 24.070 23.820 24.050 23.790 22.990 27.990 25.830 4.422 3.031 12.680 11.890 10.140 9.540 0.226 0.259 0.340 0.611 715.00 0.00 0.00 0.7080 196.90 43.21 1 1 0 24.480 24.080 24.260 23.220 24.020 6.376 4.932 23.620 23.510 23.810 22.700 23.520 3.038 1.321 1.8550 29.961 8.377 21.575 29.461 7.594 21.852
VANMET_231 2017-09-28 12:30:00 231 11739.0 23.180 23.020 23.340 23.120 22.460 28.950 26.150 4.116 2.608 12.640 11.890 10.140 9.540 0.226 0.259 0.340 0.611 716.90 0.00 0.00 0.8580 191.90 32.89 1 1 0 23.620 23.460 23.780 22.890 23.510 6.353 6.311 22.860 22.590 22.930 21.910 22.790 1.438 0.494 1.6400 28.398 8.199 20.177 28.295 7.369 20.896
VANMET_231 2017-09-28 12:25:00 231 11739.0 22.950 22.530 22.830 22.770 21.890 25.870 24.340 2.345 1.351 12.600 11.890 10.140 9.540 0.226 0.259 0.340 0.611 719.80 0.00 0.00 0.6570 158.20 30.79 1 1 0 23.230 22.620 22.950 22.010 22.820 3.864 2.763 22.790 22.430 22.730 21.800 22.680 0.965 0.238 1.6920 28.006 7.232 20.761 27.703 6.735 20.960
VANMET_231 2017-09-28 12:20:00 231 11739.0 23.480 22.900 23.040 22.970 22.270 26.390 24.750 3.069 1.752 12.570 11.890 10.140 9.550 0.226 0.259 0.340 0.611 722.60 0.00 0.00 1.2170 176.40 41.56 1 1 0 23.570 23.070 23.190 22.510 23.070 4.903 3.875 23.300 22.680 22.830 21.880 22.880 1.128 0.504 2.2540 28.917 7.615 21.286 28.040 6.932 21.100
VANMET_231 2017-09-28 12:15:00 231 11739.0 23.610 22.900 23.070 23.080 22.360 26.530 25.440 3.260 2.197 12.530 11.900 10.140 9.550 0.226 0.259 0.340 0.611 723.90 0.00 0.00 1.3960 208.90 32.02 1 1 0 23.670 23.000 23.210 22.530 23.170 6.001 6.298 23.480 22.700 22.850 22.210 22.950 1.837 0.444 3.1690 29.144 7.718 21.412 28.227 7.156 21.046
VANMET_231 2017-09-28 12:10:00 231 11739.0 23.580 22.990 23.130 23.030 22.500 32.320 29.340 6.042 4.161 12.500 11.900 10.140 9.550 0.226 0.259 0.340 0.611 725.30 0.00 0.00 1.0140 192.60 37.81 1 1 0 23.690 23.060 23.200 22.900 23.100 7.967 6.824 23.460 22.840 22.990 22.170 22.950 3.556 2.126 2.1760 29.092 9.378 19.689 28.142 8.225 19.885
VANMET_231 2017-09-28 12:05:00 231 11739.0 23.350 22.740 22.850 22.790 22.450 30.410 28.280 4.983 3.478 12.460 11.900 10.140 9.550 0.226 0.259 0.340 0.611 723.80 0.00 0.00 1.1030 233.20 19.40 1 1 0 23.490 22.870 23.010 22.720 22.950 7.367 4.843 23.230 22.590 22.680 22.230 22.640 3.340 2.442 2.0710 28.691 8.712 19.966 27.736 7.838 19.892
VANMET_231 2017-09-28 12:00:00 231 11739.0 23.140 22.560 22.670 22.640 22.150 29.610 26.510 4.356 2.411 12.430 11.910 10.140 9.550 0.226 0.259 0.340 0.611 722.00 0.00 0.00 1.1410 233.70 36.98 1 1 0 23.270 22.730 22.850 22.480 22.780 7.840 4.419 22.980 22.280 22.360 21.730 22.420 1.564 0.459 2.6590 28.330 8.338 19.941 27.485 7.266 20.199
VANMET_231 2017-09-28 11:55:00 231 11739.0 23.140 22.460 22.560 22.610 22.110 25.460 24.000 2.284 1.013 12.400 11.910 10.140 9.550 0.226 0.259 0.340 0.611 724.40 0.00 0.00 1.4340 239.10 42.94 1 1 0 23.370 22.730 22.820 22.420 22.850 3.794 2.588 22.970 22.220 22.300 21.640 22.420 0.428 -0.703 2.6000 28.330 7.201 21.117 27.435 6.573 20.851
VANMET_231 2017-09-28 11:50:00 231 11739.0 23.280 22.710 22.800 22.750 22.520 30.070 28.780 4.764 3.640 12.370 11.910 10.140 9.550 0.226 0.259 0.340 0.611 722.50 0.00 0.00 1.4010 221.70 40.81 1 1 0 23.420 22.880 23.040 22.700 22.980 6.575 6.358 23.160 22.500 22.580 22.420 22.560 3.292 1.746 2.2410 28.570 8.580 19.979 27.669 7.928 19.706
VANMET_231 2017-09-28 11:45:00 231 11739.0 23.250 22.630 22.770 22.810 22.320 29.350 27.390 4.399 3.023 12.340 11.920 10.130 9.550 0.226 0.259 0.340 0.611 719.40 0.00 0.00 1.4710 229.70 24.04 1 1 0 23.330 22.800 22.970 22.530 22.940 6.026 5.417 23.160 22.400 22.470 22.090 22.560 2.889 1.560 2.9730 28.519 8.363 20.148 27.770 7.590 20.164
VANMET_231 2017-09-28 11:40:00 231 11739.0 23.010 22.690 22.970 22.950 22.310 32.860 29.230 5.813 4.086 12.320 11.920 10.130 9.550 0.226 0.259 0.340 0.611 716.20 0.00 0.00 0.8900 254.60 25.33 1 1 0 23.230 22.810 23.090 22.440 23.070 7.434 5.474 22.740 22.490 22.790 22.100 22.760 4.345 2.808 1.9930 28.108 9.230 18.872 28.006 8.182 19.820
VANMET_231 2017-09-28 11:35:00 231 11739.0 22.760 22.530 22.890 22.830 22.150 32.070 29.610 5.238 4.150 12.290 11.930 10.130 9.550 0.226 0.259 0.340 0.611 715.10 0.00 0.00 1.1290 221.30 21.09 1 1 0 22.830 22.590 23.000 22.350 22.940 6.851 5.572 22.690 22.450 22.730 21.810 22.750 3.576 2.402 2.3520 27.686 8.869 18.807 27.803 8.218 19.571
VANMET_231 2017-09-28 11:30:00 231 11739.0 22.940 22.590 22.830 22.820 22.320 31.520 28.330 5.150 3.522 12.270 11.930 10.130 9.550 0.226 0.259 0.340 0.612 711.60 0.00 0.00 1.0640 263.10 24.58 1 1 0 23.030 22.650 22.900 22.530 22.890 6.897 5.029 22.830 22.510 22.740 22.210 22.760 3.415 2.225 1.6330 27.989 8.814 19.167 27.787 7.863 19.915
VANMET_231 2017-09-28 11:25:00 231 11739.0 23.270 22.510 22.750 22.830 22.050 30.640 28.590 5.028 3.664 12.250 11.940 10.130 9.550 0.226 0.259 0.340 0.611 708.90 0.00 0.00 1.1070 222.10 37.08 1 1 0 23.640 22.860 23.140 22.180 23.210 7.374 4.891 23.010 22.400 22.580 21.970 22.650 3.660 2.499 1.9600 28.553 8.740 19.804 27.803 7.942 19.854
VANMET_231 2017-09-28 11:20:00 231 11739.0 23.630 23.030 23.400 23.220 21.940 30.490 29.110 5.267 4.242 12.230 11.940 10.130 9.550 0.226 0.259 0.340 0.612 702.50 0.00 0.00 0.7750 213.80 30.98 1 1 0 23.690 23.220 23.640 22.250 23.320 6.664 5.680 23.530 22.910 23.170 21.640 23.100 3.465 2.439 1.2280 29.179 8.887 20.283 28.467 8.272 20.180
VANMET_231 2017-09-28 11:15:00 231 11739.0 23.190 22.700 23.000 22.770 21.980 28.250 26.630 3.802 2.619 12.210 11.950 10.130 9.550 0.226 0.259 0.340 0.612 698.30 0.00 0.00 0.2850 231.10 68.28 1 1 0 23.600 23.160 23.570 22.210 23.220 4.877 3.618 22.880 22.470 22.670 21.730 22.440 2.474 1.839 0.6010 28.415 8.020 20.388 27.703 7.375 20.325
VANMET_231 2017-09-28 11:10:00 231 11739.0 22.530 22.230 22.450 22.240 21.540 28.800 27.300 3.507 2.510 12.190 11.950 10.130 9.550 0.226 0.259 0.340 0.612 696.20 0.00 0.00 0.6290 145.20 44.05 1 1 0 22.850 22.460 22.650 21.820 22.430 5.263 3.709 22.350 22.110 22.300 21.290 22.140 2.036 1.270 1.0910 27.302 7.854 19.439 26.825 7.318 19.502
VANMET_231 2017-09-28 11:05:00 231 11739.0 22.140 21.820 22.050 21.890 21.370 27.540 25.430 2.523 1.201 12.180 11.960 10.130 9.550 0.226 0.259 0.340 0.612 694.10 0.00 0.00 0.7230 178.50 60.18 1 1 0 22.320 22.130 22.410 21.790 22.180 4.798 2.471 22.060 21.540 21.750 21.230 21.720 0.669 -0.373 1.3980 26.663 7.325 19.320 26.259 6.663 19.582
VANMET_231 2017-09-28 11:00:00 231 11739.0 22.120 21.600 21.820 21.740 21.380 24.740 23.560 1.034 0.034 12.160 11.960 10.130 9.550 0.226 0.259 0.340 0.612 691.00 0.00 0.00 1.3110 220.60 17.43 1 1 0 22.170 21.640 21.880 21.520 21.780 2.916 1.666 22.070 21.540 21.770 21.270 21.690 0.338 -1.239 1.6660 26.630 6.583 20.042 26.020 6.123 19.890
VANMET_231 2017-09-28 10:55:00 231 11739.0 21.940 21.380 21.580 21.510 21.250 26.290 25.130 1.714 0.696 12.150 11.970 10.130 9.550 0.226 0.259 0.340 0.612 686.30 0.00 0.00 1.1610 204.80 41.42 1 1 0 22.110 21.600 21.840 21.360 21.670 3.284 2.437 21.880 21.260 21.450 21.160 21.450 -0.302 -1.365 1.8290 26.340 6.913 19.415 25.657 6.424 19.209
VANMET_231 2017-09-28 10:50:00 231 11739.0 21.960 21.410 21.620 21.590 21.200 28.290 26.910 2.749 1.727 12.140 11.970 10.130 9.550 0.226 0.259 0.340 0.612 679.80 0.00 0.00 1.2860 217.40 19.75 1 1 0 21.970 21.460 21.710 21.330 21.650 4.740 4.074 21.930 21.330 21.540 21.120 21.540 0.517 -0.422 2.0190 26.372 7.443 18.911 25.783 6.919 18.845
VANMET_231 2017-09-28 10:45:00 231 11739.0 21.870 21.300 21.540 21.510 20.910 34.930 33.920 5.658 4.922 12.130 11.980 10.120 9.550 0.226 0.259 0.340 0.612 674.90 0.00 0.00 0.9730 216.60 29.61 1 1 0 21.970 21.440 21.710 21.020 21.670 8.000 7.321 21.720 21.140 21.350 20.720 21.390 3.737 3.065 1.7380 26.227 9.131 17.066 25.657 8.675 16.954
VANMET_231 2017-09-28 10:40:00 231 11739.0 21.920 21.340 21.500 21.500 21.050 37.450 35.960 6.754 5.784 12.120 11.980 10.120 9.550 0.226 0.260 0.340 0.612 671.20 0.00 0.00 1.2010 215.50 18.18 1 1 0 21.950 21.440 21.610 21.250 21.550 7.816 7.301 21.880 21.270 21.420 20.760 21.450 5.730 4.079 1.6530 26.308 9.850 16.455 25.641 9.212 16.421
VANMET_231 2017-09-28 10:35:00 231 11739.0 21.910 21.350 21.540 21.490 21.020 33.780 31.910 5.198 4.033 12.120 11.990 10.120 9.550 0.226 0.260 0.340 0.612 664.10 0.00 0.00 1.4640 212.70 14.55 1 1 0 21.930 21.390 21.590 21.140 21.520 8.040 5.709 21.870 21.280 21.460 20.940 21.470 2.256 1.208 2.0380 26.292 8.844 17.410 25.626 8.151 17.448
VANMET_231 2017-09-28 10:30:00 231 11739.0 21.860 21.320 21.490 21.460 20.860 32.930 31.680 4.841 3.944 12.110 11.990 10.120 9.550 0.226 0.260 0.340 0.612 655.00 0.00 0.00 1.1910 219.90 15.46 1 1 0 21.900 21.380 21.570 21.060 21.530 5.979 5.063 21.820 21.250 21.410 20.720 21.400 3.421 2.900 1.7440 26.211 8.626 17.580 25.579 8.100 17.475
VANMET_231 2017-09-28 10:25:00 231 11739.0 21.860 21.260 21.420 21.430 20.860 32.350 31.260 4.548 3.703 12.110 12.000 10.120 9.550 0.226 0.260 0.340 0.612 647.40 0.00 0.00 1.1670 204.90 17.17 1 1 0 21.920 21.330 21.510 20.930 21.500 6.436 5.262 21.810 21.180 21.360 20.800 21.390 1.869 1.468 2.0120 26.211 8.451 17.732 25.532 7.964 17.550
VANMET_231 2017-09-28 10:20:00 231 11739.0 22.060 21.460 21.710 21.630 20.940 31.650 30.350 4.455 3.485 12.100 12.010 10.120 9.550 0.226 0.260 0.340 0.612 638.00 0.00 0.00 1.3510 227.10 19.44 1 1 0 22.190 21.590 21.900 21.050 21.770 5.226 4.899 21.920 21.320 21.500 20.820 21.490 3.733 2.371 1.9140 26.533 8.396 18.135 25.846 7.842 18.002
VANMET_231 2017-09-28 10:15:00 231 11739.0 22.030 21.590 21.810 21.570 20.700 30.580 28.710 3.902 2.616 12.100 12.010 10.120 9.550 0.226 0.260 0.340 0.612 627.80 0.00 0.00 0.7320 184.60 37.73 1 1 0 22.240 21.760 22.000 20.900 21.790 7.019 4.092 21.690 21.250 21.390 20.470 21.160 2.208 1.153 1.3590 26.485 8.076 18.386 25.751 7.373 18.358
VANMET_231 2017-09-28 10:10:00 231 11739.0 21.430 20.880 21.020 20.960 20.660 33.540 31.580 4.704 3.433 12.110 12.020 10.120 9.550 0.226 0.260 0.340 0.612 620.50 0.00 0.00 0.7370 198.40 43.38 1 1 0 21.660 21.260 21.380 21.190 21.170 7.654 5.482 21.310 20.710 20.840 20.440 20.860 2.991 1.622 1.5160 25.532 8.544 16.968 24.806 7.813 16.972
VANMET_231 2017-09-28 10:05:00 231 11739.0 21.440 20.770 20.880 20.930 20.230 34.870 33.000 5.288 4.057 12.110 12.020 10.120 9.550 0.226 0.260 0.340 0.612 610.80 0.00 0.00 1.0400 222.20 18.72 1 1 0 21.580 20.840 20.960 20.440 21.060 6.697 5.365 21.360 20.720 20.830 19.990 20.870 3.834 3.064 1.4700 25.547 8.900 16.639 24.761 8.165 16.590
VANMET_231 2017-09-28 10:00:00 231 11739.0 21.290 20.570 20.750 20.800 19.870 39.030 37.470 6.797 5.771 12.110 12.030 10.120 9.550 0.226 0.260 0.340 0.612 599.50 0.00 0.00 0.4930 168.00 37.96 1 1 0 21.590 20.930 21.090 20.040 21.050 7.610 6.490 21.130 20.320 20.520 19.650 20.690 5.866 4.764 1.1300 25.314 9.879 15.434 24.563 9.203 15.359
VANMET_231 2017-09-28 09:55:00 231 11739.0 21.370 20.650 20.820 20.920 19.510 39.970 38.460 7.176 6.231 12.120 12.030 10.120 9.550 0.226 0.260 0.340 0.612 589.40 0.00 0.00 0.6740 201.20 17.97 1 1 0 21.510 20.830 21.010 19.760 21.080 9.480 7.985 21.220 20.350 20.570 19.070 20.760 5.208 4.259 1.1500 25.438 10.140 15.270 24.745 9.501 15.228
VANMET_231 2017-09-28 09:50:00 231 11739.0 21.150 20.630 20.870 20.940 19.360 40.310 37.880 7.123 6.042 12.120 12.040 10.110 9.550 0.226 0.260 0.340 0.612 578.80 0.00 0.00 0.4320 152.20 52.94 1 1 0 21.330 20.820 21.020 19.630 21.010 8.440 7.880 20.940 20.500 20.760 19.140 20.830 4.746 3.934 0.7190 25.097 10.103 14.981 24.776 9.378 15.391
VANMET_231 2017-09-28 09:45:00 231 11739.0 20.710 20.420 20.870 20.830 19.290 40.840 37.040 6.934 5.625 12.130 12.040 10.110 9.550 0.226 0.260 0.340 0.612 569.90 0.00 0.00 0.3430 152.50 38.44 1 1 0 20.910 20.550 21.030 19.440 20.980 8.730 7.419 20.410 20.120 20.570 19.050 20.650 5.525 4.463 0.7580 24.428 9.973 14.451 24.609 9.111 15.494
VANMET_231 2017-09-28 09:40:00 231 11739.0 20.300 20.010 20.610 20.890 19.240 41.660 37.010 6.859 5.674 12.140 12.050 10.110 9.560 0.226 0.260 0.340 0.612 561.90 0.00 0.00 0.7170 205.10 17.15 1 1 0 20.370 20.070 20.860 19.380 21.120 8.200 6.386 20.260 19.950 20.430 19.010 20.640 5.997 4.806 1.1690 23.818 9.921 13.895 24.700 9.142 15.558
VANMET_231 2017-09-28 09:35:00 231 11739.0 19.930 19.810 20.560 20.890 19.180 45.940 39.090 7.942 6.454 12.150 12.060 10.110 9.560 0.226 0.260 0.340 0.612 550.20 0.00 0.00 0.6420 190.30 18.67 1 1 0 20.230 20.020 20.840 19.330 21.090 9.630 7.389 19.570 19.590 20.080 19.050 20.540 6.472 5.427 1.0910 23.279 10.685 12.585 24.700 9.649 15.045
VANMET_231 2017-09-28 09:30:00 231 11739.0 19.450 19.480 19.780 20.310 19.260 44.000 38.710 6.892 5.806 12.150 12.060 10.110 9.560 0.226 0.260 0.340 0.612 539.70 0.00 0.00 0.8700 203.20 13.06 1 1 0 19.550 19.570 20.020 19.420 20.490 7.333 6.380 19.390 19.420 19.710 19.130 20.210 6.038 4.914 1.3390 22.596 9.944 12.654 23.833 9.226 14.607
VANMET_231 2017-09-28 09:25:00 231 11739.0 19.340 19.410 19.780 20.300 19.340 44.870 37.530 7.071 5.349 12.170 12.070 10.110 9.560 0.226 0.260 0.340 0.612 528.90 0.00 0.00 0.7510 213.00 16.86 1 1 0 19.370 19.450 19.890 19.480 20.400 8.170 5.943 19.280 19.370 19.710 19.140 20.200 5.897 4.438 1.1370 22.442 10.067 12.372 23.818 8.937 14.879
VANMET_231 2017-09-28 09:20:00 231 11739.0 19.250 19.300 19.770 20.480 19.230 48.510 40.030 8.100 6.399 12.180 12.070 10.110 9.560 0.226 0.260 0.340 0.612 518.20 0.00 0.00 0.8520 217.30 17.19 1 1 0 19.290 19.380 19.830 19.490 20.630 9.720 8.310 19.200 19.140 19.660 19.040 20.340 5.576 4.553 1.2090 22.317 10.800 11.491 24.084 9.612 14.443
VANMET_231 2017-09-28 09:15:00 231 11739.0 19.200 19.090 19.910 21.090 18.810 46.320 35.770 7.380 5.350 12.190 12.080 10.110 9.560 0.226 0.260 0.340 0.612 504.20 0.00 0.00 0.6950 211.70 15.72 1 1 0 19.270 19.140 20.060 19.050 21.370 9.260 7.415 19.060 19.060 19.730 18.630 20.680 5.337 4.185 1.0910 22.247 10.282 11.942 25.005 8.938 16.061
VANMET_231 2017-09-28 09:10:00 231 11739.0 18.890 19.000 19.680 20.780 18.840 47.940 36.680 7.612 5.444 12.200 12.080 10.110 9.560 0.226 0.260 0.340 0.612 489.80 0.00 0.00 0.0000 0.00 0.00 1 1 0 19.020 19.050 19.920 19.160 21.110 9.110 6.656 18.730 18.920 19.600 18.600 20.620 6.166 4.354 0.0000 21.821 10.447 11.360 24.533 8.997 15.534
VANMET_231 2017-09-28 09:05:00 231 11739.0 18.740 18.980 19.890 20.770 18.210 54.100 41.190 9.230 7.065 12.210 12.090 10.110 9.560 0.226 0.260 0.340 0.612 475.40 0.00 0.00 0.3070 199.60 19.11 1 1 0 18.780 19.020 20.000 18.590 20.840 10.490 9.510 18.690 18.920 19.700 18.030 20.690 5.911 4.193 0.7970 21.618 11.659 9.923 24.518 10.063 14.419
VANMET_231 2017-09-28 09:00:00 231 11739.0 18.470 18.800 19.910 20.500 18.620 49.610 37.090 7.731 5.336 12.230 12.100 10.110 9.560 0.226 0.260 0.340 0.612 462.00 0.00 0.00 0.1940 140.80 19.28 1 1 0 18.660 18.920 19.960 18.860 20.670 9.570 7.718 18.250 18.630 19.750 18.100 20.240 5.961 4.384 0.7120 21.256 10.532 10.711 24.114 8.929 15.170
VANMET_231 2017-09-28 08:55:00 231 11739.0 18.040 18.380 19.270 20.030 17.850 53.000 41.020 8.310 6.363 12.240 12.100 10.110 9.560 0.226 0.260 0.340 0.612 448.60 0.00 0.00 0.2020 188.10 14.12 1 1 0 18.210 18.600 19.700 18.030 20.230 9.510 7.851 17.810 18.240 18.910 17.680 19.820 6.665 4.554 0.7060 20.690 10.956 9.724 23.424 9.588 13.815
VANMET_231 2017-09-28 08:50:00 231 11739.0 17.650 18.270 19.050 19.860 18.000 54.570 41.090 8.370 6.256 12.250 12.110 10.100 9.560 0.226 0.260 0.340 0.612 435.80 0.00 0.00 0.2010 226.50 7.71 1 1 0 17.790 18.360 19.240 18.160 19.940 9.880 8.150 17.510 18.230 18.900 17.790 19.770 7.056 5.274 0.8690 20.188 11.000 9.171 23.178 9.518 13.654
VANMET_231 2017-09-28 08:45:00 231 11739.0 17.180 18.200 19.220 19.750 18.390 52.670 36.980 7.425 4.631 12.270 12.110 10.100 9.560 0.226 0.260 0.340 0.612 424.40 0.00 0.00 0.6130 155.20 45.38 1 1 0 17.500 18.410 19.270 18.840 19.880 8.770 6.431 16.990 17.940 19.130 18.090 19.610 5.741 2.502 1.2020 19.597 10.314 9.275 23.021 8.501 14.508
VANMET_231 2017-09-28 08:40:00 231 11739.0 16.850 17.950 19.290 19.810 18.190 52.980 34.520 7.192 3.703 12.280 12.120 10.100 9.560 0.226 0.260 0.340 0.612 409.80 0.00 0.00 0.2770 105.50 77.80 1 1 0 16.990 18.160 19.410 18.690 19.950 8.610 5.615 16.780 17.850 19.160 17.810 19.540 3.570 1.955 1.2220 19.192 10.151 9.024 23.107 7.964 15.130
VANMET_231 2017-09-28 08:35:00 231 11739.0 16.820 17.770 19.070 19.470 17.670 53.420 35.860 7.312 3.960 12.290 12.120 10.100 9.560 0.226 0.260 0.340 0.612 396.10 0.00 0.00 0.0560 137.00 9.18 1 1 0 16.860 17.850 19.160 18.070 19.580 8.090 4.689 16.770 17.690 18.940 17.380 19.360 6.472 2.365 0.3850 19.155 10.235 8.923 22.624 8.109 14.511
VANMET_231 2017-09-28 08:30:00 231 11739.0 16.600 17.510 18.730 18.900 17.570 53.830 35.980 7.212 3.493 12.310 12.130 10.100 9.560 0.226 0.260 0.340 0.612 383.50 0.00 0.00 0.0980 208.20 3.35 1 1 0 16.800 17.690 19.020 18.100 19.310 8.060 5.704 16.310 17.230 18.230 16.960 18.460 6.485 2.076 0.4180 18.890 10.165 8.721 21.835 7.847 13.979
VANMET_231 2017-09-28 08:25:00 231 11739.0 15.950 16.750 17.710 17.980 17.210 56.720 39.270 7.372 3.913 12.320 12.130 10.100 9.560 0.226 0.260 0.340 0.612 370.30 0.00 0.00 0.3580 195.10 39.10 1 1 0 16.290 17.280 18.270 17.910 18.460 8.300 5.596 15.770 16.210 17.270 16.100 17.740 6.114 2.624 0.6340 18.123 10.277 7.844 20.612 8.083 12.518
VANMET_231 2017-09-28 08:20:00 231 11739.0 15.840 16.450 17.480 17.800 16.590 54.070 38.830 6.565 3.581 12.340 12.140 10.100 9.560 0.226 0.260 0.340 0.612 357.20 0.00 0.00 0.5700 49.90 38.82 1 1 0 15.900 16.600 17.640 16.880 17.910 7.818 4.905 15.760 16.320 17.350 16.410 17.700 4.938 1.095 1.0780 17.996 9.723 8.266 20.380 7.895 12.466
VANMET_231 2017-09-28 08:15:00 231 11739.0 15.520 16.340 17.390 17.670 16.600 52.530 37.980 5.788 3.134 12.350 12.140 10.100 9.560 0.226 0.260 0.340 0.612 342.50 0.00 0.00 0.5990 32.96 40.84 1 1 0 15.770 16.720 17.620 17.180 17.770 7.585 4.597 15.410 16.120 17.260 16.200 17.580 2.221 0.821 0.9930 17.631 9.214 8.370 20.213 7.650 12.536
VANMET_231 2017-09-28 08:10:00 231 11739.0 15.470 16.310 17.400 17.720 16.560 54.060 37.150 6.226 2.900 12.360 12.150 10.100 9.560 0.226 0.260 0.340 0.612 327.90 0.00 0.00 0.5450 356.20 49.90 1 1 0 15.550 16.500 17.540 17.040 17.820 6.931 4.124 15.390 16.180 17.300 16.280 17.640 5.000 0.984 1.0260 17.575 9.498 8.074 20.277 7.524 12.744
VANMET_231 2017-09-28 08:05:00 231 11739.0 15.170 16.200 17.330 17.610 16.620 52.530 37.050 5.500 2.742 12.380 12.150 10.100 9.560 0.226 0.260 0.340 0.612 312.80 0.00 0.00 0.8440 30.92 32.54 1 1 0 15.500 16.510 17.550 16.970 17.740 6.766 4.590 14.920 15.890 17.130 16.250 17.520 3.033 0.961 1.8100 17.239 9.032 8.184 20.137 7.440 12.676
VANMET_231 2017-09-28 08:00:00 231 11739.0 14.950 16.000 17.190 17.620 16.550 54.170 36.990 5.779 2.750 12.390 12.160 10.100 9.560 0.226 0.260 0.340 0.612 296.90 0.00 0.00 0.6210 43.91 39.05 1 1 0 15.060 16.220 17.380 16.850 17.750 6.252 3.919 14.850 15.770 17.020 16.040 17.470 5.130 1.578 1.2870 16.997 9.208 7.790 20.150 7.444 12.696
VANMET_231 2017-09-28 07:55:00 231 11739.0 14.890 15.900 16.920 17.430 16.230 52.900 38.120 5.385 3.017 12.410 12.160 10.100 9.560 0.226 0.260 0.340 0.612 247.70 0.00 0.00 0.5450 48.85 26.62 1 1 0 14.930 16.010 16.980 16.640 17.470 6.030 3.851 14.820 15.710 16.850 15.930 17.400 4.764 1.736 1.1690 16.932 8.960 7.975 19.910 7.586 12.320
VANMET_231 2017-09-28 07:50:00 231 11739.0 -32.680 15.740 16.570 17.030 16.600 52.080 35.350 -39.220 1.570 12.420 12.170 10.090 9.560 0.226 0.260 0.340 0.612 253.70 0.00 0.00 0.5880 50.77 23.30 1 1 0 14.820 16.030 16.970 16.890 17.450 5.313 4.267 -38.190 15.470 16.170 16.220 16.550 -44.650 -0.432 1.1170 0.387 0.200 0.186 19.412 6.842 12.550
VANMET_231 2017-09-28 07:45:00 231 11739.0 -38.270 15.120 15.780 16.240 15.950 51.690 39.280 -44.490 2.373 12.440 12.170 10.090 9.560 0.226 0.260 0.340 0.612 100.20 0.00 0.00 0.7160 57.55 20.17 1 1 0 -38.200 15.380 16.040 16.230 16.490 -44.030 3.212 -38.300 14.810 15.620 15.640 16.050 -44.840 0.763 1.4240 0.221 0.114 0.107 18.462 7.247 11.210
VANMET_231 2017-09-28 07:40:00 231 11739.0 -38.320 14.660 15.630 16.030 15.710 55.090 39.950 -43.960 2.406 12.450 12.180 10.090 9.560 0.226 0.260 0.340 0.612 56.29 0.00 0.00 0.4200 49.89 22.00 1 1 0 -38.300 14.750 15.690 15.920 16.080 -43.330 3.244 -38.340 14.590 15.530 15.550 15.980 -44.320 0.187 0.8300 0.220 0.120 0.099 18.216 7.264 10.939
VANMET_231 2017-09-28 07:35:00 231 11739.0 -38.340 14.630 15.660 15.940 15.590 55.440 39.200 -43.920 2.066 12.470 12.180 10.090 9.560 0.226 0.260 0.340 0.612 139.60 0.00 0.00 0.5210 9.09 37.36 1 1 0 -38.340 14.760 15.840 15.990 16.040 -43.390 3.216 -38.350 14.410 15.490 15.150 15.760 -44.360 0.035 0.8100 0.219 0.121 0.098 18.112 7.090 11.012
VANMET_231 2017-09-28 07:30:00 231 11739.0 -38.310 14.390 15.290 15.540 15.100 54.610 39.980 -44.040 1.978 12.480 12.190 10.090 9.560 0.226 0.260 0.340 0.612 149.70 0.00 0.00 0.9410 35.86 24.10 1 1 0 -38.290 14.520 15.520 15.360 15.740 -43.480 3.070 -38.340 14.270 15.080 14.910 15.400 -45.050 0.468 1.5940 0.220 0.119 0.100 17.654 7.045 10.596
VANMET_231 2017-09-28 07:25:00 231 11739.0 -38.230 13.930 14.720 15.130 14.660 55.750 41.220 -43.770 2.057 12.500 12.190 10.090 9.570 0.226 0.260 0.340 0.612 153.60 0.00 0.00 0.6230 21.84 18.07 1 1 0 -38.220 14.230 15.050 15.360 15.350 -42.940 2.714 -38.280 13.800 14.570 14.260 15.060 -44.280 1.432 0.8300 0.222 0.123 0.098 17.195 7.085 10.107
VANMET_231 2017-09-28 07:20:00 231 11739.0 -38.220 13.580 14.250 14.800 14.150 55.420 41.720 -43.810 1.915 12.520 12.200 10.090 9.570 0.226 0.260 0.340 0.612 154.30 0.00 0.00 0.9100 9.52 17.16 1 1 0 -38.220 13.790 14.550 14.530 15.020 -43.020 2.712 -38.220 13.450 14.070 13.870 14.670 -44.660 0.383 1.2870 0.222 0.122 0.099 16.834 7.013 9.811
VANMET_231 2017-09-28 07:15:00 231 11739.0 -38.220 13.350 14.040 14.590 14.230 56.540 42.640 -43.620 2.045 12.530 12.200 10.090 9.570 0.226 0.260 0.340 0.612 158.80 0.00 0.00 0.7130 9.47 15.81 1 1 0 -38.210 13.450 14.120 14.470 14.770 -42.910 2.700 -38.220 13.250 13.820 14.030 14.220 -43.970 0.578 1.0000 0.222 0.125 0.096 16.607 7.079 9.526
VANMET_231 2017-09-28 07:10:00 231 11739.0 -38.220 13.060 13.630 13.930 13.860 55.970 44.230 -43.720 1.960 12.550 12.200 10.090 9.570 0.226 0.260 0.340 0.612 79.15 0.00 0.00 0.8080 22.97 16.05 1 1 0 -38.220 13.220 13.790 14.090 14.160 -43.040 2.249 -38.220 12.940 13.540 13.750 13.780 -44.090 1.436 1.0780 0.222 0.124 0.098 15.912 7.036 8.874
VANMET_231 2017-09-28 07:05:00 231 11739.0 -38.220 12.830 13.360 13.540 13.680 57.020 44.070 -43.550 1.544 12.560 12.210 10.090 9.570 0.226 0.260 0.340 0.612 21.50 0.00 0.00 0.9510 10.89 14.96 1 1 0 -38.220 12.970 13.560 14.090 13.790 -42.570 2.561 -38.220 12.670 13.180 13.270 13.410 -44.150 -0.053 1.5220 0.222 0.126 0.095 15.514 6.829 8.677
VANMET_231 2017-09-28 07:00:00 231 11739.0 -38.220 12.670 13.200 13.410 13.340 57.700 45.250 -43.440 1.801 12.580 12.210 10.080 9.570 0.226 0.260 0.340 0.612 19.49 0.00 0.00 1.1190 11.06 12.18 1 1 0 -38.210 12.760 13.240 13.470 13.430 -42.820 2.504 -38.220 12.600 13.150 13.170 13.380 -44.060 1.525 1.4830 0.222 0.127 0.094 15.383 6.956 8.422
VANMET_231 2017-09-28 06:55:00 231 11739.0 -38.220 12.730 13.220 13.430 13.370 56.490 45.360 -43.630 1.855 12.590 12.220 10.080 9.570 0.226 0.260 0.340 0.612 17.99 0.00 0.00 0.9710 11.55 6.66 1 1 0 -38.210 12.780 13.240 13.590 13.490 -42.700 2.312 -38.220 12.670 13.180 13.240 13.390 -44.130 1.380 1.2350 0.222 0.125 0.097 15.403 6.983 8.416
VANMET_231 2017-09-28 06:50:00 231 11739.0 -38.210 12.860 13.330 13.550 13.500 55.600 44.250 -43.780 1.616 12.610 12.220 10.080 9.570 0.226 0.260 0.340 0.612 16.44 0.00 0.00 0.9520 3.89 14.13 1 1 0 -38.210 12.930 13.400 13.740 13.590 -43.020 2.003 -38.220 12.750 13.250 13.280 13.490 -44.430 1.175 1.1830 0.222 0.123 0.099 15.524 6.865 8.655
VANMET_231 2017-09-28 06:45:00 231 11739.0 -38.210 12.850 13.340 13.570 13.560 55.100 43.760 -43.870 1.477 12.620 12.230 10.080 9.570 0.226 0.260 0.340 0.612 14.83 0.00 0.00 0.8780 20.95 13.50 1 1 0 -38.210 12.910 13.370 13.720 13.600 -42.650 2.503 -38.220 12.810 13.320 13.460 13.540 -44.610 1.104 1.2610 0.222 0.122 0.100 15.544 6.796 8.742
VANMET_231 2017-09-28 06:40:00 231 11739.0 -38.210 12.880 13.370 13.610 13.570 54.200 42.280 -44.010 1.035 12.640 12.230 10.080 9.570 0.227 0.260 0.340 0.612 13.24 0.00 0.00 0.9930 10.81 13.02 1 1 0 -38.210 12.910 13.380 13.620 13.620 -43.050 1.431 -38.210 12.840 13.340 13.450 13.580 -44.620 0.620 1.2280 0.222 0.120 0.102 15.585 6.583 8.995
VANMET_231 2017-09-28 06:35:00 231 11739.0 -38.210 12.930 13.410 13.660 13.540 52.470 41.130 -44.310 0.703 12.650 12.230 10.080 9.570 0.227 0.260 0.340 0.612 11.62 0.00 0.00 1.0420 15.09 19.36 1 1 0 -38.210 12.980 13.460 13.720 13.700 -43.500 1.766 -38.210 12.850 13.360 13.380 13.600 -45.050 0.162 1.5420 0.222 0.116 0.106 15.635 6.427 9.205
VANMET_231 2017-09-28 06:30:00 231 11739.0 -38.210 12.940 13.420 13.700 13.610 51.520 40.970 -44.480 0.688 12.670 12.240 10.080 9.570 0.227 0.260 0.340 0.612 9.77 0.00 0.00 1.0340 6.73 11.44 1 1 0 -38.210 13.050 13.500 13.800 13.740 -43.510 0.978 -38.210 12.820 13.320 13.420 13.660 -45.080 0.386 1.2870 0.222 0.114 0.108 15.676 6.420 9.254
VANMET_231 2017-09-28 06:25:00 231 11739.0 -38.210 12.910 13.430 13.770 13.570 51.140 39.920 -44.540 0.389 12.680 12.240 10.080 9.570 0.227 0.260 0.340 0.612 7.86 0.00 0.00 0.9880 11.38 14.20 1 1 0 -38.210 12.990 13.520 13.810 13.820 -44.140 0.708 -38.210 12.820 13.340 13.260 13.710 -45.150 -0.072 1.2020 0.222 0.113 0.109 15.748 6.283 9.461
VANMET_231 2017-09-28 06:20:00 231 11739.0 -38.210 12.970 13.470 13.720 13.640 51.110 39.760 -44.550 0.284 12.700 12.250 10.080 9.570 0.227 0.260 0.340 0.612 5.87 0.00 0.00 0.9150 8.03 27.31 1 1 0 -38.210 13.020 13.500 13.890 13.750 -43.840 0.936 -38.210 12.900 13.430 13.400 13.690 -45.080 -0.176 1.4440 0.222 0.113 0.109 15.697 6.235 9.456
VANMET_231 2017-09-28 06:15:00 231 11739.0 -38.210 12.860 13.350 13.640 13.720 50.300 39.330 -44.690 0.064 12.720 12.250 10.080 9.570 0.227 0.260 0.340 0.612 3.91 0.00 0.00 0.9390 19.11 12.66 1 1 0 -38.210 13.000 13.490 13.800 13.750 -43.800 0.285 -38.210 12.660 13.180 13.530 13.490 -45.180 -0.263 1.4370 0.222 0.111 0.110 15.615 6.136 9.474
VANMET_231 2017-09-28 06:10:00 231 11739.0 -38.210 12.570 13.100 13.390 13.320 52.320 40.830 -44.340 0.357 12.730 12.250 10.070 9.570 0.227 0.260 0.340 0.612 1.89 0.00 0.00 1.0010 351.60 18.58 1 1 0 -38.210 12.640 13.180 13.640 13.480 -43.180 1.225 -38.210 12.500 13.040 13.130 13.350 -44.890 -0.174 1.5940 0.222 0.115 0.106 15.363 6.268 9.090
VANMET_231 2017-09-28 06:05:00 231 11739.0 -38.210 12.690 13.170 13.410 13.300 51.510 39.490 -44.480 -0.085 12.750 12.260 10.070 9.570 0.227 0.260 0.340 0.612 0.32 0.00 0.00 0.9450 4.06 35.48 1 1 0 -38.210 12.750 13.230 13.430 13.430 -43.760 0.440 -38.210 12.570 13.080 13.110 13.380 -45.020 -0.447 1.3650 0.222 0.114 0.108 15.383 6.070 9.308
VANMET_231 2017-09-28 06:00:00 231 11739.0 -38.210 12.660 13.120 13.380 13.350 51.790 40.030 -44.430 0.072 12.760 12.260 10.070 9.570 0.227 0.260 0.340 0.612 0.00 0.00 0.00 0.9440 12.43 14.27 1 1 0 -38.210 12.720 13.170 13.480 13.440 -43.440 0.662 -38.210 12.600 13.080 13.230 13.330 -45.050 -0.716 1.3070 0.222 0.114 0.107 15.353 6.140 9.207
VANMET_231 2017-09-28 05:55:00 231 11739.0 -38.210 12.660 13.120 13.410 13.300 51.920 40.800 -44.400 0.366 12.780 12.270 10.070 9.570 0.226 0.260 0.340 0.612 0.00 0.00 0.00 0.8980 357.50 15.37 1 1 0 -38.210 12.700 13.170 13.480 13.470 -43.890 0.815 -38.210 12.590 13.060 13.080 13.350 -44.930 0.051 1.1370 0.222 0.115 0.107 15.383 6.272 9.107
VANMET_231 2017-09-28 05:50:00 231 11739.0 -38.210 12.610 13.100 13.380 13.290 54.060 42.280 -44.030 0.828 12.790 12.270 10.070 9.570 0.226 0.260 0.340 0.612 0.00 0.00 0.00 0.9250 9.78 13.84 1 1 0 -38.200 12.700 13.170 13.540 13.440 -43.240 1.405 -38.210 12.510 13.010 13.040 13.320 -44.590 0.063 1.3260 0.222 0.119 0.102 15.353 6.486 8.862
VANMET_231 2017-09-28 05:45:00 231 11739.0 -38.210 12.660 13.150 13.470 13.400 53.570 42.130 -44.110 0.869 12.810 12.270 10.070 9.570 0.227 0.260 0.340 0.612 0.00 0.00 0.00 0.9340 11.66 16.38 1 1 0 -38.200 12.720 13.190 13.540 13.510 -43.400 1.394 -38.210 12.510 13.040 13.280 13.440 -44.730 0.591 1.3460 0.222 0.118 0.103 15.443 6.505 8.937
VANMET_231 2017-09-28 05:40:00 231 11739.0 -38.200 12.420 13.010 13.500 13.200 54.260 41.750 -43.990 0.763 12.830 12.280 10.070 9.570 0.227 0.260 0.340 0.612 0.00 0.00 0.00 0.9480 355.70 19.06 1 1 0 -38.200 12.510 13.150 13.440 13.640 -43.110 1.345 -38.210 12.320 12.950 12.930 13.430 -44.740 0.577 1.6990 0.222 0.120 0.102 15.473 6.455 9.013
VANMET_231 2017-09-28 05:35:00 231 11739.0 -38.200 12.710 13.280 13.680 13.370 53.260 40.090 -44.170 0.361 12.840 12.280 10.070 9.570 0.227 0.260 0.340 0.612 0.00 0.00 0.00 0.9320 350.30 29.58 1 1 0 -38.200 12.830 13.380 13.490 13.710 -43.330 0.713 -38.210 12.560 13.190 13.170 13.650 -45.050 -0.255 1.4900 0.222 0.118 0.104 15.656 6.270 9.379
VANMET_231 2017-09-28 05:30:00 231 11739.0 -38.200 12.830 13.420 13.820 13.320 53.350 40.250 -44.150 0.550 12.860 12.280 10.070 9.570 0.227 0.260 0.340 0.612 0.00 0.00 0.00 0.9530 346.10 35.02 1 1 0 -38.200 13.090 13.700 13.620 14.040 -43.390 1.275 -38.200 12.610 13.190 13.020 13.620 -45.300 -0.296 1.3720 0.222 0.118 0.104 15.799 6.357 9.440
VANMET_231 2017-09-28 05:25:00 231 11739.0 -38.200 13.260 13.850 14.120 13.970 50.510 38.570 -44.650 0.221 12.870 12.290 10.070 9.570 0.227 0.260 0.340 0.612 0.00 0.00 0.00 0.8700 354.00 31.90 1 1 0 -38.200 13.390 13.990 14.340 14.220 -43.930 1.693 -38.200 13.100 13.670 13.560 14.050 -45.360 -0.406 1.6200 0.222 0.112 0.110 16.110 6.207 9.896
VANMET_231 2017-09-28 05:20:00 231 11739.0 -38.200 13.080 13.620 13.900 13.850 50.330 38.820 -44.690 0.113 12.890 12.290 10.060 9.570 0.226 0.260 0.340 0.612 0.00 0.00 0.00 1.1210 10.46 37.41 1 1 0 -38.200 13.380 13.890 14.330 14.080 -44.040 0.815 -38.200 12.820 13.390 13.380 13.790 -45.820 -0.925 1.9670 0.222 0.111 0.110 15.881 6.158 9.716
VANMET_231 2017-09-28 05:15:00 231 11739.0 -38.200 13.140 13.680 13.950 13.870 50.610 38.770 -44.630 0.149 12.910 12.290 10.060 9.570 0.227 0.260 0.340 0.612 0.00 0.00 0.00 0.7490 4.21 35.06 1 1 0 -38.200 13.290 13.850 14.490 14.050 -43.800 0.640 -38.200 12.920 13.480 13.340 13.790 -45.240 -0.611 1.3650 0.222 0.112 0.110 15.933 6.174 9.756
VANMET_231 2017-09-28 05:10:00 231 11739.0 -38.200 12.660 13.270 13.560 13.540 52.170 40.300 -44.360 0.323 12.920 12.300 10.060 9.570 0.227 0.260 0.340 0.612 0.00 0.00 0.00 0.9780 22.38 28.33 1 1 0 -38.200 13.040 13.590 14.210 13.750 -43.640 0.946 -38.200 12.480 13.080 13.160 13.470 -45.460 -0.495 1.7250 0.222 0.115 0.106 15.534 6.253 9.274
VANMET_231 2017-09-28 05:05:00 231 11739.0 -38.200 12.510 13.080 13.430 13.380 54.440 41.670 -43.960 0.673 12.940 12.300 10.060 9.570 0.227 0.260 0.340 0.612 0.00 0.00 0.00 0.8560 8.45 34.93 1 1 0 -38.200 12.830 13.350 14.130 13.570 -43.170 1.232 -38.200 12.270 12.850 13.060 13.250 -45.160 0.191 1.5480 0.222 0.120 0.101 15.403 6.413 8.985
VANMET_231 2017-09-28 05:00:00 231 11739.0 -38.200 12.140 12.840 13.250 13.010 58.340 43.590 -43.320 1.120 12.960 12.300 10.060 9.570 0.227 0.260 0.340 0.612 0.00 0.00 0.00 0.9090 1.62 38.43 1 1 0 -38.200 12.420 13.110 13.550 13.370 -42.540 2.751 -38.200 12.000 12.660 12.620 13.120 -44.810 -0.065 1.8620 0.222 0.129 0.093 15.223 6.624 8.587
VANMET_231 2017-09-28 04:55:00 231 11739.0 -38.200 12.290 12.890 13.230 12.980 60.570 45.570 -42.980 1.728 12.970 12.310 10.060 9.570 0.227 0.260 0.340 0.612 0.00 0.00 0.00 0.8250 14.58 54.03 1 1 0 -38.190 12.480 13.070 13.400 13.340 -41.820 2.871 -38.200 11.990 12.610 12.400 13.090 -44.020 1.064 1.4110 0.222 0.134 0.088 15.203 6.920 8.275
VANMET_231 2017-09-28 04:50:00 231 11739.0 -38.200 12.110 12.740 13.100 12.910 60.040 45.780 -43.050 1.669 12.990 12.310 10.060 9.570 0.227 0.260 0.340 0.612 0.00 0.00 0.00 0.7030 3.40 36.86 1 1 0 -38.190 12.410 12.970 13.280 13.210 -42.460 2.911 -38.200 11.950 12.550 12.590 13.010 -43.990 0.669 1.2540 0.222 0.133 0.089 15.075 6.891 8.173
VANMET_231 2017-09-28 04:45:00 231 11739.0 -38.190 12.210 12.850 13.240 13.070 58.900 45.090 -43.230 1.592 13.000 12.310 10.060 9.570 0.227 0.260 0.340 0.612 0.00 0.00 0.00 0.7710 25.41 41.78 1 1 0 -38.190 12.440 13.060 13.820 13.310 -42.290 2.822 -38.200 12.060 12.690 12.580 13.110 -44.500 0.721 1.2280 0.223 0.130 0.091 15.213 6.853 8.354
VANMET_231 2017-09-28 04:40:00 231 11739.0 -38.190 12.160 12.850 13.350 12.770 59.730 44.270 -43.090 1.446 13.020 12.310 10.060 9.570 0.227 0.260 0.340 0.612 0.00 0.00 0.00 0.7340 12.73 36.15 1 1 0 -38.190 12.410 13.110 12.980 13.520 -42.400 2.138 -38.190 12.010 12.700 12.590 13.250 -43.950 0.915 1.0580 0.223 0.132 0.090 15.323 6.781 8.539
VANMET_231 2017-09-28 04:35:00 231 11739.0 -38.190 12.660 13.310 13.620 13.420 56.570 42.510 -43.600 1.113 13.040 12.320 10.060 9.570 0.227 0.260 0.340 0.612 0.00 0.00 0.00 0.6380 18.56 51.43 1 1 0 -38.190 12.890 13.520 14.090 13.740 -42.760 3.294 -38.190 12.420 13.100 12.680 13.490 -44.430 0.420 1.5810 0.223 0.125 0.097 15.595 6.621 8.965
VANMET_231 2017-09-28 04:30:00 231 11739.0 -38.190 12.710 13.300 13.590 13.550 55.260 42.130 -43.810 0.967 13.050 12.320 10.060 9.570 0.227 0.260 0.340 0.612 0.00 0.00 0.00 0.6090 17.99 38.97 1 1 0 -38.190 12.970 13.500 14.220 13.690 -43.240 1.745 -38.190 12.530 13.120 13.070 13.490 -45.080 0.195 1.1240 0.223 0.122 0.100 15.564 6.551 9.007
VANMET_231 2017-09-28 04:25:00 231 11739.0 -38.190 12.180 12.770 13.090 13.020 57.740 43.980 -43.410 1.102 13.070 12.320 10.060 9.570 0.227 0.260 0.340 0.612 0.00 0.00 0.00 1.2530 40.46 35.96 1 1 0 -38.180 12.660 13.270 13.840 13.450 -42.650 2.062 -38.190 11.820 12.440 12.340 12.880 -44.450 0.034 3.5740 0.223 0.128 0.094 15.065 6.615 8.439
VANMET_231 2017-09-28 04:20:00 231 11739.0 -38.180 12.200 12.830 13.380 12.880 58.970 45.380 -43.200 1.810 13.090 12.320 10.050 9.570 0.227 0.260 0.340 0.612 0.00 0.00 0.00 0.9490 36.71 43.99 1 1 0 -38.180 12.430 13.040 13.440 13.560 -42.500 2.747 -38.190 12.040 12.640 12.520 13.130 -43.810 0.863 1.5880 0.223 0.131 0.091 15.353